<?xml version="1.0" encoding="UTF-8" standalone="no" ?>
<gpx xmlns="http://www.topografix.com/GPX/1/1" xmlns:xsi="http://www.w3.org/2001/XMLSchema-instance" xsi:schemaLocation="http://www.topografix.com/GPX/1/1 http://www.topografix.com/GPX/1/1/gpx.xsd" version="1.1" creator="VisuGPX - https://www.visugpx.com">
  <metadata>
    <name>Boucle Fontainebleau - Recloses - Bourron Marlotte</name>
    <desc><![CDATA[Rando RCY menée par Jean Marc et Brigitte]]></desc>
  </metadata>
  <trk>
    <name><![CDATA[SityTrail - Fontainebleau - Recloses - Bourron Marlotte]]></name>
    <desc><![CDATA[Rando RCY menée par Jean Marc et Brigitte]]></desc>
    <trkseg>
      <trkpt lat="48.37717" lon="2.67913">
        <ele>102</ele>
        <time>2021-12-08T08:29:24.836Z</time>
      </trkpt>
      <trkpt lat="48.37717" lon="2.67913">
        <ele>102</ele>
        <time>2021-12-08T08:30:06.226Z</time>
      </trkpt>
      <trkpt lat="48.37718" lon="2.67922">
        <ele>102</ele>
        <time>2021-12-08T08:30:11.225Z</time>
      </trkpt>
      <trkpt lat="48.37719" lon="2.67933">
        <ele>101</ele>
        <time>2021-12-08T08:30:16.222Z</time>
      </trkpt>
      <trkpt lat="48.37721" lon="2.6794">
        <ele>101</ele>
        <time>2021-12-08T08:30:20.230Z</time>
      </trkpt>
      <trkpt lat="48.37723" lon="2.67948">
        <ele>101</ele>
        <time>2021-12-08T08:30:25.223Z</time>
      </trkpt>
      <trkpt lat="48.37725" lon="2.67954">
        <ele>101</ele>
        <time>2021-12-08T08:30:29.222Z</time>
      </trkpt>
      <trkpt lat="48.3773" lon="2.67958">
        <ele>101</ele>
        <time>2021-12-08T08:30:33.226Z</time>
      </trkpt>
      <trkpt lat="48.37735" lon="2.6796">
        <ele>99</ele>
        <time>2021-12-08T08:30:37.341Z</time>
      </trkpt>
      <trkpt lat="48.37735" lon="2.67961">
        <ele>99</ele>
        <time>2021-12-08T08:30:42.236Z</time>
      </trkpt>
      <trkpt lat="48.37739" lon="2.67953">
        <ele>102</ele>
        <time>2021-12-08T08:40:03.228Z</time>
      </trkpt>
      <trkpt lat="48.37739" lon="2.67953">
        <ele>102</ele>
        <time>2021-12-08T08:40:08.222Z</time>
      </trkpt>
      <trkpt lat="48.3774" lon="2.67953">
        <ele>102</ele>
        <time>2021-12-08T08:40:13.252Z</time>
      </trkpt>
      <trkpt lat="48.3774" lon="2.67953">
        <ele>102</ele>
        <time>2021-12-08T08:40:18.226Z</time>
      </trkpt>
      <trkpt lat="48.37743" lon="2.67952">
        <ele>102</ele>
        <time>2021-12-08T08:40:22.248Z</time>
      </trkpt>
      <trkpt lat="48.37747" lon="2.67951">
        <ele>102</ele>
        <time>2021-12-08T08:40:26.223Z</time>
      </trkpt>
      <trkpt lat="48.3775" lon="2.67949">
        <ele>102</ele>
        <time>2021-12-08T08:40:31.221Z</time>
      </trkpt>
      <trkpt lat="48.37751" lon="2.67948">
        <ele>102</ele>
        <time>2021-12-08T08:40:35.220Z</time>
      </trkpt>
      <trkpt lat="48.37754" lon="2.67948">
        <ele>102</ele>
        <time>2021-12-08T08:40:39.242Z</time>
      </trkpt>
      <trkpt lat="48.37756" lon="2.67948">
        <ele>102</ele>
        <time>2021-12-08T08:40:44.218Z</time>
      </trkpt>
      <trkpt lat="48.37761" lon="2.67947">
        <ele>102</ele>
        <time>2021-12-08T08:41:03.264Z</time>
      </trkpt>
      <trkpt lat="48.37763" lon="2.67947">
        <ele>102</ele>
        <time>2021-12-08T08:41:07.255Z</time>
      </trkpt>
      <trkpt lat="48.37768" lon="2.67949">
        <ele>107</ele>
        <time>2021-12-08T08:41:12.247Z</time>
      </trkpt>
      <trkpt lat="48.37768" lon="2.67947">
        <ele>107</ele>
        <time>2021-12-08T08:41:17.242Z</time>
      </trkpt>
      <trkpt lat="48.37769" lon="2.67948">
        <ele>107</ele>
        <time>2021-12-08T08:41:21.253Z</time>
      </trkpt>
      <trkpt lat="48.37774" lon="2.67948">
        <ele>107</ele>
        <time>2021-12-08T08:41:26.220Z</time>
      </trkpt>
      <trkpt lat="48.37777" lon="2.67948">
        <ele>107</ele>
        <time>2021-12-08T08:41:30.260Z</time>
      </trkpt>
      <trkpt lat="48.37781" lon="2.67945">
        <ele>107</ele>
        <time>2021-12-08T08:41:35.224Z</time>
      </trkpt>
      <trkpt lat="48.37782" lon="2.67941">
        <ele>107</ele>
        <time>2021-12-08T08:41:40.270Z</time>
      </trkpt>
      <trkpt lat="48.37783" lon="2.67936">
        <ele>107</ele>
        <time>2021-12-08T08:41:45.249Z</time>
      </trkpt>
      <trkpt lat="48.37785" lon="2.67933">
        <ele>107</ele>
        <time>2021-12-08T08:41:50.222Z</time>
      </trkpt>
      <trkpt lat="48.37787" lon="2.6793">
        <ele>109</ele>
        <time>2021-12-08T08:41:54.242Z</time>
      </trkpt>
      <trkpt lat="48.3779" lon="2.67928">
        <ele>109</ele>
        <time>2021-12-08T08:41:59.238Z</time>
      </trkpt>
      <trkpt lat="48.37792" lon="2.6793">
        <ele>115</ele>
        <time>2021-12-08T08:42:04.246Z</time>
      </trkpt>
      <trkpt lat="48.37793" lon="2.67938">
        <ele>113</ele>
        <time>2021-12-08T08:42:28.252Z</time>
      </trkpt>
      <trkpt lat="48.37796" lon="2.67938">
        <ele>113</ele>
        <time>2021-12-08T08:42:32.268Z</time>
      </trkpt>
      <trkpt lat="48.37798" lon="2.67936">
        <ele>113</ele>
        <time>2021-12-08T08:42:37.222Z</time>
      </trkpt>
      <trkpt lat="48.37799" lon="2.67931">
        <ele>113</ele>
        <time>2021-12-08T08:42:41.231Z</time>
      </trkpt>
      <trkpt lat="48.37802" lon="2.67928">
        <ele>115</ele>
        <time>2021-12-08T08:42:46.238Z</time>
      </trkpt>
      <trkpt lat="48.37809" lon="2.67903">
        <ele>115</ele>
        <time>2021-12-08T08:43:44.255Z</time>
      </trkpt>
      <trkpt lat="48.3781" lon="2.67903">
        <ele>115</ele>
        <time>2021-12-08T08:43:49.221Z</time>
      </trkpt>
      <trkpt lat="48.37809" lon="2.67902">
        <ele>117</ele>
        <time>2021-12-08T08:43:53.258Z</time>
      </trkpt>
      <trkpt lat="48.37808" lon="2.679">
        <ele>117</ele>
        <time>2021-12-08T08:43:57.276Z</time>
      </trkpt>
      <trkpt lat="48.3781" lon="2.67896">
        <ele>117</ele>
        <time>2021-12-08T08:44:02.264Z</time>
      </trkpt>
      <trkpt lat="48.37813" lon="2.67894">
        <ele>117</ele>
        <time>2021-12-08T08:44:07.224Z</time>
      </trkpt>
      <trkpt lat="48.37816" lon="2.67893">
        <ele>117</ele>
        <time>2021-12-08T08:44:11.233Z</time>
      </trkpt>
      <trkpt lat="48.37819" lon="2.67893">
        <ele>117</ele>
        <time>2021-12-08T08:44:16.227Z</time>
      </trkpt>
      <trkpt lat="48.37822" lon="2.67891">
        <ele>123</ele>
        <time>2021-12-08T08:44:20.244Z</time>
      </trkpt>
      <trkpt lat="48.37822" lon="2.67887">
        <ele>123</ele>
        <time>2021-12-08T08:44:25.239Z</time>
      </trkpt>
      <trkpt lat="48.37822" lon="2.67883">
        <ele>123</ele>
        <time>2021-12-08T08:44:30.233Z</time>
      </trkpt>
      <trkpt lat="48.37829" lon="2.67887">
        <ele>123</ele>
        <time>2021-12-08T08:44:35.248Z</time>
      </trkpt>
      <trkpt lat="48.37828" lon="2.67878">
        <ele>123</ele>
        <time>2021-12-08T08:44:40.224Z</time>
      </trkpt>
      <trkpt lat="48.3783" lon="2.67881">
        <ele>123</ele>
        <time>2021-12-08T08:44:45.237Z</time>
      </trkpt>
      <trkpt lat="48.37833" lon="2.67883">
        <ele>123</ele>
        <time>2021-12-08T08:44:50.230Z</time>
      </trkpt>
      <trkpt lat="48.37838" lon="2.67888">
        <ele>123</ele>
        <time>2021-12-08T08:44:55.228Z</time>
      </trkpt>
      <trkpt lat="48.37842" lon="2.67893">
        <ele>123</ele>
        <time>2021-12-08T08:44:59.265Z</time>
      </trkpt>
      <trkpt lat="48.37842" lon="2.67898">
        <ele>123</ele>
        <time>2021-12-08T08:45:04.237Z</time>
      </trkpt>
      <trkpt lat="48.37843" lon="2.67903">
        <ele>121</ele>
        <time>2021-12-08T08:45:09.225Z</time>
      </trkpt>
      <trkpt lat="48.37846" lon="2.67903">
        <ele>121</ele>
        <time>2021-12-08T08:45:13.250Z</time>
      </trkpt>
      <trkpt lat="48.37848" lon="2.67898">
        <ele>124</ele>
        <time>2021-12-08T08:45:17.266Z</time>
      </trkpt>
      <trkpt lat="48.37851" lon="2.67895">
        <ele>124</ele>
        <time>2021-12-08T08:45:22.261Z</time>
      </trkpt>
      <trkpt lat="48.37854" lon="2.67885">
        <ele>124</ele>
        <time>2021-12-08T08:45:27.233Z</time>
      </trkpt>
      <trkpt lat="48.37855" lon="2.67876">
        <ele>124</ele>
        <time>2021-12-08T08:45:32.241Z</time>
      </trkpt>
      <trkpt lat="48.37859" lon="2.67868">
        <ele>124</ele>
        <time>2021-12-08T08:45:37.225Z</time>
      </trkpt>
      <trkpt lat="48.3786" lon="2.67863">
        <ele>124</ele>
        <time>2021-12-08T08:45:42.232Z</time>
      </trkpt>
      <trkpt lat="48.3786" lon="2.67857">
        <ele>124</ele>
        <time>2021-12-08T08:45:47.228Z</time>
      </trkpt>
      <trkpt lat="48.37859" lon="2.67849">
        <ele>124</ele>
        <time>2021-12-08T08:45:52.230Z</time>
      </trkpt>
      <trkpt lat="48.37856" lon="2.67846">
        <ele>125</ele>
        <time>2021-12-08T08:45:56.240Z</time>
      </trkpt>
      <trkpt lat="48.37854" lon="2.67839">
        <ele>125</ele>
        <time>2021-12-08T08:46:01.231Z</time>
      </trkpt>
      <trkpt lat="48.37854" lon="2.67832">
        <ele>125</ele>
        <time>2021-12-08T08:46:06.226Z</time>
      </trkpt>
      <trkpt lat="48.37856" lon="2.67828">
        <ele>125</ele>
        <time>2021-12-08T08:46:10.236Z</time>
      </trkpt>
      <trkpt lat="48.37858" lon="2.67824">
        <ele>125</ele>
        <time>2021-12-08T08:46:14.236Z</time>
      </trkpt>
      <trkpt lat="48.37861" lon="2.67821">
        <ele>125</ele>
        <time>2021-12-08T08:46:19.271Z</time>
      </trkpt>
      <trkpt lat="48.37861" lon="2.67808">
        <ele>126</ele>
        <time>2021-12-08T08:46:41.231Z</time>
      </trkpt>
      <trkpt lat="48.37861" lon="2.67807">
        <ele>126</ele>
        <time>2021-12-08T08:46:45.271Z</time>
      </trkpt>
      <trkpt lat="48.37863" lon="2.67804">
        <ele>126</ele>
        <time>2021-12-08T08:46:50.232Z</time>
      </trkpt>
      <trkpt lat="48.37859" lon="2.67799">
        <ele>126</ele>
        <time>2021-12-08T08:46:54.247Z</time>
      </trkpt>
      <trkpt lat="48.37857" lon="2.67795">
        <ele>126</ele>
        <time>2021-12-08T08:46:59.237Z</time>
      </trkpt>
      <trkpt lat="48.37855" lon="2.6779">
        <ele>127</ele>
        <time>2021-12-08T08:47:03.238Z</time>
      </trkpt>
      <trkpt lat="48.37854" lon="2.67786">
        <ele>127</ele>
        <time>2021-12-08T08:47:08.236Z</time>
      </trkpt>
      <trkpt lat="48.37853" lon="2.67782">
        <ele>127</ele>
        <time>2021-12-08T08:47:12.235Z</time>
      </trkpt>
      <trkpt lat="48.37854" lon="2.67771">
        <ele>127</ele>
        <time>2021-12-08T08:47:17.228Z</time>
      </trkpt>
      <trkpt lat="48.37854" lon="2.67766">
        <ele>127</ele>
        <time>2021-12-08T08:47:46.221Z</time>
      </trkpt>
      <trkpt lat="48.37855" lon="2.67762">
        <ele>128</ele>
        <time>2021-12-08T08:47:51.222Z</time>
      </trkpt>
      <trkpt lat="48.37855" lon="2.67756">
        <ele>128</ele>
        <time>2021-12-08T08:47:55.254Z</time>
      </trkpt>
      <trkpt lat="48.37855" lon="2.67746">
        <ele>128</ele>
        <time>2021-12-08T08:48:00.232Z</time>
      </trkpt>
      <trkpt lat="48.37856" lon="2.67739">
        <ele>128</ele>
        <time>2021-12-08T08:48:05.223Z</time>
      </trkpt>
      <trkpt lat="48.37854" lon="2.67735">
        <ele>129</ele>
        <time>2021-12-08T08:48:09.233Z</time>
      </trkpt>
      <trkpt lat="48.3785" lon="2.67731">
        <ele>129</ele>
        <time>2021-12-08T08:48:14.224Z</time>
      </trkpt>
      <trkpt lat="48.3785" lon="2.6773">
        <ele>129</ele>
        <time>2021-12-08T08:48:18.229Z</time>
      </trkpt>
      <trkpt lat="48.37848" lon="2.67725">
        <ele>129</ele>
        <time>2021-12-08T08:48:23.223Z</time>
      </trkpt>
      <trkpt lat="48.37846" lon="2.67722">
        <ele>126</ele>
        <time>2021-12-08T08:48:27.223Z</time>
      </trkpt>
      <trkpt lat="48.37846" lon="2.67719">
        <ele>126</ele>
        <time>2021-12-08T08:48:31.257Z</time>
      </trkpt>
      <trkpt lat="48.37846" lon="2.67713">
        <ele>126</ele>
        <time>2021-12-08T08:48:36.223Z</time>
      </trkpt>
      <trkpt lat="48.37844" lon="2.67709">
        <ele>126</ele>
        <time>2021-12-08T08:48:40.224Z</time>
      </trkpt>
      <trkpt lat="48.37842" lon="2.67703">
        <ele>128</ele>
        <time>2021-12-08T08:48:45.234Z</time>
      </trkpt>
      <trkpt lat="48.37841" lon="2.67697">
        <ele>128</ele>
        <time>2021-12-08T08:48:49.233Z</time>
      </trkpt>
      <trkpt lat="48.37839" lon="2.67693">
        <ele>128</ele>
        <time>2021-12-08T08:48:53.268Z</time>
      </trkpt>
      <trkpt lat="48.37838" lon="2.67686">
        <ele>128</ele>
        <time>2021-12-08T08:48:58.223Z</time>
      </trkpt>
      <trkpt lat="48.37837" lon="2.6768">
        <ele>129</ele>
        <time>2021-12-08T08:49:03.226Z</time>
      </trkpt>
      <trkpt lat="48.37836" lon="2.67673">
        <ele>129</ele>
        <time>2021-12-08T08:49:08.227Z</time>
      </trkpt>
      <trkpt lat="48.37834" lon="2.67666">
        <ele>129</ele>
        <time>2021-12-08T08:49:12.253Z</time>
      </trkpt>
      <trkpt lat="48.37832" lon="2.67658">
        <ele>129</ele>
        <time>2021-12-08T08:49:17.237Z</time>
      </trkpt>
      <trkpt lat="48.37831" lon="2.67651">
        <ele>129</ele>
        <time>2021-12-08T08:49:21.250Z</time>
      </trkpt>
      <trkpt lat="48.37829" lon="2.67644">
        <ele>129</ele>
        <time>2021-12-08T08:49:25.268Z</time>
      </trkpt>
      <trkpt lat="48.37828" lon="2.67635">
        <ele>129</ele>
        <time>2021-12-08T08:49:30.226Z</time>
      </trkpt>
      <trkpt lat="48.37826" lon="2.67627">
        <ele>129</ele>
        <time>2021-12-08T08:49:35.239Z</time>
      </trkpt>
      <trkpt lat="48.37826" lon="2.67619">
        <ele>129</ele>
        <time>2021-12-08T08:49:40.230Z</time>
      </trkpt>
      <trkpt lat="48.37826" lon="2.67617">
        <ele>129</ele>
        <time>2021-12-08T08:49:45.230Z</time>
      </trkpt>
      <trkpt lat="48.37826" lon="2.67616">
        <ele>129</ele>
        <time>2021-12-08T08:49:49.239Z</time>
      </trkpt>
      <trkpt lat="48.37826" lon="2.67606">
        <ele>129</ele>
        <time>2021-12-08T08:49:54.272Z</time>
      </trkpt>
      <trkpt lat="48.37826" lon="2.67599">
        <ele>129</ele>
        <time>2021-12-08T08:49:59.219Z</time>
      </trkpt>
      <trkpt lat="48.37826" lon="2.67594">
        <ele>130</ele>
        <time>2021-12-08T08:50:03.221Z</time>
      </trkpt>
      <trkpt lat="48.37823" lon="2.67589">
        <ele>130</ele>
        <time>2021-12-08T08:50:08.226Z</time>
      </trkpt>
      <trkpt lat="48.37822" lon="2.67583">
        <ele>130</ele>
        <time>2021-12-08T08:50:13.232Z</time>
      </trkpt>
      <trkpt lat="48.3782" lon="2.67574">
        <ele>130</ele>
        <time>2021-12-08T08:50:17.237Z</time>
      </trkpt>
      <trkpt lat="48.37816" lon="2.67564">
        <ele>129</ele>
        <time>2021-12-08T08:50:22.237Z</time>
      </trkpt>
      <trkpt lat="48.37813" lon="2.67558">
        <ele>129</ele>
        <time>2021-12-08T08:50:26.237Z</time>
      </trkpt>
      <trkpt lat="48.37809" lon="2.67551">
        <ele>129</ele>
        <time>2021-12-08T08:50:31.233Z</time>
      </trkpt>
      <trkpt lat="48.37809" lon="2.67545">
        <ele>129</ele>
        <time>2021-12-08T08:50:36.233Z</time>
      </trkpt>
      <trkpt lat="48.37809" lon="2.6754">
        <ele>130</ele>
        <time>2021-12-08T08:50:58.261Z</time>
      </trkpt>
      <trkpt lat="48.37815" lon="2.67542">
        <ele>129</ele>
        <time>2021-12-08T08:51:03.246Z</time>
      </trkpt>
      <trkpt lat="48.37819" lon="2.67547">
        <ele>129</ele>
        <time>2021-12-08T08:51:08.233Z</time>
      </trkpt>
      <trkpt lat="48.37822" lon="2.67554">
        <ele>131</ele>
        <time>2021-12-08T08:51:13.232Z</time>
      </trkpt>
      <trkpt lat="48.37827" lon="2.67559">
        <ele>131</ele>
        <time>2021-12-08T08:51:18.223Z</time>
      </trkpt>
      <trkpt lat="48.37829" lon="2.67564">
        <ele>131</ele>
        <time>2021-12-08T08:51:22.228Z</time>
      </trkpt>
      <trkpt lat="48.37832" lon="2.67568">
        <ele>131</ele>
        <time>2021-12-08T08:51:27.229Z</time>
      </trkpt>
      <trkpt lat="48.37835" lon="2.67574">
        <ele>130</ele>
        <time>2021-12-08T08:51:31.235Z</time>
      </trkpt>
      <trkpt lat="48.3784" lon="2.67579">
        <ele>130</ele>
        <time>2021-12-08T08:51:36.222Z</time>
      </trkpt>
      <trkpt lat="48.37844" lon="2.67582">
        <ele>130</ele>
        <time>2021-12-08T08:51:40.229Z</time>
      </trkpt>
      <trkpt lat="48.37849" lon="2.67587">
        <ele>129</ele>
        <time>2021-12-08T08:51:45.258Z</time>
      </trkpt>
      <trkpt lat="48.37852" lon="2.67585">
        <ele>129</ele>
        <time>2021-12-08T08:51:50.229Z</time>
      </trkpt>
      <trkpt lat="48.37856" lon="2.67585">
        <ele>129</ele>
        <time>2021-12-08T08:51:55.269Z</time>
      </trkpt>
      <trkpt lat="48.3786" lon="2.67587">
        <ele>129</ele>
        <time>2021-12-08T08:52:00.216Z</time>
      </trkpt>
      <trkpt lat="48.37864" lon="2.67589">
        <ele>129</ele>
        <time>2021-12-08T08:52:04.229Z</time>
      </trkpt>
      <trkpt lat="48.37868" lon="2.67592">
        <ele>129</ele>
        <time>2021-12-08T08:52:09.233Z</time>
      </trkpt>
      <trkpt lat="48.37872" lon="2.67591">
        <ele>129</ele>
        <time>2021-12-08T08:52:14.231Z</time>
      </trkpt>
      <trkpt lat="48.37875" lon="2.6759">
        <ele>129</ele>
        <time>2021-12-08T08:52:32.234Z</time>
      </trkpt>
      <trkpt lat="48.37878" lon="2.67591">
        <ele>127</ele>
        <time>2021-12-08T08:52:36.244Z</time>
      </trkpt>
      <trkpt lat="48.37884" lon="2.6759">
        <ele>127</ele>
        <time>2021-12-08T08:52:41.237Z</time>
      </trkpt>
      <trkpt lat="48.37888" lon="2.67592">
        <ele>127</ele>
        <time>2021-12-08T08:52:45.236Z</time>
      </trkpt>
      <trkpt lat="48.37891" lon="2.67588">
        <ele>127</ele>
        <time>2021-12-08T08:52:50.228Z</time>
      </trkpt>
      <trkpt lat="48.37897" lon="2.67584">
        <ele>127</ele>
        <time>2021-12-08T08:52:59.223Z</time>
      </trkpt>
      <trkpt lat="48.379" lon="2.67587">
        <ele>127</ele>
        <time>2021-12-08T08:53:04.223Z</time>
      </trkpt>
      <trkpt lat="48.37899" lon="2.67588">
        <ele>127</ele>
        <time>2021-12-08T08:53:08.232Z</time>
      </trkpt>
      <trkpt lat="48.37901" lon="2.67594">
        <ele>127</ele>
        <time>2021-12-08T08:53:13.240Z</time>
      </trkpt>
      <trkpt lat="48.37903" lon="2.676">
        <ele>125</ele>
        <time>2021-12-08T08:53:18.228Z</time>
      </trkpt>
      <trkpt lat="48.37905" lon="2.67604">
        <ele>119</ele>
        <time>2021-12-08T08:53:23.227Z</time>
      </trkpt>
      <trkpt lat="48.37907" lon="2.67609">
        <ele>119</ele>
        <time>2021-12-08T08:53:28.225Z</time>
      </trkpt>
      <trkpt lat="48.37909" lon="2.67614">
        <ele>119</ele>
        <time>2021-12-08T08:53:32.226Z</time>
      </trkpt>
      <trkpt lat="48.37913" lon="2.67617">
        <ele>119</ele>
        <time>2021-12-08T08:53:37.223Z</time>
      </trkpt>
      <trkpt lat="48.37916" lon="2.67612">
        <ele>119</ele>
        <time>2021-12-08T08:53:45.275Z</time>
      </trkpt>
      <trkpt lat="48.37918" lon="2.67609">
        <ele>119</ele>
        <time>2021-12-08T08:53:50.248Z</time>
      </trkpt>
      <trkpt lat="48.37918" lon="2.67608">
        <ele>119</ele>
        <time>2021-12-08T08:53:55.234Z</time>
      </trkpt>
      <trkpt lat="48.37919" lon="2.67606">
        <ele>119</ele>
        <time>2021-12-08T08:54:00.218Z</time>
      </trkpt>
      <trkpt lat="48.3792" lon="2.67602">
        <ele>119</ele>
        <time>2021-12-08T08:54:04.215Z</time>
      </trkpt>
      <trkpt lat="48.37921" lon="2.67598">
        <ele>119</ele>
        <time>2021-12-08T08:54:09.232Z</time>
      </trkpt>
      <trkpt lat="48.37923" lon="2.67595">
        <ele>123</ele>
        <time>2021-12-08T08:54:14.226Z</time>
      </trkpt>
      <trkpt lat="48.37925" lon="2.67589">
        <ele>123</ele>
        <time>2021-12-08T08:54:19.231Z</time>
      </trkpt>
      <trkpt lat="48.37927" lon="2.67586">
        <ele>123</ele>
        <time>2021-12-08T08:54:24.232Z</time>
      </trkpt>
      <trkpt lat="48.37929" lon="2.67582">
        <ele>123</ele>
        <time>2021-12-08T08:54:29.227Z</time>
      </trkpt>
      <trkpt lat="48.37932" lon="2.6758">
        <ele>117</ele>
        <time>2021-12-08T08:54:34.225Z</time>
      </trkpt>
      <trkpt lat="48.37934" lon="2.67575">
        <ele>117</ele>
        <time>2021-12-08T08:54:39.215Z</time>
      </trkpt>
      <trkpt lat="48.37935" lon="2.67567">
        <ele>121</ele>
        <time>2021-12-08T08:54:44.224Z</time>
      </trkpt>
      <trkpt lat="48.37936" lon="2.67563">
        <ele>121</ele>
        <time>2021-12-08T08:54:48.230Z</time>
      </trkpt>
      <trkpt lat="48.3794" lon="2.67557">
        <ele>121</ele>
        <time>2021-12-08T08:54:53.220Z</time>
      </trkpt>
      <trkpt lat="48.37942" lon="2.67556">
        <ele>121</ele>
        <time>2021-12-08T08:54:57.229Z</time>
      </trkpt>
      <trkpt lat="48.37945" lon="2.67553">
        <ele>121</ele>
        <time>2021-12-08T08:55:01.246Z</time>
      </trkpt>
      <trkpt lat="48.37952" lon="2.67545">
        <ele>121</ele>
        <time>2021-12-08T08:55:10.232Z</time>
      </trkpt>
      <trkpt lat="48.37953" lon="2.67541">
        <ele>125</ele>
        <time>2021-12-08T08:55:15.238Z</time>
      </trkpt>
      <trkpt lat="48.37953" lon="2.67541">
        <ele>125</ele>
        <time>2021-12-08T08:55:20.226Z</time>
      </trkpt>
      <trkpt lat="48.37951" lon="2.67537">
        <ele>125</ele>
        <time>2021-12-08T08:55:24.256Z</time>
      </trkpt>
      <trkpt lat="48.37951" lon="2.67531">
        <ele>125</ele>
        <time>2021-12-08T08:55:28.285Z</time>
      </trkpt>
      <trkpt lat="48.37954" lon="2.67524">
        <ele>125</ele>
        <time>2021-12-08T08:55:38.227Z</time>
      </trkpt>
      <trkpt lat="48.37953" lon="2.67518">
        <ele>125</ele>
        <time>2021-12-08T08:55:43.231Z</time>
      </trkpt>
      <trkpt lat="48.37953" lon="2.67515">
        <ele>125</ele>
        <time>2021-12-08T08:55:48.252Z</time>
      </trkpt>
      <trkpt lat="48.37955" lon="2.67514">
        <ele>127</ele>
        <time>2021-12-08T08:55:52.271Z</time>
      </trkpt>
      <trkpt lat="48.37954" lon="2.67506">
        <ele>127</ele>
        <time>2021-12-08T08:55:57.229Z</time>
      </trkpt>
      <trkpt lat="48.37956" lon="2.675">
        <ele>127</ele>
        <time>2021-12-08T08:56:02.226Z</time>
      </trkpt>
      <trkpt lat="48.37958" lon="2.67493">
        <ele>127</ele>
        <time>2021-12-08T08:56:07.228Z</time>
      </trkpt>
      <trkpt lat="48.3796" lon="2.67486">
        <ele>122</ele>
        <time>2021-12-08T08:56:12.222Z</time>
      </trkpt>
      <trkpt lat="48.37962" lon="2.67479">
        <ele>122</ele>
        <time>2021-12-08T08:56:17.246Z</time>
      </trkpt>
      <trkpt lat="48.37966" lon="2.67475">
        <ele>122</ele>
        <time>2021-12-08T08:56:27.248Z</time>
      </trkpt>
      <trkpt lat="48.37965" lon="2.6747">
        <ele>122</ele>
        <time>2021-12-08T08:56:32.248Z</time>
      </trkpt>
      <trkpt lat="48.37965" lon="2.67464">
        <ele>122</ele>
        <time>2021-12-08T08:56:37.229Z</time>
      </trkpt>
      <trkpt lat="48.37965" lon="2.67461">
        <ele>122</ele>
        <time>2021-12-08T08:56:42.223Z</time>
      </trkpt>
      <trkpt lat="48.37962" lon="2.67452">
        <ele>123</ele>
        <time>2021-12-08T08:56:47.225Z</time>
      </trkpt>
      <trkpt lat="48.37965" lon="2.67444">
        <ele>123</ele>
        <time>2021-12-08T08:56:52.225Z</time>
      </trkpt>
      <trkpt lat="48.37967" lon="2.67439">
        <ele>123</ele>
        <time>2021-12-08T08:56:56.229Z</time>
      </trkpt>
      <trkpt lat="48.3797" lon="2.67438">
        <ele>123</ele>
        <time>2021-12-08T08:57:01.232Z</time>
      </trkpt>
      <trkpt lat="48.37973" lon="2.67433">
        <ele>123</ele>
        <time>2021-12-08T08:57:06.231Z</time>
      </trkpt>
      <trkpt lat="48.3797" lon="2.6743">
        <ele>123</ele>
        <time>2021-12-08T08:57:10.238Z</time>
      </trkpt>
      <trkpt lat="48.3797" lon="2.67425">
        <ele>123</ele>
        <time>2021-12-08T08:57:15.233Z</time>
      </trkpt>
      <trkpt lat="48.3797" lon="2.67418">
        <ele>123</ele>
        <time>2021-12-08T08:57:20.238Z</time>
      </trkpt>
      <trkpt lat="48.37966" lon="2.67412">
        <ele>123</ele>
        <time>2021-12-08T08:57:25.232Z</time>
      </trkpt>
      <trkpt lat="48.37966" lon="2.674">
        <ele>123</ele>
        <time>2021-12-08T08:57:40.243Z</time>
      </trkpt>
      <trkpt lat="48.37967" lon="2.67393">
        <ele>123</ele>
        <time>2021-12-08T08:57:45.232Z</time>
      </trkpt>
      <trkpt lat="48.37965" lon="2.67388">
        <ele>123</ele>
        <time>2021-12-08T08:57:49.246Z</time>
      </trkpt>
      <trkpt lat="48.37966" lon="2.67381">
        <ele>123</ele>
        <time>2021-12-08T08:57:54.223Z</time>
      </trkpt>
      <trkpt lat="48.37963" lon="2.67375">
        <ele>123</ele>
        <time>2021-12-08T08:57:58.232Z</time>
      </trkpt>
      <trkpt lat="48.37959" lon="2.67374">
        <ele>124</ele>
        <time>2021-12-08T08:58:03.232Z</time>
      </trkpt>
      <trkpt lat="48.37955" lon="2.67376">
        <ele>128</ele>
        <time>2021-12-08T08:58:07.232Z</time>
      </trkpt>
      <trkpt lat="48.37951" lon="2.67378">
        <ele>128</ele>
        <time>2021-12-08T08:58:12.244Z</time>
      </trkpt>
      <trkpt lat="48.37945" lon="2.67377">
        <ele>128</ele>
        <time>2021-12-08T08:58:17.226Z</time>
      </trkpt>
      <trkpt lat="48.37945" lon="2.67379">
        <ele>128</ele>
        <time>2021-12-08T08:58:21.253Z</time>
      </trkpt>
      <trkpt lat="48.37939" lon="2.67376">
        <ele>128</ele>
        <time>2021-12-08T08:58:26.229Z</time>
      </trkpt>
      <trkpt lat="48.37932" lon="2.67374">
        <ele>126</ele>
        <time>2021-12-08T08:58:31.219Z</time>
      </trkpt>
      <trkpt lat="48.37925" lon="2.67373">
        <ele>126</ele>
        <time>2021-12-08T08:58:36.248Z</time>
      </trkpt>
      <trkpt lat="48.37918" lon="2.67373">
        <ele>126</ele>
        <time>2021-12-08T08:58:41.219Z</time>
      </trkpt>
      <trkpt lat="48.37913" lon="2.67373">
        <ele>126</ele>
        <time>2021-12-08T08:58:45.228Z</time>
      </trkpt>
      <trkpt lat="48.37907" lon="2.67371">
        <ele>126</ele>
        <time>2021-12-08T08:58:50.234Z</time>
      </trkpt>
      <trkpt lat="48.37904" lon="2.67369">
        <ele>126</ele>
        <time>2021-12-08T08:58:55.233Z</time>
      </trkpt>
      <trkpt lat="48.37903" lon="2.67364">
        <ele>126</ele>
        <time>2021-12-08T08:58:59.260Z</time>
      </trkpt>
      <trkpt lat="48.37903" lon="2.67356">
        <ele>126</ele>
        <time>2021-12-08T08:59:04.245Z</time>
      </trkpt>
      <trkpt lat="48.37902" lon="2.67348">
        <ele>128</ele>
        <time>2021-12-08T08:59:09.226Z</time>
      </trkpt>
      <trkpt lat="48.37903" lon="2.67343">
        <ele>123</ele>
        <time>2021-12-08T08:59:14.221Z</time>
      </trkpt>
      <trkpt lat="48.37904" lon="2.67337">
        <ele>123</ele>
        <time>2021-12-08T08:59:19.248Z</time>
      </trkpt>
      <trkpt lat="48.37909" lon="2.67336">
        <ele>123</ele>
        <time>2021-12-08T08:59:24.220Z</time>
      </trkpt>
      <trkpt lat="48.37912" lon="2.67339">
        <ele>123</ele>
        <time>2021-12-08T08:59:29.224Z</time>
      </trkpt>
      <trkpt lat="48.37913" lon="2.67335">
        <ele>123</ele>
        <time>2021-12-08T08:59:33.224Z</time>
      </trkpt>
      <trkpt lat="48.37916" lon="2.6733">
        <ele>123</ele>
        <time>2021-12-08T08:59:38.221Z</time>
      </trkpt>
      <trkpt lat="48.37918" lon="2.67324">
        <ele>123</ele>
        <time>2021-12-08T08:59:43.219Z</time>
      </trkpt>
      <trkpt lat="48.37921" lon="2.67321">
        <ele>123</ele>
        <time>2021-12-08T08:59:48.225Z</time>
      </trkpt>
      <trkpt lat="48.37923" lon="2.67318">
        <ele>119</ele>
        <time>2021-12-08T08:59:53.223Z</time>
      </trkpt>
      <trkpt lat="48.37924" lon="2.67315">
        <ele>119</ele>
        <time>2021-12-08T08:59:57.230Z</time>
      </trkpt>
      <trkpt lat="48.37928" lon="2.67313">
        <ele>119</ele>
        <time>2021-12-08T09:00:02.234Z</time>
      </trkpt>
      <trkpt lat="48.37928" lon="2.67311">
        <ele>119</ele>
        <time>2021-12-08T09:00:07.217Z</time>
      </trkpt>
      <trkpt lat="48.3793" lon="2.67308">
        <ele>119</ele>
        <time>2021-12-08T09:00:12.220Z</time>
      </trkpt>
      <trkpt lat="48.37931" lon="2.67307">
        <ele>122</ele>
        <time>2021-12-08T09:00:16.221Z</time>
      </trkpt>
      <trkpt lat="48.37934" lon="2.67305">
        <ele>122</ele>
        <time>2021-12-08T09:00:20.244Z</time>
      </trkpt>
      <trkpt lat="48.37937" lon="2.67302">
        <ele>122</ele>
        <time>2021-12-08T09:00:25.221Z</time>
      </trkpt>
      <trkpt lat="48.3794" lon="2.67295">
        <ele>122</ele>
        <time>2021-12-08T09:00:29.223Z</time>
      </trkpt>
      <trkpt lat="48.37943" lon="2.67289">
        <ele>119</ele>
        <time>2021-12-08T09:00:33.229Z</time>
      </trkpt>
      <trkpt lat="48.37945" lon="2.67286">
        <ele>119</ele>
        <time>2021-12-08T09:00:38.222Z</time>
      </trkpt>
      <trkpt lat="48.37949" lon="2.67284">
        <ele>119</ele>
        <time>2021-12-08T09:00:42.226Z</time>
      </trkpt>
      <trkpt lat="48.3795" lon="2.67278">
        <ele>119</ele>
        <time>2021-12-08T09:00:46.246Z</time>
      </trkpt>
      <trkpt lat="48.37952" lon="2.67272">
        <ele>119</ele>
        <time>2021-12-08T09:00:51.225Z</time>
      </trkpt>
      <trkpt lat="48.37955" lon="2.67269">
        <ele>119</ele>
        <time>2021-12-08T09:00:56.222Z</time>
      </trkpt>
      <trkpt lat="48.37958" lon="2.67269">
        <ele>119</ele>
        <time>2021-12-08T09:01:00.248Z</time>
      </trkpt>
      <trkpt lat="48.37958" lon="2.67263">
        <ele>117</ele>
        <time>2021-12-08T09:01:05.228Z</time>
      </trkpt>
      <trkpt lat="48.3796" lon="2.67258">
        <ele>120</ele>
        <time>2021-12-08T09:01:10.230Z</time>
      </trkpt>
      <trkpt lat="48.37962" lon="2.6725">
        <ele>120</ele>
        <time>2021-12-08T09:01:15.226Z</time>
      </trkpt>
      <trkpt lat="48.37961" lon="2.67243">
        <ele>120</ele>
        <time>2021-12-08T09:01:19.237Z</time>
      </trkpt>
      <trkpt lat="48.37961" lon="2.67237">
        <ele>120</ele>
        <time>2021-12-08T09:01:24.224Z</time>
      </trkpt>
      <trkpt lat="48.37964" lon="2.67233">
        <ele>118</ele>
        <time>2021-12-08T09:01:28.224Z</time>
      </trkpt>
      <trkpt lat="48.37966" lon="2.67229">
        <ele>118</ele>
        <time>2021-12-08T09:01:32.249Z</time>
      </trkpt>
      <trkpt lat="48.37969" lon="2.67226">
        <ele>118</ele>
        <time>2021-12-08T09:01:37.230Z</time>
      </trkpt>
      <trkpt lat="48.37971" lon="2.67224">
        <ele>118</ele>
        <time>2021-12-08T09:02:00.232Z</time>
      </trkpt>
      <trkpt lat="48.37972" lon="2.67228">
        <ele>118</ele>
        <time>2021-12-08T09:02:04.235Z</time>
      </trkpt>
      <trkpt lat="48.37974" lon="2.6723">
        <ele>118</ele>
        <time>2021-12-08T09:02:09.228Z</time>
      </trkpt>
      <trkpt lat="48.37977" lon="2.67231">
        <ele>118</ele>
        <time>2021-12-08T09:02:14.242Z</time>
      </trkpt>
      <trkpt lat="48.37982" lon="2.67228">
        <ele>118</ele>
        <time>2021-12-08T09:02:19.237Z</time>
      </trkpt>
      <trkpt lat="48.37985" lon="2.67225">
        <ele>118</ele>
        <time>2021-12-08T09:02:24.224Z</time>
      </trkpt>
      <trkpt lat="48.37989" lon="2.67223">
        <ele>117</ele>
        <time>2021-12-08T09:02:28.228Z</time>
      </trkpt>
      <trkpt lat="48.37994" lon="2.67221">
        <ele>117</ele>
        <time>2021-12-08T09:02:33.233Z</time>
      </trkpt>
      <trkpt lat="48.37996" lon="2.67217">
        <ele>117</ele>
        <time>2021-12-08T09:02:38.257Z</time>
      </trkpt>
      <trkpt lat="48.3799" lon="2.67207">
        <ele>116</ele>
        <time>2021-12-08T09:02:52.235Z</time>
      </trkpt>
      <trkpt lat="48.37989" lon="2.67206">
        <ele>116</ele>
        <time>2021-12-08T09:02:57.228Z</time>
      </trkpt>
      <trkpt lat="48.37988" lon="2.67206">
        <ele>116</ele>
        <time>2021-12-08T09:03:01.258Z</time>
      </trkpt>
      <trkpt lat="48.37987" lon="2.67206">
        <ele>116</ele>
        <time>2021-12-08T09:03:06.224Z</time>
      </trkpt>
      <trkpt lat="48.37987" lon="2.67202">
        <ele>116</ele>
        <time>2021-12-08T09:03:11.236Z</time>
      </trkpt>
      <trkpt lat="48.37988" lon="2.67187">
        <ele>116</ele>
        <time>2021-12-08T09:03:25.222Z</time>
      </trkpt>
      <trkpt lat="48.37988" lon="2.67187">
        <ele>116</ele>
        <time>2021-12-08T09:03:29.231Z</time>
      </trkpt>
      <trkpt lat="48.37989" lon="2.67186">
        <ele>116</ele>
        <time>2021-12-08T09:03:33.232Z</time>
      </trkpt>
      <trkpt lat="48.37991" lon="2.67186">
        <ele>116</ele>
        <time>2021-12-08T09:03:37.264Z</time>
      </trkpt>
      <trkpt lat="48.37996" lon="2.67183">
        <ele>116</ele>
        <time>2021-12-08T09:03:42.234Z</time>
      </trkpt>
      <trkpt lat="48.37998" lon="2.67176">
        <ele>115</ele>
        <time>2021-12-08T09:04:15.228Z</time>
      </trkpt>
      <trkpt lat="48.37996" lon="2.67175">
        <ele>115</ele>
        <time>2021-12-08T09:04:19.233Z</time>
      </trkpt>
      <trkpt lat="48.37992" lon="2.67173">
        <ele>115</ele>
        <time>2021-12-08T09:04:24.258Z</time>
      </trkpt>
      <trkpt lat="48.37991" lon="2.67173">
        <ele>115</ele>
        <time>2021-12-08T09:04:29.256Z</time>
      </trkpt>
      <trkpt lat="48.37991" lon="2.6717">
        <ele>115</ele>
        <time>2021-12-08T09:04:34.231Z</time>
      </trkpt>
      <trkpt lat="48.3799" lon="2.67165">
        <ele>115</ele>
        <time>2021-12-08T09:05:11.328Z</time>
      </trkpt>
      <trkpt lat="48.3799" lon="2.67163">
        <ele>115</ele>
        <time>2021-12-08T09:05:16.221Z</time>
      </trkpt>
      <trkpt lat="48.37989" lon="2.67162">
        <ele>115</ele>
        <time>2021-12-08T09:05:20.221Z</time>
      </trkpt>
      <trkpt lat="48.37988" lon="2.6716">
        <ele>115</ele>
        <time>2021-12-08T09:05:24.265Z</time>
      </trkpt>
      <trkpt lat="48.37984" lon="2.67157">
        <ele>116</ele>
        <time>2021-12-08T09:05:29.228Z</time>
      </trkpt>
      <trkpt lat="48.37979" lon="2.67153">
        <ele>116</ele>
        <time>2021-12-08T09:06:20.222Z</time>
      </trkpt>
      <trkpt lat="48.37978" lon="2.67153">
        <ele>116</ele>
        <time>2021-12-08T09:06:24.229Z</time>
      </trkpt>
      <trkpt lat="48.37975" lon="2.67151">
        <ele>116</ele>
        <time>2021-12-08T09:06:29.234Z</time>
      </trkpt>
      <trkpt lat="48.37975" lon="2.67144">
        <ele>116</ele>
        <time>2021-12-08T09:06:33.246Z</time>
      </trkpt>
      <trkpt lat="48.37973" lon="2.67139">
        <ele>116</ele>
        <time>2021-12-08T09:06:37.249Z</time>
      </trkpt>
      <trkpt lat="48.3797" lon="2.67134">
        <ele>116</ele>
        <time>2021-12-08T09:06:42.244Z</time>
      </trkpt>
      <trkpt lat="48.37969" lon="2.67126">
        <ele>116</ele>
        <time>2021-12-08T09:06:47.235Z</time>
      </trkpt>
      <trkpt lat="48.37967" lon="2.6712">
        <ele>115</ele>
        <time>2021-12-08T09:06:52.229Z</time>
      </trkpt>
      <trkpt lat="48.37968" lon="2.67112">
        <ele>115</ele>
        <time>2021-12-08T09:06:57.253Z</time>
      </trkpt>
      <trkpt lat="48.37969" lon="2.67112">
        <ele>115</ele>
        <time>2021-12-08T09:07:06.259Z</time>
      </trkpt>
      <trkpt lat="48.37969" lon="2.6711">
        <ele>115</ele>
        <time>2021-12-08T09:07:11.228Z</time>
      </trkpt>
      <trkpt lat="48.37967" lon="2.67109">
        <ele>115</ele>
        <time>2021-12-08T09:07:16.216Z</time>
      </trkpt>
      <trkpt lat="48.37966" lon="2.67107">
        <ele>115</ele>
        <time>2021-12-08T09:07:20.236Z</time>
      </trkpt>
      <trkpt lat="48.37961" lon="2.67102">
        <ele>115</ele>
        <time>2021-12-08T09:07:24.241Z</time>
      </trkpt>
      <trkpt lat="48.3796" lon="2.67101">
        <ele>115</ele>
        <time>2021-12-08T09:07:28.254Z</time>
      </trkpt>
      <trkpt lat="48.37956" lon="2.67097">
        <ele>117</ele>
        <time>2021-12-08T09:07:33.224Z</time>
      </trkpt>
      <trkpt lat="48.37953" lon="2.67093">
        <ele>117</ele>
        <time>2021-12-08T09:07:38.222Z</time>
      </trkpt>
      <trkpt lat="48.3795" lon="2.6709">
        <ele>117</ele>
        <time>2021-12-08T09:07:43.227Z</time>
      </trkpt>
      <trkpt lat="48.37947" lon="2.67087">
        <ele>117</ele>
        <time>2021-12-08T09:07:47.230Z</time>
      </trkpt>
      <trkpt lat="48.37943" lon="2.67089">
        <ele>117</ele>
        <time>2021-12-08T09:07:52.247Z</time>
      </trkpt>
      <trkpt lat="48.37938" lon="2.67085">
        <ele>117</ele>
        <time>2021-12-08T09:07:57.231Z</time>
      </trkpt>
      <trkpt lat="48.37936" lon="2.67081">
        <ele>117</ele>
        <time>2021-12-08T09:08:01.233Z</time>
      </trkpt>
      <trkpt lat="48.37933" lon="2.67077">
        <ele>117</ele>
        <time>2021-12-08T09:08:06.231Z</time>
      </trkpt>
      <trkpt lat="48.3793" lon="2.67074">
        <ele>119</ele>
        <time>2021-12-08T09:08:11.236Z</time>
      </trkpt>
      <trkpt lat="48.37927" lon="2.67069">
        <ele>120</ele>
        <time>2021-12-08T09:08:15.261Z</time>
      </trkpt>
      <trkpt lat="48.37926" lon="2.67063">
        <ele>120</ele>
        <time>2021-12-08T09:08:20.233Z</time>
      </trkpt>
      <trkpt lat="48.37924" lon="2.67059">
        <ele>120</ele>
        <time>2021-12-08T09:08:25.229Z</time>
      </trkpt>
      <trkpt lat="48.3792" lon="2.67055">
        <ele>120</ele>
        <time>2021-12-08T09:08:30.252Z</time>
      </trkpt>
      <trkpt lat="48.37916" lon="2.67056">
        <ele>120</ele>
        <time>2021-12-08T09:08:35.233Z</time>
      </trkpt>
      <trkpt lat="48.37912" lon="2.67055">
        <ele>120</ele>
        <time>2021-12-08T09:08:40.257Z</time>
      </trkpt>
      <trkpt lat="48.37909" lon="2.67053">
        <ele>120</ele>
        <time>2021-12-08T09:08:45.234Z</time>
      </trkpt>
      <trkpt lat="48.37906" lon="2.6705">
        <ele>120</ele>
        <time>2021-12-08T09:08:50.233Z</time>
      </trkpt>
      <trkpt lat="48.37904" lon="2.67048">
        <ele>120</ele>
        <time>2021-12-08T09:08:55.228Z</time>
      </trkpt>
      <trkpt lat="48.37901" lon="2.67047">
        <ele>120</ele>
        <time>2021-12-08T09:09:00.246Z</time>
      </trkpt>
      <trkpt lat="48.37898" lon="2.67044">
        <ele>120</ele>
        <time>2021-12-08T09:09:05.220Z</time>
      </trkpt>
      <trkpt lat="48.37896" lon="2.6704">
        <ele>120</ele>
        <time>2021-12-08T09:09:09.224Z</time>
      </trkpt>
      <trkpt lat="48.37893" lon="2.67037">
        <ele>120</ele>
        <time>2021-12-08T09:09:14.219Z</time>
      </trkpt>
      <trkpt lat="48.3789" lon="2.67036">
        <ele>120</ele>
        <time>2021-12-08T09:09:18.247Z</time>
      </trkpt>
      <trkpt lat="48.37889" lon="2.67035">
        <ele>120</ele>
        <time>2021-12-08T09:09:22.254Z</time>
      </trkpt>
      <trkpt lat="48.37885" lon="2.67036">
        <ele>120</ele>
        <time>2021-12-08T09:09:27.225Z</time>
      </trkpt>
      <trkpt lat="48.37885" lon="2.6703">
        <ele>120</ele>
        <time>2021-12-08T09:09:31.234Z</time>
      </trkpt>
      <trkpt lat="48.37884" lon="2.67024">
        <ele>120</ele>
        <time>2021-12-08T09:09:36.232Z</time>
      </trkpt>
      <trkpt lat="48.37883" lon="2.67023">
        <ele>120</ele>
        <time>2021-12-08T09:09:40.251Z</time>
      </trkpt>
      <trkpt lat="48.37881" lon="2.67021">
        <ele>120</ele>
        <time>2021-12-08T09:09:45.230Z</time>
      </trkpt>
      <trkpt lat="48.37879" lon="2.67018">
        <ele>120</ele>
        <time>2021-12-08T09:09:49.237Z</time>
      </trkpt>
      <trkpt lat="48.37875" lon="2.67011">
        <ele>116</ele>
        <time>2021-12-08T09:10:04.233Z</time>
      </trkpt>
      <trkpt lat="48.37873" lon="2.67012">
        <ele>116</ele>
        <time>2021-12-08T09:10:09.222Z</time>
      </trkpt>
      <trkpt lat="48.37872" lon="2.67011">
        <ele>116</ele>
        <time>2021-12-08T09:10:14.225Z</time>
      </trkpt>
      <trkpt lat="48.3787" lon="2.67011">
        <ele>116</ele>
        <time>2021-12-08T09:10:19.222Z</time>
      </trkpt>
      <trkpt lat="48.37868" lon="2.67008">
        <ele>116</ele>
        <time>2021-12-08T09:10:23.229Z</time>
      </trkpt>
      <trkpt lat="48.37869" lon="2.67004">
        <ele>116</ele>
        <time>2021-12-08T09:10:28.222Z</time>
      </trkpt>
      <trkpt lat="48.37869" lon="2.67001">
        <ele>116</ele>
        <time>2021-12-08T09:10:32.265Z</time>
      </trkpt>
      <trkpt lat="48.37868" lon="2.66998">
        <ele>116</ele>
        <time>2021-12-08T09:10:37.249Z</time>
      </trkpt>
      <trkpt lat="48.37867" lon="2.66993">
        <ele>116</ele>
        <time>2021-12-08T09:10:42.231Z</time>
      </trkpt>
      <trkpt lat="48.37869" lon="2.66989">
        <ele>116</ele>
        <time>2021-12-08T09:10:47.221Z</time>
      </trkpt>
      <trkpt lat="48.3787" lon="2.66986">
        <ele>115</ele>
        <time>2021-12-08T09:10:51.229Z</time>
      </trkpt>
      <trkpt lat="48.3787" lon="2.66983">
        <ele>115</ele>
        <time>2021-12-08T09:10:55.260Z</time>
      </trkpt>
      <trkpt lat="48.3787" lon="2.6698">
        <ele>115</ele>
        <time>2021-12-08T09:11:00.269Z</time>
      </trkpt>
      <trkpt lat="48.37871" lon="2.66978">
        <ele>115</ele>
        <time>2021-12-08T09:11:05.232Z</time>
      </trkpt>
      <trkpt lat="48.37871" lon="2.6697">
        <ele>115</ele>
        <time>2021-12-08T09:11:10.261Z</time>
      </trkpt>
      <trkpt lat="48.37871" lon="2.66964">
        <ele>115</ele>
        <time>2021-12-08T09:11:37.270Z</time>
      </trkpt>
      <trkpt lat="48.3787" lon="2.66964">
        <ele>115</ele>
        <time>2021-12-08T09:11:42.259Z</time>
      </trkpt>
      <trkpt lat="48.37869" lon="2.66964">
        <ele>115</ele>
        <time>2021-12-08T09:11:47.262Z</time>
      </trkpt>
      <trkpt lat="48.3787" lon="2.66959">
        <ele>115</ele>
        <time>2021-12-08T09:11:52.239Z</time>
      </trkpt>
      <trkpt lat="48.3787" lon="2.66953">
        <ele>113</ele>
        <time>2021-12-08T09:11:56.232Z</time>
      </trkpt>
      <trkpt lat="48.37872" lon="2.66948">
        <ele>113</ele>
        <time>2021-12-08T09:12:01.226Z</time>
      </trkpt>
      <trkpt lat="48.37871" lon="2.66945">
        <ele>113</ele>
        <time>2021-12-08T09:12:05.240Z</time>
      </trkpt>
      <trkpt lat="48.37872" lon="2.66941">
        <ele>113</ele>
        <time>2021-12-08T09:12:10.231Z</time>
      </trkpt>
      <trkpt lat="48.37872" lon="2.6694">
        <ele>113</ele>
        <time>2021-12-08T09:12:15.233Z</time>
      </trkpt>
      <trkpt lat="48.3787" lon="2.66932">
        <ele>113</ele>
        <time>2021-12-08T09:12:20.231Z</time>
      </trkpt>
      <trkpt lat="48.37867" lon="2.66931">
        <ele>113</ele>
        <time>2021-12-08T09:12:30.232Z</time>
      </trkpt>
      <trkpt lat="48.37866" lon="2.66929">
        <ele>110</ele>
        <time>2021-12-08T09:12:35.264Z</time>
      </trkpt>
      <trkpt lat="48.37864" lon="2.66927">
        <ele>110</ele>
        <time>2021-12-08T09:12:40.233Z</time>
      </trkpt>
      <trkpt lat="48.37862" lon="2.66925">
        <ele>110</ele>
        <time>2021-12-08T09:12:44.248Z</time>
      </trkpt>
      <trkpt lat="48.37861" lon="2.66918">
        <ele>110</ele>
        <time>2021-12-08T09:12:49.235Z</time>
      </trkpt>
      <trkpt lat="48.37862" lon="2.66916">
        <ele>110</ele>
        <time>2021-12-08T09:12:58.236Z</time>
      </trkpt>
      <trkpt lat="48.37862" lon="2.66916">
        <ele>110</ele>
        <time>2021-12-08T09:13:03.235Z</time>
      </trkpt>
      <trkpt lat="48.37863" lon="2.66915">
        <ele>110</ele>
        <time>2021-12-08T09:13:08.232Z</time>
      </trkpt>
      <trkpt lat="48.37864" lon="2.66912">
        <ele>110</ele>
        <time>2021-12-08T09:13:13.247Z</time>
      </trkpt>
      <trkpt lat="48.37867" lon="2.66903">
        <ele>110</ele>
        <time>2021-12-08T09:13:18.222Z</time>
      </trkpt>
      <trkpt lat="48.37869" lon="2.66897">
        <ele>107</ele>
        <time>2021-12-08T09:13:22.225Z</time>
      </trkpt>
      <trkpt lat="48.37869" lon="2.66893">
        <ele>107</ele>
        <time>2021-12-08T09:13:26.282Z</time>
      </trkpt>
      <trkpt lat="48.3787" lon="2.66889">
        <ele>107</ele>
        <time>2021-12-08T09:13:31.224Z</time>
      </trkpt>
      <trkpt lat="48.37871" lon="2.66887">
        <ele>107</ele>
        <time>2021-12-08T09:13:35.235Z</time>
      </trkpt>
      <trkpt lat="48.37872" lon="2.66882">
        <ele>107</ele>
        <time>2021-12-08T09:13:39.234Z</time>
      </trkpt>
      <trkpt lat="48.37872" lon="2.66874">
        <ele>106</ele>
        <time>2021-12-08T09:14:27.231Z</time>
      </trkpt>
      <trkpt lat="48.37874" lon="2.66871">
        <ele>106</ele>
        <time>2021-12-08T09:14:31.233Z</time>
      </trkpt>
      <trkpt lat="48.37875" lon="2.6687">
        <ele>105</ele>
        <time>2021-12-08T09:14:36.236Z</time>
      </trkpt>
      <trkpt lat="48.37874" lon="2.66861">
        <ele>106</ele>
        <time>2021-12-08T09:14:41.235Z</time>
      </trkpt>
      <trkpt lat="48.37872" lon="2.6686">
        <ele>106</ele>
        <time>2021-12-08T09:14:46.229Z</time>
      </trkpt>
      <trkpt lat="48.37871" lon="2.66862">
        <ele>106</ele>
        <time>2021-12-08T09:14:50.237Z</time>
      </trkpt>
      <trkpt lat="48.37871" lon="2.66857">
        <ele>106</ele>
        <time>2021-12-08T09:14:55.232Z</time>
      </trkpt>
      <trkpt lat="48.37871" lon="2.6685">
        <ele>106</ele>
        <time>2021-12-08T09:14:59.238Z</time>
      </trkpt>
      <trkpt lat="48.37869" lon="2.66846">
        <ele>106</ele>
        <time>2021-12-08T09:15:04.229Z</time>
      </trkpt>
      <trkpt lat="48.37867" lon="2.6684">
        <ele>106</ele>
        <time>2021-12-08T09:15:09.227Z</time>
      </trkpt>
      <trkpt lat="48.37865" lon="2.66835">
        <ele>106</ele>
        <time>2021-12-08T09:15:13.248Z</time>
      </trkpt>
      <trkpt lat="48.37864" lon="2.66828">
        <ele>106</ele>
        <time>2021-12-08T09:15:18.248Z</time>
      </trkpt>
      <trkpt lat="48.37863" lon="2.66819">
        <ele>106</ele>
        <time>2021-12-08T09:15:23.228Z</time>
      </trkpt>
      <trkpt lat="48.37862" lon="2.66813">
        <ele>106</ele>
        <time>2021-12-08T09:15:27.256Z</time>
      </trkpt>
      <trkpt lat="48.37862" lon="2.66803">
        <ele>106</ele>
        <time>2021-12-08T09:15:32.224Z</time>
      </trkpt>
      <trkpt lat="48.37861" lon="2.66796">
        <ele>106</ele>
        <time>2021-12-08T09:15:36.232Z</time>
      </trkpt>
      <trkpt lat="48.3786" lon="2.66789">
        <ele>105</ele>
        <time>2021-12-08T09:15:40.225Z</time>
      </trkpt>
      <trkpt lat="48.37863" lon="2.66788">
        <ele>105</ele>
        <time>2021-12-08T09:15:44.225Z</time>
      </trkpt>
      <trkpt lat="48.37866" lon="2.6678">
        <ele>105</ele>
        <time>2021-12-08T09:15:49.259Z</time>
      </trkpt>
      <trkpt lat="48.37866" lon="2.66772">
        <ele>105</ele>
        <time>2021-12-08T09:15:54.228Z</time>
      </trkpt>
      <trkpt lat="48.37864" lon="2.66768">
        <ele>105</ele>
        <time>2021-12-08T09:15:59.226Z</time>
      </trkpt>
      <trkpt lat="48.37864" lon="2.66762">
        <ele>104</ele>
        <time>2021-12-08T09:16:03.232Z</time>
      </trkpt>
      <trkpt lat="48.37861" lon="2.66755">
        <ele>104</ele>
        <time>2021-12-08T09:16:08.222Z</time>
      </trkpt>
      <trkpt lat="48.37856" lon="2.6675">
        <ele>104</ele>
        <time>2021-12-08T09:16:12.224Z</time>
      </trkpt>
      <trkpt lat="48.37854" lon="2.66741">
        <ele>104</ele>
        <time>2021-12-08T09:16:17.226Z</time>
      </trkpt>
      <trkpt lat="48.37851" lon="2.66732">
        <ele>104</ele>
        <time>2021-12-08T09:16:22.222Z</time>
      </trkpt>
      <trkpt lat="48.37848" lon="2.66723">
        <ele>104</ele>
        <time>2021-12-08T09:16:27.226Z</time>
      </trkpt>
      <trkpt lat="48.37848" lon="2.66717">
        <ele>104</ele>
        <time>2021-12-08T09:16:31.228Z</time>
      </trkpt>
      <trkpt lat="48.37848" lon="2.6671">
        <ele>104</ele>
        <time>2021-12-08T09:16:35.256Z</time>
      </trkpt>
      <trkpt lat="48.37846" lon="2.66702">
        <ele>103</ele>
        <time>2021-12-08T09:16:40.232Z</time>
      </trkpt>
      <trkpt lat="48.37846" lon="2.66694">
        <ele>103</ele>
        <time>2021-12-08T09:16:45.229Z</time>
      </trkpt>
      <trkpt lat="48.37844" lon="2.66687">
        <ele>103</ele>
        <time>2021-12-08T09:16:50.248Z</time>
      </trkpt>
      <trkpt lat="48.37843" lon="2.66682">
        <ele>103</ele>
        <time>2021-12-08T09:16:55.231Z</time>
      </trkpt>
      <trkpt lat="48.37841" lon="2.66676">
        <ele>102</ele>
        <time>2021-12-08T09:16:59.228Z</time>
      </trkpt>
      <trkpt lat="48.37841" lon="2.66671">
        <ele>102</ele>
        <time>2021-12-08T09:17:03.261Z</time>
      </trkpt>
      <trkpt lat="48.3784" lon="2.66663">
        <ele>102</ele>
        <time>2021-12-08T09:17:08.241Z</time>
      </trkpt>
      <trkpt lat="48.37837" lon="2.66659">
        <ele>102</ele>
        <time>2021-12-08T09:17:13.245Z</time>
      </trkpt>
      <trkpt lat="48.37835" lon="2.66653">
        <ele>102</ele>
        <time>2021-12-08T09:17:18.233Z</time>
      </trkpt>
      <trkpt lat="48.37836" lon="2.66652">
        <ele>102</ele>
        <time>2021-12-08T09:17:23.250Z</time>
      </trkpt>
      <trkpt lat="48.37836" lon="2.66651">
        <ele>102</ele>
        <time>2021-12-08T09:17:28.265Z</time>
      </trkpt>
      <trkpt lat="48.37837" lon="2.66643">
        <ele>102</ele>
        <time>2021-12-08T09:17:33.231Z</time>
      </trkpt>
      <trkpt lat="48.37838" lon="2.66638">
        <ele>102</ele>
        <time>2021-12-08T09:17:37.227Z</time>
      </trkpt>
      <trkpt lat="48.37838" lon="2.66635">
        <ele>102</ele>
        <time>2021-12-08T09:18:14.249Z</time>
      </trkpt>
      <trkpt lat="48.3784" lon="2.66633">
        <ele>102</ele>
        <time>2021-12-08T09:18:19.243Z</time>
      </trkpt>
      <trkpt lat="48.37841" lon="2.66627">
        <ele>102</ele>
        <time>2021-12-08T09:18:23.249Z</time>
      </trkpt>
      <trkpt lat="48.37842" lon="2.66621">
        <ele>102</ele>
        <time>2021-12-08T09:18:28.248Z</time>
      </trkpt>
      <trkpt lat="48.37843" lon="2.66614">
        <ele>102</ele>
        <time>2021-12-08T09:18:32.252Z</time>
      </trkpt>
      <trkpt lat="48.37843" lon="2.66607">
        <ele>102</ele>
        <time>2021-12-08T09:18:37.233Z</time>
      </trkpt>
      <trkpt lat="48.37845" lon="2.66602">
        <ele>102</ele>
        <time>2021-12-08T09:18:42.236Z</time>
      </trkpt>
      <trkpt lat="48.37848" lon="2.66595">
        <ele>103</ele>
        <time>2021-12-08T09:18:47.249Z</time>
      </trkpt>
      <trkpt lat="48.37849" lon="2.66587">
        <ele>103</ele>
        <time>2021-12-08T09:18:52.230Z</time>
      </trkpt>
      <trkpt lat="48.37849" lon="2.6658">
        <ele>103</ele>
        <time>2021-12-08T09:18:57.227Z</time>
      </trkpt>
      <trkpt lat="48.3785" lon="2.66573">
        <ele>103</ele>
        <time>2021-12-08T09:19:02.223Z</time>
      </trkpt>
      <trkpt lat="48.3785" lon="2.66568">
        <ele>104</ele>
        <time>2021-12-08T09:19:06.225Z</time>
      </trkpt>
      <trkpt lat="48.37852" lon="2.6656">
        <ele>104</ele>
        <time>2021-12-08T09:19:11.222Z</time>
      </trkpt>
      <trkpt lat="48.37852" lon="2.66553">
        <ele>104</ele>
        <time>2021-12-08T09:19:15.230Z</time>
      </trkpt>
      <trkpt lat="48.37852" lon="2.66545">
        <ele>104</ele>
        <time>2021-12-08T09:19:20.233Z</time>
      </trkpt>
      <trkpt lat="48.37853" lon="2.66537">
        <ele>105</ele>
        <time>2021-12-08T09:19:25.228Z</time>
      </trkpt>
      <trkpt lat="48.37855" lon="2.6653">
        <ele>105</ele>
        <time>2021-12-08T09:19:30.228Z</time>
      </trkpt>
      <trkpt lat="48.37857" lon="2.66523">
        <ele>105</ele>
        <time>2021-12-08T09:19:35.232Z</time>
      </trkpt>
      <trkpt lat="48.37857" lon="2.66517">
        <ele>105</ele>
        <time>2021-12-08T09:19:39.243Z</time>
      </trkpt>
      <trkpt lat="48.37859" lon="2.66509">
        <ele>106</ele>
        <time>2021-12-08T09:19:44.229Z</time>
      </trkpt>
      <trkpt lat="48.3786" lon="2.66504">
        <ele>106</ele>
        <time>2021-12-08T09:19:49.228Z</time>
      </trkpt>
      <trkpt lat="48.3786" lon="2.66496">
        <ele>106</ele>
        <time>2021-12-08T09:19:54.232Z</time>
      </trkpt>
      <trkpt lat="48.37861" lon="2.66489">
        <ele>106</ele>
        <time>2021-12-08T09:19:59.225Z</time>
      </trkpt>
      <trkpt lat="48.37863" lon="2.66483">
        <ele>108</ele>
        <time>2021-12-08T09:20:03.232Z</time>
      </trkpt>
      <trkpt lat="48.37864" lon="2.66475">
        <ele>108</ele>
        <time>2021-12-08T09:20:08.260Z</time>
      </trkpt>
      <trkpt lat="48.37865" lon="2.66468">
        <ele>108</ele>
        <time>2021-12-08T09:20:13.233Z</time>
      </trkpt>
      <trkpt lat="48.37867" lon="2.6646">
        <ele>108</ele>
        <time>2021-12-08T09:20:18.224Z</time>
      </trkpt>
      <trkpt lat="48.37869" lon="2.66453">
        <ele>110</ele>
        <time>2021-12-08T09:20:22.268Z</time>
      </trkpt>
      <trkpt lat="48.3787" lon="2.66444">
        <ele>110</ele>
        <time>2021-12-08T09:20:27.231Z</time>
      </trkpt>
      <trkpt lat="48.37871" lon="2.66438">
        <ele>110</ele>
        <time>2021-12-08T09:20:31.233Z</time>
      </trkpt>
      <trkpt lat="48.37871" lon="2.66431">
        <ele>110</ele>
        <time>2021-12-08T09:20:36.229Z</time>
      </trkpt>
      <trkpt lat="48.37872" lon="2.66423">
        <ele>113</ele>
        <time>2021-12-08T09:20:41.228Z</time>
      </trkpt>
      <trkpt lat="48.37874" lon="2.66414">
        <ele>113</ele>
        <time>2021-12-08T09:20:46.226Z</time>
      </trkpt>
      <trkpt lat="48.37875" lon="2.66408">
        <ele>113</ele>
        <time>2021-12-08T09:20:50.230Z</time>
      </trkpt>
      <trkpt lat="48.37875" lon="2.66403">
        <ele>112</ele>
        <time>2021-12-08T09:20:54.268Z</time>
      </trkpt>
      <trkpt lat="48.37877" lon="2.66395">
        <ele>114</ele>
        <time>2021-12-08T09:20:59.233Z</time>
      </trkpt>
      <trkpt lat="48.37878" lon="2.66389">
        <ele>114</ele>
        <time>2021-12-08T09:21:03.234Z</time>
      </trkpt>
      <trkpt lat="48.3788" lon="2.6638">
        <ele>114</ele>
        <time>2021-12-08T09:21:08.231Z</time>
      </trkpt>
      <trkpt lat="48.37882" lon="2.6637">
        <ele>115</ele>
        <time>2021-12-08T09:21:13.251Z</time>
      </trkpt>
      <trkpt lat="48.37883" lon="2.66362">
        <ele>115</ele>
        <time>2021-12-08T09:21:17.258Z</time>
      </trkpt>
      <trkpt lat="48.37881" lon="2.66353">
        <ele>115</ele>
        <time>2021-12-08T09:21:22.234Z</time>
      </trkpt>
      <trkpt lat="48.37877" lon="2.66346">
        <ele>115</ele>
        <time>2021-12-08T09:21:27.226Z</time>
      </trkpt>
      <trkpt lat="48.37872" lon="2.66339">
        <ele>115</ele>
        <time>2021-12-08T09:21:32.223Z</time>
      </trkpt>
      <trkpt lat="48.37864" lon="2.66333">
        <ele>115</ele>
        <time>2021-12-08T09:21:37.224Z</time>
      </trkpt>
      <trkpt lat="48.37858" lon="2.66329">
        <ele>115</ele>
        <time>2021-12-08T09:21:41.226Z</time>
      </trkpt>
      <trkpt lat="48.37854" lon="2.66325">
        <ele>115</ele>
        <time>2021-12-08T09:21:46.227Z</time>
      </trkpt>
      <trkpt lat="48.3785" lon="2.66318">
        <ele>116</ele>
        <time>2021-12-08T09:21:51.272Z</time>
      </trkpt>
      <trkpt lat="48.37849" lon="2.66311">
        <ele>116</ele>
        <time>2021-12-08T09:21:56.236Z</time>
      </trkpt>
      <trkpt lat="48.37846" lon="2.66307">
        <ele>120</ele>
        <time>2021-12-08T09:22:00.235Z</time>
      </trkpt>
      <trkpt lat="48.37843" lon="2.66302">
        <ele>120</ele>
        <time>2021-12-08T09:22:05.230Z</time>
      </trkpt>
      <trkpt lat="48.3784" lon="2.66295">
        <ele>120</ele>
        <time>2021-12-08T09:22:10.232Z</time>
      </trkpt>
      <trkpt lat="48.37837" lon="2.66288">
        <ele>121</ele>
        <time>2021-12-08T09:22:15.227Z</time>
      </trkpt>
      <trkpt lat="48.37834" lon="2.66283">
        <ele>121</ele>
        <time>2021-12-08T09:22:19.223Z</time>
      </trkpt>
      <trkpt lat="48.37832" lon="2.66275">
        <ele>121</ele>
        <time>2021-12-08T09:22:24.226Z</time>
      </trkpt>
      <trkpt lat="48.37828" lon="2.6627">
        <ele>121</ele>
        <time>2021-12-08T09:22:28.235Z</time>
      </trkpt>
      <trkpt lat="48.37824" lon="2.66264">
        <ele>122</ele>
        <time>2021-12-08T09:22:33.231Z</time>
      </trkpt>
      <trkpt lat="48.37821" lon="2.66259">
        <ele>122</ele>
        <time>2021-12-08T09:22:38.228Z</time>
      </trkpt>
      <trkpt lat="48.37817" lon="2.66253">
        <ele>123</ele>
        <time>2021-12-08T09:22:43.226Z</time>
      </trkpt>
      <trkpt lat="48.37813" lon="2.66248">
        <ele>123</ele>
        <time>2021-12-08T09:22:47.235Z</time>
      </trkpt>
      <trkpt lat="48.37809" lon="2.66244">
        <ele>123</ele>
        <time>2021-12-08T09:22:51.232Z</time>
      </trkpt>
      <trkpt lat="48.37806" lon="2.6624">
        <ele>123</ele>
        <time>2021-12-08T09:22:55.233Z</time>
      </trkpt>
      <trkpt lat="48.37802" lon="2.66236">
        <ele>124</ele>
        <time>2021-12-08T09:22:59.251Z</time>
      </trkpt>
      <trkpt lat="48.37798" lon="2.66232">
        <ele>124</ele>
        <time>2021-12-08T09:23:04.230Z</time>
      </trkpt>
      <trkpt lat="48.37793" lon="2.66226">
        <ele>124</ele>
        <time>2021-12-08T09:23:09.224Z</time>
      </trkpt>
      <trkpt lat="48.37788" lon="2.66219">
        <ele>125</ele>
        <time>2021-12-08T09:23:14.225Z</time>
      </trkpt>
      <trkpt lat="48.37784" lon="2.66213">
        <ele>125</ele>
        <time>2021-12-08T09:23:19.229Z</time>
      </trkpt>
      <trkpt lat="48.37779" lon="2.66207">
        <ele>127</ele>
        <time>2021-12-08T09:23:24.228Z</time>
      </trkpt>
      <trkpt lat="48.37775" lon="2.66201">
        <ele>127</ele>
        <time>2021-12-08T09:23:28.226Z</time>
      </trkpt>
      <trkpt lat="48.3777" lon="2.66195">
        <ele>127</ele>
        <time>2021-12-08T09:23:33.231Z</time>
      </trkpt>
      <trkpt lat="48.37766" lon="2.6619">
        <ele>127</ele>
        <time>2021-12-08T09:23:37.234Z</time>
      </trkpt>
      <trkpt lat="48.37762" lon="2.66185">
        <ele>127</ele>
        <time>2021-12-08T09:23:41.267Z</time>
      </trkpt>
      <trkpt lat="48.37756" lon="2.6618">
        <ele>128</ele>
        <time>2021-12-08T09:23:46.235Z</time>
      </trkpt>
      <trkpt lat="48.3775" lon="2.66177">
        <ele>128</ele>
        <time>2021-12-08T09:23:51.237Z</time>
      </trkpt>
      <trkpt lat="48.37747" lon="2.66172">
        <ele>128</ele>
        <time>2021-12-08T09:23:55.234Z</time>
      </trkpt>
      <trkpt lat="48.37743" lon="2.66166">
        <ele>128</ele>
        <time>2021-12-08T09:24:00.232Z</time>
      </trkpt>
      <trkpt lat="48.37739" lon="2.66161">
        <ele>128</ele>
        <time>2021-12-08T09:24:05.235Z</time>
      </trkpt>
      <trkpt lat="48.37736" lon="2.66154">
        <ele>127</ele>
        <time>2021-12-08T09:24:10.224Z</time>
      </trkpt>
      <trkpt lat="48.37731" lon="2.66147">
        <ele>127</ele>
        <time>2021-12-08T09:24:15.232Z</time>
      </trkpt>
      <trkpt lat="48.37727" lon="2.66142">
        <ele>127</ele>
        <time>2021-12-08T09:24:20.231Z</time>
      </trkpt>
      <trkpt lat="48.37722" lon="2.66138">
        <ele>127</ele>
        <time>2021-12-08T09:24:24.235Z</time>
      </trkpt>
      <trkpt lat="48.37717" lon="2.66133">
        <ele>127</ele>
        <time>2021-12-08T09:24:29.237Z</time>
      </trkpt>
      <trkpt lat="48.37713" lon="2.66128">
        <ele>127</ele>
        <time>2021-12-08T09:24:33.242Z</time>
      </trkpt>
      <trkpt lat="48.37708" lon="2.66124">
        <ele>128</ele>
        <time>2021-12-08T09:24:37.264Z</time>
      </trkpt>
      <trkpt lat="48.37704" lon="2.66118">
        <ele>127</ele>
        <time>2021-12-08T09:24:42.234Z</time>
      </trkpt>
      <trkpt lat="48.377" lon="2.66113">
        <ele>127</ele>
        <time>2021-12-08T09:24:46.250Z</time>
      </trkpt>
      <trkpt lat="48.37695" lon="2.66106">
        <ele>127</ele>
        <time>2021-12-08T09:24:51.226Z</time>
      </trkpt>
      <trkpt lat="48.37691" lon="2.66101">
        <ele>127</ele>
        <time>2021-12-08T09:24:55.254Z</time>
      </trkpt>
      <trkpt lat="48.37686" lon="2.66097">
        <ele>128</ele>
        <time>2021-12-08T09:25:00.226Z</time>
      </trkpt>
      <trkpt lat="48.37681" lon="2.66091">
        <ele>128</ele>
        <time>2021-12-08T09:25:05.231Z</time>
      </trkpt>
      <trkpt lat="48.37677" lon="2.66087">
        <ele>126</ele>
        <time>2021-12-08T09:25:09.256Z</time>
      </trkpt>
      <trkpt lat="48.37672" lon="2.66081">
        <ele>126</ele>
        <time>2021-12-08T09:25:14.223Z</time>
      </trkpt>
      <trkpt lat="48.37667" lon="2.66075">
        <ele>126</ele>
        <time>2021-12-08T09:25:19.234Z</time>
      </trkpt>
      <trkpt lat="48.37663" lon="2.6607">
        <ele>126</ele>
        <time>2021-12-08T09:25:24.225Z</time>
      </trkpt>
      <trkpt lat="48.3766" lon="2.66065">
        <ele>127</ele>
        <time>2021-12-08T09:25:28.251Z</time>
      </trkpt>
      <trkpt lat="48.37656" lon="2.6606">
        <ele>127</ele>
        <time>2021-12-08T09:25:33.232Z</time>
      </trkpt>
      <trkpt lat="48.37652" lon="2.66055">
        <ele>127</ele>
        <time>2021-12-08T09:25:37.234Z</time>
      </trkpt>
      <trkpt lat="48.37649" lon="2.66053">
        <ele>127</ele>
        <time>2021-12-08T09:25:42.221Z</time>
      </trkpt>
      <trkpt lat="48.37648" lon="2.66051">
        <ele>127</ele>
        <time>2021-12-08T09:25:47.250Z</time>
      </trkpt>
      <trkpt lat="48.37642" lon="2.66045">
        <ele>127</ele>
        <time>2021-12-08T09:25:52.220Z</time>
      </trkpt>
      <trkpt lat="48.37637" lon="2.66052">
        <ele>127</ele>
        <time>2021-12-08T09:25:57.226Z</time>
      </trkpt>
      <trkpt lat="48.37639" lon="2.66062">
        <ele>127</ele>
        <time>2021-12-08T09:26:02.218Z</time>
      </trkpt>
      <trkpt lat="48.37639" lon="2.66068">
        <ele>127</ele>
        <time>2021-12-08T09:26:06.229Z</time>
      </trkpt>
      <trkpt lat="48.37638" lon="2.66074">
        <ele>125</ele>
        <time>2021-12-08T09:26:10.234Z</time>
      </trkpt>
      <trkpt lat="48.37638" lon="2.6608">
        <ele>125</ele>
        <time>2021-12-08T09:26:14.232Z</time>
      </trkpt>
      <trkpt lat="48.37638" lon="2.66087">
        <ele>125</ele>
        <time>2021-12-08T09:26:19.236Z</time>
      </trkpt>
      <trkpt lat="48.37639" lon="2.66095">
        <ele>125</ele>
        <time>2021-12-08T09:26:24.226Z</time>
      </trkpt>
      <trkpt lat="48.3764" lon="2.66101">
        <ele>123</ele>
        <time>2021-12-08T09:26:29.220Z</time>
      </trkpt>
      <trkpt lat="48.37641" lon="2.66107">
        <ele>123</ele>
        <time>2021-12-08T09:26:33.231Z</time>
      </trkpt>
      <trkpt lat="48.37642" lon="2.66114">
        <ele>123</ele>
        <time>2021-12-08T09:26:38.257Z</time>
      </trkpt>
      <trkpt lat="48.37643" lon="2.6612">
        <ele>123</ele>
        <time>2021-12-08T09:26:43.222Z</time>
      </trkpt>
      <trkpt lat="48.37643" lon="2.66126">
        <ele>120</ele>
        <time>2021-12-08T09:26:48.225Z</time>
      </trkpt>
      <trkpt lat="48.37643" lon="2.66134">
        <ele>120</ele>
        <time>2021-12-08T09:26:53.223Z</time>
      </trkpt>
      <trkpt lat="48.37643" lon="2.66139">
        <ele>120</ele>
        <time>2021-12-08T09:26:57.234Z</time>
      </trkpt>
      <trkpt lat="48.37644" lon="2.66146">
        <ele>120</ele>
        <time>2021-12-08T09:27:02.226Z</time>
      </trkpt>
      <trkpt lat="48.37644" lon="2.66154">
        <ele>117</ele>
        <time>2021-12-08T09:27:07.233Z</time>
      </trkpt>
      <trkpt lat="48.37645" lon="2.66161">
        <ele>117</ele>
        <time>2021-12-08T09:27:12.226Z</time>
      </trkpt>
      <trkpt lat="48.37645" lon="2.66168">
        <ele>117</ele>
        <time>2021-12-08T09:27:17.225Z</time>
      </trkpt>
      <trkpt lat="48.37646" lon="2.66177">
        <ele>117</ele>
        <time>2021-12-08T09:27:22.229Z</time>
      </trkpt>
      <trkpt lat="48.37646" lon="2.66184">
        <ele>116</ele>
        <time>2021-12-08T09:27:26.250Z</time>
      </trkpt>
      <trkpt lat="48.37645" lon="2.66192">
        <ele>116</ele>
        <time>2021-12-08T09:27:31.233Z</time>
      </trkpt>
      <trkpt lat="48.37644" lon="2.662">
        <ele>116</ele>
        <time>2021-12-08T09:27:36.229Z</time>
      </trkpt>
      <trkpt lat="48.37642" lon="2.66208">
        <ele>116</ele>
        <time>2021-12-08T09:27:41.229Z</time>
      </trkpt>
      <trkpt lat="48.37641" lon="2.66216">
        <ele>114</ele>
        <time>2021-12-08T09:27:45.249Z</time>
      </trkpt>
      <trkpt lat="48.37639" lon="2.66223">
        <ele>114</ele>
        <time>2021-12-08T09:27:49.255Z</time>
      </trkpt>
      <trkpt lat="48.37638" lon="2.6623">
        <ele>114</ele>
        <time>2021-12-08T09:27:54.226Z</time>
      </trkpt>
      <trkpt lat="48.37637" lon="2.66235">
        <ele>114</ele>
        <time>2021-12-08T09:27:58.256Z</time>
      </trkpt>
      <trkpt lat="48.37635" lon="2.66242">
        <ele>112</ele>
        <time>2021-12-08T09:28:03.243Z</time>
      </trkpt>
      <trkpt lat="48.37633" lon="2.66251">
        <ele>112</ele>
        <time>2021-12-08T09:28:08.246Z</time>
      </trkpt>
      <trkpt lat="48.37632" lon="2.6626">
        <ele>112</ele>
        <time>2021-12-08T09:28:13.237Z</time>
      </trkpt>
      <trkpt lat="48.3763" lon="2.66269">
        <ele>109</ele>
        <time>2021-12-08T09:28:18.223Z</time>
      </trkpt>
      <trkpt lat="48.37629" lon="2.66275">
        <ele>109</ele>
        <time>2021-12-08T09:28:22.231Z</time>
      </trkpt>
      <trkpt lat="48.37627" lon="2.66282">
        <ele>109</ele>
        <time>2021-12-08T09:28:26.226Z</time>
      </trkpt>
      <trkpt lat="48.37625" lon="2.6629">
        <ele>110</ele>
        <time>2021-12-08T09:28:31.226Z</time>
      </trkpt>
      <trkpt lat="48.37623" lon="2.66297">
        <ele>109</ele>
        <time>2021-12-08T09:28:36.273Z</time>
      </trkpt>
      <trkpt lat="48.3762" lon="2.66305">
        <ele>109</ele>
        <time>2021-12-08T09:28:41.227Z</time>
      </trkpt>
      <trkpt lat="48.37619" lon="2.6631">
        <ele>109</ele>
        <time>2021-12-08T09:28:45.235Z</time>
      </trkpt>
      <trkpt lat="48.37615" lon="2.66318">
        <ele>109</ele>
        <time>2021-12-08T09:28:50.235Z</time>
      </trkpt>
      <trkpt lat="48.37607" lon="2.66337">
        <ele>108</ele>
        <time>2021-12-08T09:30:01.224Z</time>
      </trkpt>
      <trkpt lat="48.37607" lon="2.66337">
        <ele>108</ele>
        <time>2021-12-08T09:30:05.225Z</time>
      </trkpt>
      <trkpt lat="48.37607" lon="2.66337">
        <ele>108</ele>
        <time>2021-12-08T09:30:10.239Z</time>
      </trkpt>
      <trkpt lat="48.37607" lon="2.66337">
        <ele>108</ele>
        <time>2021-12-08T09:30:15.223Z</time>
      </trkpt>
      <trkpt lat="48.37607" lon="2.66338">
        <ele>108</ele>
        <time>2021-12-08T09:30:19.226Z</time>
      </trkpt>
      <trkpt lat="48.37607" lon="2.66338">
        <ele>108</ele>
        <time>2021-12-08T09:30:47.226Z</time>
      </trkpt>
      <trkpt lat="48.37606" lon="2.66339">
        <ele>108</ele>
        <time>2021-12-08T09:30:52.224Z</time>
      </trkpt>
      <trkpt lat="48.37606" lon="2.66339">
        <ele>108</ele>
        <time>2021-12-08T09:30:57.233Z</time>
      </trkpt>
      <trkpt lat="48.37599" lon="2.66337">
        <ele>108</ele>
        <time>2021-12-08T09:31:02.234Z</time>
      </trkpt>
      <trkpt lat="48.37595" lon="2.66335">
        <ele>112</ele>
        <time>2021-12-08T09:31:06.263Z</time>
      </trkpt>
      <trkpt lat="48.37592" lon="2.66333">
        <ele>112</ele>
        <time>2021-12-08T09:31:11.242Z</time>
      </trkpt>
      <trkpt lat="48.37588" lon="2.66331">
        <ele>112</ele>
        <time>2021-12-08T09:31:16.239Z</time>
      </trkpt>
      <trkpt lat="48.37585" lon="2.66327">
        <ele>112</ele>
        <time>2021-12-08T09:31:20.240Z</time>
      </trkpt>
      <trkpt lat="48.37582" lon="2.66322">
        <ele>112</ele>
        <time>2021-12-08T09:31:24.235Z</time>
      </trkpt>
      <trkpt lat="48.37579" lon="2.66317">
        <ele>112</ele>
        <time>2021-12-08T09:31:28.255Z</time>
      </trkpt>
      <trkpt lat="48.37575" lon="2.66311">
        <ele>112</ele>
        <time>2021-12-08T09:31:33.225Z</time>
      </trkpt>
      <trkpt lat="48.3757" lon="2.66307">
        <ele>112</ele>
        <time>2021-12-08T09:31:37.256Z</time>
      </trkpt>
      <trkpt lat="48.37565" lon="2.66301">
        <ele>115</ele>
        <time>2021-12-08T09:31:42.221Z</time>
      </trkpt>
      <trkpt lat="48.37561" lon="2.66298">
        <ele>115</ele>
        <time>2021-12-08T09:31:46.235Z</time>
      </trkpt>
      <trkpt lat="48.37558" lon="2.66294">
        <ele>115</ele>
        <time>2021-12-08T09:31:51.227Z</time>
      </trkpt>
      <trkpt lat="48.37554" lon="2.66289">
        <ele>114</ele>
        <time>2021-12-08T09:31:56.232Z</time>
      </trkpt>
      <trkpt lat="48.3755" lon="2.66286">
        <ele>114</ele>
        <time>2021-12-08T09:32:00.262Z</time>
      </trkpt>
      <trkpt lat="48.37545" lon="2.66283">
        <ele>114</ele>
        <time>2021-12-08T09:32:05.232Z</time>
      </trkpt>
      <trkpt lat="48.3754" lon="2.66282">
        <ele>117</ele>
        <time>2021-12-08T09:32:10.232Z</time>
      </trkpt>
      <trkpt lat="48.37536" lon="2.66278">
        <ele>117</ele>
        <time>2021-12-08T09:32:14.243Z</time>
      </trkpt>
      <trkpt lat="48.37534" lon="2.66275">
        <ele>117</ele>
        <time>2021-12-08T09:32:18.265Z</time>
      </trkpt>
      <trkpt lat="48.37532" lon="2.66269">
        <ele>117</ele>
        <time>2021-12-08T09:32:23.228Z</time>
      </trkpt>
      <trkpt lat="48.37528" lon="2.6627">
        <ele>117</ele>
        <time>2021-12-08T09:32:28.252Z</time>
      </trkpt>
      <trkpt lat="48.37523" lon="2.66268">
        <ele>117</ele>
        <time>2021-12-08T09:32:33.226Z</time>
      </trkpt>
      <trkpt lat="48.3752" lon="2.66266">
        <ele>117</ele>
        <time>2021-12-08T09:32:37.246Z</time>
      </trkpt>
      <trkpt lat="48.37516" lon="2.66264">
        <ele>117</ele>
        <time>2021-12-08T09:32:42.232Z</time>
      </trkpt>
      <trkpt lat="48.37513" lon="2.66263">
        <ele>118</ele>
        <time>2021-12-08T09:32:47.233Z</time>
      </trkpt>
      <trkpt lat="48.3751" lon="2.6626">
        <ele>118</ele>
        <time>2021-12-08T09:32:51.254Z</time>
      </trkpt>
      <trkpt lat="48.37505" lon="2.66257">
        <ele>118</ele>
        <time>2021-12-08T09:32:56.224Z</time>
      </trkpt>
      <trkpt lat="48.37501" lon="2.66256">
        <ele>118</ele>
        <time>2021-12-08T09:33:00.232Z</time>
      </trkpt>
      <trkpt lat="48.37497" lon="2.66254">
        <ele>118</ele>
        <time>2021-12-08T09:33:04.234Z</time>
      </trkpt>
      <trkpt lat="48.37493" lon="2.66252">
        <ele>118</ele>
        <time>2021-12-08T09:33:08.250Z</time>
      </trkpt>
      <trkpt lat="48.37488" lon="2.66251">
        <ele>118</ele>
        <time>2021-12-08T09:33:13.240Z</time>
      </trkpt>
      <trkpt lat="48.37484" lon="2.66251">
        <ele>118</ele>
        <time>2021-12-08T09:33:17.262Z</time>
      </trkpt>
      <trkpt lat="48.37479" lon="2.66248">
        <ele>118</ele>
        <time>2021-12-08T09:33:22.235Z</time>
      </trkpt>
      <trkpt lat="48.37474" lon="2.66246">
        <ele>118</ele>
        <time>2021-12-08T09:33:27.230Z</time>
      </trkpt>
      <trkpt lat="48.3747" lon="2.66245">
        <ele>118</ele>
        <time>2021-12-08T09:33:31.236Z</time>
      </trkpt>
      <trkpt lat="48.37464" lon="2.66239">
        <ele>118</ele>
        <time>2021-12-08T09:33:36.241Z</time>
      </trkpt>
      <trkpt lat="48.37457" lon="2.66234">
        <ele>119</ele>
        <time>2021-12-08T09:33:41.236Z</time>
      </trkpt>
      <trkpt lat="48.37452" lon="2.66229">
        <ele>119</ele>
        <time>2021-12-08T09:33:45.237Z</time>
      </trkpt>
      <trkpt lat="48.37448" lon="2.66223">
        <ele>119</ele>
        <time>2021-12-08T09:33:50.235Z</time>
      </trkpt>
      <trkpt lat="48.37442" lon="2.6622">
        <ele>119</ele>
        <time>2021-12-08T09:33:55.240Z</time>
      </trkpt>
      <trkpt lat="48.37437" lon="2.66218">
        <ele>119</ele>
        <time>2021-12-08T09:34:00.225Z</time>
      </trkpt>
      <trkpt lat="48.37433" lon="2.66215">
        <ele>119</ele>
        <time>2021-12-08T09:34:04.233Z</time>
      </trkpt>
      <trkpt lat="48.37427" lon="2.66213">
        <ele>120</ele>
        <time>2021-12-08T09:34:09.238Z</time>
      </trkpt>
      <trkpt lat="48.37424" lon="2.66211">
        <ele>120</ele>
        <time>2021-12-08T09:34:13.233Z</time>
      </trkpt>
      <trkpt lat="48.3742" lon="2.66209">
        <ele>120</ele>
        <time>2021-12-08T09:34:18.232Z</time>
      </trkpt>
      <trkpt lat="48.37417" lon="2.66208">
        <ele>120</ele>
        <time>2021-12-08T09:34:22.238Z</time>
      </trkpt>
      <trkpt lat="48.37413" lon="2.66206">
        <ele>122</ele>
        <time>2021-12-08T09:34:27.233Z</time>
      </trkpt>
      <trkpt lat="48.37406" lon="2.662">
        <ele>122</ele>
        <time>2021-12-08T09:34:32.238Z</time>
      </trkpt>
      <trkpt lat="48.37398" lon="2.66198">
        <ele>123</ele>
        <time>2021-12-08T09:34:37.242Z</time>
      </trkpt>
      <trkpt lat="48.37394" lon="2.66196">
        <ele>123</ele>
        <time>2021-12-08T09:34:41.236Z</time>
      </trkpt>
      <trkpt lat="48.37388" lon="2.66193">
        <ele>123</ele>
        <time>2021-12-08T09:34:46.242Z</time>
      </trkpt>
      <trkpt lat="48.37383" lon="2.66187">
        <ele>123</ele>
        <time>2021-12-08T09:34:51.274Z</time>
      </trkpt>
      <trkpt lat="48.37378" lon="2.66183">
        <ele>123</ele>
        <time>2021-12-08T09:34:56.229Z</time>
      </trkpt>
      <trkpt lat="48.37375" lon="2.6618">
        <ele>124</ele>
        <time>2021-12-08T09:35:00.229Z</time>
      </trkpt>
      <trkpt lat="48.37371" lon="2.66174">
        <ele>124</ele>
        <time>2021-12-08T09:35:05.254Z</time>
      </trkpt>
      <trkpt lat="48.37367" lon="2.66168">
        <ele>124</ele>
        <time>2021-12-08T09:35:10.234Z</time>
      </trkpt>
      <trkpt lat="48.37362" lon="2.66162">
        <ele>124</ele>
        <time>2021-12-08T09:35:15.238Z</time>
      </trkpt>
      <trkpt lat="48.37358" lon="2.66156">
        <ele>124</ele>
        <time>2021-12-08T09:35:20.238Z</time>
      </trkpt>
      <trkpt lat="48.37354" lon="2.6615">
        <ele>125</ele>
        <time>2021-12-08T09:35:25.240Z</time>
      </trkpt>
      <trkpt lat="48.3735" lon="2.66147">
        <ele>125</ele>
        <time>2021-12-08T09:35:29.244Z</time>
      </trkpt>
      <trkpt lat="48.37345" lon="2.66143">
        <ele>123</ele>
        <time>2021-12-08T09:35:34.237Z</time>
      </trkpt>
      <trkpt lat="48.37339" lon="2.6614">
        <ele>123</ele>
        <time>2021-12-08T09:35:39.234Z</time>
      </trkpt>
      <trkpt lat="48.37333" lon="2.66136">
        <ele>123</ele>
        <time>2021-12-08T09:35:44.233Z</time>
      </trkpt>
      <trkpt lat="48.37327" lon="2.66132">
        <ele>123</ele>
        <time>2021-12-08T09:35:49.226Z</time>
      </trkpt>
      <trkpt lat="48.37321" lon="2.66129">
        <ele>123</ele>
        <time>2021-12-08T09:35:54.248Z</time>
      </trkpt>
      <trkpt lat="48.37316" lon="2.66127">
        <ele>122</ele>
        <time>2021-12-08T09:35:59.251Z</time>
      </trkpt>
      <trkpt lat="48.3731" lon="2.66126">
        <ele>122</ele>
        <time>2021-12-08T09:36:04.260Z</time>
      </trkpt>
      <trkpt lat="48.37304" lon="2.66125">
        <ele>122</ele>
        <time>2021-12-08T09:36:09.245Z</time>
      </trkpt>
      <trkpt lat="48.37298" lon="2.66124">
        <ele>124</ele>
        <time>2021-12-08T09:36:14.265Z</time>
      </trkpt>
      <trkpt lat="48.37292" lon="2.66123">
        <ele>124</ele>
        <time>2021-12-08T09:36:19.223Z</time>
      </trkpt>
      <trkpt lat="48.37286" lon="2.6612">
        <ele>125</ele>
        <time>2021-12-08T09:36:24.225Z</time>
      </trkpt>
      <trkpt lat="48.37282" lon="2.66119">
        <ele>125</ele>
        <time>2021-12-08T09:36:29.224Z</time>
      </trkpt>
      <trkpt lat="48.37277" lon="2.66116">
        <ele>125</ele>
        <time>2021-12-08T09:36:33.235Z</time>
      </trkpt>
      <trkpt lat="48.37271" lon="2.66113">
        <ele>125</ele>
        <time>2021-12-08T09:36:38.238Z</time>
      </trkpt>
      <trkpt lat="48.37266" lon="2.6611">
        <ele>125</ele>
        <time>2021-12-08T09:36:43.226Z</time>
      </trkpt>
      <trkpt lat="48.37261" lon="2.66107">
        <ele>125</ele>
        <time>2021-12-08T09:36:48.220Z</time>
      </trkpt>
      <trkpt lat="48.37256" lon="2.66104">
        <ele>125</ele>
        <time>2021-12-08T09:36:52.236Z</time>
      </trkpt>
      <trkpt lat="48.37251" lon="2.66097">
        <ele>125</ele>
        <time>2021-12-08T09:36:57.232Z</time>
      </trkpt>
      <trkpt lat="48.37244" lon="2.66091">
        <ele>125</ele>
        <time>2021-12-08T09:37:02.232Z</time>
      </trkpt>
      <trkpt lat="48.37239" lon="2.66085">
        <ele>125</ele>
        <time>2021-12-08T09:37:07.246Z</time>
      </trkpt>
      <trkpt lat="48.37234" lon="2.66074">
        <ele>126</ele>
        <time>2021-12-08T09:37:12.246Z</time>
      </trkpt>
      <trkpt lat="48.3723" lon="2.66065">
        <ele>126</ele>
        <time>2021-12-08T09:37:17.243Z</time>
      </trkpt>
      <trkpt lat="48.37225" lon="2.66056">
        <ele>126</ele>
        <time>2021-12-08T09:37:22.230Z</time>
      </trkpt>
      <trkpt lat="48.3722" lon="2.6605">
        <ele>126</ele>
        <time>2021-12-08T09:37:26.233Z</time>
      </trkpt>
      <trkpt lat="48.37216" lon="2.66044">
        <ele>126</ele>
        <time>2021-12-08T09:37:30.238Z</time>
      </trkpt>
      <trkpt lat="48.37214" lon="2.66036">
        <ele>126</ele>
        <time>2021-12-08T09:37:34.244Z</time>
      </trkpt>
      <trkpt lat="48.37209" lon="2.66027">
        <ele>126</ele>
        <time>2021-12-08T09:37:39.232Z</time>
      </trkpt>
      <trkpt lat="48.37203" lon="2.66017">
        <ele>128</ele>
        <time>2021-12-08T09:37:44.244Z</time>
      </trkpt>
      <trkpt lat="48.37197" lon="2.66009">
        <ele>128</ele>
        <time>2021-12-08T09:37:49.246Z</time>
      </trkpt>
      <trkpt lat="48.37192" lon="2.66">
        <ele>128</ele>
        <time>2021-12-08T09:37:54.233Z</time>
      </trkpt>
      <trkpt lat="48.37187" lon="2.65995">
        <ele>128</ele>
        <time>2021-12-08T09:37:58.239Z</time>
      </trkpt>
      <trkpt lat="48.37181" lon="2.65987">
        <ele>128</ele>
        <time>2021-12-08T09:38:03.229Z</time>
      </trkpt>
      <trkpt lat="48.37174" lon="2.6598">
        <ele>127</ele>
        <time>2021-12-08T09:38:08.223Z</time>
      </trkpt>
      <trkpt lat="48.37166" lon="2.65977">
        <ele>127</ele>
        <time>2021-12-08T09:38:13.231Z</time>
      </trkpt>
      <trkpt lat="48.3716" lon="2.65975">
        <ele>127</ele>
        <time>2021-12-08T09:38:17.235Z</time>
      </trkpt>
      <trkpt lat="48.37153" lon="2.65975">
        <ele>127</ele>
        <time>2021-12-08T09:38:22.234Z</time>
      </trkpt>
      <trkpt lat="48.37149" lon="2.65973">
        <ele>128</ele>
        <time>2021-12-08T09:38:26.236Z</time>
      </trkpt>
      <trkpt lat="48.37143" lon="2.6597">
        <ele>128</ele>
        <time>2021-12-08T09:38:31.230Z</time>
      </trkpt>
      <trkpt lat="48.37138" lon="2.65966">
        <ele>128</ele>
        <time>2021-12-08T09:38:36.238Z</time>
      </trkpt>
      <trkpt lat="48.37132" lon="2.65966">
        <ele>128</ele>
        <time>2021-12-08T09:38:41.251Z</time>
      </trkpt>
      <trkpt lat="48.37126" lon="2.65967">
        <ele>128</ele>
        <time>2021-12-08T09:38:46.227Z</time>
      </trkpt>
      <trkpt lat="48.37121" lon="2.65968">
        <ele>127</ele>
        <time>2021-12-08T09:38:51.226Z</time>
      </trkpt>
      <trkpt lat="48.37116" lon="2.65968">
        <ele>127</ele>
        <time>2021-12-08T09:38:55.237Z</time>
      </trkpt>
      <trkpt lat="48.3711" lon="2.65969">
        <ele>127</ele>
        <time>2021-12-08T09:39:00.234Z</time>
      </trkpt>
      <trkpt lat="48.37105" lon="2.65969">
        <ele>127</ele>
        <time>2021-12-08T09:39:04.236Z</time>
      </trkpt>
      <trkpt lat="48.37098" lon="2.65969">
        <ele>127</ele>
        <time>2021-12-08T09:39:09.230Z</time>
      </trkpt>
      <trkpt lat="48.37093" lon="2.65969">
        <ele>124</ele>
        <time>2021-12-08T09:39:13.243Z</time>
      </trkpt>
      <trkpt lat="48.37088" lon="2.65969">
        <ele>124</ele>
        <time>2021-12-08T09:39:17.250Z</time>
      </trkpt>
      <trkpt lat="48.37081" lon="2.65968">
        <ele>124</ele>
        <time>2021-12-08T09:39:22.225Z</time>
      </trkpt>
      <trkpt lat="48.37075" lon="2.6597">
        <ele>124</ele>
        <time>2021-12-08T09:39:27.229Z</time>
      </trkpt>
      <trkpt lat="48.3707" lon="2.6597">
        <ele>124</ele>
        <time>2021-12-08T09:39:31.226Z</time>
      </trkpt>
      <trkpt lat="48.37066" lon="2.65971">
        <ele>124</ele>
        <time>2021-12-08T09:39:35.234Z</time>
      </trkpt>
      <trkpt lat="48.37059" lon="2.6597">
        <ele>124</ele>
        <time>2021-12-08T09:39:40.234Z</time>
      </trkpt>
      <trkpt lat="48.37054" lon="2.65971">
        <ele>124</ele>
        <time>2021-12-08T09:39:44.231Z</time>
      </trkpt>
      <trkpt lat="48.37048" lon="2.65971">
        <ele>124</ele>
        <time>2021-12-08T09:39:49.227Z</time>
      </trkpt>
      <trkpt lat="48.37042" lon="2.65972">
        <ele>124</ele>
        <time>2021-12-08T09:39:54.227Z</time>
      </trkpt>
      <trkpt lat="48.37038" lon="2.65972">
        <ele>123</ele>
        <time>2021-12-08T09:39:58.242Z</time>
      </trkpt>
      <trkpt lat="48.37032" lon="2.65972">
        <ele>123</ele>
        <time>2021-12-08T09:40:03.227Z</time>
      </trkpt>
      <trkpt lat="48.37027" lon="2.65972">
        <ele>123</ele>
        <time>2021-12-08T09:40:07.226Z</time>
      </trkpt>
      <trkpt lat="48.37022" lon="2.65972">
        <ele>123</ele>
        <time>2021-12-08T09:40:11.227Z</time>
      </trkpt>
      <trkpt lat="48.37016" lon="2.65971">
        <ele>123</ele>
        <time>2021-12-08T09:40:16.237Z</time>
      </trkpt>
      <trkpt lat="48.3701" lon="2.65972">
        <ele>124</ele>
        <time>2021-12-08T09:40:21.234Z</time>
      </trkpt>
      <trkpt lat="48.37005" lon="2.65973">
        <ele>124</ele>
        <time>2021-12-08T09:40:26.226Z</time>
      </trkpt>
      <trkpt lat="48.36998" lon="2.65973">
        <ele>124</ele>
        <time>2021-12-08T09:40:31.230Z</time>
      </trkpt>
      <trkpt lat="48.36993" lon="2.65973">
        <ele>124</ele>
        <time>2021-12-08T09:40:36.230Z</time>
      </trkpt>
      <trkpt lat="48.36987" lon="2.65975">
        <ele>124</ele>
        <time>2021-12-08T09:40:41.233Z</time>
      </trkpt>
      <trkpt lat="48.3698" lon="2.65975">
        <ele>126</ele>
        <time>2021-12-08T09:40:46.233Z</time>
      </trkpt>
      <trkpt lat="48.36975" lon="2.65976">
        <ele>126</ele>
        <time>2021-12-08T09:40:51.234Z</time>
      </trkpt>
      <trkpt lat="48.36969" lon="2.65976">
        <ele>126</ele>
        <time>2021-12-08T09:40:56.234Z</time>
      </trkpt>
      <trkpt lat="48.36964" lon="2.65978">
        <ele>126</ele>
        <time>2021-12-08T09:41:01.233Z</time>
      </trkpt>
      <trkpt lat="48.36958" lon="2.65978">
        <ele>126</ele>
        <time>2021-12-08T09:41:06.236Z</time>
      </trkpt>
      <trkpt lat="48.36953" lon="2.65979">
        <ele>127</ele>
        <time>2021-12-08T09:41:11.239Z</time>
      </trkpt>
      <trkpt lat="48.36946" lon="2.6598">
        <ele>127</ele>
        <time>2021-12-08T09:41:16.233Z</time>
      </trkpt>
      <trkpt lat="48.36941" lon="2.65982">
        <ele>127</ele>
        <time>2021-12-08T09:41:21.231Z</time>
      </trkpt>
      <trkpt lat="48.36935" lon="2.65983">
        <ele>127</ele>
        <time>2021-12-08T09:41:26.223Z</time>
      </trkpt>
      <trkpt lat="48.3693" lon="2.65982">
        <ele>127</ele>
        <time>2021-12-08T09:41:30.239Z</time>
      </trkpt>
      <trkpt lat="48.36923" lon="2.65982">
        <ele>127</ele>
        <time>2021-12-08T09:41:35.229Z</time>
      </trkpt>
      <trkpt lat="48.36917" lon="2.65983">
        <ele>127</ele>
        <time>2021-12-08T09:41:40.229Z</time>
      </trkpt>
      <trkpt lat="48.36911" lon="2.65983">
        <ele>127</ele>
        <time>2021-12-08T09:41:44.227Z</time>
      </trkpt>
      <trkpt lat="48.36907" lon="2.65984">
        <ele>127</ele>
        <time>2021-12-08T09:41:48.233Z</time>
      </trkpt>
      <trkpt lat="48.36899" lon="2.65986">
        <ele>130</ele>
        <time>2021-12-08T09:41:53.233Z</time>
      </trkpt>
      <trkpt lat="48.36892" lon="2.65987">
        <ele>131</ele>
        <time>2021-12-08T09:41:58.256Z</time>
      </trkpt>
      <trkpt lat="48.36885" lon="2.65985">
        <ele>130</ele>
        <time>2021-12-08T09:42:03.233Z</time>
      </trkpt>
      <trkpt lat="48.36879" lon="2.65983">
        <ele>130</ele>
        <time>2021-12-08T09:42:08.227Z</time>
      </trkpt>
      <trkpt lat="48.36874" lon="2.65979">
        <ele>133</ele>
        <time>2021-12-08T09:42:12.243Z</time>
      </trkpt>
      <trkpt lat="48.36868" lon="2.65977">
        <ele>133</ele>
        <time>2021-12-08T09:42:17.230Z</time>
      </trkpt>
      <trkpt lat="48.36867" lon="2.65981">
        <ele>133</ele>
        <time>2021-12-08T09:42:21.238Z</time>
      </trkpt>
      <trkpt lat="48.36865" lon="2.65987">
        <ele>133</ele>
        <time>2021-12-08T09:42:31.233Z</time>
      </trkpt>
      <trkpt lat="48.36865" lon="2.65981">
        <ele>133</ele>
        <time>2021-12-08T09:42:35.241Z</time>
      </trkpt>
      <trkpt lat="48.36866" lon="2.65976">
        <ele>133</ele>
        <time>2021-12-08T09:42:40.233Z</time>
      </trkpt>
      <trkpt lat="48.36865" lon="2.65976">
        <ele>133</ele>
        <time>2021-12-08T09:42:45.242Z</time>
      </trkpt>
      <trkpt lat="48.3686" lon="2.65973">
        <ele>133</ele>
        <time>2021-12-08T09:42:50.240Z</time>
      </trkpt>
      <trkpt lat="48.36862" lon="2.65967">
        <ele>133</ele>
        <time>2021-12-08T09:42:55.229Z</time>
      </trkpt>
      <trkpt lat="48.36864" lon="2.65965">
        <ele>133</ele>
        <time>2021-12-08T09:42:59.249Z</time>
      </trkpt>
      <trkpt lat="48.36863" lon="2.65959">
        <ele>133</ele>
        <time>2021-12-08T09:43:04.241Z</time>
      </trkpt>
      <trkpt lat="48.36861" lon="2.65952">
        <ele>132</ele>
        <time>2021-12-08T09:43:09.231Z</time>
      </trkpt>
      <trkpt lat="48.36861" lon="2.65946">
        <ele>132</ele>
        <time>2021-12-08T09:43:14.231Z</time>
      </trkpt>
      <trkpt lat="48.36861" lon="2.65941">
        <ele>132</ele>
        <time>2021-12-08T09:43:18.230Z</time>
      </trkpt>
      <trkpt lat="48.36858" lon="2.65934">
        <ele>132</ele>
        <time>2021-12-08T09:43:23.234Z</time>
      </trkpt>
      <trkpt lat="48.36857" lon="2.65925">
        <ele>132</ele>
        <time>2021-12-08T09:43:28.232Z</time>
      </trkpt>
      <trkpt lat="48.36854" lon="2.65919">
        <ele>132</ele>
        <time>2021-12-08T09:43:33.230Z</time>
      </trkpt>
      <trkpt lat="48.36854" lon="2.65914">
        <ele>132</ele>
        <time>2021-12-08T09:43:37.238Z</time>
      </trkpt>
      <trkpt lat="48.36852" lon="2.65908">
        <ele>132</ele>
        <time>2021-12-08T09:43:41.238Z</time>
      </trkpt>
      <trkpt lat="48.3685" lon="2.65899">
        <ele>132</ele>
        <time>2021-12-08T09:43:46.237Z</time>
      </trkpt>
      <trkpt lat="48.36849" lon="2.65893">
        <ele>132</ele>
        <time>2021-12-08T09:43:50.240Z</time>
      </trkpt>
      <trkpt lat="48.36847" lon="2.65886">
        <ele>132</ele>
        <time>2021-12-08T09:43:54.249Z</time>
      </trkpt>
      <trkpt lat="48.36844" lon="2.65876">
        <ele>132</ele>
        <time>2021-12-08T09:43:59.252Z</time>
      </trkpt>
      <trkpt lat="48.36842" lon="2.65865">
        <ele>132</ele>
        <time>2021-12-08T09:44:04.241Z</time>
      </trkpt>
      <trkpt lat="48.3684" lon="2.65858">
        <ele>132</ele>
        <time>2021-12-08T09:44:08.241Z</time>
      </trkpt>
      <trkpt lat="48.36838" lon="2.65848">
        <ele>132</ele>
        <time>2021-12-08T09:44:13.223Z</time>
      </trkpt>
      <trkpt lat="48.36836" lon="2.6584">
        <ele>132</ele>
        <time>2021-12-08T09:44:17.232Z</time>
      </trkpt>
      <trkpt lat="48.36834" lon="2.65831">
        <ele>132</ele>
        <time>2021-12-08T09:44:22.230Z</time>
      </trkpt>
      <trkpt lat="48.36832" lon="2.6582">
        <ele>132</ele>
        <time>2021-12-08T09:44:27.235Z</time>
      </trkpt>
      <trkpt lat="48.3683" lon="2.65811">
        <ele>133</ele>
        <time>2021-12-08T09:44:32.242Z</time>
      </trkpt>
      <trkpt lat="48.36826" lon="2.65806">
        <ele>133</ele>
        <time>2021-12-08T09:44:36.240Z</time>
      </trkpt>
      <trkpt lat="48.36826" lon="2.65797">
        <ele>133</ele>
        <time>2021-12-08T09:44:41.243Z</time>
      </trkpt>
      <trkpt lat="48.36825" lon="2.6579">
        <ele>134</ele>
        <time>2021-12-08T09:44:46.240Z</time>
      </trkpt>
      <trkpt lat="48.36823" lon="2.6578">
        <ele>134</ele>
        <time>2021-12-08T09:44:51.226Z</time>
      </trkpt>
      <trkpt lat="48.36821" lon="2.65774">
        <ele>134</ele>
        <time>2021-12-08T09:44:55.235Z</time>
      </trkpt>
      <trkpt lat="48.36819" lon="2.65764">
        <ele>132</ele>
        <time>2021-12-08T09:45:00.239Z</time>
      </trkpt>
      <trkpt lat="48.36817" lon="2.65756">
        <ele>133</ele>
        <time>2021-12-08T09:45:05.227Z</time>
      </trkpt>
      <trkpt lat="48.36815" lon="2.65748">
        <ele>133</ele>
        <time>2021-12-08T09:45:09.233Z</time>
      </trkpt>
      <trkpt lat="48.36812" lon="2.6574">
        <ele>133</ele>
        <time>2021-12-08T09:45:14.243Z</time>
      </trkpt>
      <trkpt lat="48.36809" lon="2.65731">
        <ele>134</ele>
        <time>2021-12-08T09:45:19.238Z</time>
      </trkpt>
      <trkpt lat="48.36807" lon="2.65723">
        <ele>134</ele>
        <time>2021-12-08T09:45:24.238Z</time>
      </trkpt>
      <trkpt lat="48.36805" lon="2.65714">
        <ele>134</ele>
        <time>2021-12-08T09:45:29.240Z</time>
      </trkpt>
      <trkpt lat="48.36804" lon="2.65708">
        <ele>134</ele>
        <time>2021-12-08T09:45:33.242Z</time>
      </trkpt>
      <trkpt lat="48.36801" lon="2.65701">
        <ele>135</ele>
        <time>2021-12-08T09:45:38.233Z</time>
      </trkpt>
      <trkpt lat="48.36799" lon="2.65692">
        <ele>135</ele>
        <time>2021-12-08T09:45:43.234Z</time>
      </trkpt>
      <trkpt lat="48.36797" lon="2.65683">
        <ele>135</ele>
        <time>2021-12-08T09:45:48.231Z</time>
      </trkpt>
      <trkpt lat="48.36796" lon="2.65674">
        <ele>135</ele>
        <time>2021-12-08T09:45:53.234Z</time>
      </trkpt>
      <trkpt lat="48.36793" lon="2.65664">
        <ele>135</ele>
        <time>2021-12-08T09:45:58.231Z</time>
      </trkpt>
      <trkpt lat="48.36791" lon="2.65656">
        <ele>134</ele>
        <time>2021-12-08T09:46:03.238Z</time>
      </trkpt>
      <trkpt lat="48.36789" lon="2.65647">
        <ele>134</ele>
        <time>2021-12-08T09:46:08.230Z</time>
      </trkpt>
      <trkpt lat="48.36787" lon="2.6564">
        <ele>134</ele>
        <time>2021-12-08T09:46:12.241Z</time>
      </trkpt>
      <trkpt lat="48.36784" lon="2.65632">
        <ele>134</ele>
        <time>2021-12-08T09:46:17.232Z</time>
      </trkpt>
      <trkpt lat="48.36782" lon="2.65625">
        <ele>133</ele>
        <time>2021-12-08T09:46:21.237Z</time>
      </trkpt>
      <trkpt lat="48.36779" lon="2.65616">
        <ele>133</ele>
        <time>2021-12-08T09:46:26.237Z</time>
      </trkpt>
      <trkpt lat="48.36778" lon="2.65609">
        <ele>133</ele>
        <time>2021-12-08T09:46:31.230Z</time>
      </trkpt>
      <trkpt lat="48.36777" lon="2.65601">
        <ele>133</ele>
        <time>2021-12-08T09:46:36.236Z</time>
      </trkpt>
      <trkpt lat="48.36774" lon="2.65591">
        <ele>133</ele>
        <time>2021-12-08T09:46:41.230Z</time>
      </trkpt>
      <trkpt lat="48.36772" lon="2.65584">
        <ele>133</ele>
        <time>2021-12-08T09:46:45.227Z</time>
      </trkpt>
      <trkpt lat="48.3677" lon="2.65574">
        <ele>133</ele>
        <time>2021-12-08T09:46:50.228Z</time>
      </trkpt>
      <trkpt lat="48.36768" lon="2.65567">
        <ele>132</ele>
        <time>2021-12-08T09:46:54.232Z</time>
      </trkpt>
      <trkpt lat="48.36765" lon="2.65558">
        <ele>132</ele>
        <time>2021-12-08T09:46:59.228Z</time>
      </trkpt>
      <trkpt lat="48.36763" lon="2.65549">
        <ele>131</ele>
        <time>2021-12-08T09:47:04.230Z</time>
      </trkpt>
      <trkpt lat="48.36762" lon="2.65538">
        <ele>130</ele>
        <time>2021-12-08T09:47:09.231Z</time>
      </trkpt>
      <trkpt lat="48.36761" lon="2.6553">
        <ele>130</ele>
        <time>2021-12-08T09:47:14.243Z</time>
      </trkpt>
      <trkpt lat="48.36757" lon="2.65521">
        <ele>130</ele>
        <time>2021-12-08T09:47:19.236Z</time>
      </trkpt>
      <trkpt lat="48.36754" lon="2.65516">
        <ele>130</ele>
        <time>2021-12-08T09:47:23.238Z</time>
      </trkpt>
      <trkpt lat="48.36749" lon="2.65513">
        <ele>129</ele>
        <time>2021-12-08T09:47:28.235Z</time>
      </trkpt>
      <trkpt lat="48.3675" lon="2.65511">
        <ele>129</ele>
        <time>2021-12-08T09:47:33.244Z</time>
      </trkpt>
      <trkpt lat="48.36748" lon="2.65511">
        <ele>129</ele>
        <time>2021-12-08T09:48:36.227Z</time>
      </trkpt>
      <trkpt lat="48.36748" lon="2.65512">
        <ele>129</ele>
        <time>2021-12-08T09:48:41.233Z</time>
      </trkpt>
      <trkpt lat="48.36745" lon="2.6551">
        <ele>129</ele>
        <time>2021-12-08T09:48:46.236Z</time>
      </trkpt>
      <trkpt lat="48.36741" lon="2.65504">
        <ele>129</ele>
        <time>2021-12-08T09:48:51.239Z</time>
      </trkpt>
      <trkpt lat="48.36737" lon="2.655">
        <ele>129</ele>
        <time>2021-12-08T09:48:55.229Z</time>
      </trkpt>
      <trkpt lat="48.36731" lon="2.65498">
        <ele>129</ele>
        <time>2021-12-08T09:49:00.233Z</time>
      </trkpt>
      <trkpt lat="48.36726" lon="2.65496">
        <ele>129</ele>
        <time>2021-12-08T09:49:05.247Z</time>
      </trkpt>
      <trkpt lat="48.36721" lon="2.65492">
        <ele>129</ele>
        <time>2021-12-08T09:49:10.228Z</time>
      </trkpt>
      <trkpt lat="48.36715" lon="2.6549">
        <ele>129</ele>
        <time>2021-12-08T09:49:15.233Z</time>
      </trkpt>
      <trkpt lat="48.3671" lon="2.65488">
        <ele>129</ele>
        <time>2021-12-08T09:49:19.234Z</time>
      </trkpt>
      <trkpt lat="48.36704" lon="2.65485">
        <ele>129</ele>
        <time>2021-12-08T09:49:24.229Z</time>
      </trkpt>
      <trkpt lat="48.367" lon="2.65484">
        <ele>129</ele>
        <time>2021-12-08T09:49:28.234Z</time>
      </trkpt>
      <trkpt lat="48.36697" lon="2.65482">
        <ele>129</ele>
        <time>2021-12-08T09:49:32.229Z</time>
      </trkpt>
      <trkpt lat="48.36692" lon="2.6548">
        <ele>129</ele>
        <time>2021-12-08T09:49:37.225Z</time>
      </trkpt>
      <trkpt lat="48.36687" lon="2.65478">
        <ele>129</ele>
        <time>2021-12-08T09:49:41.234Z</time>
      </trkpt>
      <trkpt lat="48.36682" lon="2.65475">
        <ele>129</ele>
        <time>2021-12-08T09:49:46.233Z</time>
      </trkpt>
      <trkpt lat="48.36675" lon="2.65472">
        <ele>130</ele>
        <time>2021-12-08T09:49:51.234Z</time>
      </trkpt>
      <trkpt lat="48.36669" lon="2.65471">
        <ele>130</ele>
        <time>2021-12-08T09:49:56.241Z</time>
      </trkpt>
      <trkpt lat="48.36662" lon="2.65468">
        <ele>130</ele>
        <time>2021-12-08T09:50:01.239Z</time>
      </trkpt>
      <trkpt lat="48.36654" lon="2.65465">
        <ele>130</ele>
        <time>2021-12-08T09:50:06.244Z</time>
      </trkpt>
      <trkpt lat="48.36648" lon="2.65463">
        <ele>131</ele>
        <time>2021-12-08T09:50:11.242Z</time>
      </trkpt>
      <trkpt lat="48.36642" lon="2.65459">
        <ele>131</ele>
        <time>2021-12-08T09:50:16.244Z</time>
      </trkpt>
      <trkpt lat="48.36636" lon="2.65456">
        <ele>129</ele>
        <time>2021-12-08T09:50:21.248Z</time>
      </trkpt>
      <trkpt lat="48.36629" lon="2.65452">
        <ele>129</ele>
        <time>2021-12-08T09:50:26.231Z</time>
      </trkpt>
      <trkpt lat="48.36621" lon="2.65449">
        <ele>130</ele>
        <time>2021-12-08T09:50:31.229Z</time>
      </trkpt>
      <trkpt lat="48.36615" lon="2.65446">
        <ele>130</ele>
        <time>2021-12-08T09:50:35.233Z</time>
      </trkpt>
      <trkpt lat="48.36609" lon="2.65445">
        <ele>130</ele>
        <time>2021-12-08T09:50:39.234Z</time>
      </trkpt>
      <trkpt lat="48.36603" lon="2.65441">
        <ele>130</ele>
        <time>2021-12-08T09:50:44.232Z</time>
      </trkpt>
      <trkpt lat="48.36595" lon="2.65438">
        <ele>129</ele>
        <time>2021-12-08T09:50:49.241Z</time>
      </trkpt>
      <trkpt lat="48.36588" lon="2.65435">
        <ele>129</ele>
        <time>2021-12-08T09:50:54.229Z</time>
      </trkpt>
      <trkpt lat="48.36581" lon="2.65432">
        <ele>129</ele>
        <time>2021-12-08T09:50:59.227Z</time>
      </trkpt>
      <trkpt lat="48.36574" lon="2.65429">
        <ele>129</ele>
        <time>2021-12-08T09:51:04.230Z</time>
      </trkpt>
      <trkpt lat="48.36567" lon="2.65426">
        <ele>129</ele>
        <time>2021-12-08T09:51:09.229Z</time>
      </trkpt>
      <trkpt lat="48.3656" lon="2.65423">
        <ele>129</ele>
        <time>2021-12-08T09:51:14.234Z</time>
      </trkpt>
      <trkpt lat="48.36554" lon="2.6542">
        <ele>129</ele>
        <time>2021-12-08T09:51:19.235Z</time>
      </trkpt>
      <trkpt lat="48.36547" lon="2.65415">
        <ele>129</ele>
        <time>2021-12-08T09:51:24.229Z</time>
      </trkpt>
      <trkpt lat="48.36541" lon="2.65413">
        <ele>131</ele>
        <time>2021-12-08T09:51:28.231Z</time>
      </trkpt>
      <trkpt lat="48.36534" lon="2.6541">
        <ele>131</ele>
        <time>2021-12-08T09:51:33.231Z</time>
      </trkpt>
      <trkpt lat="48.36529" lon="2.65407">
        <ele>131</ele>
        <time>2021-12-08T09:51:37.240Z</time>
      </trkpt>
      <trkpt lat="48.36521" lon="2.65403">
        <ele>131</ele>
        <time>2021-12-08T09:51:42.228Z</time>
      </trkpt>
      <trkpt lat="48.36516" lon="2.65399">
        <ele>130</ele>
        <time>2021-12-08T09:51:46.237Z</time>
      </trkpt>
      <trkpt lat="48.3651" lon="2.65397">
        <ele>132</ele>
        <time>2021-12-08T09:51:51.231Z</time>
      </trkpt>
      <trkpt lat="48.36504" lon="2.65395">
        <ele>132</ele>
        <time>2021-12-08T09:51:56.242Z</time>
      </trkpt>
      <trkpt lat="48.36497" lon="2.65391">
        <ele>132</ele>
        <time>2021-12-08T09:52:01.223Z</time>
      </trkpt>
      <trkpt lat="48.36492" lon="2.65388">
        <ele>132</ele>
        <time>2021-12-08T09:52:05.227Z</time>
      </trkpt>
      <trkpt lat="48.36488" lon="2.65385">
        <ele>132</ele>
        <time>2021-12-08T09:52:09.235Z</time>
      </trkpt>
      <trkpt lat="48.3648" lon="2.65383">
        <ele>132</ele>
        <time>2021-12-08T09:52:14.231Z</time>
      </trkpt>
      <trkpt lat="48.36474" lon="2.65381">
        <ele>132</ele>
        <time>2021-12-08T09:52:18.234Z</time>
      </trkpt>
      <trkpt lat="48.36467" lon="2.6538">
        <ele>132</ele>
        <time>2021-12-08T09:52:23.244Z</time>
      </trkpt>
      <trkpt lat="48.36467" lon="2.65378">
        <ele>132</ele>
        <time>2021-12-08T09:52:28.239Z</time>
      </trkpt>
      <trkpt lat="48.36462" lon="2.65376">
        <ele>132</ele>
        <time>2021-12-08T09:52:33.230Z</time>
      </trkpt>
      <trkpt lat="48.36455" lon="2.65372">
        <ele>131</ele>
        <time>2021-12-08T09:52:38.237Z</time>
      </trkpt>
      <trkpt lat="48.36448" lon="2.65369">
        <ele>131</ele>
        <time>2021-12-08T09:52:43.349Z</time>
      </trkpt>
      <trkpt lat="48.36442" lon="2.65366">
        <ele>131</ele>
        <time>2021-12-08T09:52:48.240Z</time>
      </trkpt>
      <trkpt lat="48.36435" lon="2.65364">
        <ele>131</ele>
        <time>2021-12-08T09:52:53.242Z</time>
      </trkpt>
      <trkpt lat="48.36428" lon="2.65361">
        <ele>130</ele>
        <time>2021-12-08T09:52:58.243Z</time>
      </trkpt>
      <trkpt lat="48.36422" lon="2.65358">
        <ele>130</ele>
        <time>2021-12-08T09:53:03.244Z</time>
      </trkpt>
      <trkpt lat="48.36415" lon="2.65354">
        <ele>130</ele>
        <time>2021-12-08T09:53:08.241Z</time>
      </trkpt>
      <trkpt lat="48.3641" lon="2.65351">
        <ele>130</ele>
        <time>2021-12-08T09:53:13.230Z</time>
      </trkpt>
      <trkpt lat="48.36403" lon="2.65348">
        <ele>130</ele>
        <time>2021-12-08T09:53:18.232Z</time>
      </trkpt>
      <trkpt lat="48.36396" lon="2.65346">
        <ele>131</ele>
        <time>2021-12-08T09:53:23.242Z</time>
      </trkpt>
      <trkpt lat="48.3639" lon="2.65343">
        <ele>131</ele>
        <time>2021-12-08T09:53:28.242Z</time>
      </trkpt>
      <trkpt lat="48.36384" lon="2.6534">
        <ele>131</ele>
        <time>2021-12-08T09:53:33.244Z</time>
      </trkpt>
      <trkpt lat="48.36378" lon="2.65339">
        <ele>131</ele>
        <time>2021-12-08T09:53:38.238Z</time>
      </trkpt>
      <trkpt lat="48.36372" lon="2.65337">
        <ele>133</ele>
        <time>2021-12-08T09:53:43.240Z</time>
      </trkpt>
      <trkpt lat="48.36367" lon="2.65336">
        <ele>133</ele>
        <time>2021-12-08T09:53:47.256Z</time>
      </trkpt>
      <trkpt lat="48.36362" lon="2.65333">
        <ele>133</ele>
        <time>2021-12-08T09:53:52.240Z</time>
      </trkpt>
      <trkpt lat="48.36357" lon="2.6533">
        <ele>133</ele>
        <time>2021-12-08T09:53:57.227Z</time>
      </trkpt>
      <trkpt lat="48.36353" lon="2.65329">
        <ele>133</ele>
        <time>2021-12-08T09:54:02.240Z</time>
      </trkpt>
      <trkpt lat="48.36349" lon="2.65327">
        <ele>133</ele>
        <time>2021-12-08T09:54:07.229Z</time>
      </trkpt>
      <trkpt lat="48.36345" lon="2.65323">
        <ele>135</ele>
        <time>2021-12-08T09:54:11.234Z</time>
      </trkpt>
      <trkpt lat="48.36341" lon="2.65319">
        <ele>135</ele>
        <time>2021-12-08T09:54:16.229Z</time>
      </trkpt>
      <trkpt lat="48.36335" lon="2.65315">
        <ele>135</ele>
        <time>2021-12-08T09:54:21.237Z</time>
      </trkpt>
      <trkpt lat="48.3633" lon="2.6531">
        <ele>135</ele>
        <time>2021-12-08T09:54:26.235Z</time>
      </trkpt>
      <trkpt lat="48.36322" lon="2.65308">
        <ele>135</ele>
        <time>2021-12-08T09:54:31.240Z</time>
      </trkpt>
      <trkpt lat="48.36317" lon="2.65304">
        <ele>135</ele>
        <time>2021-12-08T09:54:36.245Z</time>
      </trkpt>
      <trkpt lat="48.36312" lon="2.653">
        <ele>135</ele>
        <time>2021-12-08T09:54:41.231Z</time>
      </trkpt>
      <trkpt lat="48.36306" lon="2.65296">
        <ele>135</ele>
        <time>2021-12-08T09:54:46.247Z</time>
      </trkpt>
      <trkpt lat="48.363" lon="2.65292">
        <ele>135</ele>
        <time>2021-12-08T09:54:51.229Z</time>
      </trkpt>
      <trkpt lat="48.36297" lon="2.65289">
        <ele>135</ele>
        <time>2021-12-08T09:54:55.240Z</time>
      </trkpt>
      <trkpt lat="48.3629" lon="2.65287">
        <ele>135</ele>
        <time>2021-12-08T09:55:00.241Z</time>
      </trkpt>
      <trkpt lat="48.36285" lon="2.65283">
        <ele>135</ele>
        <time>2021-12-08T09:55:05.236Z</time>
      </trkpt>
      <trkpt lat="48.36279" lon="2.65281">
        <ele>135</ele>
        <time>2021-12-08T09:55:10.244Z</time>
      </trkpt>
      <trkpt lat="48.36273" lon="2.65278">
        <ele>135</ele>
        <time>2021-12-08T09:55:15.229Z</time>
      </trkpt>
      <trkpt lat="48.36268" lon="2.65275">
        <ele>135</ele>
        <time>2021-12-08T09:55:19.232Z</time>
      </trkpt>
      <trkpt lat="48.36262" lon="2.65271">
        <ele>134</ele>
        <time>2021-12-08T09:55:24.235Z</time>
      </trkpt>
      <trkpt lat="48.36257" lon="2.65268">
        <ele>134</ele>
        <time>2021-12-08T09:55:28.237Z</time>
      </trkpt>
      <trkpt lat="48.36252" lon="2.65265">
        <ele>134</ele>
        <time>2021-12-08T09:55:33.229Z</time>
      </trkpt>
      <trkpt lat="48.36248" lon="2.65262">
        <ele>135</ele>
        <time>2021-12-08T09:55:37.234Z</time>
      </trkpt>
      <trkpt lat="48.36242" lon="2.65258">
        <ele>135</ele>
        <time>2021-12-08T09:55:42.231Z</time>
      </trkpt>
      <trkpt lat="48.36238" lon="2.65255">
        <ele>135</ele>
        <time>2021-12-08T09:55:46.227Z</time>
      </trkpt>
      <trkpt lat="48.36232" lon="2.65252">
        <ele>132</ele>
        <time>2021-12-08T09:55:50.231Z</time>
      </trkpt>
      <trkpt lat="48.36226" lon="2.65249">
        <ele>132</ele>
        <time>2021-12-08T09:55:55.244Z</time>
      </trkpt>
      <trkpt lat="48.36219" lon="2.65247">
        <ele>132</ele>
        <time>2021-12-08T09:56:00.241Z</time>
      </trkpt>
      <trkpt lat="48.36214" lon="2.65244">
        <ele>132</ele>
        <time>2021-12-08T09:56:05.240Z</time>
      </trkpt>
      <trkpt lat="48.36209" lon="2.65242">
        <ele>132</ele>
        <time>2021-12-08T09:56:09.249Z</time>
      </trkpt>
      <trkpt lat="48.36203" lon="2.65239">
        <ele>131</ele>
        <time>2021-12-08T09:56:14.244Z</time>
      </trkpt>
      <trkpt lat="48.36196" lon="2.65237">
        <ele>131</ele>
        <time>2021-12-08T09:56:19.236Z</time>
      </trkpt>
      <trkpt lat="48.36189" lon="2.65236">
        <ele>131</ele>
        <time>2021-12-08T09:56:24.241Z</time>
      </trkpt>
      <trkpt lat="48.36184" lon="2.65234">
        <ele>131</ele>
        <time>2021-12-08T09:56:28.247Z</time>
      </trkpt>
      <trkpt lat="48.36178" lon="2.6523">
        <ele>130</ele>
        <time>2021-12-08T09:56:33.245Z</time>
      </trkpt>
      <trkpt lat="48.36171" lon="2.65227">
        <ele>130</ele>
        <time>2021-12-08T09:56:38.244Z</time>
      </trkpt>
      <trkpt lat="48.36164" lon="2.65226">
        <ele>130</ele>
        <time>2021-12-08T09:56:43.240Z</time>
      </trkpt>
      <trkpt lat="48.36158" lon="2.65224">
        <ele>130</ele>
        <time>2021-12-08T09:56:48.241Z</time>
      </trkpt>
      <trkpt lat="48.3615" lon="2.65222">
        <ele>130</ele>
        <time>2021-12-08T09:56:53.243Z</time>
      </trkpt>
      <trkpt lat="48.36143" lon="2.65221">
        <ele>130</ele>
        <time>2021-12-08T09:56:58.235Z</time>
      </trkpt>
      <trkpt lat="48.36137" lon="2.65218">
        <ele>130</ele>
        <time>2021-12-08T09:57:03.237Z</time>
      </trkpt>
      <trkpt lat="48.36132" lon="2.65216">
        <ele>130</ele>
        <time>2021-12-08T09:57:08.243Z</time>
      </trkpt>
      <trkpt lat="48.36128" lon="2.65214">
        <ele>130</ele>
        <time>2021-12-08T09:57:12.241Z</time>
      </trkpt>
      <trkpt lat="48.36123" lon="2.6521">
        <ele>131</ele>
        <time>2021-12-08T09:57:17.244Z</time>
      </trkpt>
      <trkpt lat="48.36117" lon="2.65208">
        <ele>131</ele>
        <time>2021-12-08T09:57:22.256Z</time>
      </trkpt>
      <trkpt lat="48.36111" lon="2.65206">
        <ele>132</ele>
        <time>2021-12-08T09:57:27.241Z</time>
      </trkpt>
      <trkpt lat="48.36106" lon="2.65204">
        <ele>132</ele>
        <time>2021-12-08T09:57:31.244Z</time>
      </trkpt>
      <trkpt lat="48.36101" lon="2.65201">
        <ele>132</ele>
        <time>2021-12-08T09:57:35.247Z</time>
      </trkpt>
      <trkpt lat="48.36096" lon="2.65196">
        <ele>134</ele>
        <time>2021-12-08T09:57:40.235Z</time>
      </trkpt>
      <trkpt lat="48.36089" lon="2.65191">
        <ele>134</ele>
        <time>2021-12-08T09:57:45.231Z</time>
      </trkpt>
      <trkpt lat="48.36082" lon="2.65191">
        <ele>134</ele>
        <time>2021-12-08T09:57:49.232Z</time>
      </trkpt>
      <trkpt lat="48.36077" lon="2.65187">
        <ele>134</ele>
        <time>2021-12-08T09:57:54.241Z</time>
      </trkpt>
      <trkpt lat="48.36069" lon="2.65187">
        <ele>135</ele>
        <time>2021-12-08T09:57:59.241Z</time>
      </trkpt>
      <trkpt lat="48.36063" lon="2.65187">
        <ele>135</ele>
        <time>2021-12-08T09:58:03.239Z</time>
      </trkpt>
      <trkpt lat="48.36057" lon="2.65184">
        <ele>135</ele>
        <time>2021-12-08T09:58:07.348Z</time>
      </trkpt>
      <trkpt lat="48.36051" lon="2.65181">
        <ele>135</ele>
        <time>2021-12-08T09:58:12.233Z</time>
      </trkpt>
      <trkpt lat="48.36045" lon="2.65177">
        <ele>135</ele>
        <time>2021-12-08T09:58:17.228Z</time>
      </trkpt>
      <trkpt lat="48.3604" lon="2.65175">
        <ele>136</ele>
        <time>2021-12-08T09:58:21.242Z</time>
      </trkpt>
      <trkpt lat="48.36033" lon="2.65174">
        <ele>136</ele>
        <time>2021-12-08T09:58:26.243Z</time>
      </trkpt>
      <trkpt lat="48.36026" lon="2.65173">
        <ele>136</ele>
        <time>2021-12-08T09:58:30.241Z</time>
      </trkpt>
      <trkpt lat="48.36019" lon="2.65171">
        <ele>136</ele>
        <time>2021-12-08T09:58:35.245Z</time>
      </trkpt>
      <trkpt lat="48.36014" lon="2.65169">
        <ele>136</ele>
        <time>2021-12-08T09:58:40.252Z</time>
      </trkpt>
      <trkpt lat="48.3601" lon="2.65167">
        <ele>136</ele>
        <time>2021-12-08T09:58:45.245Z</time>
      </trkpt>
      <trkpt lat="48.36005" lon="2.65165">
        <ele>136</ele>
        <time>2021-12-08T09:58:49.247Z</time>
      </trkpt>
      <trkpt lat="48.36" lon="2.65162">
        <ele>136</ele>
        <time>2021-12-08T09:58:54.243Z</time>
      </trkpt>
      <trkpt lat="48.35995" lon="2.6516">
        <ele>136</ele>
        <time>2021-12-08T09:58:58.264Z</time>
      </trkpt>
      <trkpt lat="48.3599" lon="2.65156">
        <ele>136</ele>
        <time>2021-12-08T09:59:03.240Z</time>
      </trkpt>
      <trkpt lat="48.35985" lon="2.65152">
        <ele>136</ele>
        <time>2021-12-08T09:59:08.234Z</time>
      </trkpt>
      <trkpt lat="48.35981" lon="2.6515">
        <ele>136</ele>
        <time>2021-12-08T09:59:12.229Z</time>
      </trkpt>
      <trkpt lat="48.35975" lon="2.65147">
        <ele>136</ele>
        <time>2021-12-08T09:59:17.240Z</time>
      </trkpt>
      <trkpt lat="48.3597" lon="2.65144">
        <ele>136</ele>
        <time>2021-12-08T09:59:22.243Z</time>
      </trkpt>
      <trkpt lat="48.35966" lon="2.65149">
        <ele>136</ele>
        <time>2021-12-08T10:00:36.247Z</time>
      </trkpt>
      <trkpt lat="48.35966" lon="2.65149">
        <ele>136</ele>
        <time>2021-12-08T10:00:41.237Z</time>
      </trkpt>
      <trkpt lat="48.35964" lon="2.65149">
        <ele>136</ele>
        <time>2021-12-08T10:00:46.236Z</time>
      </trkpt>
      <trkpt lat="48.35959" lon="2.65141">
        <ele>136</ele>
        <time>2021-12-08T10:00:51.230Z</time>
      </trkpt>
      <trkpt lat="48.35957" lon="2.65133">
        <ele>135</ele>
        <time>2021-12-08T10:00:56.233Z</time>
      </trkpt>
      <trkpt lat="48.35963" lon="2.65135">
        <ele>136</ele>
        <time>2021-12-08T10:01:15.229Z</time>
      </trkpt>
      <trkpt lat="48.35967" lon="2.65135">
        <ele>136</ele>
        <time>2021-12-08T10:01:20.234Z</time>
      </trkpt>
      <trkpt lat="48.3597" lon="2.65129">
        <ele>136</ele>
        <time>2021-12-08T10:01:25.234Z</time>
      </trkpt>
      <trkpt lat="48.35971" lon="2.65124">
        <ele>135</ele>
        <time>2021-12-08T10:01:29.246Z</time>
      </trkpt>
      <trkpt lat="48.35973" lon="2.65118">
        <ele>135</ele>
        <time>2021-12-08T10:01:34.235Z</time>
      </trkpt>
      <trkpt lat="48.35976" lon="2.65113">
        <ele>135</ele>
        <time>2021-12-08T10:01:38.247Z</time>
      </trkpt>
      <trkpt lat="48.35979" lon="2.65106">
        <ele>135</ele>
        <time>2021-12-08T10:01:43.244Z</time>
      </trkpt>
      <trkpt lat="48.35981" lon="2.65098">
        <ele>135</ele>
        <time>2021-12-08T10:01:48.237Z</time>
      </trkpt>
      <trkpt lat="48.35985" lon="2.65094">
        <ele>135</ele>
        <time>2021-12-08T10:01:53.229Z</time>
      </trkpt>
      <trkpt lat="48.35988" lon="2.65087">
        <ele>135</ele>
        <time>2021-12-08T10:01:58.232Z</time>
      </trkpt>
      <trkpt lat="48.3599" lon="2.65079">
        <ele>135</ele>
        <time>2021-12-08T10:02:03.230Z</time>
      </trkpt>
      <trkpt lat="48.35992" lon="2.65071">
        <ele>135</ele>
        <time>2021-12-08T10:02:08.242Z</time>
      </trkpt>
      <trkpt lat="48.35995" lon="2.65061">
        <ele>135</ele>
        <time>2021-12-08T10:02:13.232Z</time>
      </trkpt>
      <trkpt lat="48.35996" lon="2.65053">
        <ele>135</ele>
        <time>2021-12-08T10:02:18.236Z</time>
      </trkpt>
      <trkpt lat="48.35999" lon="2.65044">
        <ele>135</ele>
        <time>2021-12-08T10:02:23.232Z</time>
      </trkpt>
      <trkpt lat="48.36003" lon="2.65036">
        <ele>134</ele>
        <time>2021-12-08T10:02:28.231Z</time>
      </trkpt>
      <trkpt lat="48.36006" lon="2.6503">
        <ele>134</ele>
        <time>2021-12-08T10:02:33.231Z</time>
      </trkpt>
      <trkpt lat="48.36008" lon="2.65023">
        <ele>134</ele>
        <time>2021-12-08T10:02:38.236Z</time>
      </trkpt>
      <trkpt lat="48.36008" lon="2.65014">
        <ele>134</ele>
        <time>2021-12-08T10:02:43.229Z</time>
      </trkpt>
      <trkpt lat="48.36011" lon="2.65006">
        <ele>134</ele>
        <time>2021-12-08T10:02:48.227Z</time>
      </trkpt>
      <trkpt lat="48.36012" lon="2.64999">
        <ele>134</ele>
        <time>2021-12-08T10:02:52.237Z</time>
      </trkpt>
      <trkpt lat="48.36015" lon="2.64992">
        <ele>134</ele>
        <time>2021-12-08T10:02:57.226Z</time>
      </trkpt>
      <trkpt lat="48.36018" lon="2.64986">
        <ele>134</ele>
        <time>2021-12-08T10:03:01.229Z</time>
      </trkpt>
      <trkpt lat="48.36022" lon="2.64976">
        <ele>134</ele>
        <time>2021-12-08T10:03:06.229Z</time>
      </trkpt>
      <trkpt lat="48.36025" lon="2.64969">
        <ele>134</ele>
        <time>2021-12-08T10:03:11.230Z</time>
      </trkpt>
      <trkpt lat="48.36026" lon="2.64962">
        <ele>134</ele>
        <time>2021-12-08T10:03:15.230Z</time>
      </trkpt>
      <trkpt lat="48.36029" lon="2.64953">
        <ele>135</ele>
        <time>2021-12-08T10:03:20.231Z</time>
      </trkpt>
      <trkpt lat="48.36032" lon="2.64945">
        <ele>135</ele>
        <time>2021-12-08T10:03:25.373Z</time>
      </trkpt>
      <trkpt lat="48.36035" lon="2.64938">
        <ele>135</ele>
        <time>2021-12-08T10:03:30.238Z</time>
      </trkpt>
      <trkpt lat="48.36038" lon="2.64929">
        <ele>136</ele>
        <time>2021-12-08T10:03:35.236Z</time>
      </trkpt>
      <trkpt lat="48.36041" lon="2.6492">
        <ele>136</ele>
        <time>2021-12-08T10:03:40.232Z</time>
      </trkpt>
      <trkpt lat="48.36045" lon="2.64911">
        <ele>136</ele>
        <time>2021-12-08T10:03:45.231Z</time>
      </trkpt>
      <trkpt lat="48.36049" lon="2.64901">
        <ele>136</ele>
        <time>2021-12-08T10:03:50.231Z</time>
      </trkpt>
      <trkpt lat="48.36054" lon="2.64883">
        <ele>136</ele>
        <time>2021-12-08T10:04:24.236Z</time>
      </trkpt>
      <trkpt lat="48.36054" lon="2.64882">
        <ele>136</ele>
        <time>2021-12-08T10:04:29.235Z</time>
      </trkpt>
      <trkpt lat="48.36054" lon="2.64882">
        <ele>136</ele>
        <time>2021-12-08T10:04:33.238Z</time>
      </trkpt>
      <trkpt lat="48.36054" lon="2.64882">
        <ele>136</ele>
        <time>2021-12-08T10:04:38.236Z</time>
      </trkpt>
      <trkpt lat="48.36054" lon="2.64879">
        <ele>136</ele>
        <time>2021-12-08T10:04:42.238Z</time>
      </trkpt>
      <trkpt lat="48.36055" lon="2.64863">
        <ele>136</ele>
        <time>2021-12-08T10:06:24.239Z</time>
      </trkpt>
      <trkpt lat="48.36056" lon="2.64861">
        <ele>136</ele>
        <time>2021-12-08T10:06:29.232Z</time>
      </trkpt>
      <trkpt lat="48.36056" lon="2.64861">
        <ele>136</ele>
        <time>2021-12-08T10:06:33.226Z</time>
      </trkpt>
      <trkpt lat="48.36055" lon="2.64861">
        <ele>136</ele>
        <time>2021-12-08T10:06:37.237Z</time>
      </trkpt>
      <trkpt lat="48.36055" lon="2.64861">
        <ele>136</ele>
        <time>2021-12-08T10:06:41.240Z</time>
      </trkpt>
      <trkpt lat="48.36058" lon="2.64848">
        <ele>136</ele>
        <time>2021-12-08T10:13:28.235Z</time>
      </trkpt>
      <trkpt lat="48.36058" lon="2.64848">
        <ele>136</ele>
        <time>2021-12-08T10:13:33.243Z</time>
      </trkpt>
      <trkpt lat="48.36058" lon="2.64848">
        <ele>136</ele>
        <time>2021-12-08T10:13:37.240Z</time>
      </trkpt>
      <trkpt lat="48.36058" lon="2.64848">
        <ele>136</ele>
        <time>2021-12-08T10:13:41.247Z</time>
      </trkpt>
      <trkpt lat="48.36059" lon="2.64847">
        <ele>136</ele>
        <time>2021-12-08T10:13:46.252Z</time>
      </trkpt>
      <trkpt lat="48.36058" lon="2.6484">
        <ele>136</ele>
        <time>2021-12-08T10:18:45.236Z</time>
      </trkpt>
      <trkpt lat="48.36059" lon="2.64837">
        <ele>136</ele>
        <time>2021-12-08T10:18:49.242Z</time>
      </trkpt>
      <trkpt lat="48.36058" lon="2.64834">
        <ele>136</ele>
        <time>2021-12-08T10:18:53.248Z</time>
      </trkpt>
      <trkpt lat="48.36049" lon="2.64839">
        <ele>136</ele>
        <time>2021-12-08T10:18:58.242Z</time>
      </trkpt>
      <trkpt lat="48.36048" lon="2.64838">
        <ele>136</ele>
        <time>2021-12-08T10:19:03.234Z</time>
      </trkpt>
      <trkpt lat="48.36046" lon="2.64842">
        <ele>136</ele>
        <time>2021-12-08T10:19:07.241Z</time>
      </trkpt>
      <trkpt lat="48.36043" lon="2.64844">
        <ele>136</ele>
        <time>2021-12-08T10:19:11.242Z</time>
      </trkpt>
      <trkpt lat="48.36042" lon="2.64844">
        <ele>136</ele>
        <time>2021-12-08T10:19:15.260Z</time>
      </trkpt>
      <trkpt lat="48.36038" lon="2.64838">
        <ele>137</ele>
        <time>2021-12-08T10:19:20.236Z</time>
      </trkpt>
      <trkpt lat="48.36034" lon="2.64832">
        <ele>137</ele>
        <time>2021-12-08T10:19:25.242Z</time>
      </trkpt>
      <trkpt lat="48.3603" lon="2.64827">
        <ele>137</ele>
        <time>2021-12-08T10:19:30.241Z</time>
      </trkpt>
      <trkpt lat="48.36024" lon="2.64823">
        <ele>137</ele>
        <time>2021-12-08T10:19:35.242Z</time>
      </trkpt>
      <trkpt lat="48.3602" lon="2.64817">
        <ele>136</ele>
        <time>2021-12-08T10:19:40.242Z</time>
      </trkpt>
      <trkpt lat="48.36016" lon="2.64811">
        <ele>136</ele>
        <time>2021-12-08T10:19:45.330Z</time>
      </trkpt>
      <trkpt lat="48.36012" lon="2.64806">
        <ele>135</ele>
        <time>2021-12-08T10:19:50.246Z</time>
      </trkpt>
      <trkpt lat="48.36008" lon="2.648">
        <ele>135</ele>
        <time>2021-12-08T10:19:55.244Z</time>
      </trkpt>
      <trkpt lat="48.36003" lon="2.64792">
        <ele>135</ele>
        <time>2021-12-08T10:20:00.242Z</time>
      </trkpt>
      <trkpt lat="48.35998" lon="2.64784">
        <ele>134</ele>
        <time>2021-12-08T10:20:05.243Z</time>
      </trkpt>
      <trkpt lat="48.35994" lon="2.64774">
        <ele>134</ele>
        <time>2021-12-08T10:20:10.241Z</time>
      </trkpt>
      <trkpt lat="48.35989" lon="2.64764">
        <ele>134</ele>
        <time>2021-12-08T10:20:15.235Z</time>
      </trkpt>
      <trkpt lat="48.35985" lon="2.64757">
        <ele>134</ele>
        <time>2021-12-08T10:20:20.245Z</time>
      </trkpt>
      <trkpt lat="48.3598" lon="2.64748">
        <ele>134</ele>
        <time>2021-12-08T10:20:25.230Z</time>
      </trkpt>
      <trkpt lat="48.35975" lon="2.64739">
        <ele>134</ele>
        <time>2021-12-08T10:20:30.246Z</time>
      </trkpt>
      <trkpt lat="48.3597" lon="2.64733">
        <ele>133</ele>
        <time>2021-12-08T10:20:35.242Z</time>
      </trkpt>
      <trkpt lat="48.35965" lon="2.64725">
        <ele>133</ele>
        <time>2021-12-08T10:20:40.237Z</time>
      </trkpt>
      <trkpt lat="48.35961" lon="2.64716">
        <ele>133</ele>
        <time>2021-12-08T10:20:45.241Z</time>
      </trkpt>
      <trkpt lat="48.35962" lon="2.64711">
        <ele>133</ele>
        <time>2021-12-08T10:20:50.241Z</time>
      </trkpt>
      <trkpt lat="48.35961" lon="2.64704">
        <ele>133</ele>
        <time>2021-12-08T10:20:55.243Z</time>
      </trkpt>
      <trkpt lat="48.35958" lon="2.64696">
        <ele>133</ele>
        <time>2021-12-08T10:21:00.247Z</time>
      </trkpt>
      <trkpt lat="48.35958" lon="2.64688">
        <ele>134</ele>
        <time>2021-12-08T10:21:05.240Z</time>
      </trkpt>
      <trkpt lat="48.35958" lon="2.64679">
        <ele>134</ele>
        <time>2021-12-08T10:21:10.242Z</time>
      </trkpt>
      <trkpt lat="48.35958" lon="2.64671">
        <ele>134</ele>
        <time>2021-12-08T10:21:15.238Z</time>
      </trkpt>
      <trkpt lat="48.35958" lon="2.64664">
        <ele>134</ele>
        <time>2021-12-08T10:21:20.241Z</time>
      </trkpt>
      <trkpt lat="48.35958" lon="2.64658">
        <ele>132</ele>
        <time>2021-12-08T10:21:24.243Z</time>
      </trkpt>
      <trkpt lat="48.35958" lon="2.64649">
        <ele>133</ele>
        <time>2021-12-08T10:21:29.234Z</time>
      </trkpt>
      <trkpt lat="48.35959" lon="2.64642">
        <ele>131</ele>
        <time>2021-12-08T10:21:33.243Z</time>
      </trkpt>
      <trkpt lat="48.35959" lon="2.64634">
        <ele>131</ele>
        <time>2021-12-08T10:21:38.234Z</time>
      </trkpt>
      <trkpt lat="48.35959" lon="2.64626">
        <ele>131</ele>
        <time>2021-12-08T10:21:43.232Z</time>
      </trkpt>
      <trkpt lat="48.3596" lon="2.64619">
        <ele>130</ele>
        <time>2021-12-08T10:21:47.232Z</time>
      </trkpt>
      <trkpt lat="48.3596" lon="2.64611">
        <ele>130</ele>
        <time>2021-12-08T10:21:52.237Z</time>
      </trkpt>
      <trkpt lat="48.35961" lon="2.64604">
        <ele>130</ele>
        <time>2021-12-08T10:21:56.249Z</time>
      </trkpt>
      <trkpt lat="48.35962" lon="2.64596">
        <ele>129</ele>
        <time>2021-12-08T10:22:01.242Z</time>
      </trkpt>
      <trkpt lat="48.35963" lon="2.64587">
        <ele>129</ele>
        <time>2021-12-08T10:22:06.239Z</time>
      </trkpt>
      <trkpt lat="48.35964" lon="2.64574">
        <ele>129</ele>
        <time>2021-12-08T10:22:11.248Z</time>
      </trkpt>
      <trkpt lat="48.35964" lon="2.6456">
        <ele>129</ele>
        <time>2021-12-08T10:22:16.246Z</time>
      </trkpt>
      <trkpt lat="48.35965" lon="2.64547">
        <ele>129</ele>
        <time>2021-12-08T10:22:21.252Z</time>
      </trkpt>
      <trkpt lat="48.35966" lon="2.64537">
        <ele>130</ele>
        <time>2021-12-08T10:22:26.251Z</time>
      </trkpt>
      <trkpt lat="48.35967" lon="2.64528">
        <ele>130</ele>
        <time>2021-12-08T10:22:31.249Z</time>
      </trkpt>
      <trkpt lat="48.35968" lon="2.64518">
        <ele>130</ele>
        <time>2021-12-08T10:22:36.250Z</time>
      </trkpt>
      <trkpt lat="48.3597" lon="2.64509">
        <ele>130</ele>
        <time>2021-12-08T10:22:41.247Z</time>
      </trkpt>
      <trkpt lat="48.35972" lon="2.64499">
        <ele>130</ele>
        <time>2021-12-08T10:22:46.250Z</time>
      </trkpt>
      <trkpt lat="48.35972" lon="2.64489">
        <ele>130</ele>
        <time>2021-12-08T10:22:51.247Z</time>
      </trkpt>
      <trkpt lat="48.35971" lon="2.64482">
        <ele>130</ele>
        <time>2021-12-08T10:22:55.252Z</time>
      </trkpt>
      <trkpt lat="48.35972" lon="2.64474">
        <ele>130</ele>
        <time>2021-12-08T10:23:00.246Z</time>
      </trkpt>
      <trkpt lat="48.35974" lon="2.64468">
        <ele>130</ele>
        <time>2021-12-08T10:23:04.271Z</time>
      </trkpt>
      <trkpt lat="48.35973" lon="2.6446">
        <ele>130</ele>
        <time>2021-12-08T10:23:09.239Z</time>
      </trkpt>
      <trkpt lat="48.35974" lon="2.64453">
        <ele>130</ele>
        <time>2021-12-08T10:23:14.229Z</time>
      </trkpt>
      <trkpt lat="48.35974" lon="2.64447">
        <ele>130</ele>
        <time>2021-12-08T10:23:19.229Z</time>
      </trkpt>
      <trkpt lat="48.35975" lon="2.6444">
        <ele>130</ele>
        <time>2021-12-08T10:23:24.232Z</time>
      </trkpt>
      <trkpt lat="48.35976" lon="2.64429">
        <ele>129</ele>
        <time>2021-12-08T10:23:29.229Z</time>
      </trkpt>
      <trkpt lat="48.35978" lon="2.6442">
        <ele>129</ele>
        <time>2021-12-08T10:23:33.230Z</time>
      </trkpt>
      <trkpt lat="48.35982" lon="2.64413">
        <ele>129</ele>
        <time>2021-12-08T10:23:37.238Z</time>
      </trkpt>
      <trkpt lat="48.35983" lon="2.64403">
        <ele>129</ele>
        <time>2021-12-08T10:23:42.231Z</time>
      </trkpt>
      <trkpt lat="48.35984" lon="2.64394">
        <ele>129</ele>
        <time>2021-12-08T10:23:46.238Z</time>
      </trkpt>
      <trkpt lat="48.35986" lon="2.64386">
        <ele>129</ele>
        <time>2021-12-08T10:23:50.240Z</time>
      </trkpt>
      <trkpt lat="48.35984" lon="2.64375">
        <ele>129</ele>
        <time>2021-12-08T10:23:55.243Z</time>
      </trkpt>
      <trkpt lat="48.35986" lon="2.64369">
        <ele>130</ele>
        <time>2021-12-08T10:23:59.235Z</time>
      </trkpt>
      <trkpt lat="48.35986" lon="2.64358">
        <ele>130</ele>
        <time>2021-12-08T10:24:04.242Z</time>
      </trkpt>
      <trkpt lat="48.35986" lon="2.6435">
        <ele>130</ele>
        <time>2021-12-08T10:24:08.243Z</time>
      </trkpt>
      <trkpt lat="48.35985" lon="2.64341">
        <ele>131</ele>
        <time>2021-12-08T10:24:13.229Z</time>
      </trkpt>
      <trkpt lat="48.35986" lon="2.64336">
        <ele>131</ele>
        <time>2021-12-08T10:24:17.237Z</time>
      </trkpt>
      <trkpt lat="48.35987" lon="2.64328">
        <ele>128</ele>
        <time>2021-12-08T10:24:22.240Z</time>
      </trkpt>
      <trkpt lat="48.35989" lon="2.64322">
        <ele>128</ele>
        <time>2021-12-08T10:24:27.243Z</time>
      </trkpt>
      <trkpt lat="48.35989" lon="2.64312">
        <ele>129</ele>
        <time>2021-12-08T10:24:32.231Z</time>
      </trkpt>
      <trkpt lat="48.35991" lon="2.64305">
        <ele>129</ele>
        <time>2021-12-08T10:24:36.239Z</time>
      </trkpt>
      <trkpt lat="48.35991" lon="2.64298">
        <ele>129</ele>
        <time>2021-12-08T10:24:40.242Z</time>
      </trkpt>
      <trkpt lat="48.35993" lon="2.6429">
        <ele>129</ele>
        <time>2021-12-08T10:24:45.242Z</time>
      </trkpt>
      <trkpt lat="48.35994" lon="2.64282">
        <ele>129</ele>
        <time>2021-12-08T10:24:50.239Z</time>
      </trkpt>
      <trkpt lat="48.35994" lon="2.64275">
        <ele>129</ele>
        <time>2021-12-08T10:24:55.238Z</time>
      </trkpt>
      <trkpt lat="48.35995" lon="2.64267">
        <ele>129</ele>
        <time>2021-12-08T10:25:00.236Z</time>
      </trkpt>
      <trkpt lat="48.35997" lon="2.64259">
        <ele>130</ele>
        <time>2021-12-08T10:25:05.235Z</time>
      </trkpt>
      <trkpt lat="48.35999" lon="2.64256">
        <ele>130</ele>
        <time>2021-12-08T10:25:09.233Z</time>
      </trkpt>
      <trkpt lat="48.36" lon="2.64249">
        <ele>130</ele>
        <time>2021-12-08T10:25:13.243Z</time>
      </trkpt>
      <trkpt lat="48.36002" lon="2.64242">
        <ele>130</ele>
        <time>2021-12-08T10:25:18.242Z</time>
      </trkpt>
      <trkpt lat="48.36002" lon="2.64235">
        <ele>130</ele>
        <time>2021-12-08T10:25:23.241Z</time>
      </trkpt>
      <trkpt lat="48.36003" lon="2.64228">
        <ele>130</ele>
        <time>2021-12-08T10:25:28.233Z</time>
      </trkpt>
      <trkpt lat="48.36003" lon="2.64221">
        <ele>130</ele>
        <time>2021-12-08T10:25:33.239Z</time>
      </trkpt>
      <trkpt lat="48.36003" lon="2.64213">
        <ele>130</ele>
        <time>2021-12-08T10:25:38.238Z</time>
      </trkpt>
      <trkpt lat="48.36003" lon="2.64206">
        <ele>130</ele>
        <time>2021-12-08T10:25:43.234Z</time>
      </trkpt>
      <trkpt lat="48.36003" lon="2.64197">
        <ele>130</ele>
        <time>2021-12-08T10:25:48.241Z</time>
      </trkpt>
      <trkpt lat="48.36004" lon="2.64189">
        <ele>130</ele>
        <time>2021-12-08T10:25:53.241Z</time>
      </trkpt>
      <trkpt lat="48.36005" lon="2.64179">
        <ele>130</ele>
        <time>2021-12-08T10:25:58.234Z</time>
      </trkpt>
      <trkpt lat="48.36006" lon="2.6417">
        <ele>130</ele>
        <time>2021-12-08T10:26:03.233Z</time>
      </trkpt>
      <trkpt lat="48.36006" lon="2.64164">
        <ele>130</ele>
        <time>2021-12-08T10:26:07.233Z</time>
      </trkpt>
      <trkpt lat="48.36008" lon="2.64157">
        <ele>130</ele>
        <time>2021-12-08T10:26:11.241Z</time>
      </trkpt>
      <trkpt lat="48.36007" lon="2.64147">
        <ele>131</ele>
        <time>2021-12-08T10:26:16.240Z</time>
      </trkpt>
      <trkpt lat="48.36009" lon="2.64138">
        <ele>131</ele>
        <time>2021-12-08T10:26:21.246Z</time>
      </trkpt>
      <trkpt lat="48.36009" lon="2.64131">
        <ele>131</ele>
        <time>2021-12-08T10:26:26.239Z</time>
      </trkpt>
      <trkpt lat="48.3601" lon="2.64122">
        <ele>133</ele>
        <time>2021-12-08T10:26:31.232Z</time>
      </trkpt>
      <trkpt lat="48.3601" lon="2.64115">
        <ele>133</ele>
        <time>2021-12-08T10:26:35.241Z</time>
      </trkpt>
      <trkpt lat="48.36008" lon="2.64105">
        <ele>133</ele>
        <time>2021-12-08T10:26:40.236Z</time>
      </trkpt>
      <trkpt lat="48.36008" lon="2.64098">
        <ele>133</ele>
        <time>2021-12-08T10:26:45.241Z</time>
      </trkpt>
      <trkpt lat="48.36008" lon="2.64091">
        <ele>136</ele>
        <time>2021-12-08T10:26:49.243Z</time>
      </trkpt>
      <trkpt lat="48.36009" lon="2.64084">
        <ele>136</ele>
        <time>2021-12-08T10:26:54.257Z</time>
      </trkpt>
      <trkpt lat="48.36012" lon="2.64079">
        <ele>136</ele>
        <time>2021-12-08T10:26:59.237Z</time>
      </trkpt>
      <trkpt lat="48.36014" lon="2.64069">
        <ele>137</ele>
        <time>2021-12-08T10:27:04.238Z</time>
      </trkpt>
      <trkpt lat="48.36014" lon="2.6406">
        <ele>137</ele>
        <time>2021-12-08T10:27:08.248Z</time>
      </trkpt>
      <trkpt lat="48.36015" lon="2.64051">
        <ele>137</ele>
        <time>2021-12-08T10:27:13.233Z</time>
      </trkpt>
      <trkpt lat="48.36015" lon="2.64041">
        <ele>138</ele>
        <time>2021-12-08T10:27:18.242Z</time>
      </trkpt>
      <trkpt lat="48.36016" lon="2.64032">
        <ele>138</ele>
        <time>2021-12-08T10:27:23.232Z</time>
      </trkpt>
      <trkpt lat="48.36017" lon="2.64026">
        <ele>138</ele>
        <time>2021-12-08T10:27:27.235Z</time>
      </trkpt>
      <trkpt lat="48.36018" lon="2.64017">
        <ele>138</ele>
        <time>2021-12-08T10:27:32.236Z</time>
      </trkpt>
      <trkpt lat="48.36018" lon="2.6401">
        <ele>138</ele>
        <time>2021-12-08T10:27:36.236Z</time>
      </trkpt>
      <trkpt lat="48.3602" lon="2.64002">
        <ele>138</ele>
        <time>2021-12-08T10:27:41.235Z</time>
      </trkpt>
      <trkpt lat="48.36021" lon="2.63993">
        <ele>138</ele>
        <time>2021-12-08T10:27:46.238Z</time>
      </trkpt>
      <trkpt lat="48.36022" lon="2.63982">
        <ele>138</ele>
        <time>2021-12-08T10:27:51.244Z</time>
      </trkpt>
      <trkpt lat="48.36021" lon="2.63972">
        <ele>138</ele>
        <time>2021-12-08T10:27:56.232Z</time>
      </trkpt>
      <trkpt lat="48.3602" lon="2.63964">
        <ele>138</ele>
        <time>2021-12-08T10:28:01.240Z</time>
      </trkpt>
      <trkpt lat="48.36018" lon="2.63954">
        <ele>138</ele>
        <time>2021-12-08T10:28:06.239Z</time>
      </trkpt>
      <trkpt lat="48.36018" lon="2.63946">
        <ele>138</ele>
        <time>2021-12-08T10:28:11.237Z</time>
      </trkpt>
      <trkpt lat="48.3602" lon="2.63941">
        <ele>138</ele>
        <time>2021-12-08T10:28:15.238Z</time>
      </trkpt>
      <trkpt lat="48.36022" lon="2.63935">
        <ele>138</ele>
        <time>2021-12-08T10:28:20.237Z</time>
      </trkpt>
      <trkpt lat="48.36022" lon="2.63926">
        <ele>137</ele>
        <time>2021-12-08T10:28:24.236Z</time>
      </trkpt>
      <trkpt lat="48.3602" lon="2.63917">
        <ele>137</ele>
        <time>2021-12-08T10:28:29.232Z</time>
      </trkpt>
      <trkpt lat="48.36019" lon="2.63909">
        <ele>137</ele>
        <time>2021-12-08T10:28:33.236Z</time>
      </trkpt>
      <trkpt lat="48.36013" lon="2.63905">
        <ele>137</ele>
        <time>2021-12-08T10:28:38.233Z</time>
      </trkpt>
      <trkpt lat="48.36004" lon="2.63912">
        <ele>137</ele>
        <time>2021-12-08T10:29:04.232Z</time>
      </trkpt>
      <trkpt lat="48.36001" lon="2.6391">
        <ele>137</ele>
        <time>2021-12-08T10:29:08.247Z</time>
      </trkpt>
      <trkpt lat="48.35996" lon="2.63907">
        <ele>137</ele>
        <time>2021-12-08T10:29:12.271Z</time>
      </trkpt>
      <trkpt lat="48.35992" lon="2.63905">
        <ele>137</ele>
        <time>2021-12-08T10:29:17.236Z</time>
      </trkpt>
      <trkpt lat="48.35987" lon="2.63904">
        <ele>137</ele>
        <time>2021-12-08T10:29:22.244Z</time>
      </trkpt>
      <trkpt lat="48.35982" lon="2.63904">
        <ele>139</ele>
        <time>2021-12-08T10:29:27.238Z</time>
      </trkpt>
      <trkpt lat="48.35977" lon="2.63905">
        <ele>139</ele>
        <time>2021-12-08T10:29:32.232Z</time>
      </trkpt>
      <trkpt lat="48.35971" lon="2.63905">
        <ele>139</ele>
        <time>2021-12-08T10:29:37.232Z</time>
      </trkpt>
      <trkpt lat="48.35966" lon="2.63905">
        <ele>139</ele>
        <time>2021-12-08T10:29:41.239Z</time>
      </trkpt>
      <trkpt lat="48.3596" lon="2.63906">
        <ele>139</ele>
        <time>2021-12-08T10:29:46.231Z</time>
      </trkpt>
      <trkpt lat="48.35954" lon="2.63907">
        <ele>140</ele>
        <time>2021-12-08T10:29:50.239Z</time>
      </trkpt>
      <trkpt lat="48.35948" lon="2.63908">
        <ele>140</ele>
        <time>2021-12-08T10:29:55.233Z</time>
      </trkpt>
      <trkpt lat="48.35943" lon="2.63908">
        <ele>140</ele>
        <time>2021-12-08T10:30:00.234Z</time>
      </trkpt>
      <trkpt lat="48.35937" lon="2.63909">
        <ele>140</ele>
        <time>2021-12-08T10:30:04.237Z</time>
      </trkpt>
      <trkpt lat="48.35932" lon="2.63909">
        <ele>140</ele>
        <time>2021-12-08T10:30:08.241Z</time>
      </trkpt>
      <trkpt lat="48.35926" lon="2.6391">
        <ele>140</ele>
        <time>2021-12-08T10:30:13.233Z</time>
      </trkpt>
      <trkpt lat="48.35921" lon="2.63915">
        <ele>140</ele>
        <time>2021-12-08T10:30:18.238Z</time>
      </trkpt>
      <trkpt lat="48.35914" lon="2.63915">
        <ele>140</ele>
        <time>2021-12-08T10:30:23.233Z</time>
      </trkpt>
      <trkpt lat="48.35907" lon="2.63915">
        <ele>140</ele>
        <time>2021-12-08T10:30:28.234Z</time>
      </trkpt>
      <trkpt lat="48.35901" lon="2.63916">
        <ele>139</ele>
        <time>2021-12-08T10:30:33.236Z</time>
      </trkpt>
      <trkpt lat="48.35895" lon="2.63917">
        <ele>139</ele>
        <time>2021-12-08T10:30:38.239Z</time>
      </trkpt>
      <trkpt lat="48.35889" lon="2.63916">
        <ele>139</ele>
        <time>2021-12-08T10:30:43.236Z</time>
      </trkpt>
      <trkpt lat="48.35882" lon="2.63917">
        <ele>139</ele>
        <time>2021-12-08T10:30:48.242Z</time>
      </trkpt>
      <trkpt lat="48.35877" lon="2.63918">
        <ele>139</ele>
        <time>2021-12-08T10:30:52.237Z</time>
      </trkpt>
      <trkpt lat="48.35871" lon="2.63919">
        <ele>137</ele>
        <time>2021-12-08T10:30:57.226Z</time>
      </trkpt>
      <trkpt lat="48.35867" lon="2.63918">
        <ele>137</ele>
        <time>2021-12-08T10:31:01.259Z</time>
      </trkpt>
      <trkpt lat="48.3586" lon="2.6392">
        <ele>137</ele>
        <time>2021-12-08T10:31:06.243Z</time>
      </trkpt>
      <trkpt lat="48.35854" lon="2.6392">
        <ele>137</ele>
        <time>2021-12-08T10:31:11.241Z</time>
      </trkpt>
      <trkpt lat="48.35849" lon="2.63922">
        <ele>137</ele>
        <time>2021-12-08T10:31:15.245Z</time>
      </trkpt>
      <trkpt lat="48.35844" lon="2.63923">
        <ele>135</ele>
        <time>2021-12-08T10:31:20.234Z</time>
      </trkpt>
      <trkpt lat="48.35839" lon="2.63924">
        <ele>135</ele>
        <time>2021-12-08T10:31:24.245Z</time>
      </trkpt>
      <trkpt lat="48.35833" lon="2.63926">
        <ele>135</ele>
        <time>2021-12-08T10:31:29.231Z</time>
      </trkpt>
      <trkpt lat="48.35828" lon="2.63927">
        <ele>135</ele>
        <time>2021-12-08T10:31:33.241Z</time>
      </trkpt>
      <trkpt lat="48.35823" lon="2.63927">
        <ele>135</ele>
        <time>2021-12-08T10:31:37.239Z</time>
      </trkpt>
      <trkpt lat="48.35816" lon="2.63929">
        <ele>133</ele>
        <time>2021-12-08T10:31:42.244Z</time>
      </trkpt>
      <trkpt lat="48.35811" lon="2.63929">
        <ele>133</ele>
        <time>2021-12-08T10:31:47.243Z</time>
      </trkpt>
      <trkpt lat="48.35805" lon="2.6393">
        <ele>133</ele>
        <time>2021-12-08T10:31:51.241Z</time>
      </trkpt>
      <trkpt lat="48.358" lon="2.63931">
        <ele>133</ele>
        <time>2021-12-08T10:31:55.330Z</time>
      </trkpt>
      <trkpt lat="48.35794" lon="2.6393">
        <ele>133</ele>
        <time>2021-12-08T10:32:00.242Z</time>
      </trkpt>
      <trkpt lat="48.35785" lon="2.6393">
        <ele>134</ele>
        <time>2021-12-08T10:32:05.249Z</time>
      </trkpt>
      <trkpt lat="48.35778" lon="2.6393">
        <ele>134</ele>
        <time>2021-12-08T10:32:10.251Z</time>
      </trkpt>
      <trkpt lat="48.35771" lon="2.63931">
        <ele>134</ele>
        <time>2021-12-08T10:32:15.242Z</time>
      </trkpt>
      <trkpt lat="48.35765" lon="2.63931">
        <ele>134</ele>
        <time>2021-12-08T10:32:20.248Z</time>
      </trkpt>
      <trkpt lat="48.35759" lon="2.63933">
        <ele>136</ele>
        <time>2021-12-08T10:32:25.245Z</time>
      </trkpt>
      <trkpt lat="48.35753" lon="2.63935">
        <ele>136</ele>
        <time>2021-12-08T10:32:30.245Z</time>
      </trkpt>
      <trkpt lat="48.35748" lon="2.63936">
        <ele>136</ele>
        <time>2021-12-08T10:32:35.250Z</time>
      </trkpt>
      <trkpt lat="48.3574" lon="2.63938">
        <ele>136</ele>
        <time>2021-12-08T10:32:40.245Z</time>
      </trkpt>
      <trkpt lat="48.35736" lon="2.63939">
        <ele>136</ele>
        <time>2021-12-08T10:32:44.247Z</time>
      </trkpt>
      <trkpt lat="48.35728" lon="2.6394">
        <ele>136</ele>
        <time>2021-12-08T10:32:49.244Z</time>
      </trkpt>
      <trkpt lat="48.35723" lon="2.63941">
        <ele>136</ele>
        <time>2021-12-08T10:32:53.251Z</time>
      </trkpt>
      <trkpt lat="48.35717" lon="2.63942">
        <ele>136</ele>
        <time>2021-12-08T10:32:58.238Z</time>
      </trkpt>
      <trkpt lat="48.35711" lon="2.63944">
        <ele>136</ele>
        <time>2021-12-08T10:33:03.235Z</time>
      </trkpt>
      <trkpt lat="48.35705" lon="2.63944">
        <ele>135</ele>
        <time>2021-12-08T10:33:08.241Z</time>
      </trkpt>
      <trkpt lat="48.35698" lon="2.63945">
        <ele>135</ele>
        <time>2021-12-08T10:33:13.245Z</time>
      </trkpt>
      <trkpt lat="48.35693" lon="2.63945">
        <ele>135</ele>
        <time>2021-12-08T10:33:17.244Z</time>
      </trkpt>
      <trkpt lat="48.35686" lon="2.63946">
        <ele>135</ele>
        <time>2021-12-08T10:33:22.244Z</time>
      </trkpt>
      <trkpt lat="48.3568" lon="2.63947">
        <ele>135</ele>
        <time>2021-12-08T10:33:27.234Z</time>
      </trkpt>
      <trkpt lat="48.35673" lon="2.63947">
        <ele>135</ele>
        <time>2021-12-08T10:33:32.233Z</time>
      </trkpt>
      <trkpt lat="48.35667" lon="2.63948">
        <ele>135</ele>
        <time>2021-12-08T10:33:37.247Z</time>
      </trkpt>
      <trkpt lat="48.3566" lon="2.63949">
        <ele>135</ele>
        <time>2021-12-08T10:33:42.269Z</time>
      </trkpt>
      <trkpt lat="48.35652" lon="2.63951">
        <ele>134</ele>
        <time>2021-12-08T10:33:47.241Z</time>
      </trkpt>
      <trkpt lat="48.35646" lon="2.63951">
        <ele>134</ele>
        <time>2021-12-08T10:33:51.280Z</time>
      </trkpt>
      <trkpt lat="48.35641" lon="2.63953">
        <ele>134</ele>
        <time>2021-12-08T10:33:56.264Z</time>
      </trkpt>
      <trkpt lat="48.35636" lon="2.63953">
        <ele>134</ele>
        <time>2021-12-08T10:34:01.244Z</time>
      </trkpt>
      <trkpt lat="48.3563" lon="2.63954">
        <ele>134</ele>
        <time>2021-12-08T10:34:06.241Z</time>
      </trkpt>
      <trkpt lat="48.35624" lon="2.63955">
        <ele>135</ele>
        <time>2021-12-08T10:34:11.242Z</time>
      </trkpt>
      <trkpt lat="48.35616" lon="2.63957">
        <ele>135</ele>
        <time>2021-12-08T10:34:16.244Z</time>
      </trkpt>
      <trkpt lat="48.3561" lon="2.63958">
        <ele>135</ele>
        <time>2021-12-08T10:34:21.251Z</time>
      </trkpt>
      <trkpt lat="48.35605" lon="2.63957">
        <ele>135</ele>
        <time>2021-12-08T10:34:25.281Z</time>
      </trkpt>
      <trkpt lat="48.35599" lon="2.63961">
        <ele>134</ele>
        <time>2021-12-08T10:34:30.242Z</time>
      </trkpt>
      <trkpt lat="48.35593" lon="2.63962">
        <ele>135</ele>
        <time>2021-12-08T10:34:35.243Z</time>
      </trkpt>
      <trkpt lat="48.35587" lon="2.63964">
        <ele>135</ele>
        <time>2021-12-08T10:34:40.236Z</time>
      </trkpt>
      <trkpt lat="48.35582" lon="2.63966">
        <ele>135</ele>
        <time>2021-12-08T10:34:44.247Z</time>
      </trkpt>
      <trkpt lat="48.35575" lon="2.63967">
        <ele>135</ele>
        <time>2021-12-08T10:34:49.250Z</time>
      </trkpt>
      <trkpt lat="48.35568" lon="2.63967">
        <ele>136</ele>
        <time>2021-12-08T10:34:54.246Z</time>
      </trkpt>
      <trkpt lat="48.35563" lon="2.63968">
        <ele>136</ele>
        <time>2021-12-08T10:34:58.270Z</time>
      </trkpt>
      <trkpt lat="48.35557" lon="2.63971">
        <ele>136</ele>
        <time>2021-12-08T10:35:03.239Z</time>
      </trkpt>
      <trkpt lat="48.35552" lon="2.63972">
        <ele>136</ele>
        <time>2021-12-08T10:35:07.245Z</time>
      </trkpt>
      <trkpt lat="48.35546" lon="2.63972">
        <ele>136</ele>
        <time>2021-12-08T10:35:12.286Z</time>
      </trkpt>
      <trkpt lat="48.3554" lon="2.63971">
        <ele>137</ele>
        <time>2021-12-08T10:35:17.249Z</time>
      </trkpt>
      <trkpt lat="48.35534" lon="2.63971">
        <ele>137</ele>
        <time>2021-12-08T10:35:22.249Z</time>
      </trkpt>
      <trkpt lat="48.35528" lon="2.63972">
        <ele>137</ele>
        <time>2021-12-08T10:35:27.248Z</time>
      </trkpt>
      <trkpt lat="48.35523" lon="2.63973">
        <ele>137</ele>
        <time>2021-12-08T10:35:32.247Z</time>
      </trkpt>
      <trkpt lat="48.35518" lon="2.63975">
        <ele>137</ele>
        <time>2021-12-08T10:35:37.248Z</time>
      </trkpt>
      <trkpt lat="48.35516" lon="2.6398">
        <ele>137</ele>
        <time>2021-12-08T10:35:41.248Z</time>
      </trkpt>
      <trkpt lat="48.35514" lon="2.63985">
        <ele>137</ele>
        <time>2021-12-08T10:35:46.255Z</time>
      </trkpt>
      <trkpt lat="48.35514" lon="2.63993">
        <ele>138</ele>
        <time>2021-12-08T10:35:51.240Z</time>
      </trkpt>
      <trkpt lat="48.35512" lon="2.64001">
        <ele>138</ele>
        <time>2021-12-08T10:35:56.243Z</time>
      </trkpt>
      <trkpt lat="48.35509" lon="2.64006">
        <ele>138</ele>
        <time>2021-12-08T10:36:00.249Z</time>
      </trkpt>
      <trkpt lat="48.35507" lon="2.64014">
        <ele>138</ele>
        <time>2021-12-08T10:36:05.243Z</time>
      </trkpt>
      <trkpt lat="48.35506" lon="2.64019">
        <ele>137</ele>
        <time>2021-12-08T10:36:09.243Z</time>
      </trkpt>
      <trkpt lat="48.35503" lon="2.64026">
        <ele>137</ele>
        <time>2021-12-08T10:36:14.242Z</time>
      </trkpt>
      <trkpt lat="48.35501" lon="2.64032">
        <ele>137</ele>
        <time>2021-12-08T10:36:18.266Z</time>
      </trkpt>
      <trkpt lat="48.35499" lon="2.64039">
        <ele>137</ele>
        <time>2021-12-08T10:36:23.237Z</time>
      </trkpt>
      <trkpt lat="48.35497" lon="2.64045">
        <ele>137</ele>
        <time>2021-12-08T10:36:27.272Z</time>
      </trkpt>
      <trkpt lat="48.35496" lon="2.64052">
        <ele>137</ele>
        <time>2021-12-08T10:36:32.244Z</time>
      </trkpt>
      <trkpt lat="48.35495" lon="2.64058">
        <ele>137</ele>
        <time>2021-12-08T10:36:36.247Z</time>
      </trkpt>
      <trkpt lat="48.35493" lon="2.64067">
        <ele>137</ele>
        <time>2021-12-08T10:36:41.243Z</time>
      </trkpt>
      <trkpt lat="48.35492" lon="2.64076">
        <ele>136</ele>
        <time>2021-12-08T10:36:46.251Z</time>
      </trkpt>
      <trkpt lat="48.35492" lon="2.64083">
        <ele>136</ele>
        <time>2021-12-08T10:36:50.245Z</time>
      </trkpt>
      <trkpt lat="48.35491" lon="2.64092">
        <ele>136</ele>
        <time>2021-12-08T10:36:55.249Z</time>
      </trkpt>
      <trkpt lat="48.35489" lon="2.64101">
        <ele>134</ele>
        <time>2021-12-08T10:37:00.244Z</time>
      </trkpt>
      <trkpt lat="48.35488" lon="2.6411">
        <ele>134</ele>
        <time>2021-12-08T10:37:05.236Z</time>
      </trkpt>
      <trkpt lat="48.35487" lon="2.6412">
        <ele>134</ele>
        <time>2021-12-08T10:37:10.246Z</time>
      </trkpt>
      <trkpt lat="48.35486" lon="2.64131">
        <ele>133</ele>
        <time>2021-12-08T10:37:15.246Z</time>
      </trkpt>
      <trkpt lat="48.35486" lon="2.6414">
        <ele>135</ele>
        <time>2021-12-08T10:37:20.242Z</time>
      </trkpt>
      <trkpt lat="48.35485" lon="2.64148">
        <ele>135</ele>
        <time>2021-12-08T10:37:25.237Z</time>
      </trkpt>
      <trkpt lat="48.35483" lon="2.64158">
        <ele>135</ele>
        <time>2021-12-08T10:37:30.234Z</time>
      </trkpt>
      <trkpt lat="48.35482" lon="2.64168">
        <ele>135</ele>
        <time>2021-12-08T10:37:35.250Z</time>
      </trkpt>
      <trkpt lat="48.35481" lon="2.64176">
        <ele>135</ele>
        <time>2021-12-08T10:37:40.231Z</time>
      </trkpt>
      <trkpt lat="48.35479" lon="2.64186">
        <ele>134</ele>
        <time>2021-12-08T10:37:45.262Z</time>
      </trkpt>
      <trkpt lat="48.35477" lon="2.64198">
        <ele>134</ele>
        <time>2021-12-08T10:37:50.243Z</time>
      </trkpt>
      <trkpt lat="48.35476" lon="2.64208">
        <ele>134</ele>
        <time>2021-12-08T10:37:55.232Z</time>
      </trkpt>
      <trkpt lat="48.35475" lon="2.64215">
        <ele>134</ele>
        <time>2021-12-08T10:37:59.242Z</time>
      </trkpt>
      <trkpt lat="48.35473" lon="2.64224">
        <ele>134</ele>
        <time>2021-12-08T10:38:04.242Z</time>
      </trkpt>
      <trkpt lat="48.35473" lon="2.64233">
        <ele>134</ele>
        <time>2021-12-08T10:38:08.242Z</time>
      </trkpt>
      <trkpt lat="48.35472" lon="2.64243">
        <ele>133</ele>
        <time>2021-12-08T10:38:13.239Z</time>
      </trkpt>
      <trkpt lat="48.35471" lon="2.64254">
        <ele>133</ele>
        <time>2021-12-08T10:38:18.245Z</time>
      </trkpt>
      <trkpt lat="48.35471" lon="2.64262">
        <ele>133</ele>
        <time>2021-12-08T10:38:22.234Z</time>
      </trkpt>
      <trkpt lat="48.3547" lon="2.6427">
        <ele>132</ele>
        <time>2021-12-08T10:38:26.246Z</time>
      </trkpt>
      <trkpt lat="48.35469" lon="2.6428">
        <ele>132</ele>
        <time>2021-12-08T10:38:31.238Z</time>
      </trkpt>
      <trkpt lat="48.35467" lon="2.64287">
        <ele>132</ele>
        <time>2021-12-08T10:38:35.244Z</time>
      </trkpt>
      <trkpt lat="48.35466" lon="2.64297">
        <ele>132</ele>
        <time>2021-12-08T10:38:40.272Z</time>
      </trkpt>
      <trkpt lat="48.35465" lon="2.64307">
        <ele>132</ele>
        <time>2021-12-08T10:38:45.246Z</time>
      </trkpt>
      <trkpt lat="48.35464" lon="2.64316">
        <ele>132</ele>
        <time>2021-12-08T10:38:49.273Z</time>
      </trkpt>
      <trkpt lat="48.35463" lon="2.64326">
        <ele>132</ele>
        <time>2021-12-08T10:38:54.237Z</time>
      </trkpt>
      <trkpt lat="48.35461" lon="2.64336">
        <ele>132</ele>
        <time>2021-12-08T10:38:59.240Z</time>
      </trkpt>
      <trkpt lat="48.35461" lon="2.64345">
        <ele>132</ele>
        <time>2021-12-08T10:39:03.258Z</time>
      </trkpt>
      <trkpt lat="48.35459" lon="2.64351">
        <ele>133</ele>
        <time>2021-12-08T10:39:07.281Z</time>
      </trkpt>
      <trkpt lat="48.35455" lon="2.64358">
        <ele>133</ele>
        <time>2021-12-08T10:39:12.266Z</time>
      </trkpt>
      <trkpt lat="48.35451" lon="2.64363">
        <ele>133</ele>
        <time>2021-12-08T10:39:17.246Z</time>
      </trkpt>
      <trkpt lat="48.35446" lon="2.64365">
        <ele>133</ele>
        <time>2021-12-08T10:39:22.242Z</time>
      </trkpt>
      <trkpt lat="48.35446" lon="2.64367">
        <ele>133</ele>
        <time>2021-12-08T10:39:26.240Z</time>
      </trkpt>
      <trkpt lat="48.35441" lon="2.64368">
        <ele>133</ele>
        <time>2021-12-08T10:40:20.244Z</time>
      </trkpt>
      <trkpt lat="48.35439" lon="2.6437">
        <ele>133</ele>
        <time>2021-12-08T10:40:24.248Z</time>
      </trkpt>
      <trkpt lat="48.35434" lon="2.64369">
        <ele>133</ele>
        <time>2021-12-08T10:40:28.248Z</time>
      </trkpt>
      <trkpt lat="48.35428" lon="2.64363">
        <ele>133</ele>
        <time>2021-12-08T10:40:33.237Z</time>
      </trkpt>
      <trkpt lat="48.35424" lon="2.64359">
        <ele>133</ele>
        <time>2021-12-08T10:40:37.237Z</time>
      </trkpt>
      <trkpt lat="48.35419" lon="2.64354">
        <ele>133</ele>
        <time>2021-12-08T10:40:42.236Z</time>
      </trkpt>
      <trkpt lat="48.35415" lon="2.64348">
        <ele>133</ele>
        <time>2021-12-08T10:40:47.246Z</time>
      </trkpt>
      <trkpt lat="48.35409" lon="2.64344">
        <ele>134</ele>
        <time>2021-12-08T10:40:52.239Z</time>
      </trkpt>
      <trkpt lat="48.35405" lon="2.6434">
        <ele>134</ele>
        <time>2021-12-08T10:40:56.243Z</time>
      </trkpt>
      <trkpt lat="48.354" lon="2.64337">
        <ele>132</ele>
        <time>2021-12-08T10:41:00.237Z</time>
      </trkpt>
      <trkpt lat="48.35395" lon="2.64333">
        <ele>132</ele>
        <time>2021-12-08T10:41:05.242Z</time>
      </trkpt>
      <trkpt lat="48.35388" lon="2.64329">
        <ele>132</ele>
        <time>2021-12-08T10:41:10.241Z</time>
      </trkpt>
      <trkpt lat="48.35383" lon="2.64326">
        <ele>132</ele>
        <time>2021-12-08T10:41:14.241Z</time>
      </trkpt>
      <trkpt lat="48.35377" lon="2.64322">
        <ele>132</ele>
        <time>2021-12-08T10:41:19.238Z</time>
      </trkpt>
      <trkpt lat="48.35371" lon="2.64319">
        <ele>131</ele>
        <time>2021-12-08T10:41:24.238Z</time>
      </trkpt>
      <trkpt lat="48.35365" lon="2.64316">
        <ele>131</ele>
        <time>2021-12-08T10:41:28.248Z</time>
      </trkpt>
      <trkpt lat="48.35361" lon="2.64312">
        <ele>131</ele>
        <time>2021-12-08T10:41:32.245Z</time>
      </trkpt>
      <trkpt lat="48.35355" lon="2.6431">
        <ele>131</ele>
        <time>2021-12-08T10:41:37.245Z</time>
      </trkpt>
      <trkpt lat="48.3535" lon="2.64308">
        <ele>131</ele>
        <time>2021-12-08T10:41:41.242Z</time>
      </trkpt>
      <trkpt lat="48.35344" lon="2.64305">
        <ele>130</ele>
        <time>2021-12-08T10:41:46.244Z</time>
      </trkpt>
      <trkpt lat="48.35338" lon="2.64301">
        <ele>130</ele>
        <time>2021-12-08T10:41:51.241Z</time>
      </trkpt>
      <trkpt lat="48.35333" lon="2.64298">
        <ele>130</ele>
        <time>2021-12-08T10:41:55.249Z</time>
      </trkpt>
      <trkpt lat="48.35328" lon="2.64296">
        <ele>130</ele>
        <time>2021-12-08T10:41:59.244Z</time>
      </trkpt>
      <trkpt lat="48.35322" lon="2.64292">
        <ele>130</ele>
        <time>2021-12-08T10:42:04.244Z</time>
      </trkpt>
      <trkpt lat="48.35318" lon="2.64288">
        <ele>129</ele>
        <time>2021-12-08T10:42:08.251Z</time>
      </trkpt>
      <trkpt lat="48.35312" lon="2.64283">
        <ele>129</ele>
        <time>2021-12-08T10:42:13.248Z</time>
      </trkpt>
      <trkpt lat="48.35306" lon="2.64279">
        <ele>129</ele>
        <time>2021-12-08T10:42:18.235Z</time>
      </trkpt>
      <trkpt lat="48.35301" lon="2.64276">
        <ele>129</ele>
        <time>2021-12-08T10:42:23.237Z</time>
      </trkpt>
      <trkpt lat="48.35296" lon="2.64273">
        <ele>129</ele>
        <time>2021-12-08T10:42:27.245Z</time>
      </trkpt>
      <trkpt lat="48.3529" lon="2.64269">
        <ele>128</ele>
        <time>2021-12-08T10:42:32.235Z</time>
      </trkpt>
      <trkpt lat="48.35285" lon="2.64266">
        <ele>128</ele>
        <time>2021-12-08T10:42:36.248Z</time>
      </trkpt>
      <trkpt lat="48.35279" lon="2.64262">
        <ele>128</ele>
        <time>2021-12-08T10:42:41.252Z</time>
      </trkpt>
      <trkpt lat="48.35275" lon="2.64258">
        <ele>128</ele>
        <time>2021-12-08T10:42:45.285Z</time>
      </trkpt>
      <trkpt lat="48.35269" lon="2.64253">
        <ele>128</ele>
        <time>2021-12-08T10:42:50.234Z</time>
      </trkpt>
      <trkpt lat="48.35264" lon="2.64251">
        <ele>127</ele>
        <time>2021-12-08T10:42:54.237Z</time>
      </trkpt>
      <trkpt lat="48.3526" lon="2.64249">
        <ele>127</ele>
        <time>2021-12-08T10:42:58.290Z</time>
      </trkpt>
      <trkpt lat="48.35254" lon="2.64246">
        <ele>127</ele>
        <time>2021-12-08T10:43:03.263Z</time>
      </trkpt>
      <trkpt lat="48.35247" lon="2.64242">
        <ele>127</ele>
        <time>2021-12-08T10:43:08.240Z</time>
      </trkpt>
      <trkpt lat="48.35239" lon="2.64238">
        <ele>127</ele>
        <time>2021-12-08T10:43:13.262Z</time>
      </trkpt>
      <trkpt lat="48.35233" lon="2.64234">
        <ele>126</ele>
        <time>2021-12-08T10:43:18.244Z</time>
      </trkpt>
      <trkpt lat="48.35226" lon="2.6423">
        <ele>126</ele>
        <time>2021-12-08T10:43:23.240Z</time>
      </trkpt>
      <trkpt lat="48.35221" lon="2.64227">
        <ele>126</ele>
        <time>2021-12-08T10:43:27.286Z</time>
      </trkpt>
      <trkpt lat="48.35216" lon="2.64222">
        <ele>126</ele>
        <time>2021-12-08T10:43:32.294Z</time>
      </trkpt>
      <trkpt lat="48.35209" lon="2.64218">
        <ele>126</ele>
        <time>2021-12-08T10:43:37.266Z</time>
      </trkpt>
      <trkpt lat="48.35202" lon="2.64215">
        <ele>127</ele>
        <time>2021-12-08T10:43:42.236Z</time>
      </trkpt>
      <trkpt lat="48.35197" lon="2.64213">
        <ele>127</ele>
        <time>2021-12-08T10:43:46.246Z</time>
      </trkpt>
      <trkpt lat="48.35191" lon="2.64209">
        <ele>127</ele>
        <time>2021-12-08T10:43:51.238Z</time>
      </trkpt>
      <trkpt lat="48.35185" lon="2.64206">
        <ele>127</ele>
        <time>2021-12-08T10:43:56.234Z</time>
      </trkpt>
      <trkpt lat="48.3518" lon="2.64202">
        <ele>127</ele>
        <time>2021-12-08T10:44:00.261Z</time>
      </trkpt>
      <trkpt lat="48.35174" lon="2.64198">
        <ele>127</ele>
        <time>2021-12-08T10:44:05.240Z</time>
      </trkpt>
      <trkpt lat="48.35168" lon="2.64194">
        <ele>127</ele>
        <time>2021-12-08T10:44:10.267Z</time>
      </trkpt>
      <trkpt lat="48.35162" lon="2.6419">
        <ele>127</ele>
        <time>2021-12-08T10:44:15.237Z</time>
      </trkpt>
      <trkpt lat="48.35156" lon="2.64187">
        <ele>127</ele>
        <time>2021-12-08T10:44:20.245Z</time>
      </trkpt>
      <trkpt lat="48.35149" lon="2.64183">
        <ele>127</ele>
        <time>2021-12-08T10:44:25.236Z</time>
      </trkpt>
      <trkpt lat="48.35145" lon="2.64179">
        <ele>128</ele>
        <time>2021-12-08T10:44:29.248Z</time>
      </trkpt>
      <trkpt lat="48.35138" lon="2.64178">
        <ele>128</ele>
        <time>2021-12-08T10:44:34.243Z</time>
      </trkpt>
      <trkpt lat="48.35131" lon="2.64179">
        <ele>128</ele>
        <time>2021-12-08T10:44:39.244Z</time>
      </trkpt>
      <trkpt lat="48.35125" lon="2.6418">
        <ele>128</ele>
        <time>2021-12-08T10:44:44.305Z</time>
      </trkpt>
      <trkpt lat="48.35119" lon="2.6418">
        <ele>128</ele>
        <time>2021-12-08T10:44:49.285Z</time>
      </trkpt>
      <trkpt lat="48.35114" lon="2.64183">
        <ele>128</ele>
        <time>2021-12-08T10:44:53.372Z</time>
      </trkpt>
      <trkpt lat="48.35108" lon="2.64184">
        <ele>128</ele>
        <time>2021-12-08T10:44:58.269Z</time>
      </trkpt>
      <trkpt lat="48.35103" lon="2.64188">
        <ele>128</ele>
        <time>2021-12-08T10:45:02.283Z</time>
      </trkpt>
      <trkpt lat="48.35097" lon="2.64191">
        <ele>129</ele>
        <time>2021-12-08T10:45:07.237Z</time>
      </trkpt>
      <trkpt lat="48.35091" lon="2.64195">
        <ele>129</ele>
        <time>2021-12-08T10:45:12.243Z</time>
      </trkpt>
      <trkpt lat="48.35086" lon="2.64197">
        <ele>129</ele>
        <time>2021-12-08T10:45:16.242Z</time>
      </trkpt>
      <trkpt lat="48.35081" lon="2.642">
        <ele>129</ele>
        <time>2021-12-08T10:45:20.275Z</time>
      </trkpt>
      <trkpt lat="48.35075" lon="2.64205">
        <ele>129</ele>
        <time>2021-12-08T10:45:25.235Z</time>
      </trkpt>
      <trkpt lat="48.35071" lon="2.64208">
        <ele>129</ele>
        <time>2021-12-08T10:45:29.241Z</time>
      </trkpt>
      <trkpt lat="48.35065" lon="2.64213">
        <ele>128</ele>
        <time>2021-12-08T10:45:34.242Z</time>
      </trkpt>
      <trkpt lat="48.35058" lon="2.64217">
        <ele>128</ele>
        <time>2021-12-08T10:45:39.246Z</time>
      </trkpt>
      <trkpt lat="48.35052" lon="2.64221">
        <ele>128</ele>
        <time>2021-12-08T10:45:44.241Z</time>
      </trkpt>
      <trkpt lat="48.35047" lon="2.64224">
        <ele>128</ele>
        <time>2021-12-08T10:45:48.290Z</time>
      </trkpt>
      <trkpt lat="48.3504" lon="2.64228">
        <ele>128</ele>
        <time>2021-12-08T10:45:53.250Z</time>
      </trkpt>
      <trkpt lat="48.35034" lon="2.64231">
        <ele>128</ele>
        <time>2021-12-08T10:45:58.244Z</time>
      </trkpt>
      <trkpt lat="48.35028" lon="2.64234">
        <ele>128</ele>
        <time>2021-12-08T10:46:02.248Z</time>
      </trkpt>
      <trkpt lat="48.35021" lon="2.64236">
        <ele>128</ele>
        <time>2021-12-08T10:46:07.243Z</time>
      </trkpt>
      <trkpt lat="48.35015" lon="2.64236">
        <ele>128</ele>
        <time>2021-12-08T10:46:11.249Z</time>
      </trkpt>
      <trkpt lat="48.35008" lon="2.64237">
        <ele>128</ele>
        <time>2021-12-08T10:46:16.249Z</time>
      </trkpt>
      <trkpt lat="48.35001" lon="2.64238">
        <ele>128</ele>
        <time>2021-12-08T10:46:21.246Z</time>
      </trkpt>
      <trkpt lat="48.34996" lon="2.64238">
        <ele>128</ele>
        <time>2021-12-08T10:46:25.278Z</time>
      </trkpt>
      <trkpt lat="48.34989" lon="2.64238">
        <ele>128</ele>
        <time>2021-12-08T10:46:30.244Z</time>
      </trkpt>
      <trkpt lat="48.34982" lon="2.64238">
        <ele>127</ele>
        <time>2021-12-08T10:46:35.245Z</time>
      </trkpt>
      <trkpt lat="48.34975" lon="2.64239">
        <ele>127</ele>
        <time>2021-12-08T10:46:40.249Z</time>
      </trkpt>
      <trkpt lat="48.34968" lon="2.64239">
        <ele>127</ele>
        <time>2021-12-08T10:46:45.246Z</time>
      </trkpt>
      <trkpt lat="48.34963" lon="2.64239">
        <ele>127</ele>
        <time>2021-12-08T10:46:49.247Z</time>
      </trkpt>
      <trkpt lat="48.34956" lon="2.6424">
        <ele>128</ele>
        <time>2021-12-08T10:46:54.253Z</time>
      </trkpt>
      <trkpt lat="48.34949" lon="2.6424">
        <ele>128</ele>
        <time>2021-12-08T10:46:59.247Z</time>
      </trkpt>
      <trkpt lat="48.34942" lon="2.64241">
        <ele>128</ele>
        <time>2021-12-08T10:47:04.251Z</time>
      </trkpt>
      <trkpt lat="48.34935" lon="2.64241">
        <ele>128</ele>
        <time>2021-12-08T10:47:09.250Z</time>
      </trkpt>
      <trkpt lat="48.34928" lon="2.64241">
        <ele>129</ele>
        <time>2021-12-08T10:47:14.237Z</time>
      </trkpt>
      <trkpt lat="48.34922" lon="2.64242">
        <ele>129</ele>
        <time>2021-12-08T10:47:18.237Z</time>
      </trkpt>
      <trkpt lat="48.34916" lon="2.64243">
        <ele>129</ele>
        <time>2021-12-08T10:47:23.236Z</time>
      </trkpt>
      <trkpt lat="48.3491" lon="2.64244">
        <ele>129</ele>
        <time>2021-12-08T10:47:27.236Z</time>
      </trkpt>
      <trkpt lat="48.34903" lon="2.64244">
        <ele>129</ele>
        <time>2021-12-08T10:47:32.242Z</time>
      </trkpt>
      <trkpt lat="48.34897" lon="2.64245">
        <ele>130</ele>
        <time>2021-12-08T10:47:37.239Z</time>
      </trkpt>
      <trkpt lat="48.34891" lon="2.64247">
        <ele>130</ele>
        <time>2021-12-08T10:47:41.244Z</time>
      </trkpt>
      <trkpt lat="48.34884" lon="2.64248">
        <ele>130</ele>
        <time>2021-12-08T10:47:46.243Z</time>
      </trkpt>
      <trkpt lat="48.34879" lon="2.64248">
        <ele>130</ele>
        <time>2021-12-08T10:47:50.250Z</time>
      </trkpt>
      <trkpt lat="48.34871" lon="2.64248">
        <ele>131</ele>
        <time>2021-12-08T10:47:55.250Z</time>
      </trkpt>
      <trkpt lat="48.34863" lon="2.64249">
        <ele>131</ele>
        <time>2021-12-08T10:48:00.238Z</time>
      </trkpt>
      <trkpt lat="48.34856" lon="2.64249">
        <ele>131</ele>
        <time>2021-12-08T10:48:05.239Z</time>
      </trkpt>
      <trkpt lat="48.34849" lon="2.64249">
        <ele>131</ele>
        <time>2021-12-08T10:48:10.243Z</time>
      </trkpt>
      <trkpt lat="48.34844" lon="2.6425">
        <ele>131</ele>
        <time>2021-12-08T10:48:14.237Z</time>
      </trkpt>
      <trkpt lat="48.34838" lon="2.6425">
        <ele>131</ele>
        <time>2021-12-08T10:48:19.245Z</time>
      </trkpt>
      <trkpt lat="48.3483" lon="2.6425">
        <ele>131</ele>
        <time>2021-12-08T10:48:24.238Z</time>
      </trkpt>
      <trkpt lat="48.34824" lon="2.6425">
        <ele>131</ele>
        <time>2021-12-08T10:48:28.237Z</time>
      </trkpt>
      <trkpt lat="48.34819" lon="2.64251">
        <ele>130</ele>
        <time>2021-12-08T10:48:32.237Z</time>
      </trkpt>
      <trkpt lat="48.34812" lon="2.64249">
        <ele>130</ele>
        <time>2021-12-08T10:48:37.245Z</time>
      </trkpt>
      <trkpt lat="48.34806" lon="2.64249">
        <ele>130</ele>
        <time>2021-12-08T10:48:41.250Z</time>
      </trkpt>
      <trkpt lat="48.34799" lon="2.64249">
        <ele>130</ele>
        <time>2021-12-08T10:48:46.251Z</time>
      </trkpt>
      <trkpt lat="48.34793" lon="2.64248">
        <ele>130</ele>
        <time>2021-12-08T10:48:51.250Z</time>
      </trkpt>
      <trkpt lat="48.34787" lon="2.64246">
        <ele>130</ele>
        <time>2021-12-08T10:48:56.249Z</time>
      </trkpt>
      <trkpt lat="48.3478" lon="2.64245">
        <ele>130</ele>
        <time>2021-12-08T10:49:01.236Z</time>
      </trkpt>
      <trkpt lat="48.34771" lon="2.6425">
        <ele>130</ele>
        <time>2021-12-08T10:49:29.238Z</time>
      </trkpt>
      <trkpt lat="48.34769" lon="2.64246">
        <ele>130</ele>
        <time>2021-12-08T10:49:33.240Z</time>
      </trkpt>
      <trkpt lat="48.34766" lon="2.6424">
        <ele>130</ele>
        <time>2021-12-08T10:49:38.234Z</time>
      </trkpt>
      <trkpt lat="48.34763" lon="2.64236">
        <ele>131</ele>
        <time>2021-12-08T10:49:42.238Z</time>
      </trkpt>
      <trkpt lat="48.34761" lon="2.64229">
        <ele>131</ele>
        <time>2021-12-08T10:49:46.255Z</time>
      </trkpt>
      <trkpt lat="48.34758" lon="2.64221">
        <ele>131</ele>
        <time>2021-12-08T10:49:51.246Z</time>
      </trkpt>
      <trkpt lat="48.34755" lon="2.64214">
        <ele>131</ele>
        <time>2021-12-08T10:49:56.246Z</time>
      </trkpt>
      <trkpt lat="48.34752" lon="2.64204">
        <ele>131</ele>
        <time>2021-12-08T10:50:01.255Z</time>
      </trkpt>
      <trkpt lat="48.34746" lon="2.64202">
        <ele>131</ele>
        <time>2021-12-08T10:50:06.242Z</time>
      </trkpt>
      <trkpt lat="48.34741" lon="2.64204">
        <ele>131</ele>
        <time>2021-12-08T10:50:10.247Z</time>
      </trkpt>
      <trkpt lat="48.34737" lon="2.64209">
        <ele>131</ele>
        <time>2021-12-08T10:50:15.246Z</time>
      </trkpt>
      <trkpt lat="48.34731" lon="2.6421">
        <ele>130</ele>
        <time>2021-12-08T10:50:20.246Z</time>
      </trkpt>
      <trkpt lat="48.34726" lon="2.64214">
        <ele>130</ele>
        <time>2021-12-08T10:50:25.239Z</time>
      </trkpt>
      <trkpt lat="48.34726" lon="2.64218">
        <ele>130</ele>
        <time>2021-12-08T10:50:30.235Z</time>
      </trkpt>
      <trkpt lat="48.34721" lon="2.64223">
        <ele>130</ele>
        <time>2021-12-08T10:50:35.240Z</time>
      </trkpt>
      <trkpt lat="48.34717" lon="2.64227">
        <ele>130</ele>
        <time>2021-12-08T10:50:40.232Z</time>
      </trkpt>
      <trkpt lat="48.34713" lon="2.64231">
        <ele>130</ele>
        <time>2021-12-08T10:50:45.232Z</time>
      </trkpt>
      <trkpt lat="48.34701" lon="2.64241">
        <ele>128</ele>
        <time>2021-12-08T10:51:41.242Z</time>
      </trkpt>
      <trkpt lat="48.34698" lon="2.6424">
        <ele>128</ele>
        <time>2021-12-08T10:51:46.235Z</time>
      </trkpt>
      <trkpt lat="48.34693" lon="2.64242">
        <ele>128</ele>
        <time>2021-12-08T10:51:50.234Z</time>
      </trkpt>
      <trkpt lat="48.34687" lon="2.64245">
        <ele>128</ele>
        <time>2021-12-08T10:51:54.245Z</time>
      </trkpt>
      <trkpt lat="48.34688" lon="2.64246">
        <ele>128</ele>
        <time>2021-12-08T10:51:59.246Z</time>
      </trkpt>
      <trkpt lat="48.34684" lon="2.64248">
        <ele>128</ele>
        <time>2021-12-08T10:52:04.244Z</time>
      </trkpt>
      <trkpt lat="48.3468" lon="2.64249">
        <ele>127</ele>
        <time>2021-12-08T10:52:08.246Z</time>
      </trkpt>
      <trkpt lat="48.34675" lon="2.64251">
        <ele>127</ele>
        <time>2021-12-08T10:52:13.238Z</time>
      </trkpt>
      <trkpt lat="48.34673" lon="2.6425">
        <ele>127</ele>
        <time>2021-12-08T10:52:17.240Z</time>
      </trkpt>
      <trkpt lat="48.34674" lon="2.6425">
        <ele>127</ele>
        <time>2021-12-08T10:52:26.240Z</time>
      </trkpt>
      <trkpt lat="48.34672" lon="2.6425">
        <ele>127</ele>
        <time>2021-12-08T10:52:31.246Z</time>
      </trkpt>
      <trkpt lat="48.3467" lon="2.64256">
        <ele>127</ele>
        <time>2021-12-08T10:52:36.237Z</time>
      </trkpt>
      <trkpt lat="48.34671" lon="2.64261">
        <ele>127</ele>
        <time>2021-12-08T10:52:40.259Z</time>
      </trkpt>
      <trkpt lat="48.34674" lon="2.64268">
        <ele>127</ele>
        <time>2021-12-08T10:52:45.246Z</time>
      </trkpt>
      <trkpt lat="48.34677" lon="2.64276">
        <ele>127</ele>
        <time>2021-12-08T10:52:50.240Z</time>
      </trkpt>
      <trkpt lat="48.34679" lon="2.64284">
        <ele>127</ele>
        <time>2021-12-08T10:52:55.252Z</time>
      </trkpt>
      <trkpt lat="48.3468" lon="2.64293">
        <ele>127</ele>
        <time>2021-12-08T10:52:59.257Z</time>
      </trkpt>
      <trkpt lat="48.34681" lon="2.64301">
        <ele>127</ele>
        <time>2021-12-08T10:53:04.240Z</time>
      </trkpt>
      <trkpt lat="48.34682" lon="2.64309">
        <ele>127</ele>
        <time>2021-12-08T10:53:09.247Z</time>
      </trkpt>
      <trkpt lat="48.34684" lon="2.64318">
        <ele>127</ele>
        <time>2021-12-08T10:53:14.243Z</time>
      </trkpt>
      <trkpt lat="48.34684" lon="2.64326">
        <ele>127</ele>
        <time>2021-12-08T10:53:18.252Z</time>
      </trkpt>
      <trkpt lat="48.34684" lon="2.64333">
        <ele>127</ele>
        <time>2021-12-08T10:53:22.247Z</time>
      </trkpt>
      <trkpt lat="48.34683" lon="2.64342">
        <ele>127</ele>
        <time>2021-12-08T10:53:27.248Z</time>
      </trkpt>
      <trkpt lat="48.34682" lon="2.64352">
        <ele>127</ele>
        <time>2021-12-08T10:53:32.239Z</time>
      </trkpt>
      <trkpt lat="48.34685" lon="2.64355">
        <ele>127</ele>
        <time>2021-12-08T10:53:37.245Z</time>
      </trkpt>
      <trkpt lat="48.34688" lon="2.64354">
        <ele>127</ele>
        <time>2021-12-08T10:53:41.256Z</time>
      </trkpt>
      <trkpt lat="48.34693" lon="2.64356">
        <ele>127</ele>
        <time>2021-12-08T10:53:46.235Z</time>
      </trkpt>
      <trkpt lat="48.347" lon="2.64357">
        <ele>127</ele>
        <time>2021-12-08T10:53:51.246Z</time>
      </trkpt>
      <trkpt lat="48.34702" lon="2.64354">
        <ele>127</ele>
        <time>2021-12-08T10:53:56.247Z</time>
      </trkpt>
      <trkpt lat="48.34706" lon="2.64355">
        <ele>127</ele>
        <time>2021-12-08T10:54:01.241Z</time>
      </trkpt>
      <trkpt lat="48.34709" lon="2.64356">
        <ele>128</ele>
        <time>2021-12-08T10:54:06.234Z</time>
      </trkpt>
      <trkpt lat="48.34713" lon="2.64356">
        <ele>128</ele>
        <time>2021-12-08T10:54:11.232Z</time>
      </trkpt>
      <trkpt lat="48.34716" lon="2.64355">
        <ele>128</ele>
        <time>2021-12-08T10:54:15.243Z</time>
      </trkpt>
      <trkpt lat="48.34722" lon="2.64356">
        <ele>128</ele>
        <time>2021-12-08T10:54:20.243Z</time>
      </trkpt>
      <trkpt lat="48.34726" lon="2.64357">
        <ele>128</ele>
        <time>2021-12-08T10:54:25.235Z</time>
      </trkpt>
      <trkpt lat="48.3473" lon="2.64357">
        <ele>128</ele>
        <time>2021-12-08T10:54:30.234Z</time>
      </trkpt>
      <trkpt lat="48.34734" lon="2.64359">
        <ele>128</ele>
        <time>2021-12-08T10:54:34.237Z</time>
      </trkpt>
      <trkpt lat="48.34738" lon="2.64365">
        <ele>128</ele>
        <time>2021-12-08T10:54:39.242Z</time>
      </trkpt>
      <trkpt lat="48.34743" lon="2.64366">
        <ele>128</ele>
        <time>2021-12-08T10:54:44.241Z</time>
      </trkpt>
      <trkpt lat="48.34748" lon="2.64366">
        <ele>128</ele>
        <time>2021-12-08T10:54:49.240Z</time>
      </trkpt>
      <trkpt lat="48.34754" lon="2.64365">
        <ele>128</ele>
        <time>2021-12-08T10:54:53.248Z</time>
      </trkpt>
      <trkpt lat="48.34759" lon="2.64365">
        <ele>128</ele>
        <time>2021-12-08T10:54:58.244Z</time>
      </trkpt>
      <trkpt lat="48.34765" lon="2.64364">
        <ele>128</ele>
        <time>2021-12-08T10:55:03.236Z</time>
      </trkpt>
      <trkpt lat="48.34768" lon="2.6437">
        <ele>128</ele>
        <time>2021-12-08T10:55:08.243Z</time>
      </trkpt>
      <trkpt lat="48.34769" lon="2.64379">
        <ele>128</ele>
        <time>2021-12-08T10:55:13.242Z</time>
      </trkpt>
      <trkpt lat="48.3477" lon="2.64388">
        <ele>128</ele>
        <time>2021-12-08T10:55:18.242Z</time>
      </trkpt>
      <trkpt lat="48.34771" lon="2.64398">
        <ele>128</ele>
        <time>2021-12-08T10:55:22.241Z</time>
      </trkpt>
      <trkpt lat="48.34771" lon="2.64408">
        <ele>128</ele>
        <time>2021-12-08T10:55:27.233Z</time>
      </trkpt>
      <trkpt lat="48.34773" lon="2.64418">
        <ele>128</ele>
        <time>2021-12-08T10:55:32.235Z</time>
      </trkpt>
      <trkpt lat="48.34774" lon="2.64425">
        <ele>128</ele>
        <time>2021-12-08T10:55:36.236Z</time>
      </trkpt>
      <trkpt lat="48.34774" lon="2.64434">
        <ele>127</ele>
        <time>2021-12-08T10:55:40.240Z</time>
      </trkpt>
      <trkpt lat="48.34777" lon="2.64445">
        <ele>127</ele>
        <time>2021-12-08T10:55:45.240Z</time>
      </trkpt>
      <trkpt lat="48.34779" lon="2.64452">
        <ele>127</ele>
        <time>2021-12-08T10:55:49.255Z</time>
      </trkpt>
      <trkpt lat="48.34781" lon="2.64462">
        <ele>126</ele>
        <time>2021-12-08T10:55:54.239Z</time>
      </trkpt>
      <trkpt lat="48.34784" lon="2.64468">
        <ele>126</ele>
        <time>2021-12-08T10:55:58.251Z</time>
      </trkpt>
      <trkpt lat="48.34786" lon="2.64476">
        <ele>126</ele>
        <time>2021-12-08T10:56:02.252Z</time>
      </trkpt>
      <trkpt lat="48.34787" lon="2.64485">
        <ele>126</ele>
        <time>2021-12-08T10:56:07.242Z</time>
      </trkpt>
      <trkpt lat="48.34789" lon="2.64496">
        <ele>127</ele>
        <time>2021-12-08T10:56:12.245Z</time>
      </trkpt>
      <trkpt lat="48.34789" lon="2.64506">
        <ele>127</ele>
        <time>2021-12-08T10:56:16.249Z</time>
      </trkpt>
      <trkpt lat="48.34788" lon="2.64515">
        <ele>127</ele>
        <time>2021-12-08T10:56:21.243Z</time>
      </trkpt>
      <trkpt lat="48.34788" lon="2.64524">
        <ele>127</ele>
        <time>2021-12-08T10:56:25.260Z</time>
      </trkpt>
      <trkpt lat="48.34787" lon="2.64534">
        <ele>127</ele>
        <time>2021-12-08T10:56:30.241Z</time>
      </trkpt>
      <trkpt lat="48.34787" lon="2.64544">
        <ele>127</ele>
        <time>2021-12-08T10:56:35.235Z</time>
      </trkpt>
      <trkpt lat="48.34787" lon="2.64554">
        <ele>127</ele>
        <time>2021-12-08T10:56:39.246Z</time>
      </trkpt>
      <trkpt lat="48.34787" lon="2.64564">
        <ele>127</ele>
        <time>2021-12-08T10:56:44.245Z</time>
      </trkpt>
      <trkpt lat="48.34788" lon="2.64574">
        <ele>126</ele>
        <time>2021-12-08T10:56:49.246Z</time>
      </trkpt>
      <trkpt lat="48.34788" lon="2.64585">
        <ele>126</ele>
        <time>2021-12-08T10:56:54.244Z</time>
      </trkpt>
      <trkpt lat="48.34788" lon="2.64594">
        <ele>126</ele>
        <time>2021-12-08T10:56:59.247Z</time>
      </trkpt>
      <trkpt lat="48.34788" lon="2.64602">
        <ele>126</ele>
        <time>2021-12-08T10:57:03.246Z</time>
      </trkpt>
      <trkpt lat="48.34788" lon="2.64612">
        <ele>126</ele>
        <time>2021-12-08T10:57:08.249Z</time>
      </trkpt>
      <trkpt lat="48.34788" lon="2.64621">
        <ele>126</ele>
        <time>2021-12-08T10:57:13.249Z</time>
      </trkpt>
      <trkpt lat="48.34788" lon="2.64631">
        <ele>126</ele>
        <time>2021-12-08T10:57:18.242Z</time>
      </trkpt>
      <trkpt lat="48.34787" lon="2.64639">
        <ele>126</ele>
        <time>2021-12-08T10:57:22.250Z</time>
      </trkpt>
      <trkpt lat="48.34787" lon="2.64648">
        <ele>126</ele>
        <time>2021-12-08T10:57:27.243Z</time>
      </trkpt>
      <trkpt lat="48.34786" lon="2.64656">
        <ele>126</ele>
        <time>2021-12-08T10:57:31.269Z</time>
      </trkpt>
      <trkpt lat="48.34785" lon="2.64665">
        <ele>126</ele>
        <time>2021-12-08T10:57:36.239Z</time>
      </trkpt>
      <trkpt lat="48.34784" lon="2.64675">
        <ele>126</ele>
        <time>2021-12-08T10:57:41.260Z</time>
      </trkpt>
      <trkpt lat="48.34783" lon="2.64683">
        <ele>126</ele>
        <time>2021-12-08T10:57:46.268Z</time>
      </trkpt>
      <trkpt lat="48.34782" lon="2.64693">
        <ele>126</ele>
        <time>2021-12-08T10:57:51.240Z</time>
      </trkpt>
      <trkpt lat="48.34782" lon="2.64701">
        <ele>126</ele>
        <time>2021-12-08T10:57:55.236Z</time>
      </trkpt>
      <trkpt lat="48.34781" lon="2.64711">
        <ele>126</ele>
        <time>2021-12-08T10:58:00.255Z</time>
      </trkpt>
      <trkpt lat="48.3478" lon="2.64721">
        <ele>126</ele>
        <time>2021-12-08T10:58:05.239Z</time>
      </trkpt>
      <trkpt lat="48.34779" lon="2.64732">
        <ele>126</ele>
        <time>2021-12-08T10:58:10.254Z</time>
      </trkpt>
      <trkpt lat="48.34778" lon="2.64741">
        <ele>127</ele>
        <time>2021-12-08T10:58:15.243Z</time>
      </trkpt>
      <trkpt lat="48.34778" lon="2.6475">
        <ele>127</ele>
        <time>2021-12-08T10:58:19.239Z</time>
      </trkpt>
      <trkpt lat="48.34778" lon="2.6476">
        <ele>127</ele>
        <time>2021-12-08T10:58:24.246Z</time>
      </trkpt>
      <trkpt lat="48.34777" lon="2.64769">
        <ele>127</ele>
        <time>2021-12-08T10:58:28.249Z</time>
      </trkpt>
      <trkpt lat="48.34776" lon="2.6478">
        <ele>127</ele>
        <time>2021-12-08T10:58:33.245Z</time>
      </trkpt>
      <trkpt lat="48.34776" lon="2.64789">
        <ele>127</ele>
        <time>2021-12-08T10:58:37.249Z</time>
      </trkpt>
      <trkpt lat="48.34776" lon="2.648">
        <ele>127</ele>
        <time>2021-12-08T10:58:42.245Z</time>
      </trkpt>
      <trkpt lat="48.34775" lon="2.6481">
        <ele>127</ele>
        <time>2021-12-08T10:58:46.254Z</time>
      </trkpt>
      <trkpt lat="48.34774" lon="2.64819">
        <ele>127</ele>
        <time>2021-12-08T10:58:50.254Z</time>
      </trkpt>
      <trkpt lat="48.34774" lon="2.6483">
        <ele>129</ele>
        <time>2021-12-08T10:58:55.255Z</time>
      </trkpt>
      <trkpt lat="48.34773" lon="2.6484">
        <ele>129</ele>
        <time>2021-12-08T10:59:00.248Z</time>
      </trkpt>
      <trkpt lat="48.34772" lon="2.64849">
        <ele>130</ele>
        <time>2021-12-08T10:59:04.251Z</time>
      </trkpt>
      <trkpt lat="48.3477" lon="2.64861">
        <ele>130</ele>
        <time>2021-12-08T10:59:09.246Z</time>
      </trkpt>
      <trkpt lat="48.34768" lon="2.64871">
        <ele>130</ele>
        <time>2021-12-08T10:59:14.239Z</time>
      </trkpt>
      <trkpt lat="48.34768" lon="2.6488">
        <ele>130</ele>
        <time>2021-12-08T10:59:18.242Z</time>
      </trkpt>
      <trkpt lat="48.34767" lon="2.64891">
        <ele>130</ele>
        <time>2021-12-08T10:59:23.246Z</time>
      </trkpt>
      <trkpt lat="48.34763" lon="2.64902">
        <ele>131</ele>
        <time>2021-12-08T10:59:28.242Z</time>
      </trkpt>
      <trkpt lat="48.34762" lon="2.64914">
        <ele>130</ele>
        <time>2021-12-08T10:59:33.233Z</time>
      </trkpt>
      <trkpt lat="48.34759" lon="2.64924">
        <ele>130</ele>
        <time>2021-12-08T10:59:37.261Z</time>
      </trkpt>
      <trkpt lat="48.34757" lon="2.64935">
        <ele>129</ele>
        <time>2021-12-08T10:59:42.245Z</time>
      </trkpt>
      <trkpt lat="48.34757" lon="2.64948">
        <ele>129</ele>
        <time>2021-12-08T10:59:47.246Z</time>
      </trkpt>
      <trkpt lat="48.34756" lon="2.64962">
        <ele>129</ele>
        <time>2021-12-08T10:59:52.256Z</time>
      </trkpt>
      <trkpt lat="48.34756" lon="2.64973">
        <ele>129</ele>
        <time>2021-12-08T10:59:57.240Z</time>
      </trkpt>
      <trkpt lat="48.34755" lon="2.64983">
        <ele>129</ele>
        <time>2021-12-08T11:00:01.246Z</time>
      </trkpt>
      <trkpt lat="48.34754" lon="2.64992">
        <ele>129</ele>
        <time>2021-12-08T11:00:05.255Z</time>
      </trkpt>
      <trkpt lat="48.34753" lon="2.65003">
        <ele>129</ele>
        <time>2021-12-08T11:00:10.241Z</time>
      </trkpt>
      <trkpt lat="48.34752" lon="2.65014">
        <ele>130</ele>
        <time>2021-12-08T11:00:15.248Z</time>
      </trkpt>
      <trkpt lat="48.34754" lon="2.65021">
        <ele>130</ele>
        <time>2021-12-08T11:00:19.253Z</time>
      </trkpt>
      <trkpt lat="48.34753" lon="2.65033">
        <ele>130</ele>
        <time>2021-12-08T11:00:24.244Z</time>
      </trkpt>
      <trkpt lat="48.34753" lon="2.65042">
        <ele>130</ele>
        <time>2021-12-08T11:00:28.247Z</time>
      </trkpt>
      <trkpt lat="48.34754" lon="2.65052">
        <ele>130</ele>
        <time>2021-12-08T11:00:33.245Z</time>
      </trkpt>
      <trkpt lat="48.34752" lon="2.65061">
        <ele>130</ele>
        <time>2021-12-08T11:00:38.243Z</time>
      </trkpt>
      <trkpt lat="48.34747" lon="2.65069">
        <ele>130</ele>
        <time>2021-12-08T11:00:43.245Z</time>
      </trkpt>
      <trkpt lat="48.34745" lon="2.65075">
        <ele>130</ele>
        <time>2021-12-08T11:00:47.244Z</time>
      </trkpt>
      <trkpt lat="48.34742" lon="2.65085">
        <ele>130</ele>
        <time>2021-12-08T11:00:52.252Z</time>
      </trkpt>
      <trkpt lat="48.34742" lon="2.65093">
        <ele>130</ele>
        <time>2021-12-08T11:00:57.245Z</time>
      </trkpt>
      <trkpt lat="48.34743" lon="2.65102">
        <ele>130</ele>
        <time>2021-12-08T11:01:01.250Z</time>
      </trkpt>
      <trkpt lat="48.34743" lon="2.65111">
        <ele>130</ele>
        <time>2021-12-08T11:01:05.257Z</time>
      </trkpt>
      <trkpt lat="48.34742" lon="2.65121">
        <ele>130</ele>
        <time>2021-12-08T11:01:10.264Z</time>
      </trkpt>
      <trkpt lat="48.34741" lon="2.65132">
        <ele>130</ele>
        <time>2021-12-08T11:01:15.248Z</time>
      </trkpt>
      <trkpt lat="48.3474" lon="2.65141">
        <ele>130</ele>
        <time>2021-12-08T11:01:20.242Z</time>
      </trkpt>
      <trkpt lat="48.3474" lon="2.65149">
        <ele>130</ele>
        <time>2021-12-08T11:01:24.252Z</time>
      </trkpt>
      <trkpt lat="48.34738" lon="2.65159">
        <ele>129</ele>
        <time>2021-12-08T11:01:29.255Z</time>
      </trkpt>
      <trkpt lat="48.34737" lon="2.65168">
        <ele>129</ele>
        <time>2021-12-08T11:01:34.245Z</time>
      </trkpt>
      <trkpt lat="48.34735" lon="2.65177">
        <ele>128</ele>
        <time>2021-12-08T11:01:38.250Z</time>
      </trkpt>
      <trkpt lat="48.34733" lon="2.65186">
        <ele>128</ele>
        <time>2021-12-08T11:01:42.248Z</time>
      </trkpt>
      <trkpt lat="48.34731" lon="2.65196">
        <ele>128</ele>
        <time>2021-12-08T11:01:47.253Z</time>
      </trkpt>
      <trkpt lat="48.34731" lon="2.65206">
        <ele>128</ele>
        <time>2021-12-08T11:01:52.238Z</time>
      </trkpt>
      <trkpt lat="48.34736" lon="2.65213">
        <ele>129</ele>
        <time>2021-12-08T11:01:57.242Z</time>
      </trkpt>
      <trkpt lat="48.34742" lon="2.65217">
        <ele>130</ele>
        <time>2021-12-08T11:02:02.248Z</time>
      </trkpt>
      <trkpt lat="48.34749" lon="2.65219">
        <ele>130</ele>
        <time>2021-12-08T11:02:07.245Z</time>
      </trkpt>
      <trkpt lat="48.34754" lon="2.65221">
        <ele>130</ele>
        <time>2021-12-08T11:02:11.251Z</time>
      </trkpt>
      <trkpt lat="48.34762" lon="2.65225">
        <ele>130</ele>
        <time>2021-12-08T11:02:16.260Z</time>
      </trkpt>
      <trkpt lat="48.3477" lon="2.65228">
        <ele>129</ele>
        <time>2021-12-08T11:02:21.247Z</time>
      </trkpt>
      <trkpt lat="48.34775" lon="2.65231">
        <ele>129</ele>
        <time>2021-12-08T11:02:25.254Z</time>
      </trkpt>
      <trkpt lat="48.34782" lon="2.65234">
        <ele>129</ele>
        <time>2021-12-08T11:02:30.245Z</time>
      </trkpt>
      <trkpt lat="48.34789" lon="2.65236">
        <ele>129</ele>
        <time>2021-12-08T11:02:35.245Z</time>
      </trkpt>
      <trkpt lat="48.34795" lon="2.6524">
        <ele>128</ele>
        <time>2021-12-08T11:02:40.243Z</time>
      </trkpt>
      <trkpt lat="48.34801" lon="2.65242">
        <ele>128</ele>
        <time>2021-12-08T11:02:44.251Z</time>
      </trkpt>
      <trkpt lat="48.34807" lon="2.65242">
        <ele>128</ele>
        <time>2021-12-08T11:02:49.247Z</time>
      </trkpt>
      <trkpt lat="48.34812" lon="2.65245">
        <ele>128</ele>
        <time>2021-12-08T11:02:53.266Z</time>
      </trkpt>
      <trkpt lat="48.34818" lon="2.65247">
        <ele>128</ele>
        <time>2021-12-08T11:02:58.236Z</time>
      </trkpt>
      <trkpt lat="48.34822" lon="2.6525">
        <ele>129</ele>
        <time>2021-12-08T11:03:02.241Z</time>
      </trkpt>
      <trkpt lat="48.34827" lon="2.65253">
        <ele>129</ele>
        <time>2021-12-08T11:03:06.247Z</time>
      </trkpt>
      <trkpt lat="48.34831" lon="2.65257">
        <ele>129</ele>
        <time>2021-12-08T11:03:11.245Z</time>
      </trkpt>
      <trkpt lat="48.34837" lon="2.65259">
        <ele>129</ele>
        <time>2021-12-08T11:03:16.245Z</time>
      </trkpt>
      <trkpt lat="48.34841" lon="2.65263">
        <ele>129</ele>
        <time>2021-12-08T11:03:21.245Z</time>
      </trkpt>
      <trkpt lat="48.34846" lon="2.65266">
        <ele>130</ele>
        <time>2021-12-08T11:04:01.251Z</time>
      </trkpt>
      <trkpt lat="48.34842" lon="2.65262">
        <ele>129</ele>
        <time>2021-12-08T11:04:05.285Z</time>
      </trkpt>
      <trkpt lat="48.34837" lon="2.65259">
        <ele>129</ele>
        <time>2021-12-08T11:04:10.247Z</time>
      </trkpt>
      <trkpt lat="48.34831" lon="2.65255">
        <ele>129</ele>
        <time>2021-12-08T11:04:15.246Z</time>
      </trkpt>
      <trkpt lat="48.34827" lon="2.65253">
        <ele>129</ele>
        <time>2021-12-08T11:04:19.249Z</time>
      </trkpt>
      <trkpt lat="48.34824" lon="2.65257">
        <ele>129</ele>
        <time>2021-12-08T11:04:24.241Z</time>
      </trkpt>
      <trkpt lat="48.34823" lon="2.65266">
        <ele>130</ele>
        <time>2021-12-08T11:04:28.252Z</time>
      </trkpt>
      <trkpt lat="48.34822" lon="2.65276">
        <ele>130</ele>
        <time>2021-12-08T11:04:33.244Z</time>
      </trkpt>
      <trkpt lat="48.3482" lon="2.65285">
        <ele>130</ele>
        <time>2021-12-08T11:04:37.250Z</time>
      </trkpt>
      <trkpt lat="48.3482" lon="2.65296">
        <ele>131</ele>
        <time>2021-12-08T11:04:42.246Z</time>
      </trkpt>
      <trkpt lat="48.3482" lon="2.65304">
        <ele>131</ele>
        <time>2021-12-08T11:04:47.244Z</time>
      </trkpt>
      <trkpt lat="48.3482" lon="2.65309">
        <ele>131</ele>
        <time>2021-12-08T11:04:51.255Z</time>
      </trkpt>
      <trkpt lat="48.3482" lon="2.65319">
        <ele>131</ele>
        <time>2021-12-08T11:04:56.244Z</time>
      </trkpt>
      <trkpt lat="48.3482" lon="2.65327">
        <ele>133</ele>
        <time>2021-12-08T11:05:00.242Z</time>
      </trkpt>
      <trkpt lat="48.34821" lon="2.65339">
        <ele>133</ele>
        <time>2021-12-08T11:05:05.241Z</time>
      </trkpt>
      <trkpt lat="48.34823" lon="2.65347">
        <ele>133</ele>
        <time>2021-12-08T11:05:09.248Z</time>
      </trkpt>
      <trkpt lat="48.34824" lon="2.65357">
        <ele>133</ele>
        <time>2021-12-08T11:05:14.262Z</time>
      </trkpt>
      <trkpt lat="48.34823" lon="2.65366">
        <ele>133</ele>
        <time>2021-12-08T11:05:19.245Z</time>
      </trkpt>
      <trkpt lat="48.34824" lon="2.65375">
        <ele>133</ele>
        <time>2021-12-08T11:05:24.247Z</time>
      </trkpt>
      <trkpt lat="48.34824" lon="2.65385">
        <ele>134</ele>
        <time>2021-12-08T11:05:29.254Z</time>
      </trkpt>
      <trkpt lat="48.34824" lon="2.65394">
        <ele>134</ele>
        <time>2021-12-08T11:05:34.260Z</time>
      </trkpt>
      <trkpt lat="48.34825" lon="2.65403">
        <ele>134</ele>
        <time>2021-12-08T11:05:39.240Z</time>
      </trkpt>
      <trkpt lat="48.34827" lon="2.6541">
        <ele>134</ele>
        <time>2021-12-08T11:05:43.249Z</time>
      </trkpt>
      <trkpt lat="48.3483" lon="2.65416">
        <ele>134</ele>
        <time>2021-12-08T11:05:47.257Z</time>
      </trkpt>
      <trkpt lat="48.34834" lon="2.65423">
        <ele>134</ele>
        <time>2021-12-08T11:05:52.250Z</time>
      </trkpt>
      <trkpt lat="48.34836" lon="2.65431">
        <ele>135</ele>
        <time>2021-12-08T11:05:57.245Z</time>
      </trkpt>
      <trkpt lat="48.3484" lon="2.65439">
        <ele>135</ele>
        <time>2021-12-08T11:06:02.243Z</time>
      </trkpt>
      <trkpt lat="48.34842" lon="2.65448">
        <ele>135</ele>
        <time>2021-12-08T11:06:07.248Z</time>
      </trkpt>
      <trkpt lat="48.34844" lon="2.65455">
        <ele>135</ele>
        <time>2021-12-08T11:06:12.239Z</time>
      </trkpt>
      <trkpt lat="48.34846" lon="2.65462">
        <ele>135</ele>
        <time>2021-12-08T11:06:16.250Z</time>
      </trkpt>
      <trkpt lat="48.34851" lon="2.65471">
        <ele>136</ele>
        <time>2021-12-08T11:06:21.246Z</time>
      </trkpt>
      <trkpt lat="48.34855" lon="2.65479">
        <ele>136</ele>
        <time>2021-12-08T11:06:26.262Z</time>
      </trkpt>
      <trkpt lat="48.34858" lon="2.65487">
        <ele>136</ele>
        <time>2021-12-08T11:06:31.253Z</time>
      </trkpt>
      <trkpt lat="48.34861" lon="2.65495">
        <ele>136</ele>
        <time>2021-12-08T11:06:36.250Z</time>
      </trkpt>
      <trkpt lat="48.34864" lon="2.65502">
        <ele>136</ele>
        <time>2021-12-08T11:06:41.248Z</time>
      </trkpt>
      <trkpt lat="48.34869" lon="2.65508">
        <ele>136</ele>
        <time>2021-12-08T11:06:46.240Z</time>
      </trkpt>
      <trkpt lat="48.34871" lon="2.65514">
        <ele>135</ele>
        <time>2021-12-08T11:06:50.248Z</time>
      </trkpt>
      <trkpt lat="48.34874" lon="2.65521">
        <ele>135</ele>
        <time>2021-12-08T11:06:55.244Z</time>
      </trkpt>
      <trkpt lat="48.34877" lon="2.65527">
        <ele>135</ele>
        <time>2021-12-08T11:06:59.250Z</time>
      </trkpt>
      <trkpt lat="48.34881" lon="2.65533">
        <ele>135</ele>
        <time>2021-12-08T11:07:04.249Z</time>
      </trkpt>
      <trkpt lat="48.34883" lon="2.6554">
        <ele>135</ele>
        <time>2021-12-08T11:07:09.244Z</time>
      </trkpt>
      <trkpt lat="48.34887" lon="2.65547">
        <ele>135</ele>
        <time>2021-12-08T11:07:14.248Z</time>
      </trkpt>
      <trkpt lat="48.3489" lon="2.65555">
        <ele>135</ele>
        <time>2021-12-08T11:07:19.245Z</time>
      </trkpt>
      <trkpt lat="48.34893" lon="2.65561">
        <ele>135</ele>
        <time>2021-12-08T11:07:23.241Z</time>
      </trkpt>
      <trkpt lat="48.34896" lon="2.65566">
        <ele>135</ele>
        <time>2021-12-08T11:07:27.248Z</time>
      </trkpt>
      <trkpt lat="48.34899" lon="2.65573">
        <ele>136</ele>
        <time>2021-12-08T11:07:32.246Z</time>
      </trkpt>
      <trkpt lat="48.34903" lon="2.6558">
        <ele>136</ele>
        <time>2021-12-08T11:07:37.242Z</time>
      </trkpt>
      <trkpt lat="48.34907" lon="2.65586">
        <ele>137</ele>
        <time>2021-12-08T11:07:42.240Z</time>
      </trkpt>
      <trkpt lat="48.34913" lon="2.65591">
        <ele>137</ele>
        <time>2021-12-08T11:07:47.238Z</time>
      </trkpt>
      <trkpt lat="48.34918" lon="2.65595">
        <ele>137</ele>
        <time>2021-12-08T11:07:51.238Z</time>
      </trkpt>
      <trkpt lat="48.34923" lon="2.656">
        <ele>137</ele>
        <time>2021-12-08T11:07:56.240Z</time>
      </trkpt>
      <trkpt lat="48.34927" lon="2.65606">
        <ele>137</ele>
        <time>2021-12-08T11:08:01.245Z</time>
      </trkpt>
      <trkpt lat="48.34929" lon="2.65611">
        <ele>137</ele>
        <time>2021-12-08T11:08:05.260Z</time>
      </trkpt>
      <trkpt lat="48.34932" lon="2.65617">
        <ele>137</ele>
        <time>2021-12-08T11:08:10.242Z</time>
      </trkpt>
      <trkpt lat="48.34935" lon="2.65623">
        <ele>137</ele>
        <time>2021-12-08T11:08:14.258Z</time>
      </trkpt>
      <trkpt lat="48.3494" lon="2.65628">
        <ele>136</ele>
        <time>2021-12-08T11:08:19.244Z</time>
      </trkpt>
      <trkpt lat="48.34944" lon="2.65632">
        <ele>136</ele>
        <time>2021-12-08T11:08:23.249Z</time>
      </trkpt>
      <trkpt lat="48.34948" lon="2.65636">
        <ele>136</ele>
        <time>2021-12-08T11:08:27.266Z</time>
      </trkpt>
      <trkpt lat="48.34952" lon="2.65641">
        <ele>136</ele>
        <time>2021-12-08T11:08:32.250Z</time>
      </trkpt>
      <trkpt lat="48.34955" lon="2.65645">
        <ele>136</ele>
        <time>2021-12-08T11:08:36.261Z</time>
      </trkpt>
      <trkpt lat="48.34958" lon="2.6565">
        <ele>136</ele>
        <time>2021-12-08T11:08:41.267Z</time>
      </trkpt>
      <trkpt lat="48.34961" lon="2.65656">
        <ele>134</ele>
        <time>2021-12-08T11:08:46.252Z</time>
      </trkpt>
      <trkpt lat="48.34965" lon="2.65663">
        <ele>134</ele>
        <time>2021-12-08T11:08:51.244Z</time>
      </trkpt>
      <trkpt lat="48.34968" lon="2.65668">
        <ele>134</ele>
        <time>2021-12-08T11:08:55.248Z</time>
      </trkpt>
      <trkpt lat="48.34972" lon="2.65674">
        <ele>134</ele>
        <time>2021-12-08T11:09:00.246Z</time>
      </trkpt>
      <trkpt lat="48.34976" lon="2.6568">
        <ele>134</ele>
        <time>2021-12-08T11:09:05.246Z</time>
      </trkpt>
      <trkpt lat="48.34979" lon="2.65685">
        <ele>133</ele>
        <time>2021-12-08T11:09:09.240Z</time>
      </trkpt>
      <trkpt lat="48.34982" lon="2.65691">
        <ele>133</ele>
        <time>2021-12-08T11:09:13.250Z</time>
      </trkpt>
      <trkpt lat="48.34986" lon="2.65699">
        <ele>133</ele>
        <time>2021-12-08T11:09:18.248Z</time>
      </trkpt>
      <trkpt lat="48.3499" lon="2.65706">
        <ele>133</ele>
        <time>2021-12-08T11:09:23.242Z</time>
      </trkpt>
      <trkpt lat="48.34994" lon="2.65711">
        <ele>132</ele>
        <time>2021-12-08T11:09:27.253Z</time>
      </trkpt>
      <trkpt lat="48.34997" lon="2.65718">
        <ele>132</ele>
        <time>2021-12-08T11:09:32.253Z</time>
      </trkpt>
      <trkpt lat="48.35001" lon="2.65726">
        <ele>132</ele>
        <time>2021-12-08T11:09:37.306Z</time>
      </trkpt>
      <trkpt lat="48.35004" lon="2.65734">
        <ele>132</ele>
        <time>2021-12-08T11:09:42.242Z</time>
      </trkpt>
      <trkpt lat="48.35007" lon="2.65741">
        <ele>132</ele>
        <time>2021-12-08T11:09:47.243Z</time>
      </trkpt>
      <trkpt lat="48.3501" lon="2.65744">
        <ele>132</ele>
        <time>2021-12-08T11:09:51.250Z</time>
      </trkpt>
      <trkpt lat="48.35013" lon="2.65751">
        <ele>132</ele>
        <time>2021-12-08T11:09:56.245Z</time>
      </trkpt>
      <trkpt lat="48.35017" lon="2.65756">
        <ele>132</ele>
        <time>2021-12-08T11:10:00.260Z</time>
      </trkpt>
      <trkpt lat="48.35021" lon="2.65762">
        <ele>132</ele>
        <time>2021-12-08T11:10:05.250Z</time>
      </trkpt>
      <trkpt lat="48.35024" lon="2.65768">
        <ele>131</ele>
        <time>2021-12-08T11:10:10.262Z</time>
      </trkpt>
      <trkpt lat="48.35029" lon="2.65775">
        <ele>131</ele>
        <time>2021-12-08T11:10:15.265Z</time>
      </trkpt>
      <trkpt lat="48.35033" lon="2.65781">
        <ele>131</ele>
        <time>2021-12-08T11:10:20.259Z</time>
      </trkpt>
      <trkpt lat="48.35038" lon="2.65788">
        <ele>131</ele>
        <time>2021-12-08T11:10:25.246Z</time>
      </trkpt>
      <trkpt lat="48.35038" lon="2.65795">
        <ele>132</ele>
        <time>2021-12-08T11:10:30.250Z</time>
      </trkpt>
      <trkpt lat="48.3504" lon="2.658">
        <ele>132</ele>
        <time>2021-12-08T11:10:34.246Z</time>
      </trkpt>
      <trkpt lat="48.35043" lon="2.65806">
        <ele>131</ele>
        <time>2021-12-08T11:10:39.251Z</time>
      </trkpt>
      <trkpt lat="48.35047" lon="2.65812">
        <ele>131</ele>
        <time>2021-12-08T11:10:44.256Z</time>
      </trkpt>
      <trkpt lat="48.35051" lon="2.65819">
        <ele>131</ele>
        <time>2021-12-08T11:10:49.242Z</time>
      </trkpt>
      <trkpt lat="48.35053" lon="2.65825">
        <ele>132</ele>
        <time>2021-12-08T11:10:53.249Z</time>
      </trkpt>
      <trkpt lat="48.35056" lon="2.65831">
        <ele>132</ele>
        <time>2021-12-08T11:10:57.251Z</time>
      </trkpt>
      <trkpt lat="48.35059" lon="2.65837">
        <ele>132</ele>
        <time>2021-12-08T11:11:02.244Z</time>
      </trkpt>
      <trkpt lat="48.35061" lon="2.65841">
        <ele>132</ele>
        <time>2021-12-08T11:11:06.257Z</time>
      </trkpt>
      <trkpt lat="48.35065" lon="2.65848">
        <ele>133</ele>
        <time>2021-12-08T11:11:11.249Z</time>
      </trkpt>
      <trkpt lat="48.35069" lon="2.65856">
        <ele>133</ele>
        <time>2021-12-08T11:11:16.244Z</time>
      </trkpt>
      <trkpt lat="48.35072" lon="2.65863">
        <ele>133</ele>
        <time>2021-12-08T11:11:20.270Z</time>
      </trkpt>
      <trkpt lat="48.35074" lon="2.65871">
        <ele>133</ele>
        <time>2021-12-08T11:11:25.244Z</time>
      </trkpt>
      <trkpt lat="48.35075" lon="2.65876">
        <ele>133</ele>
        <time>2021-12-08T11:11:29.252Z</time>
      </trkpt>
      <trkpt lat="48.35079" lon="2.65883">
        <ele>133</ele>
        <time>2021-12-08T11:11:34.248Z</time>
      </trkpt>
      <trkpt lat="48.35082" lon="2.6589">
        <ele>133</ele>
        <time>2021-12-08T11:11:39.250Z</time>
      </trkpt>
      <trkpt lat="48.35086" lon="2.65896">
        <ele>133</ele>
        <time>2021-12-08T11:11:44.240Z</time>
      </trkpt>
      <trkpt lat="48.3509" lon="2.65903">
        <ele>134</ele>
        <time>2021-12-08T11:11:49.244Z</time>
      </trkpt>
      <trkpt lat="48.35093" lon="2.65909">
        <ele>134</ele>
        <time>2021-12-08T11:11:54.247Z</time>
      </trkpt>
      <trkpt lat="48.35095" lon="2.65914">
        <ele>134</ele>
        <time>2021-12-08T11:11:58.250Z</time>
      </trkpt>
      <trkpt lat="48.35099" lon="2.65917">
        <ele>134</ele>
        <time>2021-12-08T11:12:02.268Z</time>
      </trkpt>
      <trkpt lat="48.35102" lon="2.65925">
        <ele>134</ele>
        <time>2021-12-08T11:12:07.243Z</time>
      </trkpt>
      <trkpt lat="48.35106" lon="2.65932">
        <ele>135</ele>
        <time>2021-12-08T11:12:11.261Z</time>
      </trkpt>
      <trkpt lat="48.35108" lon="2.65939">
        <ele>135</ele>
        <time>2021-12-08T11:12:16.244Z</time>
      </trkpt>
      <trkpt lat="48.35111" lon="2.65943">
        <ele>135</ele>
        <time>2021-12-08T11:12:20.246Z</time>
      </trkpt>
      <trkpt lat="48.35114" lon="2.65949">
        <ele>135</ele>
        <time>2021-12-08T11:12:25.252Z</time>
      </trkpt>
      <trkpt lat="48.35118" lon="2.65955">
        <ele>135</ele>
        <time>2021-12-08T11:12:30.262Z</time>
      </trkpt>
      <trkpt lat="48.35119" lon="2.65963">
        <ele>136</ele>
        <time>2021-12-08T11:12:35.242Z</time>
      </trkpt>
      <trkpt lat="48.35122" lon="2.65966">
        <ele>136</ele>
        <time>2021-12-08T11:12:39.251Z</time>
      </trkpt>
      <trkpt lat="48.35125" lon="2.65969">
        <ele>136</ele>
        <time>2021-12-08T11:12:43.256Z</time>
      </trkpt>
      <trkpt lat="48.35128" lon="2.65973">
        <ele>135</ele>
        <time>2021-12-08T11:12:48.241Z</time>
      </trkpt>
      <trkpt lat="48.3513" lon="2.65975">
        <ele>135</ele>
        <time>2021-12-08T11:12:52.242Z</time>
      </trkpt>
      <trkpt lat="48.35133" lon="2.65979">
        <ele>135</ele>
        <time>2021-12-08T11:12:56.246Z</time>
      </trkpt>
      <trkpt lat="48.35134" lon="2.65983">
        <ele>135</ele>
        <time>2021-12-08T11:13:00.257Z</time>
      </trkpt>
      <trkpt lat="48.35136" lon="2.6599">
        <ele>135</ele>
        <time>2021-12-08T11:13:05.258Z</time>
      </trkpt>
      <trkpt lat="48.35139" lon="2.65993">
        <ele>135</ele>
        <time>2021-12-08T11:13:10.254Z</time>
      </trkpt>
      <trkpt lat="48.35141" lon="2.65998">
        <ele>135</ele>
        <time>2021-12-08T11:13:15.256Z</time>
      </trkpt>
      <trkpt lat="48.35142" lon="2.66008">
        <ele>135</ele>
        <time>2021-12-08T11:13:20.253Z</time>
      </trkpt>
      <trkpt lat="48.35143" lon="2.66015">
        <ele>135</ele>
        <time>2021-12-08T11:13:24.258Z</time>
      </trkpt>
      <trkpt lat="48.35146" lon="2.66022">
        <ele>135</ele>
        <time>2021-12-08T11:13:29.249Z</time>
      </trkpt>
      <trkpt lat="48.35148" lon="2.66027">
        <ele>135</ele>
        <time>2021-12-08T11:13:33.257Z</time>
      </trkpt>
      <trkpt lat="48.3515" lon="2.6603">
        <ele>135</ele>
        <time>2021-12-08T11:13:38.252Z</time>
      </trkpt>
      <trkpt lat="48.35154" lon="2.66033">
        <ele>134</ele>
        <time>2021-12-08T11:13:43.240Z</time>
      </trkpt>
      <trkpt lat="48.35157" lon="2.66038">
        <ele>134</ele>
        <time>2021-12-08T11:13:48.251Z</time>
      </trkpt>
      <trkpt lat="48.3516" lon="2.66041">
        <ele>134</ele>
        <time>2021-12-08T11:13:52.260Z</time>
      </trkpt>
      <trkpt lat="48.35165" lon="2.66044">
        <ele>135</ele>
        <time>2021-12-08T11:13:57.250Z</time>
      </trkpt>
      <trkpt lat="48.35168" lon="2.66046">
        <ele>135</ele>
        <time>2021-12-08T11:14:01.253Z</time>
      </trkpt>
      <trkpt lat="48.35173" lon="2.66049">
        <ele>135</ele>
        <time>2021-12-08T11:14:06.249Z</time>
      </trkpt>
      <trkpt lat="48.35177" lon="2.66052">
        <ele>135</ele>
        <time>2021-12-08T11:14:11.244Z</time>
      </trkpt>
      <trkpt lat="48.35181" lon="2.66056">
        <ele>136</ele>
        <time>2021-12-08T11:14:16.241Z</time>
      </trkpt>
      <trkpt lat="48.35181" lon="2.66058">
        <ele>136</ele>
        <time>2021-12-08T11:14:21.240Z</time>
      </trkpt>
      <trkpt lat="48.35182" lon="2.66059">
        <ele>136</ele>
        <time>2021-12-08T11:16:13.252Z</time>
      </trkpt>
      <trkpt lat="48.35182" lon="2.66059">
        <ele>136</ele>
        <time>2021-12-08T11:16:17.254Z</time>
      </trkpt>
      <trkpt lat="48.35182" lon="2.66061">
        <ele>136</ele>
        <time>2021-12-08T11:16:21.369Z</time>
      </trkpt>
      <trkpt lat="48.3518" lon="2.66067">
        <ele>135</ele>
        <time>2021-12-08T11:16:26.257Z</time>
      </trkpt>
      <trkpt lat="48.35179" lon="2.66073">
        <ele>136</ele>
        <time>2021-12-08T11:16:30.263Z</time>
      </trkpt>
      <trkpt lat="48.35178" lon="2.66079">
        <ele>136</ele>
        <time>2021-12-08T11:16:35.251Z</time>
      </trkpt>
      <trkpt lat="48.35176" lon="2.66082">
        <ele>136</ele>
        <time>2021-12-08T11:16:39.257Z</time>
      </trkpt>
      <trkpt lat="48.35175" lon="2.66087">
        <ele>136</ele>
        <time>2021-12-08T11:16:44.244Z</time>
      </trkpt>
      <trkpt lat="48.35173" lon="2.66091">
        <ele>136</ele>
        <time>2021-12-08T11:16:48.245Z</time>
      </trkpt>
      <trkpt lat="48.35171" lon="2.66096">
        <ele>136</ele>
        <time>2021-12-08T11:16:52.246Z</time>
      </trkpt>
      <trkpt lat="48.35167" lon="2.66103">
        <ele>137</ele>
        <time>2021-12-08T11:16:57.245Z</time>
      </trkpt>
      <trkpt lat="48.35164" lon="2.66107">
        <ele>137</ele>
        <time>2021-12-08T11:17:01.245Z</time>
      </trkpt>
      <trkpt lat="48.35159" lon="2.66113">
        <ele>137</ele>
        <time>2021-12-08T11:17:06.245Z</time>
      </trkpt>
      <trkpt lat="48.35157" lon="2.66118">
        <ele>137</ele>
        <time>2021-12-08T11:17:10.244Z</time>
      </trkpt>
      <trkpt lat="48.35155" lon="2.66125">
        <ele>137</ele>
        <time>2021-12-08T11:17:15.283Z</time>
      </trkpt>
      <trkpt lat="48.35153" lon="2.66131">
        <ele>138</ele>
        <time>2021-12-08T11:17:20.253Z</time>
      </trkpt>
      <trkpt lat="48.35151" lon="2.66136">
        <ele>138</ele>
        <time>2021-12-08T11:17:24.252Z</time>
      </trkpt>
      <trkpt lat="48.35148" lon="2.66142">
        <ele>138</ele>
        <time>2021-12-08T11:17:29.252Z</time>
      </trkpt>
      <trkpt lat="48.35146" lon="2.6615">
        <ele>138</ele>
        <time>2021-12-08T11:17:34.268Z</time>
      </trkpt>
      <trkpt lat="48.35147" lon="2.66159">
        <ele>139</ele>
        <time>2021-12-08T11:17:39.249Z</time>
      </trkpt>
      <trkpt lat="48.3515" lon="2.6616">
        <ele>139</ele>
        <time>2021-12-08T11:17:43.258Z</time>
      </trkpt>
      <trkpt lat="48.35155" lon="2.66163">
        <ele>139</ele>
        <time>2021-12-08T11:17:48.251Z</time>
      </trkpt>
      <trkpt lat="48.35159" lon="2.66165">
        <ele>139</ele>
        <time>2021-12-08T11:17:52.261Z</time>
      </trkpt>
      <trkpt lat="48.35163" lon="2.6617">
        <ele>139</ele>
        <time>2021-12-08T11:17:56.270Z</time>
      </trkpt>
      <trkpt lat="48.35166" lon="2.66179">
        <ele>139</ele>
        <time>2021-12-08T11:18:01.240Z</time>
      </trkpt>
      <trkpt lat="48.35166" lon="2.66188">
        <ele>139</ele>
        <time>2021-12-08T11:18:06.256Z</time>
      </trkpt>
      <trkpt lat="48.35167" lon="2.66198">
        <ele>139</ele>
        <time>2021-12-08T11:18:11.254Z</time>
      </trkpt>
      <trkpt lat="48.35168" lon="2.66205">
        <ele>139</ele>
        <time>2021-12-08T11:18:15.258Z</time>
      </trkpt>
      <trkpt lat="48.35169" lon="2.66214">
        <ele>138</ele>
        <time>2021-12-08T11:18:20.248Z</time>
      </trkpt>
      <trkpt lat="48.35169" lon="2.66223">
        <ele>138</ele>
        <time>2021-12-08T11:18:24.254Z</time>
      </trkpt>
      <trkpt lat="48.3517" lon="2.66232">
        <ele>138</ele>
        <time>2021-12-08T11:18:29.250Z</time>
      </trkpt>
      <trkpt lat="48.35171" lon="2.66241">
        <ele>137</ele>
        <time>2021-12-08T11:18:33.247Z</time>
      </trkpt>
      <trkpt lat="48.35172" lon="2.66251">
        <ele>137</ele>
        <time>2021-12-08T11:18:38.265Z</time>
      </trkpt>
      <trkpt lat="48.35173" lon="2.66261">
        <ele>137</ele>
        <time>2021-12-08T11:18:43.257Z</time>
      </trkpt>
      <trkpt lat="48.35174" lon="2.66272">
        <ele>137</ele>
        <time>2021-12-08T11:18:48.244Z</time>
      </trkpt>
      <trkpt lat="48.35175" lon="2.66283">
        <ele>137</ele>
        <time>2021-12-08T11:18:53.248Z</time>
      </trkpt>
      <trkpt lat="48.35175" lon="2.66291">
        <ele>137</ele>
        <time>2021-12-08T11:18:57.251Z</time>
      </trkpt>
      <trkpt lat="48.35176" lon="2.663">
        <ele>137</ele>
        <time>2021-12-08T11:19:02.247Z</time>
      </trkpt>
      <trkpt lat="48.35177" lon="2.66309">
        <ele>137</ele>
        <time>2021-12-08T11:19:06.255Z</time>
      </trkpt>
      <trkpt lat="48.35179" lon="2.66318">
        <ele>137</ele>
        <time>2021-12-08T11:19:11.244Z</time>
      </trkpt>
      <trkpt lat="48.35179" lon="2.66327">
        <ele>137</ele>
        <time>2021-12-08T11:19:15.256Z</time>
      </trkpt>
      <trkpt lat="48.35179" lon="2.66337">
        <ele>137</ele>
        <time>2021-12-08T11:19:20.261Z</time>
      </trkpt>
      <trkpt lat="48.35179" lon="2.66347">
        <ele>137</ele>
        <time>2021-12-08T11:19:25.248Z</time>
      </trkpt>
      <trkpt lat="48.3518" lon="2.66359">
        <ele>137</ele>
        <time>2021-12-08T11:19:30.250Z</time>
      </trkpt>
      <trkpt lat="48.35181" lon="2.66369">
        <ele>136</ele>
        <time>2021-12-08T11:19:35.247Z</time>
      </trkpt>
      <trkpt lat="48.35181" lon="2.66377">
        <ele>134</ele>
        <time>2021-12-08T11:19:39.252Z</time>
      </trkpt>
      <trkpt lat="48.35183" lon="2.66387">
        <ele>134</ele>
        <time>2021-12-08T11:19:44.250Z</time>
      </trkpt>
      <trkpt lat="48.35184" lon="2.66397">
        <ele>134</ele>
        <time>2021-12-08T11:19:49.248Z</time>
      </trkpt>
      <trkpt lat="48.35184" lon="2.66407">
        <ele>132</ele>
        <time>2021-12-08T11:19:54.253Z</time>
      </trkpt>
      <trkpt lat="48.35184" lon="2.66416">
        <ele>132</ele>
        <time>2021-12-08T11:19:59.242Z</time>
      </trkpt>
      <trkpt lat="48.35184" lon="2.66424">
        <ele>132</ele>
        <time>2021-12-08T11:20:03.245Z</time>
      </trkpt>
      <trkpt lat="48.35185" lon="2.66431">
        <ele>132</ele>
        <time>2021-12-08T11:20:07.244Z</time>
      </trkpt>
      <trkpt lat="48.35185" lon="2.66442">
        <ele>132</ele>
        <time>2021-12-08T11:20:12.239Z</time>
      </trkpt>
      <trkpt lat="48.35186" lon="2.6645">
        <ele>132</ele>
        <time>2021-12-08T11:20:16.252Z</time>
      </trkpt>
      <trkpt lat="48.35186" lon="2.66458">
        <ele>132</ele>
        <time>2021-12-08T11:20:20.252Z</time>
      </trkpt>
      <trkpt lat="48.35186" lon="2.66469">
        <ele>131</ele>
        <time>2021-12-08T11:20:25.243Z</time>
      </trkpt>
      <trkpt lat="48.35187" lon="2.66477">
        <ele>131</ele>
        <time>2021-12-08T11:20:29.249Z</time>
      </trkpt>
      <trkpt lat="48.35187" lon="2.66487">
        <ele>131</ele>
        <time>2021-12-08T11:20:34.245Z</time>
      </trkpt>
      <trkpt lat="48.35189" lon="2.66497">
        <ele>131</ele>
        <time>2021-12-08T11:20:39.239Z</time>
      </trkpt>
      <trkpt lat="48.3519" lon="2.66507">
        <ele>131</ele>
        <time>2021-12-08T11:20:43.238Z</time>
      </trkpt>
      <trkpt lat="48.35191" lon="2.66516">
        <ele>131</ele>
        <time>2021-12-08T11:20:48.254Z</time>
      </trkpt>
      <trkpt lat="48.3519" lon="2.66527">
        <ele>131</ele>
        <time>2021-12-08T11:20:53.241Z</time>
      </trkpt>
      <trkpt lat="48.35191" lon="2.66534">
        <ele>131</ele>
        <time>2021-12-08T11:20:57.255Z</time>
      </trkpt>
      <trkpt lat="48.35192" lon="2.66543">
        <ele>131</ele>
        <time>2021-12-08T11:21:02.253Z</time>
      </trkpt>
      <trkpt lat="48.35193" lon="2.66553">
        <ele>131</ele>
        <time>2021-12-08T11:21:07.252Z</time>
      </trkpt>
      <trkpt lat="48.35193" lon="2.66561">
        <ele>131</ele>
        <time>2021-12-08T11:21:11.263Z</time>
      </trkpt>
      <trkpt lat="48.35193" lon="2.66572">
        <ele>131</ele>
        <time>2021-12-08T11:21:16.252Z</time>
      </trkpt>
      <trkpt lat="48.35194" lon="2.66582">
        <ele>131</ele>
        <time>2021-12-08T11:21:21.243Z</time>
      </trkpt>
      <trkpt lat="48.35194" lon="2.66591">
        <ele>131</ele>
        <time>2021-12-08T11:21:25.253Z</time>
      </trkpt>
      <trkpt lat="48.35195" lon="2.66599">
        <ele>133</ele>
        <time>2021-12-08T11:21:29.253Z</time>
      </trkpt>
      <trkpt lat="48.35195" lon="2.66609">
        <ele>133</ele>
        <time>2021-12-08T11:21:34.254Z</time>
      </trkpt>
      <trkpt lat="48.35196" lon="2.6662">
        <ele>133</ele>
        <time>2021-12-08T11:21:39.258Z</time>
      </trkpt>
      <trkpt lat="48.35197" lon="2.66631">
        <ele>135</ele>
        <time>2021-12-08T11:21:44.252Z</time>
      </trkpt>
      <trkpt lat="48.35197" lon="2.66642">
        <ele>135</ele>
        <time>2021-12-08T11:21:49.246Z</time>
      </trkpt>
      <trkpt lat="48.35198" lon="2.66649">
        <ele>135</ele>
        <time>2021-12-08T11:21:53.251Z</time>
      </trkpt>
      <trkpt lat="48.35199" lon="2.6666">
        <ele>136</ele>
        <time>2021-12-08T11:21:58.279Z</time>
      </trkpt>
      <trkpt lat="48.352" lon="2.66669">
        <ele>136</ele>
        <time>2021-12-08T11:22:03.249Z</time>
      </trkpt>
      <trkpt lat="48.352" lon="2.6668">
        <ele>136</ele>
        <time>2021-12-08T11:22:08.247Z</time>
      </trkpt>
      <trkpt lat="48.35201" lon="2.66687">
        <ele>135</ele>
        <time>2021-12-08T11:22:12.248Z</time>
      </trkpt>
      <trkpt lat="48.35202" lon="2.66695">
        <ele>135</ele>
        <time>2021-12-08T11:22:16.259Z</time>
      </trkpt>
      <trkpt lat="48.35203" lon="2.66705">
        <ele>135</ele>
        <time>2021-12-08T11:22:21.261Z</time>
      </trkpt>
      <trkpt lat="48.35203" lon="2.66715">
        <ele>135</ele>
        <time>2021-12-08T11:22:26.242Z</time>
      </trkpt>
      <trkpt lat="48.35204" lon="2.66725">
        <ele>135</ele>
        <time>2021-12-08T11:22:31.243Z</time>
      </trkpt>
      <trkpt lat="48.35205" lon="2.66736">
        <ele>135</ele>
        <time>2021-12-08T11:22:36.243Z</time>
      </trkpt>
      <trkpt lat="48.35206" lon="2.66744">
        <ele>136</ele>
        <time>2021-12-08T11:22:40.255Z</time>
      </trkpt>
      <trkpt lat="48.35206" lon="2.66754">
        <ele>136</ele>
        <time>2021-12-08T11:22:45.255Z</time>
      </trkpt>
      <trkpt lat="48.35206" lon="2.66764">
        <ele>133</ele>
        <time>2021-12-08T11:22:50.262Z</time>
      </trkpt>
      <trkpt lat="48.35205" lon="2.66772">
        <ele>133</ele>
        <time>2021-12-08T11:22:54.252Z</time>
      </trkpt>
      <trkpt lat="48.35207" lon="2.66782">
        <ele>133</ele>
        <time>2021-12-08T11:22:59.248Z</time>
      </trkpt>
      <trkpt lat="48.35208" lon="2.66791">
        <ele>133</ele>
        <time>2021-12-08T11:23:04.245Z</time>
      </trkpt>
      <trkpt lat="48.35209" lon="2.66799">
        <ele>128</ele>
        <time>2021-12-08T11:23:08.257Z</time>
      </trkpt>
      <trkpt lat="48.35209" lon="2.66809">
        <ele>128</ele>
        <time>2021-12-08T11:23:13.252Z</time>
      </trkpt>
      <trkpt lat="48.3521" lon="2.66818">
        <ele>128</ele>
        <time>2021-12-08T11:23:18.250Z</time>
      </trkpt>
      <trkpt lat="48.3521" lon="2.66828">
        <ele>126</ele>
        <time>2021-12-08T11:23:23.241Z</time>
      </trkpt>
      <trkpt lat="48.3521" lon="2.66836">
        <ele>126</ele>
        <time>2021-12-08T11:23:27.248Z</time>
      </trkpt>
      <trkpt lat="48.35211" lon="2.66845">
        <ele>126</ele>
        <time>2021-12-08T11:23:31.250Z</time>
      </trkpt>
      <trkpt lat="48.35211" lon="2.66855">
        <ele>126</ele>
        <time>2021-12-08T11:23:36.254Z</time>
      </trkpt>
      <trkpt lat="48.35211" lon="2.66865">
        <ele>126</ele>
        <time>2021-12-08T11:23:41.244Z</time>
      </trkpt>
      <trkpt lat="48.35211" lon="2.66874">
        <ele>126</ele>
        <time>2021-12-08T11:23:45.254Z</time>
      </trkpt>
      <trkpt lat="48.35211" lon="2.66883">
        <ele>128</ele>
        <time>2021-12-08T11:23:50.251Z</time>
      </trkpt>
      <trkpt lat="48.35207" lon="2.66888">
        <ele>129</ele>
        <time>2021-12-08T11:23:55.248Z</time>
      </trkpt>
      <trkpt lat="48.35203" lon="2.66894">
        <ele>129</ele>
        <time>2021-12-08T11:24:00.258Z</time>
      </trkpt>
      <trkpt lat="48.35197" lon="2.66893">
        <ele>129</ele>
        <time>2021-12-08T11:24:05.260Z</time>
      </trkpt>
      <trkpt lat="48.3519" lon="2.66893">
        <ele>129</ele>
        <time>2021-12-08T11:24:10.242Z</time>
      </trkpt>
      <trkpt lat="48.35185" lon="2.66892">
        <ele>129</ele>
        <time>2021-12-08T11:24:14.248Z</time>
      </trkpt>
      <trkpt lat="48.3518" lon="2.66891">
        <ele>132</ele>
        <time>2021-12-08T11:24:18.255Z</time>
      </trkpt>
      <trkpt lat="48.35172" lon="2.6689">
        <ele>132</ele>
        <time>2021-12-08T11:24:23.257Z</time>
      </trkpt>
      <trkpt lat="48.35165" lon="2.6689">
        <ele>132</ele>
        <time>2021-12-08T11:24:28.249Z</time>
      </trkpt>
      <trkpt lat="48.35159" lon="2.66891">
        <ele>132</ele>
        <time>2021-12-08T11:24:33.259Z</time>
      </trkpt>
      <trkpt lat="48.35153" lon="2.66891">
        <ele>132</ele>
        <time>2021-12-08T11:24:38.248Z</time>
      </trkpt>
      <trkpt lat="48.35147" lon="2.66892">
        <ele>131</ele>
        <time>2021-12-08T11:24:43.241Z</time>
      </trkpt>
      <trkpt lat="48.35142" lon="2.66891">
        <ele>131</ele>
        <time>2021-12-08T11:24:47.252Z</time>
      </trkpt>
      <trkpt lat="48.35136" lon="2.66892">
        <ele>131</ele>
        <time>2021-12-08T11:24:52.255Z</time>
      </trkpt>
      <trkpt lat="48.3513" lon="2.66892">
        <ele>131</ele>
        <time>2021-12-08T11:24:57.248Z</time>
      </trkpt>
      <trkpt lat="48.35123" lon="2.66891">
        <ele>132</ele>
        <time>2021-12-08T11:25:02.241Z</time>
      </trkpt>
      <trkpt lat="48.35116" lon="2.6689">
        <ele>132</ele>
        <time>2021-12-08T11:25:07.248Z</time>
      </trkpt>
      <trkpt lat="48.35109" lon="2.66888">
        <ele>132</ele>
        <time>2021-12-08T11:25:12.249Z</time>
      </trkpt>
      <trkpt lat="48.35102" lon="2.66886">
        <ele>132</ele>
        <time>2021-12-08T11:25:17.242Z</time>
      </trkpt>
      <trkpt lat="48.35097" lon="2.66882">
        <ele>132</ele>
        <time>2021-12-08T11:25:21.248Z</time>
      </trkpt>
      <trkpt lat="48.35095" lon="2.66882">
        <ele>131</ele>
        <time>2021-12-08T11:25:26.238Z</time>
      </trkpt>
      <trkpt lat="48.35093" lon="2.66881">
        <ele>131</ele>
        <time>2021-12-08T11:25:30.245Z</time>
      </trkpt>
      <trkpt lat="48.35091" lon="2.66881">
        <ele>131</ele>
        <time>2021-12-08T11:25:34.248Z</time>
      </trkpt>
      <trkpt lat="48.35084" lon="2.66885">
        <ele>131</ele>
        <time>2021-12-08T11:25:39.244Z</time>
      </trkpt>
      <trkpt lat="48.35078" lon="2.66887">
        <ele>131</ele>
        <time>2021-12-08T11:25:43.252Z</time>
      </trkpt>
      <trkpt lat="48.35072" lon="2.66887">
        <ele>131</ele>
        <time>2021-12-08T11:25:48.241Z</time>
      </trkpt>
      <trkpt lat="48.35067" lon="2.66885">
        <ele>131</ele>
        <time>2021-12-08T11:25:52.242Z</time>
      </trkpt>
      <trkpt lat="48.35059" lon="2.66883">
        <ele>131</ele>
        <time>2021-12-08T11:25:57.242Z</time>
      </trkpt>
      <trkpt lat="48.35052" lon="2.6688">
        <ele>131</ele>
        <time>2021-12-08T11:26:02.244Z</time>
      </trkpt>
      <trkpt lat="48.35046" lon="2.6688">
        <ele>131</ele>
        <time>2021-12-08T11:26:06.250Z</time>
      </trkpt>
      <trkpt lat="48.35039" lon="2.6688">
        <ele>133</ele>
        <time>2021-12-08T11:26:11.245Z</time>
      </trkpt>
      <trkpt lat="48.35034" lon="2.6688">
        <ele>133</ele>
        <time>2021-12-08T11:26:15.248Z</time>
      </trkpt>
      <trkpt lat="48.35029" lon="2.66881">
        <ele>133</ele>
        <time>2021-12-08T11:26:20.248Z</time>
      </trkpt>
      <trkpt lat="48.35022" lon="2.6688">
        <ele>133</ele>
        <time>2021-12-08T11:26:25.244Z</time>
      </trkpt>
      <trkpt lat="48.35016" lon="2.66882">
        <ele>133</ele>
        <time>2021-12-08T11:26:30.248Z</time>
      </trkpt>
      <trkpt lat="48.35011" lon="2.66881">
        <ele>135</ele>
        <time>2021-12-08T11:26:34.242Z</time>
      </trkpt>
      <trkpt lat="48.35007" lon="2.6688">
        <ele>135</ele>
        <time>2021-12-08T11:26:38.251Z</time>
      </trkpt>
      <trkpt lat="48.35001" lon="2.6688">
        <ele>135</ele>
        <time>2021-12-08T11:26:43.248Z</time>
      </trkpt>
      <trkpt lat="48.35001" lon="2.66876">
        <ele>135</ele>
        <time>2021-12-08T11:26:47.258Z</time>
      </trkpt>
      <trkpt lat="48.34999" lon="2.66883">
        <ele>135</ele>
        <time>2021-12-08T11:26:52.253Z</time>
      </trkpt>
      <trkpt lat="48.35001" lon="2.66884">
        <ele>135</ele>
        <time>2021-12-08T11:26:57.245Z</time>
      </trkpt>
      <trkpt lat="48.35005" lon="2.66887">
        <ele>135</ele>
        <time>2021-12-08T11:27:02.252Z</time>
      </trkpt>
      <trkpt lat="48.35007" lon="2.66889">
        <ele>135</ele>
        <time>2021-12-08T11:27:07.248Z</time>
      </trkpt>
      <trkpt lat="48.35003" lon="2.66888">
        <ele>135</ele>
        <time>2021-12-08T11:27:12.249Z</time>
      </trkpt>
      <trkpt lat="48.34998" lon="2.66886">
        <ele>135</ele>
        <time>2021-12-08T11:27:17.244Z</time>
      </trkpt>
      <trkpt lat="48.34994" lon="2.66884">
        <ele>135</ele>
        <time>2021-12-08T11:27:22.257Z</time>
      </trkpt>
      <trkpt lat="48.34989" lon="2.66882">
        <ele>135</ele>
        <time>2021-12-08T11:27:27.240Z</time>
      </trkpt>
      <trkpt lat="48.34984" lon="2.66882">
        <ele>134</ele>
        <time>2021-12-08T11:27:32.245Z</time>
      </trkpt>
      <trkpt lat="48.34978" lon="2.66881">
        <ele>134</ele>
        <time>2021-12-08T11:27:37.236Z</time>
      </trkpt>
      <trkpt lat="48.34973" lon="2.66881">
        <ele>134</ele>
        <time>2021-12-08T11:27:42.246Z</time>
      </trkpt>
      <trkpt lat="48.34967" lon="2.66882">
        <ele>134</ele>
        <time>2021-12-08T11:27:47.245Z</time>
      </trkpt>
      <trkpt lat="48.34961" lon="2.6688">
        <ele>134</ele>
        <time>2021-12-08T11:27:52.240Z</time>
      </trkpt>
      <trkpt lat="48.34954" lon="2.66878">
        <ele>134</ele>
        <time>2021-12-08T11:27:57.242Z</time>
      </trkpt>
      <trkpt lat="48.34949" lon="2.66876">
        <ele>134</ele>
        <time>2021-12-08T11:28:01.250Z</time>
      </trkpt>
      <trkpt lat="48.34943" lon="2.66875">
        <ele>134</ele>
        <time>2021-12-08T11:28:06.235Z</time>
      </trkpt>
      <trkpt lat="48.34938" lon="2.66874">
        <ele>134</ele>
        <time>2021-12-08T11:28:10.246Z</time>
      </trkpt>
      <trkpt lat="48.34932" lon="2.66873">
        <ele>134</ele>
        <time>2021-12-08T11:28:15.242Z</time>
      </trkpt>
      <trkpt lat="48.34926" lon="2.66874">
        <ele>134</ele>
        <time>2021-12-08T11:28:20.244Z</time>
      </trkpt>
      <trkpt lat="48.34922" lon="2.66873">
        <ele>134</ele>
        <time>2021-12-08T11:28:24.247Z</time>
      </trkpt>
      <trkpt lat="48.34916" lon="2.66872">
        <ele>134</ele>
        <time>2021-12-08T11:28:29.248Z</time>
      </trkpt>
      <trkpt lat="48.3491" lon="2.6687">
        <ele>134</ele>
        <time>2021-12-08T11:28:34.244Z</time>
      </trkpt>
      <trkpt lat="48.34904" lon="2.66869">
        <ele>134</ele>
        <time>2021-12-08T11:28:39.249Z</time>
      </trkpt>
      <trkpt lat="48.34898" lon="2.66868">
        <ele>134</ele>
        <time>2021-12-08T11:28:44.241Z</time>
      </trkpt>
      <trkpt lat="48.34893" lon="2.66866">
        <ele>134</ele>
        <time>2021-12-08T11:28:48.249Z</time>
      </trkpt>
      <trkpt lat="48.34887" lon="2.66865">
        <ele>134</ele>
        <time>2021-12-08T11:28:52.243Z</time>
      </trkpt>
      <trkpt lat="48.3488" lon="2.66864">
        <ele>134</ele>
        <time>2021-12-08T11:28:57.245Z</time>
      </trkpt>
      <trkpt lat="48.34874" lon="2.66863">
        <ele>135</ele>
        <time>2021-12-08T11:29:02.246Z</time>
      </trkpt>
      <trkpt lat="48.34867" lon="2.66862">
        <ele>135</ele>
        <time>2021-12-08T11:29:07.243Z</time>
      </trkpt>
      <trkpt lat="48.34859" lon="2.66862">
        <ele>135</ele>
        <time>2021-12-08T11:29:12.248Z</time>
      </trkpt>
      <trkpt lat="48.34851" lon="2.66864">
        <ele>135</ele>
        <time>2021-12-08T11:29:17.245Z</time>
      </trkpt>
      <trkpt lat="48.34846" lon="2.66866">
        <ele>134</ele>
        <time>2021-12-08T11:29:21.253Z</time>
      </trkpt>
      <trkpt lat="48.3484" lon="2.66865">
        <ele>134</ele>
        <time>2021-12-08T11:29:26.248Z</time>
      </trkpt>
      <trkpt lat="48.34834" lon="2.66864">
        <ele>134</ele>
        <time>2021-12-08T11:29:30.251Z</time>
      </trkpt>
      <trkpt lat="48.34826" lon="2.66865">
        <ele>134</ele>
        <time>2021-12-08T11:29:35.243Z</time>
      </trkpt>
      <trkpt lat="48.34819" lon="2.66865">
        <ele>134</ele>
        <time>2021-12-08T11:29:40.243Z</time>
      </trkpt>
      <trkpt lat="48.34814" lon="2.66864">
        <ele>134</ele>
        <time>2021-12-08T11:29:44.249Z</time>
      </trkpt>
      <trkpt lat="48.34808" lon="2.66864">
        <ele>134</ele>
        <time>2021-12-08T11:29:48.250Z</time>
      </trkpt>
      <trkpt lat="48.34802" lon="2.66863">
        <ele>134</ele>
        <time>2021-12-08T11:29:53.251Z</time>
      </trkpt>
      <trkpt lat="48.34794" lon="2.66864">
        <ele>134</ele>
        <time>2021-12-08T11:29:58.248Z</time>
      </trkpt>
      <trkpt lat="48.34788" lon="2.66866">
        <ele>135</ele>
        <time>2021-12-08T11:30:02.247Z</time>
      </trkpt>
      <trkpt lat="48.34781" lon="2.66865">
        <ele>135</ele>
        <time>2021-12-08T11:30:07.251Z</time>
      </trkpt>
      <trkpt lat="48.34774" lon="2.66866">
        <ele>135</ele>
        <time>2021-12-08T11:30:12.249Z</time>
      </trkpt>
      <trkpt lat="48.34768" lon="2.66866">
        <ele>135</ele>
        <time>2021-12-08T11:30:17.250Z</time>
      </trkpt>
      <trkpt lat="48.34762" lon="2.66864">
        <ele>137</ele>
        <time>2021-12-08T11:30:22.252Z</time>
      </trkpt>
      <trkpt lat="48.34755" lon="2.66863">
        <ele>137</ele>
        <time>2021-12-08T11:30:26.254Z</time>
      </trkpt>
      <trkpt lat="48.34748" lon="2.66864">
        <ele>137</ele>
        <time>2021-12-08T11:30:31.245Z</time>
      </trkpt>
      <trkpt lat="48.34738" lon="2.66872">
        <ele>137</ele>
        <time>2021-12-08T11:30:36.244Z</time>
      </trkpt>
      <trkpt lat="48.34729" lon="2.66873">
        <ele>137</ele>
        <time>2021-12-08T11:30:40.247Z</time>
      </trkpt>
      <trkpt lat="48.34723" lon="2.66877">
        <ele>136</ele>
        <time>2021-12-08T11:30:44.243Z</time>
      </trkpt>
      <trkpt lat="48.34719" lon="2.6688">
        <ele>136</ele>
        <time>2021-12-08T11:30:49.242Z</time>
      </trkpt>
      <trkpt lat="48.34717" lon="2.66877">
        <ele>136</ele>
        <time>2021-12-08T11:30:54.243Z</time>
      </trkpt>
      <trkpt lat="48.34717" lon="2.66875">
        <ele>137</ele>
        <time>2021-12-08T11:30:58.254Z</time>
      </trkpt>
      <trkpt lat="48.34714" lon="2.66873">
        <ele>137</ele>
        <time>2021-12-08T11:31:02.254Z</time>
      </trkpt>
      <trkpt lat="48.34709" lon="2.66873">
        <ele>137</ele>
        <time>2021-12-08T11:31:07.254Z</time>
      </trkpt>
      <trkpt lat="48.34703" lon="2.66871">
        <ele>137</ele>
        <time>2021-12-08T11:31:12.247Z</time>
      </trkpt>
      <trkpt lat="48.34699" lon="2.66872">
        <ele>137</ele>
        <time>2021-12-08T11:31:17.250Z</time>
      </trkpt>
      <trkpt lat="48.34695" lon="2.6687">
        <ele>137</ele>
        <time>2021-12-08T11:31:22.251Z</time>
      </trkpt>
      <trkpt lat="48.34694" lon="2.66863">
        <ele>137</ele>
        <time>2021-12-08T11:31:26.276Z</time>
      </trkpt>
      <trkpt lat="48.3469" lon="2.66861">
        <ele>137</ele>
        <time>2021-12-08T11:31:31.262Z</time>
      </trkpt>
      <trkpt lat="48.34686" lon="2.66857">
        <ele>137</ele>
        <time>2021-12-08T11:31:36.254Z</time>
      </trkpt>
      <trkpt lat="48.34685" lon="2.66853">
        <ele>137</ele>
        <time>2021-12-08T11:31:41.252Z</time>
      </trkpt>
      <trkpt lat="48.34678" lon="2.66851">
        <ele>138</ele>
        <time>2021-12-08T11:31:46.265Z</time>
      </trkpt>
      <trkpt lat="48.34676" lon="2.66855">
        <ele>138</ele>
        <time>2021-12-08T11:31:51.261Z</time>
      </trkpt>
      <trkpt lat="48.34674" lon="2.6685">
        <ele>138</ele>
        <time>2021-12-08T11:31:56.251Z</time>
      </trkpt>
      <trkpt lat="48.34672" lon="2.66851">
        <ele>138</ele>
        <time>2021-12-08T11:32:00.255Z</time>
      </trkpt>
      <trkpt lat="48.34668" lon="2.66851">
        <ele>138</ele>
        <time>2021-12-08T11:32:04.259Z</time>
      </trkpt>
      <trkpt lat="48.34663" lon="2.66849">
        <ele>138</ele>
        <time>2021-12-08T11:32:09.256Z</time>
      </trkpt>
      <trkpt lat="48.34658" lon="2.66849">
        <ele>138</ele>
        <time>2021-12-08T11:32:14.254Z</time>
      </trkpt>
      <trkpt lat="48.34655" lon="2.6685">
        <ele>138</ele>
        <time>2021-12-08T11:32:18.293Z</time>
      </trkpt>
      <trkpt lat="48.34652" lon="2.66853">
        <ele>138</ele>
        <time>2021-12-08T11:32:23.262Z</time>
      </trkpt>
      <trkpt lat="48.34646" lon="2.66853">
        <ele>138</ele>
        <time>2021-12-08T11:32:28.257Z</time>
      </trkpt>
      <trkpt lat="48.34642" lon="2.66851">
        <ele>138</ele>
        <time>2021-12-08T11:32:32.267Z</time>
      </trkpt>
      <trkpt lat="48.34642" lon="2.6685">
        <ele>138</ele>
        <time>2021-12-08T11:32:37.253Z</time>
      </trkpt>
      <trkpt lat="48.34638" lon="2.66849">
        <ele>138</ele>
        <time>2021-12-08T11:32:41.255Z</time>
      </trkpt>
      <trkpt lat="48.34635" lon="2.6685">
        <ele>138</ele>
        <time>2021-12-08T11:32:46.254Z</time>
      </trkpt>
      <trkpt lat="48.34631" lon="2.66852">
        <ele>138</ele>
        <time>2021-12-08T11:32:51.265Z</time>
      </trkpt>
      <trkpt lat="48.34626" lon="2.66849">
        <ele>138</ele>
        <time>2021-12-08T11:32:56.254Z</time>
      </trkpt>
      <trkpt lat="48.34623" lon="2.66845">
        <ele>138</ele>
        <time>2021-12-08T11:33:00.284Z</time>
      </trkpt>
      <trkpt lat="48.34618" lon="2.66841">
        <ele>138</ele>
        <time>2021-12-08T11:33:05.253Z</time>
      </trkpt>
      <trkpt lat="48.34615" lon="2.66837">
        <ele>138</ele>
        <time>2021-12-08T11:33:10.256Z</time>
      </trkpt>
      <trkpt lat="48.34613" lon="2.66839">
        <ele>138</ele>
        <time>2021-12-08T11:33:15.258Z</time>
      </trkpt>
      <trkpt lat="48.34611" lon="2.66844">
        <ele>138</ele>
        <time>2021-12-08T11:33:20.250Z</time>
      </trkpt>
      <trkpt lat="48.34607" lon="2.66838">
        <ele>138</ele>
        <time>2021-12-08T11:33:25.246Z</time>
      </trkpt>
      <trkpt lat="48.34602" lon="2.66847">
        <ele>139</ele>
        <time>2021-12-08T11:33:30.251Z</time>
      </trkpt>
      <trkpt lat="48.34599" lon="2.66857">
        <ele>139</ele>
        <time>2021-12-08T11:33:34.252Z</time>
      </trkpt>
      <trkpt lat="48.34595" lon="2.66862">
        <ele>139</ele>
        <time>2021-12-08T11:33:38.252Z</time>
      </trkpt>
      <trkpt lat="48.34592" lon="2.6687">
        <ele>139</ele>
        <time>2021-12-08T11:33:43.252Z</time>
      </trkpt>
      <trkpt lat="48.34592" lon="2.66871">
        <ele>139</ele>
        <time>2021-12-08T11:33:48.259Z</time>
      </trkpt>
      <trkpt lat="48.34591" lon="2.66871">
        <ele>139</ele>
        <time>2021-12-08T11:34:02.253Z</time>
      </trkpt>
      <trkpt lat="48.34591" lon="2.66871">
        <ele>139</ele>
        <time>2021-12-08T11:34:06.254Z</time>
      </trkpt>
      <trkpt lat="48.34589" lon="2.66875">
        <ele>139</ele>
        <time>2021-12-08T11:34:11.248Z</time>
      </trkpt>
      <trkpt lat="48.34588" lon="2.66881">
        <ele>139</ele>
        <time>2021-12-08T11:34:16.248Z</time>
      </trkpt>
      <trkpt lat="48.34586" lon="2.66887">
        <ele>139</ele>
        <time>2021-12-08T11:34:21.249Z</time>
      </trkpt>
      <trkpt lat="48.34581" lon="2.66893">
        <ele>139</ele>
        <time>2021-12-08T11:34:26.251Z</time>
      </trkpt>
      <trkpt lat="48.34577" lon="2.66898">
        <ele>139</ele>
        <time>2021-12-08T11:34:30.258Z</time>
      </trkpt>
      <trkpt lat="48.34574" lon="2.66904">
        <ele>140</ele>
        <time>2021-12-08T11:34:34.262Z</time>
      </trkpt>
      <trkpt lat="48.3457" lon="2.6691">
        <ele>140</ele>
        <time>2021-12-08T11:34:39.252Z</time>
      </trkpt>
      <trkpt lat="48.34568" lon="2.66917">
        <ele>138</ele>
        <time>2021-12-08T11:34:44.251Z</time>
      </trkpt>
      <trkpt lat="48.34564" lon="2.66922">
        <ele>138</ele>
        <time>2021-12-08T11:34:49.244Z</time>
      </trkpt>
      <trkpt lat="48.34562" lon="2.66927">
        <ele>138</ele>
        <time>2021-12-08T11:34:53.253Z</time>
      </trkpt>
      <trkpt lat="48.34562" lon="2.66934">
        <ele>138</ele>
        <time>2021-12-08T11:34:58.244Z</time>
      </trkpt>
      <trkpt lat="48.34561" lon="2.66942">
        <ele>138</ele>
        <time>2021-12-08T11:35:02.273Z</time>
      </trkpt>
      <trkpt lat="48.34559" lon="2.66949">
        <ele>138</ele>
        <time>2021-12-08T11:35:07.246Z</time>
      </trkpt>
      <trkpt lat="48.34556" lon="2.66957">
        <ele>138</ele>
        <time>2021-12-08T11:35:12.247Z</time>
      </trkpt>
      <trkpt lat="48.34552" lon="2.66963">
        <ele>137</ele>
        <time>2021-12-08T11:35:16.259Z</time>
      </trkpt>
      <trkpt lat="48.34549" lon="2.66971">
        <ele>137</ele>
        <time>2021-12-08T11:35:21.254Z</time>
      </trkpt>
      <trkpt lat="48.34546" lon="2.66977">
        <ele>137</ele>
        <time>2021-12-08T11:35:25.260Z</time>
      </trkpt>
      <trkpt lat="48.34543" lon="2.66987">
        <ele>136</ele>
        <time>2021-12-08T11:35:30.249Z</time>
      </trkpt>
      <trkpt lat="48.3454" lon="2.66995">
        <ele>135</ele>
        <time>2021-12-08T11:35:35.246Z</time>
      </trkpt>
      <trkpt lat="48.34535" lon="2.67001">
        <ele>135</ele>
        <time>2021-12-08T11:35:40.252Z</time>
      </trkpt>
      <trkpt lat="48.34532" lon="2.67009">
        <ele>135</ele>
        <time>2021-12-08T11:35:45.255Z</time>
      </trkpt>
      <trkpt lat="48.34529" lon="2.67016">
        <ele>134</ele>
        <time>2021-12-08T11:35:50.251Z</time>
      </trkpt>
      <trkpt lat="48.34526" lon="2.67023">
        <ele>134</ele>
        <time>2021-12-08T11:35:55.253Z</time>
      </trkpt>
      <trkpt lat="48.34524" lon="2.67031">
        <ele>134</ele>
        <time>2021-12-08T11:36:00.260Z</time>
      </trkpt>
      <trkpt lat="48.34522" lon="2.67037">
        <ele>134</ele>
        <time>2021-12-08T11:36:04.260Z</time>
      </trkpt>
      <trkpt lat="48.3452" lon="2.67046">
        <ele>134</ele>
        <time>2021-12-08T11:36:09.251Z</time>
      </trkpt>
      <trkpt lat="48.34517" lon="2.67053">
        <ele>134</ele>
        <time>2021-12-08T11:36:14.252Z</time>
      </trkpt>
      <trkpt lat="48.34515" lon="2.67059">
        <ele>134</ele>
        <time>2021-12-08T11:36:18.257Z</time>
      </trkpt>
      <trkpt lat="48.34511" lon="2.67067">
        <ele>132</ele>
        <time>2021-12-08T11:36:23.266Z</time>
      </trkpt>
      <trkpt lat="48.3451" lon="2.67076">
        <ele>132</ele>
        <time>2021-12-08T11:36:28.263Z</time>
      </trkpt>
      <trkpt lat="48.34507" lon="2.67084">
        <ele>132</ele>
        <time>2021-12-08T11:36:33.252Z</time>
      </trkpt>
      <trkpt lat="48.34505" lon="2.67092">
        <ele>132</ele>
        <time>2021-12-08T11:36:38.258Z</time>
      </trkpt>
      <trkpt lat="48.34503" lon="2.67102">
        <ele>133</ele>
        <time>2021-12-08T11:36:43.258Z</time>
      </trkpt>
      <trkpt lat="48.34501" lon="2.6711">
        <ele>133</ele>
        <time>2021-12-08T11:36:48.260Z</time>
      </trkpt>
      <trkpt lat="48.345" lon="2.67119">
        <ele>133</ele>
        <time>2021-12-08T11:36:53.259Z</time>
      </trkpt>
      <trkpt lat="48.34498" lon="2.67126">
        <ele>134</ele>
        <time>2021-12-08T11:36:57.267Z</time>
      </trkpt>
      <trkpt lat="48.34497" lon="2.67135">
        <ele>134</ele>
        <time>2021-12-08T11:37:02.245Z</time>
      </trkpt>
      <trkpt lat="48.34497" lon="2.67142">
        <ele>134</ele>
        <time>2021-12-08T11:37:06.255Z</time>
      </trkpt>
      <trkpt lat="48.34496" lon="2.67151">
        <ele>134</ele>
        <time>2021-12-08T11:37:11.252Z</time>
      </trkpt>
      <trkpt lat="48.34496" lon="2.67159">
        <ele>135</ele>
        <time>2021-12-08T11:37:15.258Z</time>
      </trkpt>
      <trkpt lat="48.34496" lon="2.67166">
        <ele>135</ele>
        <time>2021-12-08T11:37:19.253Z</time>
      </trkpt>
      <trkpt lat="48.34495" lon="2.67176">
        <ele>135</ele>
        <time>2021-12-08T11:37:24.268Z</time>
      </trkpt>
      <trkpt lat="48.34495" lon="2.67184">
        <ele>135</ele>
        <time>2021-12-08T11:37:28.258Z</time>
      </trkpt>
      <trkpt lat="48.34494" lon="2.67193">
        <ele>135</ele>
        <time>2021-12-08T11:37:33.252Z</time>
      </trkpt>
      <trkpt lat="48.34494" lon="2.67199">
        <ele>135</ele>
        <time>2021-12-08T11:37:38.258Z</time>
      </trkpt>
      <trkpt lat="48.34493" lon="2.6721">
        <ele>134</ele>
        <time>2021-12-08T11:37:43.247Z</time>
      </trkpt>
      <trkpt lat="48.34493" lon="2.67217">
        <ele>134</ele>
        <time>2021-12-08T11:37:47.249Z</time>
      </trkpt>
      <trkpt lat="48.34493" lon="2.67225">
        <ele>134</ele>
        <time>2021-12-08T11:37:51.257Z</time>
      </trkpt>
      <trkpt lat="48.34493" lon="2.67232">
        <ele>134</ele>
        <time>2021-12-08T11:37:55.259Z</time>
      </trkpt>
      <trkpt lat="48.34494" lon="2.67238">
        <ele>132</ele>
        <time>2021-12-08T11:37:59.316Z</time>
      </trkpt>
      <trkpt lat="48.34494" lon="2.67246">
        <ele>132</ele>
        <time>2021-12-08T11:38:04.251Z</time>
      </trkpt>
      <trkpt lat="48.34498" lon="2.67254">
        <ele>132</ele>
        <time>2021-12-08T11:38:17.247Z</time>
      </trkpt>
      <trkpt lat="48.34498" lon="2.67255">
        <ele>132</ele>
        <time>2021-12-08T11:38:21.256Z</time>
      </trkpt>
      <trkpt lat="48.34494" lon="2.67259">
        <ele>132</ele>
        <time>2021-12-08T11:38:25.253Z</time>
      </trkpt>
      <trkpt lat="48.34492" lon="2.67264">
        <ele>133</ele>
        <time>2021-12-08T11:38:30.253Z</time>
      </trkpt>
      <trkpt lat="48.34493" lon="2.6727">
        <ele>133</ele>
        <time>2021-12-08T11:38:34.256Z</time>
      </trkpt>
      <trkpt lat="48.34492" lon="2.67277">
        <ele>133</ele>
        <time>2021-12-08T11:38:39.262Z</time>
      </trkpt>
      <trkpt lat="48.34492" lon="2.67288">
        <ele>133</ele>
        <time>2021-12-08T11:38:44.251Z</time>
      </trkpt>
      <trkpt lat="48.34491" lon="2.67295">
        <ele>132</ele>
        <time>2021-12-08T11:38:48.269Z</time>
      </trkpt>
      <trkpt lat="48.34493" lon="2.67303">
        <ele>132</ele>
        <time>2021-12-08T11:38:53.253Z</time>
      </trkpt>
      <trkpt lat="48.34493" lon="2.67311">
        <ele>132</ele>
        <time>2021-12-08T11:38:58.261Z</time>
      </trkpt>
      <trkpt lat="48.34493" lon="2.67322">
        <ele>133</ele>
        <time>2021-12-08T11:39:03.248Z</time>
      </trkpt>
      <trkpt lat="48.34494" lon="2.67329">
        <ele>133</ele>
        <time>2021-12-08T11:39:07.247Z</time>
      </trkpt>
      <trkpt lat="48.34493" lon="2.67339">
        <ele>133</ele>
        <time>2021-12-08T11:39:12.250Z</time>
      </trkpt>
      <trkpt lat="48.34492" lon="2.67348">
        <ele>133</ele>
        <time>2021-12-08T11:39:17.247Z</time>
      </trkpt>
      <trkpt lat="48.3449" lon="2.67359">
        <ele>133</ele>
        <time>2021-12-08T11:39:22.255Z</time>
      </trkpt>
      <trkpt lat="48.34491" lon="2.67367">
        <ele>133</ele>
        <time>2021-12-08T11:39:26.254Z</time>
      </trkpt>
      <trkpt lat="48.34492" lon="2.67374">
        <ele>133</ele>
        <time>2021-12-08T11:39:31.252Z</time>
      </trkpt>
      <trkpt lat="48.34491" lon="2.67379">
        <ele>132</ele>
        <time>2021-12-08T11:39:36.245Z</time>
      </trkpt>
      <trkpt lat="48.3449" lon="2.67388">
        <ele>132</ele>
        <time>2021-12-08T11:39:41.254Z</time>
      </trkpt>
      <trkpt lat="48.34491" lon="2.67396">
        <ele>132</ele>
        <time>2021-12-08T11:39:45.261Z</time>
      </trkpt>
      <trkpt lat="48.34488" lon="2.67407">
        <ele>131</ele>
        <time>2021-12-08T11:39:50.271Z</time>
      </trkpt>
      <trkpt lat="48.34488" lon="2.67418">
        <ele>131</ele>
        <time>2021-12-08T11:39:55.248Z</time>
      </trkpt>
      <trkpt lat="48.34491" lon="2.67425">
        <ele>131</ele>
        <time>2021-12-08T11:39:59.251Z</time>
      </trkpt>
      <trkpt lat="48.34491" lon="2.67435">
        <ele>130</ele>
        <time>2021-12-08T11:40:04.250Z</time>
      </trkpt>
      <trkpt lat="48.34492" lon="2.67441">
        <ele>130</ele>
        <time>2021-12-08T11:40:09.252Z</time>
      </trkpt>
      <trkpt lat="48.34491" lon="2.6745">
        <ele>130</ele>
        <time>2021-12-08T11:40:14.248Z</time>
      </trkpt>
      <trkpt lat="48.34491" lon="2.67458">
        <ele>130</ele>
        <time>2021-12-08T11:40:18.258Z</time>
      </trkpt>
      <trkpt lat="48.34492" lon="2.67468">
        <ele>130</ele>
        <time>2021-12-08T11:40:23.256Z</time>
      </trkpt>
      <trkpt lat="48.34493" lon="2.67477">
        <ele>130</ele>
        <time>2021-12-08T11:40:27.262Z</time>
      </trkpt>
      <trkpt lat="48.34493" lon="2.67486">
        <ele>130</ele>
        <time>2021-12-08T11:40:32.255Z</time>
      </trkpt>
      <trkpt lat="48.34495" lon="2.67493">
        <ele>130</ele>
        <time>2021-12-08T11:40:36.255Z</time>
      </trkpt>
      <trkpt lat="48.34496" lon="2.67503">
        <ele>130</ele>
        <time>2021-12-08T11:40:41.255Z</time>
      </trkpt>
      <trkpt lat="48.34498" lon="2.6751">
        <ele>130</ele>
        <time>2021-12-08T11:40:45.260Z</time>
      </trkpt>
      <trkpt lat="48.34497" lon="2.67515">
        <ele>129</ele>
        <time>2021-12-08T11:40:50.258Z</time>
      </trkpt>
      <trkpt lat="48.34497" lon="2.6752">
        <ele>129</ele>
        <time>2021-12-08T11:40:54.274Z</time>
      </trkpt>
      <trkpt lat="48.345" lon="2.67528">
        <ele>129</ele>
        <time>2021-12-08T11:40:59.250Z</time>
      </trkpt>
      <trkpt lat="48.34502" lon="2.67535">
        <ele>129</ele>
        <time>2021-12-08T11:41:03.245Z</time>
      </trkpt>
      <trkpt lat="48.34505" lon="2.67544">
        <ele>128</ele>
        <time>2021-12-08T11:41:08.264Z</time>
      </trkpt>
      <trkpt lat="48.34504" lon="2.6755">
        <ele>128</ele>
        <time>2021-12-08T11:41:12.269Z</time>
      </trkpt>
      <trkpt lat="48.34506" lon="2.67559">
        <ele>128</ele>
        <time>2021-12-08T11:41:17.254Z</time>
      </trkpt>
      <trkpt lat="48.34509" lon="2.67567">
        <ele>128</ele>
        <time>2021-12-08T11:41:22.253Z</time>
      </trkpt>
      <trkpt lat="48.34512" lon="2.67576">
        <ele>127</ele>
        <time>2021-12-08T11:41:27.254Z</time>
      </trkpt>
      <trkpt lat="48.34513" lon="2.67583">
        <ele>127</ele>
        <time>2021-12-08T11:41:31.264Z</time>
      </trkpt>
      <trkpt lat="48.34515" lon="2.67592">
        <ele>131</ele>
        <time>2021-12-08T11:41:36.252Z</time>
      </trkpt>
      <trkpt lat="48.34517" lon="2.67601">
        <ele>130</ele>
        <time>2021-12-08T11:41:41.257Z</time>
      </trkpt>
      <trkpt lat="48.34519" lon="2.67609">
        <ele>130</ele>
        <time>2021-12-08T11:41:45.259Z</time>
      </trkpt>
      <trkpt lat="48.34522" lon="2.6762">
        <ele>130</ele>
        <time>2021-12-08T11:41:50.259Z</time>
      </trkpt>
      <trkpt lat="48.34524" lon="2.67629">
        <ele>127</ele>
        <time>2021-12-08T11:41:55.259Z</time>
      </trkpt>
      <trkpt lat="48.34526" lon="2.67636">
        <ele>127</ele>
        <time>2021-12-08T11:41:59.257Z</time>
      </trkpt>
      <trkpt lat="48.34527" lon="2.67648">
        <ele>127</ele>
        <time>2021-12-08T11:42:24.256Z</time>
      </trkpt>
      <trkpt lat="48.34527" lon="2.67648">
        <ele>127</ele>
        <time>2021-12-08T11:42:28.258Z</time>
      </trkpt>
      <trkpt lat="48.34527" lon="2.67654">
        <ele>124</ele>
        <time>2021-12-08T11:42:33.250Z</time>
      </trkpt>
      <trkpt lat="48.34528" lon="2.67662">
        <ele>124</ele>
        <time>2021-12-08T11:42:37.260Z</time>
      </trkpt>
      <trkpt lat="48.34533" lon="2.67671">
        <ele>124</ele>
        <time>2021-12-08T11:42:42.250Z</time>
      </trkpt>
      <trkpt lat="48.34533" lon="2.67681">
        <ele>121</ele>
        <time>2021-12-08T11:42:46.257Z</time>
      </trkpt>
      <trkpt lat="48.34533" lon="2.67691">
        <ele>121</ele>
        <time>2021-12-08T11:42:51.267Z</time>
      </trkpt>
      <trkpt lat="48.34535" lon="2.67701">
        <ele>121</ele>
        <time>2021-12-08T11:42:56.255Z</time>
      </trkpt>
      <trkpt lat="48.34536" lon="2.67709">
        <ele>117</ele>
        <time>2021-12-08T11:43:01.269Z</time>
      </trkpt>
      <trkpt lat="48.34536" lon="2.67717">
        <ele>117</ele>
        <time>2021-12-08T11:43:06.258Z</time>
      </trkpt>
      <trkpt lat="48.34536" lon="2.67726">
        <ele>117</ele>
        <time>2021-12-08T11:43:11.252Z</time>
      </trkpt>
      <trkpt lat="48.34535" lon="2.67733">
        <ele>117</ele>
        <time>2021-12-08T11:43:15.263Z</time>
      </trkpt>
      <trkpt lat="48.34532" lon="2.67739">
        <ele>113</ele>
        <time>2021-12-08T11:43:20.248Z</time>
      </trkpt>
      <trkpt lat="48.34527" lon="2.67746">
        <ele>113</ele>
        <time>2021-12-08T11:43:56.246Z</time>
      </trkpt>
      <trkpt lat="48.34527" lon="2.6775">
        <ele>113</ele>
        <time>2021-12-08T11:44:00.256Z</time>
      </trkpt>
      <trkpt lat="48.34527" lon="2.67756">
        <ele>113</ele>
        <time>2021-12-08T11:44:05.252Z</time>
      </trkpt>
      <trkpt lat="48.34527" lon="2.6776">
        <ele>113</ele>
        <time>2021-12-08T11:44:09.254Z</time>
      </trkpt>
      <trkpt lat="48.34527" lon="2.67766">
        <ele>111</ele>
        <time>2021-12-08T11:44:14.247Z</time>
      </trkpt>
      <trkpt lat="48.34528" lon="2.67773">
        <ele>111</ele>
        <time>2021-12-08T11:44:19.247Z</time>
      </trkpt>
      <trkpt lat="48.34528" lon="2.67779">
        <ele>111</ele>
        <time>2021-12-08T11:44:23.253Z</time>
      </trkpt>
      <trkpt lat="48.34529" lon="2.67785">
        <ele>111</ele>
        <time>2021-12-08T11:44:27.257Z</time>
      </trkpt>
      <trkpt lat="48.34529" lon="2.67795">
        <ele>110</ele>
        <time>2021-12-08T11:44:32.244Z</time>
      </trkpt>
      <trkpt lat="48.3453" lon="2.67802">
        <ele>110</ele>
        <time>2021-12-08T11:44:36.251Z</time>
      </trkpt>
      <trkpt lat="48.34531" lon="2.67809">
        <ele>110</ele>
        <time>2021-12-08T11:44:41.257Z</time>
      </trkpt>
      <trkpt lat="48.3453" lon="2.67817">
        <ele>110</ele>
        <time>2021-12-08T11:44:46.245Z</time>
      </trkpt>
      <trkpt lat="48.34528" lon="2.67826">
        <ele>110</ele>
        <time>2021-12-08T11:44:51.261Z</time>
      </trkpt>
      <trkpt lat="48.3453" lon="2.67835">
        <ele>110</ele>
        <time>2021-12-08T11:44:56.242Z</time>
      </trkpt>
      <trkpt lat="48.34531" lon="2.67844">
        <ele>110</ele>
        <time>2021-12-08T11:45:00.263Z</time>
      </trkpt>
      <trkpt lat="48.34532" lon="2.67853">
        <ele>110</ele>
        <time>2021-12-08T11:45:05.252Z</time>
      </trkpt>
      <trkpt lat="48.34533" lon="2.67862">
        <ele>110</ele>
        <time>2021-12-08T11:45:10.259Z</time>
      </trkpt>
      <trkpt lat="48.34532" lon="2.67871">
        <ele>110</ele>
        <time>2021-12-08T11:45:15.256Z</time>
      </trkpt>
      <trkpt lat="48.34533" lon="2.67879">
        <ele>108</ele>
        <time>2021-12-08T11:45:19.269Z</time>
      </trkpt>
      <trkpt lat="48.34533" lon="2.67888">
        <ele>108</ele>
        <time>2021-12-08T11:45:24.256Z</time>
      </trkpt>
      <trkpt lat="48.34533" lon="2.67897">
        <ele>108</ele>
        <time>2021-12-08T11:45:29.263Z</time>
      </trkpt>
      <trkpt lat="48.34532" lon="2.67902">
        <ele>108</ele>
        <time>2021-12-08T11:46:02.244Z</time>
      </trkpt>
      <trkpt lat="48.34531" lon="2.67903">
        <ele>108</ele>
        <time>2021-12-08T11:46:06.246Z</time>
      </trkpt>
      <trkpt lat="48.3453" lon="2.67905">
        <ele>107</ele>
        <time>2021-12-08T11:46:10.272Z</time>
      </trkpt>
      <trkpt lat="48.34527" lon="2.67906">
        <ele>107</ele>
        <time>2021-12-08T11:46:15.260Z</time>
      </trkpt>
      <trkpt lat="48.34523" lon="2.67909">
        <ele>107</ele>
        <time>2021-12-08T11:46:20.262Z</time>
      </trkpt>
      <trkpt lat="48.34519" lon="2.67907">
        <ele>107</ele>
        <time>2021-12-08T11:46:25.257Z</time>
      </trkpt>
      <trkpt lat="48.34515" lon="2.67909">
        <ele>107</ele>
        <time>2021-12-08T11:46:29.261Z</time>
      </trkpt>
      <trkpt lat="48.34511" lon="2.67914">
        <ele>111</ele>
        <time>2021-12-08T11:46:34.255Z</time>
      </trkpt>
      <trkpt lat="48.34507" lon="2.67918">
        <ele>111</ele>
        <time>2021-12-08T11:46:38.258Z</time>
      </trkpt>
      <trkpt lat="48.34507" lon="2.67931">
        <ele>111</ele>
        <time>2021-12-08T11:47:37.256Z</time>
      </trkpt>
      <trkpt lat="48.34511" lon="2.6793">
        <ele>111</ele>
        <time>2021-12-08T11:47:41.260Z</time>
      </trkpt>
      <trkpt lat="48.34513" lon="2.67929">
        <ele>111</ele>
        <time>2021-12-08T11:47:45.257Z</time>
      </trkpt>
      <trkpt lat="48.34516" lon="2.67927">
        <ele>107</ele>
        <time>2021-12-08T11:47:49.260Z</time>
      </trkpt>
      <trkpt lat="48.34519" lon="2.67927">
        <ele>107</ele>
        <time>2021-12-08T11:47:53.262Z</time>
      </trkpt>
      <trkpt lat="48.34522" lon="2.67925">
        <ele>107</ele>
        <time>2021-12-08T11:47:58.261Z</time>
      </trkpt>
      <trkpt lat="48.34525" lon="2.67927">
        <ele>107</ele>
        <time>2021-12-08T11:48:02.259Z</time>
      </trkpt>
      <trkpt lat="48.34528" lon="2.67929">
        <ele>107</ele>
        <time>2021-12-08T11:48:07.262Z</time>
      </trkpt>
      <trkpt lat="48.34531" lon="2.67934">
        <ele>106</ele>
        <time>2021-12-08T11:48:11.264Z</time>
      </trkpt>
      <trkpt lat="48.34537" lon="2.67933">
        <ele>106</ele>
        <time>2021-12-08T11:48:21.251Z</time>
      </trkpt>
      <trkpt lat="48.34538" lon="2.67936">
        <ele>106</ele>
        <time>2021-12-08T11:48:26.253Z</time>
      </trkpt>
      <trkpt lat="48.34537" lon="2.67928">
        <ele>107</ele>
        <time>2021-12-08T11:48:31.249Z</time>
      </trkpt>
      <trkpt lat="48.34536" lon="2.67921">
        <ele>107</ele>
        <time>2021-12-08T11:48:35.258Z</time>
      </trkpt>
      <trkpt lat="48.34537" lon="2.67913">
        <ele>107</ele>
        <time>2021-12-08T11:48:40.251Z</time>
      </trkpt>
      <trkpt lat="48.34534" lon="2.67903">
        <ele>108</ele>
        <time>2021-12-08T11:49:03.250Z</time>
      </trkpt>
      <trkpt lat="48.34534" lon="2.67902">
        <ele>108</ele>
        <time>2021-12-08T11:49:07.251Z</time>
      </trkpt>
      <trkpt lat="48.34536" lon="2.67908">
        <ele>107</ele>
        <time>2021-12-08T11:49:12.251Z</time>
      </trkpt>
      <trkpt lat="48.34535" lon="2.67913">
        <ele>107</ele>
        <time>2021-12-08T11:49:16.260Z</time>
      </trkpt>
      <trkpt lat="48.34539" lon="2.6792">
        <ele>107</ele>
        <time>2021-12-08T11:49:21.256Z</time>
      </trkpt>
      <trkpt lat="48.34542" lon="2.67926">
        <ele>107</ele>
        <time>2021-12-08T11:49:25.266Z</time>
      </trkpt>
      <trkpt lat="48.34543" lon="2.67932">
        <ele>103</ele>
        <time>2021-12-08T11:49:29.257Z</time>
      </trkpt>
      <trkpt lat="48.34542" lon="2.6794">
        <ele>103</ele>
        <time>2021-12-08T11:49:33.280Z</time>
      </trkpt>
      <trkpt lat="48.34543" lon="2.67948">
        <ele>103</ele>
        <time>2021-12-08T11:49:38.253Z</time>
      </trkpt>
      <trkpt lat="48.34545" lon="2.67954">
        <ele>103</ele>
        <time>2021-12-08T11:49:42.261Z</time>
      </trkpt>
      <trkpt lat="48.34545" lon="2.6796">
        <ele>103</ele>
        <time>2021-12-08T11:49:46.253Z</time>
      </trkpt>
      <trkpt lat="48.34546" lon="2.67969">
        <ele>103</ele>
        <time>2021-12-08T11:49:51.261Z</time>
      </trkpt>
      <trkpt lat="48.34548" lon="2.67977">
        <ele>103</ele>
        <time>2021-12-08T11:49:56.255Z</time>
      </trkpt>
      <trkpt lat="48.34549" lon="2.67984">
        <ele>103</ele>
        <time>2021-12-08T11:50:01.250Z</time>
      </trkpt>
      <trkpt lat="48.34551" lon="2.67991">
        <ele>103</ele>
        <time>2021-12-08T11:50:06.254Z</time>
      </trkpt>
      <trkpt lat="48.34553" lon="2.67998">
        <ele>103</ele>
        <time>2021-12-08T11:50:10.256Z</time>
      </trkpt>
      <trkpt lat="48.34557" lon="2.68004">
        <ele>103</ele>
        <time>2021-12-08T11:50:15.257Z</time>
      </trkpt>
      <trkpt lat="48.34561" lon="2.68012">
        <ele>103</ele>
        <time>2021-12-08T11:50:20.265Z</time>
      </trkpt>
      <trkpt lat="48.34563" lon="2.68017">
        <ele>102</ele>
        <time>2021-12-08T11:50:25.261Z</time>
      </trkpt>
      <trkpt lat="48.34565" lon="2.68022">
        <ele>102</ele>
        <time>2021-12-08T11:50:30.257Z</time>
      </trkpt>
      <trkpt lat="48.34569" lon="2.68029">
        <ele>102</ele>
        <time>2021-12-08T11:50:35.261Z</time>
      </trkpt>
      <trkpt lat="48.34572" lon="2.68037">
        <ele>101</ele>
        <time>2021-12-08T11:50:40.254Z</time>
      </trkpt>
      <trkpt lat="48.34574" lon="2.68045">
        <ele>100</ele>
        <time>2021-12-08T11:50:45.264Z</time>
      </trkpt>
      <trkpt lat="48.34574" lon="2.68053">
        <ele>100</ele>
        <time>2021-12-08T11:50:50.262Z</time>
      </trkpt>
      <trkpt lat="48.34575" lon="2.68063">
        <ele>100</ele>
        <time>2021-12-08T11:50:55.261Z</time>
      </trkpt>
      <trkpt lat="48.34574" lon="2.68071">
        <ele>98</ele>
        <time>2021-12-08T11:51:00.261Z</time>
      </trkpt>
      <trkpt lat="48.34574" lon="2.68079">
        <ele>98</ele>
        <time>2021-12-08T11:51:04.270Z</time>
      </trkpt>
      <trkpt lat="48.34573" lon="2.68088">
        <ele>98</ele>
        <time>2021-12-08T11:51:09.259Z</time>
      </trkpt>
      <trkpt lat="48.34572" lon="2.68097">
        <ele>98</ele>
        <time>2021-12-08T11:51:14.265Z</time>
      </trkpt>
      <trkpt lat="48.34571" lon="2.68106">
        <ele>97</ele>
        <time>2021-12-08T11:51:19.260Z</time>
      </trkpt>
      <trkpt lat="48.3457" lon="2.68114">
        <ele>97</ele>
        <time>2021-12-08T11:51:23.261Z</time>
      </trkpt>
      <trkpt lat="48.34569" lon="2.68121">
        <ele>102</ele>
        <time>2021-12-08T11:51:27.270Z</time>
      </trkpt>
      <trkpt lat="48.34568" lon="2.68129">
        <ele>100</ele>
        <time>2021-12-08T11:51:32.264Z</time>
      </trkpt>
      <trkpt lat="48.34568" lon="2.68138">
        <ele>100</ele>
        <time>2021-12-08T11:51:37.256Z</time>
      </trkpt>
      <trkpt lat="48.34566" lon="2.68146">
        <ele>100</ele>
        <time>2021-12-08T11:51:41.263Z</time>
      </trkpt>
      <trkpt lat="48.34565" lon="2.68156">
        <ele>98</ele>
        <time>2021-12-08T11:51:46.261Z</time>
      </trkpt>
      <trkpt lat="48.34563" lon="2.68163">
        <ele>98</ele>
        <time>2021-12-08T11:51:50.256Z</time>
      </trkpt>
      <trkpt lat="48.34561" lon="2.68175">
        <ele>98</ele>
        <time>2021-12-08T11:51:55.255Z</time>
      </trkpt>
      <trkpt lat="48.3456" lon="2.68184">
        <ele>96</ele>
        <time>2021-12-08T11:51:59.264Z</time>
      </trkpt>
      <trkpt lat="48.34558" lon="2.68193">
        <ele>96</ele>
        <time>2021-12-08T11:52:04.268Z</time>
      </trkpt>
      <trkpt lat="48.34559" lon="2.68202">
        <ele>96</ele>
        <time>2021-12-08T11:52:08.270Z</time>
      </trkpt>
      <trkpt lat="48.34558" lon="2.68217">
        <ele>95</ele>
        <time>2021-12-08T11:52:13.255Z</time>
      </trkpt>
      <trkpt lat="48.34559" lon="2.68229">
        <ele>95</ele>
        <time>2021-12-08T11:52:18.263Z</time>
      </trkpt>
      <trkpt lat="48.34559" lon="2.68239">
        <ele>94</ele>
        <time>2021-12-08T11:52:23.251Z</time>
      </trkpt>
      <trkpt lat="48.3456" lon="2.68248">
        <ele>94</ele>
        <time>2021-12-08T11:52:27.254Z</time>
      </trkpt>
      <trkpt lat="48.34559" lon="2.68261">
        <ele>94</ele>
        <time>2021-12-08T11:52:32.267Z</time>
      </trkpt>
      <trkpt lat="48.34558" lon="2.68273">
        <ele>94</ele>
        <time>2021-12-08T11:52:36.268Z</time>
      </trkpt>
      <trkpt lat="48.34559" lon="2.68284">
        <ele>94</ele>
        <time>2021-12-08T11:52:41.275Z</time>
      </trkpt>
      <trkpt lat="48.3456" lon="2.68294">
        <ele>94</ele>
        <time>2021-12-08T11:52:46.263Z</time>
      </trkpt>
      <trkpt lat="48.3456" lon="2.68306">
        <ele>94</ele>
        <time>2021-12-08T11:52:51.250Z</time>
      </trkpt>
      <trkpt lat="48.3456" lon="2.68314">
        <ele>94</ele>
        <time>2021-12-08T11:52:55.256Z</time>
      </trkpt>
      <trkpt lat="48.34562" lon="2.68325">
        <ele>95</ele>
        <time>2021-12-08T11:53:00.251Z</time>
      </trkpt>
      <trkpt lat="48.34562" lon="2.68333">
        <ele>95</ele>
        <time>2021-12-08T11:53:04.254Z</time>
      </trkpt>
      <trkpt lat="48.34563" lon="2.68338">
        <ele>95</ele>
        <time>2021-12-08T11:53:09.256Z</time>
      </trkpt>
      <trkpt lat="48.34564" lon="2.68336">
        <ele>95</ele>
        <time>2021-12-08T11:53:14.279Z</time>
      </trkpt>
      <trkpt lat="48.34564" lon="2.68326">
        <ele>95</ele>
        <time>2021-12-08T11:53:19.264Z</time>
      </trkpt>
      <trkpt lat="48.34562" lon="2.68318">
        <ele>94</ele>
        <time>2021-12-08T11:53:24.259Z</time>
      </trkpt>
      <trkpt lat="48.34564" lon="2.68315">
        <ele>94</ele>
        <time>2021-12-08T11:54:33.264Z</time>
      </trkpt>
      <trkpt lat="48.34564" lon="2.68323">
        <ele>95</ele>
        <time>2021-12-08T11:54:38.259Z</time>
      </trkpt>
      <trkpt lat="48.34564" lon="2.68331">
        <ele>95</ele>
        <time>2021-12-08T11:54:43.266Z</time>
      </trkpt>
      <trkpt lat="48.34563" lon="2.68335">
        <ele>95</ele>
        <time>2021-12-08T11:54:47.262Z</time>
      </trkpt>
      <trkpt lat="48.34565" lon="2.68337">
        <ele>95</ele>
        <time>2021-12-08T11:54:52.267Z</time>
      </trkpt>
      <trkpt lat="48.34561" lon="2.68345">
        <ele>95</ele>
        <time>2021-12-08T11:55:50.260Z</time>
      </trkpt>
      <trkpt lat="48.34561" lon="2.68345">
        <ele>95</ele>
        <time>2021-12-08T11:55:54.260Z</time>
      </trkpt>
      <trkpt lat="48.34561" lon="2.68347">
        <ele>95</ele>
        <time>2021-12-08T11:55:59.253Z</time>
      </trkpt>
      <trkpt lat="48.34563" lon="2.68353">
        <ele>96</ele>
        <time>2021-12-08T11:56:03.254Z</time>
      </trkpt>
      <trkpt lat="48.34561" lon="2.68357">
        <ele>96</ele>
        <time>2021-12-08T11:56:07.252Z</time>
      </trkpt>
      <trkpt lat="48.34562" lon="2.68362">
        <ele>96</ele>
        <time>2021-12-08T11:56:21.258Z</time>
      </trkpt>
      <trkpt lat="48.34558" lon="2.68362">
        <ele>96</ele>
        <time>2021-12-08T11:56:26.258Z</time>
      </trkpt>
      <trkpt lat="48.34555" lon="2.68367">
        <ele>96</ele>
        <time>2021-12-08T11:56:31.270Z</time>
      </trkpt>
      <trkpt lat="48.34553" lon="2.68376">
        <ele>97</ele>
        <time>2021-12-08T11:56:36.261Z</time>
      </trkpt>
      <trkpt lat="48.34551" lon="2.68384">
        <ele>97</ele>
        <time>2021-12-08T11:56:40.264Z</time>
      </trkpt>
      <trkpt lat="48.34548" lon="2.68389">
        <ele>97</ele>
        <time>2021-12-08T11:56:45.264Z</time>
      </trkpt>
      <trkpt lat="48.34545" lon="2.68393">
        <ele>97</ele>
        <time>2021-12-08T11:56:50.261Z</time>
      </trkpt>
      <trkpt lat="48.34544" lon="2.68398">
        <ele>97</ele>
        <time>2021-12-08T11:56:55.258Z</time>
      </trkpt>
      <trkpt lat="48.34541" lon="2.684">
        <ele>95</ele>
        <time>2021-12-08T11:56:59.261Z</time>
      </trkpt>
      <trkpt lat="48.34537" lon="2.68404">
        <ele>94</ele>
        <time>2021-12-08T11:57:04.252Z</time>
      </trkpt>
      <trkpt lat="48.34534" lon="2.68408">
        <ele>94</ele>
        <time>2021-12-08T11:57:09.257Z</time>
      </trkpt>
      <trkpt lat="48.34533" lon="2.68414">
        <ele>94</ele>
        <time>2021-12-08T11:57:14.261Z</time>
      </trkpt>
      <trkpt lat="48.34531" lon="2.68417">
        <ele>94</ele>
        <time>2021-12-08T11:57:18.268Z</time>
      </trkpt>
      <trkpt lat="48.34528" lon="2.68423">
        <ele>94</ele>
        <time>2021-12-08T11:57:23.256Z</time>
      </trkpt>
      <trkpt lat="48.34526" lon="2.68429">
        <ele>94</ele>
        <time>2021-12-08T11:57:27.262Z</time>
      </trkpt>
      <trkpt lat="48.34523" lon="2.68437">
        <ele>93</ele>
        <time>2021-12-08T11:57:32.261Z</time>
      </trkpt>
      <trkpt lat="48.34521" lon="2.68443">
        <ele>93</ele>
        <time>2021-12-08T11:57:36.268Z</time>
      </trkpt>
      <trkpt lat="48.34518" lon="2.6845">
        <ele>93</ele>
        <time>2021-12-08T11:57:41.262Z</time>
      </trkpt>
      <trkpt lat="48.34515" lon="2.68458">
        <ele>93</ele>
        <time>2021-12-08T11:57:46.251Z</time>
      </trkpt>
      <trkpt lat="48.34512" lon="2.68467">
        <ele>90</ele>
        <time>2021-12-08T11:57:50.261Z</time>
      </trkpt>
      <trkpt lat="48.3451" lon="2.68476">
        <ele>90</ele>
        <time>2021-12-08T11:57:55.252Z</time>
      </trkpt>
      <trkpt lat="48.34508" lon="2.68484">
        <ele>90</ele>
        <time>2021-12-08T11:57:59.263Z</time>
      </trkpt>
      <trkpt lat="48.34505" lon="2.68493">
        <ele>90</ele>
        <time>2021-12-08T11:58:04.263Z</time>
      </trkpt>
      <trkpt lat="48.34502" lon="2.68504">
        <ele>90</ele>
        <time>2021-12-08T11:58:09.264Z</time>
      </trkpt>
      <trkpt lat="48.34499" lon="2.68513">
        <ele>90</ele>
        <time>2021-12-08T11:58:14.244Z</time>
      </trkpt>
      <trkpt lat="48.34497" lon="2.68521">
        <ele>88</ele>
        <time>2021-12-08T11:58:18.257Z</time>
      </trkpt>
      <trkpt lat="48.34495" lon="2.68531">
        <ele>88</ele>
        <time>2021-12-08T11:58:23.256Z</time>
      </trkpt>
      <trkpt lat="48.34493" lon="2.68539">
        <ele>88</ele>
        <time>2021-12-08T11:58:27.266Z</time>
      </trkpt>
      <trkpt lat="48.34489" lon="2.68549">
        <ele>87</ele>
        <time>2021-12-08T11:58:32.259Z</time>
      </trkpt>
      <trkpt lat="48.34486" lon="2.6856">
        <ele>90</ele>
        <time>2021-12-08T11:58:37.261Z</time>
      </trkpt>
      <trkpt lat="48.34483" lon="2.6857">
        <ele>89</ele>
        <time>2021-12-08T11:58:42.307Z</time>
      </trkpt>
      <trkpt lat="48.34479" lon="2.6858">
        <ele>89</ele>
        <time>2021-12-08T11:58:47.253Z</time>
      </trkpt>
      <trkpt lat="48.34477" lon="2.68589">
        <ele>89</ele>
        <time>2021-12-08T11:58:52.262Z</time>
      </trkpt>
      <trkpt lat="48.34474" lon="2.68598">
        <ele>87</ele>
        <time>2021-12-08T11:58:57.256Z</time>
      </trkpt>
      <trkpt lat="48.34472" lon="2.68608">
        <ele>87</ele>
        <time>2021-12-08T11:59:02.259Z</time>
      </trkpt>
      <trkpt lat="48.34468" lon="2.68618">
        <ele>87</ele>
        <time>2021-12-08T11:59:07.254Z</time>
      </trkpt>
      <trkpt lat="48.34465" lon="2.68627">
        <ele>86</ele>
        <time>2021-12-08T11:59:12.274Z</time>
      </trkpt>
      <trkpt lat="48.34463" lon="2.68634">
        <ele>86</ele>
        <time>2021-12-08T11:59:17.253Z</time>
      </trkpt>
      <trkpt lat="48.34461" lon="2.68641">
        <ele>86</ele>
        <time>2021-12-08T11:59:21.252Z</time>
      </trkpt>
      <trkpt lat="48.34459" lon="2.6865">
        <ele>86</ele>
        <time>2021-12-08T11:59:26.273Z</time>
      </trkpt>
      <trkpt lat="48.34456" lon="2.68659">
        <ele>86</ele>
        <time>2021-12-08T11:59:31.260Z</time>
      </trkpt>
      <trkpt lat="48.34453" lon="2.68666">
        <ele>86</ele>
        <time>2021-12-08T11:59:36.269Z</time>
      </trkpt>
      <trkpt lat="48.3445" lon="2.68673">
        <ele>86</ele>
        <time>2021-12-08T11:59:41.253Z</time>
      </trkpt>
      <trkpt lat="48.34448" lon="2.68682">
        <ele>85</ele>
        <time>2021-12-08T11:59:46.260Z</time>
      </trkpt>
      <trkpt lat="48.34445" lon="2.68688">
        <ele>85</ele>
        <time>2021-12-08T11:59:50.260Z</time>
      </trkpt>
      <trkpt lat="48.34442" lon="2.68697">
        <ele>85</ele>
        <time>2021-12-08T11:59:55.260Z</time>
      </trkpt>
      <trkpt lat="48.34439" lon="2.68707">
        <ele>85</ele>
        <time>2021-12-08T12:00:00.258Z</time>
      </trkpt>
      <trkpt lat="48.34437" lon="2.68717">
        <ele>85</ele>
        <time>2021-12-08T12:00:05.260Z</time>
      </trkpt>
      <trkpt lat="48.34435" lon="2.68727">
        <ele>85</ele>
        <time>2021-12-08T12:00:10.265Z</time>
      </trkpt>
      <trkpt lat="48.34432" lon="2.68738">
        <ele>84</ele>
        <time>2021-12-08T12:00:15.260Z</time>
      </trkpt>
      <trkpt lat="48.3443" lon="2.68746">
        <ele>85</ele>
        <time>2021-12-08T12:00:19.273Z</time>
      </trkpt>
      <trkpt lat="48.34428" lon="2.68756">
        <ele>85</ele>
        <time>2021-12-08T12:00:24.259Z</time>
      </trkpt>
      <trkpt lat="48.34425" lon="2.68763">
        <ele>85</ele>
        <time>2021-12-08T12:00:29.263Z</time>
      </trkpt>
      <trkpt lat="48.34422" lon="2.68772">
        <ele>85</ele>
        <time>2021-12-08T12:00:34.270Z</time>
      </trkpt>
      <trkpt lat="48.34419" lon="2.6878">
        <ele>85</ele>
        <time>2021-12-08T12:00:39.252Z</time>
      </trkpt>
      <trkpt lat="48.34416" lon="2.68787">
        <ele>85</ele>
        <time>2021-12-08T12:00:43.262Z</time>
      </trkpt>
      <trkpt lat="48.34414" lon="2.68796">
        <ele>85</ele>
        <time>2021-12-08T12:00:48.258Z</time>
      </trkpt>
      <trkpt lat="48.34412" lon="2.68804">
        <ele>85</ele>
        <time>2021-12-08T12:00:53.265Z</time>
      </trkpt>
      <trkpt lat="48.34409" lon="2.68812">
        <ele>85</ele>
        <time>2021-12-08T12:00:58.258Z</time>
      </trkpt>
      <trkpt lat="48.34405" lon="2.68823">
        <ele>85</ele>
        <time>2021-12-08T12:01:03.260Z</time>
      </trkpt>
      <trkpt lat="48.34402" lon="2.68829">
        <ele>88</ele>
        <time>2021-12-08T12:01:08.262Z</time>
      </trkpt>
      <trkpt lat="48.34394" lon="2.68841">
        <ele>88</ele>
        <time>2021-12-08T12:01:18.252Z</time>
      </trkpt>
      <trkpt lat="48.34394" lon="2.68844">
        <ele>88</ele>
        <time>2021-12-08T12:01:23.244Z</time>
      </trkpt>
      <trkpt lat="48.34394" lon="2.68845">
        <ele>88</ele>
        <time>2021-12-08T12:01:27.263Z</time>
      </trkpt>
      <trkpt lat="48.34395" lon="2.68848">
        <ele>87</ele>
        <time>2021-12-08T12:01:32.285Z</time>
      </trkpt>
      <trkpt lat="48.34395" lon="2.68849">
        <ele>87</ele>
        <time>2021-12-08T12:01:37.253Z</time>
      </trkpt>
      <trkpt lat="48.34395" lon="2.68852">
        <ele>87</ele>
        <time>2021-12-08T12:01:51.280Z</time>
      </trkpt>
      <trkpt lat="48.34395" lon="2.68853">
        <ele>87</ele>
        <time>2021-12-08T12:01:56.257Z</time>
      </trkpt>
      <trkpt lat="48.34395" lon="2.68853">
        <ele>87</ele>
        <time>2021-12-08T12:02:01.251Z</time>
      </trkpt>
      <trkpt lat="48.34395" lon="2.68853">
        <ele>87</ele>
        <time>2021-12-08T12:02:05.254Z</time>
      </trkpt>
      <trkpt lat="48.34392" lon="2.68864">
        <ele>87</ele>
        <time>2021-12-08T12:02:10.248Z</time>
      </trkpt>
      <trkpt lat="48.3439" lon="2.68871">
        <ele>87</ele>
        <time>2021-12-08T12:02:15.257Z</time>
      </trkpt>
      <trkpt lat="48.3439" lon="2.68874">
        <ele>87</ele>
        <time>2021-12-08T12:02:19.247Z</time>
      </trkpt>
      <trkpt lat="48.3439" lon="2.68876">
        <ele>85</ele>
        <time>2021-12-08T12:02:24.250Z</time>
      </trkpt>
      <trkpt lat="48.34387" lon="2.68883">
        <ele>85</ele>
        <time>2021-12-08T12:02:29.256Z</time>
      </trkpt>
      <trkpt lat="48.34389" lon="2.6889">
        <ele>85</ele>
        <time>2021-12-08T12:02:34.249Z</time>
      </trkpt>
      <trkpt lat="48.34388" lon="2.68894">
        <ele>85</ele>
        <time>2021-12-08T12:02:38.256Z</time>
      </trkpt>
      <trkpt lat="48.34387" lon="2.689">
        <ele>85</ele>
        <time>2021-12-08T12:02:42.253Z</time>
      </trkpt>
      <trkpt lat="48.34386" lon="2.68905">
        <ele>85</ele>
        <time>2021-12-08T12:02:47.248Z</time>
      </trkpt>
      <trkpt lat="48.34384" lon="2.6891">
        <ele>85</ele>
        <time>2021-12-08T12:02:51.263Z</time>
      </trkpt>
      <trkpt lat="48.34379" lon="2.6892">
        <ele>85</ele>
        <time>2021-12-08T12:02:56.268Z</time>
      </trkpt>
      <trkpt lat="48.34376" lon="2.6893">
        <ele>85</ele>
        <time>2021-12-08T12:03:01.255Z</time>
      </trkpt>
      <trkpt lat="48.34374" lon="2.68939">
        <ele>85</ele>
        <time>2021-12-08T12:03:06.259Z</time>
      </trkpt>
      <trkpt lat="48.34371" lon="2.68947">
        <ele>85</ele>
        <time>2021-12-08T12:03:11.264Z</time>
      </trkpt>
      <trkpt lat="48.34369" lon="2.68955">
        <ele>85</ele>
        <time>2021-12-08T12:03:16.277Z</time>
      </trkpt>
      <trkpt lat="48.34367" lon="2.68961">
        <ele>84</ele>
        <time>2021-12-08T12:03:20.298Z</time>
      </trkpt>
      <trkpt lat="48.34365" lon="2.68966">
        <ele>84</ele>
        <time>2021-12-08T12:03:25.256Z</time>
      </trkpt>
      <trkpt lat="48.34364" lon="2.68973">
        <ele>84</ele>
        <time>2021-12-08T12:03:29.266Z</time>
      </trkpt>
      <trkpt lat="48.34361" lon="2.68982">
        <ele>84</ele>
        <time>2021-12-08T12:03:34.294Z</time>
      </trkpt>
      <trkpt lat="48.34358" lon="2.68991">
        <ele>82</ele>
        <time>2021-12-08T12:03:39.258Z</time>
      </trkpt>
      <trkpt lat="48.34355" lon="2.69001">
        <ele>82</ele>
        <time>2021-12-08T12:03:44.253Z</time>
      </trkpt>
      <trkpt lat="48.34352" lon="2.69007">
        <ele>82</ele>
        <time>2021-12-08T12:03:48.260Z</time>
      </trkpt>
      <trkpt lat="48.34349" lon="2.69016">
        <ele>80</ele>
        <time>2021-12-08T12:03:53.251Z</time>
      </trkpt>
      <trkpt lat="48.34347" lon="2.69023">
        <ele>81</ele>
        <time>2021-12-08T12:03:58.260Z</time>
      </trkpt>
      <trkpt lat="48.34345" lon="2.69029">
        <ele>81</ele>
        <time>2021-12-08T12:04:02.259Z</time>
      </trkpt>
      <trkpt lat="48.34342" lon="2.69036">
        <ele>81</ele>
        <time>2021-12-08T12:04:07.270Z</time>
      </trkpt>
      <trkpt lat="48.34341" lon="2.69045">
        <ele>79</ele>
        <time>2021-12-08T12:04:12.252Z</time>
      </trkpt>
      <trkpt lat="48.34335" lon="2.69053">
        <ele>79</ele>
        <time>2021-12-08T12:04:17.262Z</time>
      </trkpt>
      <trkpt lat="48.34332" lon="2.69061">
        <ele>79</ele>
        <time>2021-12-08T12:04:22.251Z</time>
      </trkpt>
      <trkpt lat="48.34329" lon="2.6907">
        <ele>79</ele>
        <time>2021-12-08T12:04:27.258Z</time>
      </trkpt>
      <trkpt lat="48.34327" lon="2.69077">
        <ele>79</ele>
        <time>2021-12-08T12:04:31.261Z</time>
      </trkpt>
      <trkpt lat="48.34325" lon="2.69084">
        <ele>79</ele>
        <time>2021-12-08T12:04:35.272Z</time>
      </trkpt>
      <trkpt lat="48.34324" lon="2.69094">
        <ele>79</ele>
        <time>2021-12-08T12:04:40.248Z</time>
      </trkpt>
      <trkpt lat="48.34322" lon="2.69101">
        <ele>80</ele>
        <time>2021-12-08T12:04:44.256Z</time>
      </trkpt>
      <trkpt lat="48.34318" lon="2.69111">
        <ele>77</ele>
        <time>2021-12-08T12:04:49.247Z</time>
      </trkpt>
      <trkpt lat="48.34316" lon="2.69118">
        <ele>77</ele>
        <time>2021-12-08T12:04:53.259Z</time>
      </trkpt>
      <trkpt lat="48.34313" lon="2.69127">
        <ele>77</ele>
        <time>2021-12-08T12:04:58.253Z</time>
      </trkpt>
      <trkpt lat="48.34311" lon="2.69136">
        <ele>77</ele>
        <time>2021-12-08T12:05:03.249Z</time>
      </trkpt>
      <trkpt lat="48.34309" lon="2.69146">
        <ele>77</ele>
        <time>2021-12-08T12:05:08.257Z</time>
      </trkpt>
      <trkpt lat="48.34307" lon="2.69155">
        <ele>77</ele>
        <time>2021-12-08T12:05:13.266Z</time>
      </trkpt>
      <trkpt lat="48.34306" lon="2.69162">
        <ele>77</ele>
        <time>2021-12-08T12:05:17.281Z</time>
      </trkpt>
      <trkpt lat="48.34304" lon="2.6917">
        <ele>77</ele>
        <time>2021-12-08T12:05:22.259Z</time>
      </trkpt>
      <trkpt lat="48.34302" lon="2.69176">
        <ele>77</ele>
        <time>2021-12-08T12:05:26.262Z</time>
      </trkpt>
      <trkpt lat="48.343" lon="2.69184">
        <ele>77</ele>
        <time>2021-12-08T12:05:30.286Z</time>
      </trkpt>
      <trkpt lat="48.34297" lon="2.69191">
        <ele>77</ele>
        <time>2021-12-08T12:05:35.261Z</time>
      </trkpt>
      <trkpt lat="48.34293" lon="2.69198">
        <ele>77</ele>
        <time>2021-12-08T12:05:40.244Z</time>
      </trkpt>
      <trkpt lat="48.3429" lon="2.69205">
        <ele>74</ele>
        <time>2021-12-08T12:05:45.245Z</time>
      </trkpt>
      <trkpt lat="48.34288" lon="2.69211">
        <ele>74</ele>
        <time>2021-12-08T12:05:49.250Z</time>
      </trkpt>
      <trkpt lat="48.34285" lon="2.69216">
        <ele>74</ele>
        <time>2021-12-08T12:05:54.287Z</time>
      </trkpt>
      <trkpt lat="48.34282" lon="2.69225">
        <ele>74</ele>
        <time>2021-12-08T12:05:59.253Z</time>
      </trkpt>
      <trkpt lat="48.34278" lon="2.69234">
        <ele>74</ele>
        <time>2021-12-08T12:06:04.262Z</time>
      </trkpt>
      <trkpt lat="48.34277" lon="2.6924">
        <ele>74</ele>
        <time>2021-12-08T12:06:09.253Z</time>
      </trkpt>
      <trkpt lat="48.34274" lon="2.69242">
        <ele>74</ele>
        <time>2021-12-08T12:06:13.268Z</time>
      </trkpt>
      <trkpt lat="48.34269" lon="2.69243">
        <ele>74</ele>
        <time>2021-12-08T12:06:18.253Z</time>
      </trkpt>
      <trkpt lat="48.34266" lon="2.69242">
        <ele>74</ele>
        <time>2021-12-08T12:06:22.256Z</time>
      </trkpt>
      <trkpt lat="48.34261" lon="2.69239">
        <ele>73</ele>
        <time>2021-12-08T12:06:27.260Z</time>
      </trkpt>
      <trkpt lat="48.34255" lon="2.69237">
        <ele>73</ele>
        <time>2021-12-08T12:06:32.271Z</time>
      </trkpt>
      <trkpt lat="48.3425" lon="2.69235">
        <ele>74</ele>
        <time>2021-12-08T12:06:37.253Z</time>
      </trkpt>
      <trkpt lat="48.34246" lon="2.69233">
        <ele>74</ele>
        <time>2021-12-08T12:06:42.251Z</time>
      </trkpt>
      <trkpt lat="48.34241" lon="2.69231">
        <ele>74</ele>
        <time>2021-12-08T12:06:47.256Z</time>
      </trkpt>
      <trkpt lat="48.34236" lon="2.69231">
        <ele>74</ele>
        <time>2021-12-08T12:06:52.260Z</time>
      </trkpt>
      <trkpt lat="48.34231" lon="2.69227">
        <ele>74</ele>
        <time>2021-12-08T12:06:57.264Z</time>
      </trkpt>
      <trkpt lat="48.34225" lon="2.69225">
        <ele>74</ele>
        <time>2021-12-08T12:07:02.255Z</time>
      </trkpt>
      <trkpt lat="48.34218" lon="2.69224">
        <ele>74</ele>
        <time>2021-12-08T12:07:07.262Z</time>
      </trkpt>
      <trkpt lat="48.34212" lon="2.69222">
        <ele>74</ele>
        <time>2021-12-08T12:07:12.255Z</time>
      </trkpt>
      <trkpt lat="48.34207" lon="2.6922">
        <ele>76</ele>
        <time>2021-12-08T12:07:17.260Z</time>
      </trkpt>
      <trkpt lat="48.342" lon="2.69219">
        <ele>76</ele>
        <time>2021-12-08T12:07:22.257Z</time>
      </trkpt>
      <trkpt lat="48.34194" lon="2.69216">
        <ele>76</ele>
        <time>2021-12-08T12:07:27.258Z</time>
      </trkpt>
      <trkpt lat="48.34188" lon="2.69214">
        <ele>76</ele>
        <time>2021-12-08T12:07:32.257Z</time>
      </trkpt>
      <trkpt lat="48.34182" lon="2.69212">
        <ele>76</ele>
        <time>2021-12-08T12:07:37.280Z</time>
      </trkpt>
      <trkpt lat="48.34177" lon="2.69211">
        <ele>77</ele>
        <time>2021-12-08T12:07:42.264Z</time>
      </trkpt>
      <trkpt lat="48.34176" lon="2.69218">
        <ele>77</ele>
        <time>2021-12-08T12:07:47.253Z</time>
      </trkpt>
      <trkpt lat="48.34172" lon="2.69225">
        <ele>77</ele>
        <time>2021-12-08T12:07:52.268Z</time>
      </trkpt>
      <trkpt lat="48.34168" lon="2.69226">
        <ele>77</ele>
        <time>2021-12-08T12:07:57.258Z</time>
      </trkpt>
      <trkpt lat="48.34167" lon="2.69226">
        <ele>77</ele>
        <time>2021-12-08T12:08:01.274Z</time>
      </trkpt>
      <trkpt lat="48.34165" lon="2.6923">
        <ele>77</ele>
        <time>2021-12-08T12:08:06.260Z</time>
      </trkpt>
      <trkpt lat="48.34165" lon="2.69237">
        <ele>78</ele>
        <time>2021-12-08T12:08:10.264Z</time>
      </trkpt>
      <trkpt lat="48.3417" lon="2.69241">
        <ele>78</ele>
        <time>2021-12-08T12:08:15.265Z</time>
      </trkpt>
      <trkpt lat="48.34175" lon="2.69244">
        <ele>78</ele>
        <time>2021-12-08T12:08:20.255Z</time>
      </trkpt>
      <trkpt lat="48.34181" lon="2.69246">
        <ele>76</ele>
        <time>2021-12-08T12:08:25.268Z</time>
      </trkpt>
      <trkpt lat="48.34187" lon="2.69248">
        <ele>76</ele>
        <time>2021-12-08T12:08:30.279Z</time>
      </trkpt>
      <trkpt lat="48.34193" lon="2.6925">
        <ele>76</ele>
        <time>2021-12-08T12:08:35.254Z</time>
      </trkpt>
      <trkpt lat="48.34199" lon="2.69252">
        <ele>76</ele>
        <time>2021-12-08T12:08:40.253Z</time>
      </trkpt>
      <trkpt lat="48.34203" lon="2.69253">
        <ele>76</ele>
        <time>2021-12-08T12:08:44.265Z</time>
      </trkpt>
      <trkpt lat="48.34207" lon="2.69255">
        <ele>76</ele>
        <time>2021-12-08T12:08:48.276Z</time>
      </trkpt>
      <trkpt lat="48.34213" lon="2.69256">
        <ele>74</ele>
        <time>2021-12-08T12:08:53.262Z</time>
      </trkpt>
      <trkpt lat="48.34219" lon="2.69258">
        <ele>74</ele>
        <time>2021-12-08T12:08:58.271Z</time>
      </trkpt>
      <trkpt lat="48.34225" lon="2.69253">
        <ele>74</ele>
        <time>2021-12-08T12:09:03.266Z</time>
      </trkpt>
      <trkpt lat="48.3423" lon="2.69258">
        <ele>74</ele>
        <time>2021-12-08T12:09:08.280Z</time>
      </trkpt>
      <trkpt lat="48.34235" lon="2.69261">
        <ele>74</ele>
        <time>2021-12-08T12:09:13.261Z</time>
      </trkpt>
      <trkpt lat="48.34241" lon="2.69264">
        <ele>73</ele>
        <time>2021-12-08T12:09:18.266Z</time>
      </trkpt>
      <trkpt lat="48.34246" lon="2.69267">
        <ele>73</ele>
        <time>2021-12-08T12:09:23.270Z</time>
      </trkpt>
      <trkpt lat="48.34252" lon="2.69269">
        <ele>73</ele>
        <time>2021-12-08T12:09:28.259Z</time>
      </trkpt>
      <trkpt lat="48.34258" lon="2.69271">
        <ele>73</ele>
        <time>2021-12-08T12:09:33.279Z</time>
      </trkpt>
      <trkpt lat="48.34262" lon="2.69278">
        <ele>73</ele>
        <time>2021-12-08T12:09:38.259Z</time>
      </trkpt>
      <trkpt lat="48.34264" lon="2.69286">
        <ele>73</ele>
        <time>2021-12-08T12:09:43.263Z</time>
      </trkpt>
      <trkpt lat="48.34267" lon="2.69292">
        <ele>74</ele>
        <time>2021-12-08T12:09:48.250Z</time>
      </trkpt>
      <trkpt lat="48.34269" lon="2.69301">
        <ele>74</ele>
        <time>2021-12-08T12:09:52.259Z</time>
      </trkpt>
      <trkpt lat="48.34269" lon="2.69313">
        <ele>74</ele>
        <time>2021-12-08T12:09:57.250Z</time>
      </trkpt>
      <trkpt lat="48.34271" lon="2.69322">
        <ele>73</ele>
        <time>2021-12-08T12:10:02.247Z</time>
      </trkpt>
      <trkpt lat="48.34273" lon="2.69325">
        <ele>73</ele>
        <time>2021-12-08T12:10:06.249Z</time>
      </trkpt>
      <trkpt lat="48.34275" lon="2.69334">
        <ele>73</ele>
        <time>2021-12-08T12:10:11.251Z</time>
      </trkpt>
      <trkpt lat="48.34277" lon="2.69346">
        <ele>73</ele>
        <time>2021-12-08T12:10:16.252Z</time>
      </trkpt>
      <trkpt lat="48.34279" lon="2.69357">
        <ele>72</ele>
        <time>2021-12-08T12:10:21.250Z</time>
      </trkpt>
      <trkpt lat="48.34281" lon="2.69366">
        <ele>72</ele>
        <time>2021-12-08T12:10:26.259Z</time>
      </trkpt>
      <trkpt lat="48.34283" lon="2.69375">
        <ele>71</ele>
        <time>2021-12-08T12:10:31.247Z</time>
      </trkpt>
      <trkpt lat="48.34284" lon="2.69386">
        <ele>71</ele>
        <time>2021-12-08T12:10:35.252Z</time>
      </trkpt>
      <trkpt lat="48.34283" lon="2.69397">
        <ele>71</ele>
        <time>2021-12-08T12:10:40.252Z</time>
      </trkpt>
      <trkpt lat="48.34284" lon="2.69406">
        <ele>73</ele>
        <time>2021-12-08T12:10:45.255Z</time>
      </trkpt>
      <trkpt lat="48.34285" lon="2.69416">
        <ele>73</ele>
        <time>2021-12-08T12:10:50.252Z</time>
      </trkpt>
      <trkpt lat="48.34286" lon="2.69425">
        <ele>73</ele>
        <time>2021-12-08T12:10:55.251Z</time>
      </trkpt>
      <trkpt lat="48.34288" lon="2.69436">
        <ele>75</ele>
        <time>2021-12-08T12:11:00.250Z</time>
      </trkpt>
      <trkpt lat="48.3429" lon="2.69445">
        <ele>75</ele>
        <time>2021-12-08T12:11:05.254Z</time>
      </trkpt>
      <trkpt lat="48.34292" lon="2.69455">
        <ele>74</ele>
        <time>2021-12-08T12:11:10.250Z</time>
      </trkpt>
      <trkpt lat="48.34293" lon="2.69463">
        <ele>75</ele>
        <time>2021-12-08T12:11:14.249Z</time>
      </trkpt>
      <trkpt lat="48.34294" lon="2.69473">
        <ele>75</ele>
        <time>2021-12-08T12:11:19.248Z</time>
      </trkpt>
      <trkpt lat="48.34296" lon="2.69481">
        <ele>75</ele>
        <time>2021-12-08T12:11:23.258Z</time>
      </trkpt>
      <trkpt lat="48.34297" lon="2.69489">
        <ele>75</ele>
        <time>2021-12-08T12:11:27.268Z</time>
      </trkpt>
      <trkpt lat="48.34299" lon="2.69499">
        <ele>75</ele>
        <time>2021-12-08T12:11:32.255Z</time>
      </trkpt>
      <trkpt lat="48.343" lon="2.69509">
        <ele>75</ele>
        <time>2021-12-08T12:11:37.248Z</time>
      </trkpt>
      <trkpt lat="48.34301" lon="2.69517">
        <ele>75</ele>
        <time>2021-12-08T12:11:41.267Z</time>
      </trkpt>
      <trkpt lat="48.34302" lon="2.69527">
        <ele>75</ele>
        <time>2021-12-08T12:11:46.251Z</time>
      </trkpt>
      <trkpt lat="48.34304" lon="2.69535">
        <ele>75</ele>
        <time>2021-12-08T12:11:50.254Z</time>
      </trkpt>
      <trkpt lat="48.34306" lon="2.69544">
        <ele>75</ele>
        <time>2021-12-08T12:11:55.249Z</time>
      </trkpt>
      <trkpt lat="48.34306" lon="2.69552">
        <ele>75</ele>
        <time>2021-12-08T12:11:59.261Z</time>
      </trkpt>
      <trkpt lat="48.34307" lon="2.69562">
        <ele>75</ele>
        <time>2021-12-08T12:12:04.250Z</time>
      </trkpt>
      <trkpt lat="48.34308" lon="2.6957">
        <ele>76</ele>
        <time>2021-12-08T12:12:08.266Z</time>
      </trkpt>
      <trkpt lat="48.34309" lon="2.69579">
        <ele>76</ele>
        <time>2021-12-08T12:12:13.284Z</time>
      </trkpt>
      <trkpt lat="48.3431" lon="2.69588">
        <ele>76</ele>
        <time>2021-12-08T12:12:18.266Z</time>
      </trkpt>
      <trkpt lat="48.34311" lon="2.69595">
        <ele>76</ele>
        <time>2021-12-08T12:12:22.276Z</time>
      </trkpt>
      <trkpt lat="48.34311" lon="2.69601">
        <ele>76</ele>
        <time>2021-12-08T12:12:27.249Z</time>
      </trkpt>
      <trkpt lat="48.3431" lon="2.69607">
        <ele>76</ele>
        <time>2021-12-08T12:12:32.263Z</time>
      </trkpt>
      <trkpt lat="48.34306" lon="2.69613">
        <ele>76</ele>
        <time>2021-12-08T12:12:37.256Z</time>
      </trkpt>
      <trkpt lat="48.34303" lon="2.69616">
        <ele>76</ele>
        <time>2021-12-08T12:12:42.256Z</time>
      </trkpt>
      <trkpt lat="48.34299" lon="2.69618">
        <ele>76</ele>
        <time>2021-12-08T12:12:46.252Z</time>
      </trkpt>
      <trkpt lat="48.34294" lon="2.69622">
        <ele>76</ele>
        <time>2021-12-08T12:12:51.250Z</time>
      </trkpt>
      <trkpt lat="48.3429" lon="2.69625">
        <ele>75</ele>
        <time>2021-12-08T12:12:55.252Z</time>
      </trkpt>
      <trkpt lat="48.34284" lon="2.6963">
        <ele>75</ele>
        <time>2021-12-08T12:13:00.249Z</time>
      </trkpt>
      <trkpt lat="48.34279" lon="2.69634">
        <ele>75</ele>
        <time>2021-12-08T12:13:05.255Z</time>
      </trkpt>
      <trkpt lat="48.34275" lon="2.69637">
        <ele>75</ele>
        <time>2021-12-08T12:13:09.262Z</time>
      </trkpt>
      <trkpt lat="48.3427" lon="2.69641">
        <ele>75</ele>
        <time>2021-12-08T12:13:13.300Z</time>
      </trkpt>
      <trkpt lat="48.34264" lon="2.69642">
        <ele>75</ele>
        <time>2021-12-08T12:13:18.259Z</time>
      </trkpt>
      <trkpt lat="48.34257" lon="2.69647">
        <ele>75</ele>
        <time>2021-12-08T12:13:23.252Z</time>
      </trkpt>
      <trkpt lat="48.34254" lon="2.69651">
        <ele>75</ele>
        <time>2021-12-08T12:13:27.263Z</time>
      </trkpt>
      <trkpt lat="48.34249" lon="2.69656">
        <ele>76</ele>
        <time>2021-12-08T12:13:32.263Z</time>
      </trkpt>
      <trkpt lat="48.34245" lon="2.69658">
        <ele>76</ele>
        <time>2021-12-08T12:13:36.276Z</time>
      </trkpt>
      <trkpt lat="48.34239" lon="2.69662">
        <ele>76</ele>
        <time>2021-12-08T12:13:41.261Z</time>
      </trkpt>
      <trkpt lat="48.34233" lon="2.69666">
        <ele>77</ele>
        <time>2021-12-08T12:13:46.253Z</time>
      </trkpt>
      <trkpt lat="48.34228" lon="2.69668">
        <ele>77</ele>
        <time>2021-12-08T12:13:50.261Z</time>
      </trkpt>
      <trkpt lat="48.34222" lon="2.6967">
        <ele>77</ele>
        <time>2021-12-08T12:13:55.263Z</time>
      </trkpt>
      <trkpt lat="48.34217" lon="2.69673">
        <ele>77</ele>
        <time>2021-12-08T12:14:00.251Z</time>
      </trkpt>
      <trkpt lat="48.34211" lon="2.69676">
        <ele>77</ele>
        <time>2021-12-08T12:14:05.258Z</time>
      </trkpt>
      <trkpt lat="48.34207" lon="2.69676">
        <ele>77</ele>
        <time>2021-12-08T12:14:09.304Z</time>
      </trkpt>
      <trkpt lat="48.342" lon="2.6968">
        <ele>77</ele>
        <time>2021-12-08T12:14:14.256Z</time>
      </trkpt>
      <trkpt lat="48.34196" lon="2.69681">
        <ele>76</ele>
        <time>2021-12-08T12:14:18.257Z</time>
      </trkpt>
      <trkpt lat="48.3419" lon="2.69682">
        <ele>76</ele>
        <time>2021-12-08T12:14:23.272Z</time>
      </trkpt>
      <trkpt lat="48.34184" lon="2.69685">
        <ele>76</ele>
        <time>2021-12-08T12:14:28.253Z</time>
      </trkpt>
      <trkpt lat="48.34178" lon="2.69685">
        <ele>75</ele>
        <time>2021-12-08T12:14:32.264Z</time>
      </trkpt>
      <trkpt lat="48.34172" lon="2.69685">
        <ele>75</ele>
        <time>2021-12-08T12:14:37.267Z</time>
      </trkpt>
      <trkpt lat="48.34166" lon="2.69688">
        <ele>75</ele>
        <time>2021-12-08T12:14:42.255Z</time>
      </trkpt>
      <trkpt lat="48.34161" lon="2.6969">
        <ele>75</ele>
        <time>2021-12-08T12:14:47.258Z</time>
      </trkpt>
      <trkpt lat="48.34156" lon="2.69691">
        <ele>75</ele>
        <time>2021-12-08T12:14:52.269Z</time>
      </trkpt>
      <trkpt lat="48.3415" lon="2.69693">
        <ele>76</ele>
        <time>2021-12-08T12:14:57.260Z</time>
      </trkpt>
      <trkpt lat="48.34145" lon="2.69697">
        <ele>76</ele>
        <time>2021-12-08T12:15:02.265Z</time>
      </trkpt>
      <trkpt lat="48.3414" lon="2.69699">
        <ele>76</ele>
        <time>2021-12-08T12:15:06.270Z</time>
      </trkpt>
      <trkpt lat="48.34134" lon="2.69703">
        <ele>76</ele>
        <time>2021-12-08T12:15:11.251Z</time>
      </trkpt>
      <trkpt lat="48.34128" lon="2.69704">
        <ele>76</ele>
        <time>2021-12-08T12:15:16.266Z</time>
      </trkpt>
      <trkpt lat="48.34122" lon="2.69706">
        <ele>76</ele>
        <time>2021-12-08T12:15:21.352Z</time>
      </trkpt>
      <trkpt lat="48.34116" lon="2.6971">
        <ele>75</ele>
        <time>2021-12-08T12:15:26.261Z</time>
      </trkpt>
      <trkpt lat="48.3411" lon="2.69713">
        <ele>75</ele>
        <time>2021-12-08T12:15:31.265Z</time>
      </trkpt>
      <trkpt lat="48.34104" lon="2.69717">
        <ele>75</ele>
        <time>2021-12-08T12:15:36.268Z</time>
      </trkpt>
      <trkpt lat="48.34098" lon="2.6972">
        <ele>75</ele>
        <time>2021-12-08T12:15:41.269Z</time>
      </trkpt>
      <trkpt lat="48.34091" lon="2.69724">
        <ele>75</ele>
        <time>2021-12-08T12:15:46.271Z</time>
      </trkpt>
      <trkpt lat="48.34084" lon="2.69729">
        <ele>75</ele>
        <time>2021-12-08T12:15:51.266Z</time>
      </trkpt>
      <trkpt lat="48.34079" lon="2.69732">
        <ele>75</ele>
        <time>2021-12-08T12:15:55.273Z</time>
      </trkpt>
      <trkpt lat="48.34074" lon="2.69739">
        <ele>74</ele>
        <time>2021-12-08T12:16:00.267Z</time>
      </trkpt>
      <trkpt lat="48.3407" lon="2.69744">
        <ele>74</ele>
        <time>2021-12-08T12:16:04.264Z</time>
      </trkpt>
      <trkpt lat="48.34064" lon="2.69749">
        <ele>76</ele>
        <time>2021-12-08T12:16:09.258Z</time>
      </trkpt>
      <trkpt lat="48.34058" lon="2.69755">
        <ele>76</ele>
        <time>2021-12-08T12:16:14.271Z</time>
      </trkpt>
      <trkpt lat="48.34051" lon="2.69759">
        <ele>76</ele>
        <time>2021-12-08T12:16:19.258Z</time>
      </trkpt>
      <trkpt lat="48.34046" lon="2.69764">
        <ele>76</ele>
        <time>2021-12-08T12:16:24.269Z</time>
      </trkpt>
      <trkpt lat="48.34041" lon="2.6977">
        <ele>76</ele>
        <time>2021-12-08T12:16:29.261Z</time>
      </trkpt>
      <trkpt lat="48.34035" lon="2.69774">
        <ele>76</ele>
        <time>2021-12-08T12:16:34.261Z</time>
      </trkpt>
      <trkpt lat="48.34032" lon="2.69778">
        <ele>76</ele>
        <time>2021-12-08T12:16:38.264Z</time>
      </trkpt>
      <trkpt lat="48.34028" lon="2.69782">
        <ele>76</ele>
        <time>2021-12-08T12:16:43.270Z</time>
      </trkpt>
      <trkpt lat="48.34027" lon="2.69782">
        <ele>76</ele>
        <time>2021-12-08T12:16:47.265Z</time>
      </trkpt>
      <trkpt lat="48.34025" lon="2.69783">
        <ele>76</ele>
        <time>2021-12-08T12:16:51.281Z</time>
      </trkpt>
      <trkpt lat="48.34021" lon="2.69783">
        <ele>76</ele>
        <time>2021-12-08T12:16:56.262Z</time>
      </trkpt>
      <trkpt lat="48.34016" lon="2.69787">
        <ele>76</ele>
        <time>2021-12-08T12:17:00.269Z</time>
      </trkpt>
      <trkpt lat="48.34011" lon="2.69792">
        <ele>74</ele>
        <time>2021-12-08T12:17:05.265Z</time>
      </trkpt>
      <trkpt lat="48.34006" lon="2.69796">
        <ele>74</ele>
        <time>2021-12-08T12:17:10.253Z</time>
      </trkpt>
      <trkpt lat="48.34003" lon="2.69802">
        <ele>74</ele>
        <time>2021-12-08T12:17:15.254Z</time>
      </trkpt>
      <trkpt lat="48.34003" lon="2.69808">
        <ele>74</ele>
        <time>2021-12-08T12:17:19.258Z</time>
      </trkpt>
      <trkpt lat="48.34005" lon="2.69815">
        <ele>74</ele>
        <time>2021-12-08T12:17:24.253Z</time>
      </trkpt>
      <trkpt lat="48.34006" lon="2.69822">
        <ele>74</ele>
        <time>2021-12-08T12:17:29.257Z</time>
      </trkpt>
      <trkpt lat="48.34007" lon="2.69828">
        <ele>74</ele>
        <time>2021-12-08T12:17:33.265Z</time>
      </trkpt>
      <trkpt lat="48.34007" lon="2.69836">
        <ele>74</ele>
        <time>2021-12-08T12:17:38.268Z</time>
      </trkpt>
      <trkpt lat="48.34008" lon="2.69844">
        <ele>74</ele>
        <time>2021-12-08T12:17:43.265Z</time>
      </trkpt>
      <trkpt lat="48.34011" lon="2.69852">
        <ele>74</ele>
        <time>2021-12-08T12:17:48.264Z</time>
      </trkpt>
      <trkpt lat="48.34014" lon="2.6986">
        <ele>74</ele>
        <time>2021-12-08T12:17:53.263Z</time>
      </trkpt>
      <trkpt lat="48.34016" lon="2.69864">
        <ele>75</ele>
        <time>2021-12-08T12:17:58.244Z</time>
      </trkpt>
      <trkpt lat="48.34018" lon="2.69865">
        <ele>75</ele>
        <time>2021-12-08T12:18:02.250Z</time>
      </trkpt>
      <trkpt lat="48.34018" lon="2.69865">
        <ele>75</ele>
        <time>2021-12-08T12:18:07.250Z</time>
      </trkpt>
      <trkpt lat="48.34019" lon="2.69872">
        <ele>75</ele>
        <time>2021-12-08T12:18:12.271Z</time>
      </trkpt>
      <trkpt lat="48.34017" lon="2.69884">
        <ele>75</ele>
        <time>2021-12-08T12:18:17.255Z</time>
      </trkpt>
      <trkpt lat="48.34018" lon="2.69893">
        <ele>75</ele>
        <time>2021-12-08T12:18:22.254Z</time>
      </trkpt>
      <trkpt lat="48.34017" lon="2.69901">
        <ele>75</ele>
        <time>2021-12-08T12:18:26.260Z</time>
      </trkpt>
      <trkpt lat="48.34015" lon="2.69909">
        <ele>76</ele>
        <time>2021-12-08T12:18:31.253Z</time>
      </trkpt>
      <trkpt lat="48.34013" lon="2.69914">
        <ele>75</ele>
        <time>2021-12-08T12:18:36.252Z</time>
      </trkpt>
      <trkpt lat="48.34013" lon="2.69918">
        <ele>75</ele>
        <time>2021-12-08T12:18:40.263Z</time>
      </trkpt>
      <trkpt lat="48.34009" lon="2.69923">
        <ele>75</ele>
        <time>2021-12-08T12:18:45.257Z</time>
      </trkpt>
      <trkpt lat="48.34008" lon="2.69929">
        <ele>75</ele>
        <time>2021-12-08T12:18:49.256Z</time>
      </trkpt>
      <trkpt lat="48.34007" lon="2.69936">
        <ele>76</ele>
        <time>2021-12-08T12:18:53.262Z</time>
      </trkpt>
      <trkpt lat="48.34007" lon="2.69943">
        <ele>76</ele>
        <time>2021-12-08T12:18:58.252Z</time>
      </trkpt>
      <trkpt lat="48.34009" lon="2.6995">
        <ele>76</ele>
        <time>2021-12-08T12:19:25.253Z</time>
      </trkpt>
      <trkpt lat="48.34009" lon="2.6995">
        <ele>76</ele>
        <time>2021-12-08T12:19:30.270Z</time>
      </trkpt>
      <trkpt lat="48.34009" lon="2.69953">
        <ele>76</ele>
        <time>2021-12-08T12:19:35.260Z</time>
      </trkpt>
      <trkpt lat="48.34009" lon="2.6996">
        <ele>77</ele>
        <time>2021-12-08T12:19:40.259Z</time>
      </trkpt>
      <trkpt lat="48.34012" lon="2.6996">
        <ele>77</ele>
        <time>2021-12-08T12:19:45.257Z</time>
      </trkpt>
      <trkpt lat="48.34007" lon="2.69955">
        <ele>76</ele>
        <time>2021-12-08T13:06:59.270Z</time>
      </trkpt>
      <trkpt lat="48.34007" lon="2.69947">
        <ele>76</ele>
        <time>2021-12-08T13:07:04.276Z</time>
      </trkpt>
      <trkpt lat="48.34007" lon="2.69941">
        <ele>76</ele>
        <time>2021-12-08T13:07:08.278Z</time>
      </trkpt>
      <trkpt lat="48.34007" lon="2.69933">
        <ele>76</ele>
        <time>2021-12-08T13:07:12.280Z</time>
      </trkpt>
      <trkpt lat="48.34009" lon="2.69926">
        <ele>75</ele>
        <time>2021-12-08T13:07:16.283Z</time>
      </trkpt>
      <trkpt lat="48.3401" lon="2.69917">
        <ele>75</ele>
        <time>2021-12-08T13:07:21.384Z</time>
      </trkpt>
      <trkpt lat="48.34013" lon="2.69915">
        <ele>75</ele>
        <time>2021-12-08T13:07:26.273Z</time>
      </trkpt>
      <trkpt lat="48.34015" lon="2.6991">
        <ele>76</ele>
        <time>2021-12-08T13:07:31.261Z</time>
      </trkpt>
      <trkpt lat="48.34016" lon="2.69905">
        <ele>76</ele>
        <time>2021-12-08T13:07:35.264Z</time>
      </trkpt>
      <trkpt lat="48.34017" lon="2.69899">
        <ele>75</ele>
        <time>2021-12-08T13:07:39.272Z</time>
      </trkpt>
      <trkpt lat="48.34018" lon="2.6989">
        <ele>75</ele>
        <time>2021-12-08T13:07:44.268Z</time>
      </trkpt>
      <trkpt lat="48.34018" lon="2.69885">
        <ele>75</ele>
        <time>2021-12-08T13:07:48.274Z</time>
      </trkpt>
      <trkpt lat="48.34018" lon="2.69877">
        <ele>75</ele>
        <time>2021-12-08T13:07:53.270Z</time>
      </trkpt>
      <trkpt lat="48.34018" lon="2.6987">
        <ele>75</ele>
        <time>2021-12-08T13:07:57.277Z</time>
      </trkpt>
      <trkpt lat="48.34018" lon="2.69863">
        <ele>75</ele>
        <time>2021-12-08T13:08:02.270Z</time>
      </trkpt>
      <trkpt lat="48.34022" lon="2.6986">
        <ele>75</ele>
        <time>2021-12-08T13:08:07.275Z</time>
      </trkpt>
      <trkpt lat="48.34026" lon="2.69861">
        <ele>75</ele>
        <time>2021-12-08T13:08:12.269Z</time>
      </trkpt>
      <trkpt lat="48.34025" lon="2.69864">
        <ele>75</ele>
        <time>2021-12-08T13:08:17.266Z</time>
      </trkpt>
      <trkpt lat="48.34028" lon="2.69862">
        <ele>75</ele>
        <time>2021-12-08T13:08:21.273Z</time>
      </trkpt>
      <trkpt lat="48.34031" lon="2.69857">
        <ele>75</ele>
        <time>2021-12-08T13:08:26.265Z</time>
      </trkpt>
      <trkpt lat="48.34036" lon="2.69857">
        <ele>75</ele>
        <time>2021-12-08T13:08:30.268Z</time>
      </trkpt>
      <trkpt lat="48.34041" lon="2.69853">
        <ele>75</ele>
        <time>2021-12-08T13:08:35.274Z</time>
      </trkpt>
      <trkpt lat="48.34047" lon="2.69852">
        <ele>75</ele>
        <time>2021-12-08T13:08:40.261Z</time>
      </trkpt>
      <trkpt lat="48.34052" lon="2.69849">
        <ele>75</ele>
        <time>2021-12-08T13:08:45.274Z</time>
      </trkpt>
      <trkpt lat="48.34057" lon="2.69847">
        <ele>75</ele>
        <time>2021-12-08T13:08:50.272Z</time>
      </trkpt>
      <trkpt lat="48.34062" lon="2.69845">
        <ele>74</ele>
        <time>2021-12-08T13:08:55.268Z</time>
      </trkpt>
      <trkpt lat="48.34066" lon="2.69843">
        <ele>74</ele>
        <time>2021-12-08T13:08:59.270Z</time>
      </trkpt>
      <trkpt lat="48.34071" lon="2.69841">
        <ele>74</ele>
        <time>2021-12-08T13:09:04.271Z</time>
      </trkpt>
      <trkpt lat="48.34076" lon="2.6984">
        <ele>74</ele>
        <time>2021-12-08T13:09:09.275Z</time>
      </trkpt>
      <trkpt lat="48.34079" lon="2.69838">
        <ele>74</ele>
        <time>2021-12-08T13:09:13.263Z</time>
      </trkpt>
      <trkpt lat="48.34085" lon="2.69835">
        <ele>74</ele>
        <time>2021-12-08T13:09:18.279Z</time>
      </trkpt>
      <trkpt lat="48.34091" lon="2.69832">
        <ele>74</ele>
        <time>2021-12-08T13:09:23.263Z</time>
      </trkpt>
      <trkpt lat="48.34096" lon="2.6983">
        <ele>74</ele>
        <time>2021-12-08T13:09:28.274Z</time>
      </trkpt>
      <trkpt lat="48.34102" lon="2.69827">
        <ele>73</ele>
        <time>2021-12-08T13:09:33.274Z</time>
      </trkpt>
      <trkpt lat="48.34107" lon="2.69824">
        <ele>73</ele>
        <time>2021-12-08T13:09:38.257Z</time>
      </trkpt>
      <trkpt lat="48.34111" lon="2.69821">
        <ele>73</ele>
        <time>2021-12-08T13:09:42.268Z</time>
      </trkpt>
      <trkpt lat="48.34116" lon="2.69819">
        <ele>73</ele>
        <time>2021-12-08T13:09:46.275Z</time>
      </trkpt>
      <trkpt lat="48.34121" lon="2.69815">
        <ele>73</ele>
        <time>2021-12-08T13:09:51.275Z</time>
      </trkpt>
      <trkpt lat="48.34128" lon="2.69813">
        <ele>73</ele>
        <time>2021-12-08T13:09:56.282Z</time>
      </trkpt>
      <trkpt lat="48.34134" lon="2.6981">
        <ele>73</ele>
        <time>2021-12-08T13:10:01.271Z</time>
      </trkpt>
      <trkpt lat="48.3414" lon="2.69808">
        <ele>73</ele>
        <time>2021-12-08T13:10:06.265Z</time>
      </trkpt>
      <trkpt lat="48.34144" lon="2.69805">
        <ele>73</ele>
        <time>2021-12-08T13:10:10.264Z</time>
      </trkpt>
      <trkpt lat="48.34149" lon="2.69802">
        <ele>73</ele>
        <time>2021-12-08T13:10:15.269Z</time>
      </trkpt>
      <trkpt lat="48.34155" lon="2.69799">
        <ele>73</ele>
        <time>2021-12-08T13:10:20.262Z</time>
      </trkpt>
      <trkpt lat="48.34162" lon="2.69795">
        <ele>73</ele>
        <time>2021-12-08T13:10:25.262Z</time>
      </trkpt>
      <trkpt lat="48.34167" lon="2.69792">
        <ele>73</ele>
        <time>2021-12-08T13:10:30.274Z</time>
      </trkpt>
      <trkpt lat="48.34174" lon="2.69789">
        <ele>73</ele>
        <time>2021-12-08T13:10:35.277Z</time>
      </trkpt>
      <trkpt lat="48.3418" lon="2.69786">
        <ele>73</ele>
        <time>2021-12-08T13:10:40.259Z</time>
      </trkpt>
      <trkpt lat="48.34185" lon="2.69782">
        <ele>74</ele>
        <time>2021-12-08T13:10:45.270Z</time>
      </trkpt>
      <trkpt lat="48.34191" lon="2.69778">
        <ele>74</ele>
        <time>2021-12-08T13:10:50.272Z</time>
      </trkpt>
      <trkpt lat="48.34197" lon="2.69775">
        <ele>74</ele>
        <time>2021-12-08T13:10:55.269Z</time>
      </trkpt>
      <trkpt lat="48.34202" lon="2.69773">
        <ele>74</ele>
        <time>2021-12-08T13:10:59.272Z</time>
      </trkpt>
      <trkpt lat="48.34206" lon="2.6977">
        <ele>74</ele>
        <time>2021-12-08T13:11:03.265Z</time>
      </trkpt>
      <trkpt lat="48.34213" lon="2.69766">
        <ele>75</ele>
        <time>2021-12-08T13:11:08.277Z</time>
      </trkpt>
      <trkpt lat="48.34219" lon="2.69762">
        <ele>75</ele>
        <time>2021-12-08T13:11:13.280Z</time>
      </trkpt>
      <trkpt lat="48.34224" lon="2.69757">
        <ele>75</ele>
        <time>2021-12-08T13:11:18.274Z</time>
      </trkpt>
      <trkpt lat="48.34229" lon="2.69754">
        <ele>75</ele>
        <time>2021-12-08T13:11:22.287Z</time>
      </trkpt>
      <trkpt lat="48.34234" lon="2.69751">
        <ele>75</ele>
        <time>2021-12-08T13:11:27.272Z</time>
      </trkpt>
      <trkpt lat="48.34239" lon="2.69748">
        <ele>76</ele>
        <time>2021-12-08T13:11:31.279Z</time>
      </trkpt>
      <trkpt lat="48.34245" lon="2.69746">
        <ele>76</ele>
        <time>2021-12-08T13:11:36.269Z</time>
      </trkpt>
      <trkpt lat="48.3425" lon="2.69745">
        <ele>76</ele>
        <time>2021-12-08T13:11:40.273Z</time>
      </trkpt>
      <trkpt lat="48.34254" lon="2.69742">
        <ele>76</ele>
        <time>2021-12-08T13:11:44.286Z</time>
      </trkpt>
      <trkpt lat="48.3426" lon="2.69739">
        <ele>76</ele>
        <time>2021-12-08T13:11:49.265Z</time>
      </trkpt>
      <trkpt lat="48.34267" lon="2.69736">
        <ele>75</ele>
        <time>2021-12-08T13:11:54.278Z</time>
      </trkpt>
      <trkpt lat="48.34272" lon="2.69738">
        <ele>75</ele>
        <time>2021-12-08T13:11:59.274Z</time>
      </trkpt>
      <trkpt lat="48.34277" lon="2.69741">
        <ele>75</ele>
        <time>2021-12-08T13:12:04.273Z</time>
      </trkpt>
      <trkpt lat="48.34284" lon="2.69744">
        <ele>75</ele>
        <time>2021-12-08T13:12:09.277Z</time>
      </trkpt>
      <trkpt lat="48.34289" lon="2.69747">
        <ele>75</ele>
        <time>2021-12-08T13:12:14.278Z</time>
      </trkpt>
      <trkpt lat="48.34294" lon="2.6975">
        <ele>74</ele>
        <time>2021-12-08T13:12:19.280Z</time>
      </trkpt>
      <trkpt lat="48.34299" lon="2.69754">
        <ele>74</ele>
        <time>2021-12-08T13:12:24.302Z</time>
      </trkpt>
      <trkpt lat="48.34306" lon="2.69759">
        <ele>74</ele>
        <time>2021-12-08T13:12:29.261Z</time>
      </trkpt>
      <trkpt lat="48.3431" lon="2.69762">
        <ele>74</ele>
        <time>2021-12-08T13:12:33.274Z</time>
      </trkpt>
      <trkpt lat="48.34317" lon="2.69768">
        <ele>74</ele>
        <time>2021-12-08T13:12:38.281Z</time>
      </trkpt>
      <trkpt lat="48.34323" lon="2.69772">
        <ele>75</ele>
        <time>2021-12-08T13:12:43.273Z</time>
      </trkpt>
      <trkpt lat="48.34329" lon="2.69776">
        <ele>75</ele>
        <time>2021-12-08T13:12:48.280Z</time>
      </trkpt>
      <trkpt lat="48.34335" lon="2.69779">
        <ele>75</ele>
        <time>2021-12-08T13:12:53.272Z</time>
      </trkpt>
      <trkpt lat="48.3434" lon="2.69782">
        <ele>75</ele>
        <time>2021-12-08T13:12:57.271Z</time>
      </trkpt>
      <trkpt lat="48.34345" lon="2.69785">
        <ele>75</ele>
        <time>2021-12-08T13:13:02.280Z</time>
      </trkpt>
      <trkpt lat="48.34351" lon="2.69789">
        <ele>75</ele>
        <time>2021-12-08T13:13:07.269Z</time>
      </trkpt>
      <trkpt lat="48.34356" lon="2.69792">
        <ele>75</ele>
        <time>2021-12-08T13:13:12.274Z</time>
      </trkpt>
      <trkpt lat="48.34361" lon="2.69796">
        <ele>75</ele>
        <time>2021-12-08T13:13:17.269Z</time>
      </trkpt>
      <trkpt lat="48.34366" lon="2.69799">
        <ele>75</ele>
        <time>2021-12-08T13:13:21.290Z</time>
      </trkpt>
      <trkpt lat="48.34371" lon="2.69802">
        <ele>75</ele>
        <time>2021-12-08T13:13:26.273Z</time>
      </trkpt>
      <trkpt lat="48.34375" lon="2.69804">
        <ele>75</ele>
        <time>2021-12-08T13:13:30.268Z</time>
      </trkpt>
      <trkpt lat="48.34381" lon="2.69808">
        <ele>75</ele>
        <time>2021-12-08T13:13:35.262Z</time>
      </trkpt>
      <trkpt lat="48.34386" lon="2.69813">
        <ele>75</ele>
        <time>2021-12-08T13:13:40.262Z</time>
      </trkpt>
      <trkpt lat="48.34392" lon="2.69817">
        <ele>75</ele>
        <time>2021-12-08T13:13:45.300Z</time>
      </trkpt>
      <trkpt lat="48.34398" lon="2.69821">
        <ele>75</ele>
        <time>2021-12-08T13:13:50.265Z</time>
      </trkpt>
      <trkpt lat="48.34403" lon="2.69824">
        <ele>75</ele>
        <time>2021-12-08T13:13:54.273Z</time>
      </trkpt>
      <trkpt lat="48.34407" lon="2.69826">
        <ele>77</ele>
        <time>2021-12-08T13:13:58.272Z</time>
      </trkpt>
      <trkpt lat="48.34414" lon="2.69829">
        <ele>77</ele>
        <time>2021-12-08T13:14:03.272Z</time>
      </trkpt>
      <trkpt lat="48.3442" lon="2.69832">
        <ele>77</ele>
        <time>2021-12-08T13:14:08.268Z</time>
      </trkpt>
      <trkpt lat="48.34425" lon="2.69835">
        <ele>77</ele>
        <time>2021-12-08T13:14:12.266Z</time>
      </trkpt>
      <trkpt lat="48.34429" lon="2.69838">
        <ele>77</ele>
        <time>2021-12-08T13:14:16.279Z</time>
      </trkpt>
      <trkpt lat="48.34434" lon="2.69845">
        <ele>81</ele>
        <time>2021-12-08T13:14:21.267Z</time>
      </trkpt>
      <trkpt lat="48.34438" lon="2.69848">
        <ele>79</ele>
        <time>2021-12-08T13:14:25.270Z</time>
      </trkpt>
      <trkpt lat="48.34443" lon="2.69853">
        <ele>79</ele>
        <time>2021-12-08T13:14:30.274Z</time>
      </trkpt>
      <trkpt lat="48.34448" lon="2.69858">
        <ele>79</ele>
        <time>2021-12-08T13:14:35.271Z</time>
      </trkpt>
      <trkpt lat="48.34452" lon="2.69863">
        <ele>79</ele>
        <time>2021-12-08T13:14:40.268Z</time>
      </trkpt>
      <trkpt lat="48.34458" lon="2.69867">
        <ele>79</ele>
        <time>2021-12-08T13:14:45.273Z</time>
      </trkpt>
      <trkpt lat="48.34461" lon="2.69872">
        <ele>83</ele>
        <time>2021-12-08T13:14:49.275Z</time>
      </trkpt>
      <trkpt lat="48.34468" lon="2.69878">
        <ele>81</ele>
        <time>2021-12-08T13:14:54.271Z</time>
      </trkpt>
      <trkpt lat="48.34471" lon="2.69883">
        <ele>81</ele>
        <time>2021-12-08T13:14:58.271Z</time>
      </trkpt>
      <trkpt lat="48.34475" lon="2.6989">
        <ele>81</ele>
        <time>2021-12-08T13:15:03.276Z</time>
      </trkpt>
      <trkpt lat="48.3448" lon="2.69896">
        <ele>81</ele>
        <time>2021-12-08T13:15:08.265Z</time>
      </trkpt>
      <trkpt lat="48.34484" lon="2.69901">
        <ele>81</ele>
        <time>2021-12-08T13:15:12.276Z</time>
      </trkpt>
      <trkpt lat="48.34489" lon="2.69906">
        <ele>83</ele>
        <time>2021-12-08T13:15:17.274Z</time>
      </trkpt>
      <trkpt lat="48.34494" lon="2.69911">
        <ele>83</ele>
        <time>2021-12-08T13:15:22.275Z</time>
      </trkpt>
      <trkpt lat="48.34499" lon="2.69917">
        <ele>83</ele>
        <time>2021-12-08T13:15:27.264Z</time>
      </trkpt>
      <trkpt lat="48.34504" lon="2.69921">
        <ele>83</ele>
        <time>2021-12-08T13:15:31.272Z</time>
      </trkpt>
      <trkpt lat="48.34508" lon="2.69928">
        <ele>83</ele>
        <time>2021-12-08T13:15:36.264Z</time>
      </trkpt>
      <trkpt lat="48.34512" lon="2.69932">
        <ele>81</ele>
        <time>2021-12-08T13:15:40.281Z</time>
      </trkpt>
      <trkpt lat="48.34517" lon="2.69937">
        <ele>81</ele>
        <time>2021-12-08T13:15:45.270Z</time>
      </trkpt>
      <trkpt lat="48.34522" lon="2.69943">
        <ele>81</ele>
        <time>2021-12-08T13:15:50.263Z</time>
      </trkpt>
      <trkpt lat="48.34528" lon="2.69948">
        <ele>81</ele>
        <time>2021-12-08T13:15:55.260Z</time>
      </trkpt>
      <trkpt lat="48.34533" lon="2.69953">
        <ele>81</ele>
        <time>2021-12-08T13:16:00.267Z</time>
      </trkpt>
      <trkpt lat="48.34536" lon="2.6996">
        <ele>80</ele>
        <time>2021-12-08T13:16:05.261Z</time>
      </trkpt>
      <trkpt lat="48.3454" lon="2.69966">
        <ele>80</ele>
        <time>2021-12-08T13:16:10.284Z</time>
      </trkpt>
      <trkpt lat="48.34545" lon="2.6997">
        <ele>82</ele>
        <time>2021-12-08T13:16:15.281Z</time>
      </trkpt>
      <trkpt lat="48.34549" lon="2.69976">
        <ele>82</ele>
        <time>2021-12-08T13:16:20.262Z</time>
      </trkpt>
      <trkpt lat="48.34552" lon="2.69981">
        <ele>82</ele>
        <time>2021-12-08T13:16:24.280Z</time>
      </trkpt>
      <trkpt lat="48.34556" lon="2.69987">
        <ele>81</ele>
        <time>2021-12-08T13:16:29.270Z</time>
      </trkpt>
      <trkpt lat="48.34555" lon="2.69994">
        <ele>81</ele>
        <time>2021-12-08T13:16:34.269Z</time>
      </trkpt>
      <trkpt lat="48.34558" lon="2.70002">
        <ele>81</ele>
        <time>2021-12-08T13:16:39.264Z</time>
      </trkpt>
      <trkpt lat="48.34563" lon="2.70009">
        <ele>81</ele>
        <time>2021-12-08T13:16:44.269Z</time>
      </trkpt>
      <trkpt lat="48.34568" lon="2.70014">
        <ele>82</ele>
        <time>2021-12-08T13:16:49.284Z</time>
      </trkpt>
      <trkpt lat="48.34572" lon="2.7002">
        <ele>83</ele>
        <time>2021-12-08T13:16:54.274Z</time>
      </trkpt>
      <trkpt lat="48.34576" lon="2.70025">
        <ele>83</ele>
        <time>2021-12-08T13:16:59.266Z</time>
      </trkpt>
      <trkpt lat="48.34583" lon="2.70031">
        <ele>83</ele>
        <time>2021-12-08T13:17:04.266Z</time>
      </trkpt>
      <trkpt lat="48.34587" lon="2.70037">
        <ele>83</ele>
        <time>2021-12-08T13:17:08.263Z</time>
      </trkpt>
      <trkpt lat="48.34592" lon="2.70043">
        <ele>84</ele>
        <time>2021-12-08T13:17:13.257Z</time>
      </trkpt>
      <trkpt lat="48.34597" lon="2.7005">
        <ele>84</ele>
        <time>2021-12-08T13:17:18.270Z</time>
      </trkpt>
      <trkpt lat="48.34603" lon="2.70056">
        <ele>86</ele>
        <time>2021-12-08T13:17:23.260Z</time>
      </trkpt>
      <trkpt lat="48.34609" lon="2.70061">
        <ele>86</ele>
        <time>2021-12-08T13:17:28.282Z</time>
      </trkpt>
      <trkpt lat="48.34615" lon="2.70066">
        <ele>86</ele>
        <time>2021-12-08T13:17:33.263Z</time>
      </trkpt>
      <trkpt lat="48.34619" lon="2.70072">
        <ele>89</ele>
        <time>2021-12-08T13:17:38.260Z</time>
      </trkpt>
      <trkpt lat="48.34623" lon="2.70076">
        <ele>89</ele>
        <time>2021-12-08T13:17:42.265Z</time>
      </trkpt>
      <trkpt lat="48.34627" lon="2.7008">
        <ele>89</ele>
        <time>2021-12-08T13:17:46.269Z</time>
      </trkpt>
      <trkpt lat="48.34633" lon="2.70084">
        <ele>89</ele>
        <time>2021-12-08T13:17:51.253Z</time>
      </trkpt>
      <trkpt lat="48.34637" lon="2.70088">
        <ele>89</ele>
        <time>2021-12-08T13:17:55.275Z</time>
      </trkpt>
      <trkpt lat="48.34642" lon="2.70093">
        <ele>89</ele>
        <time>2021-12-08T13:18:00.268Z</time>
      </trkpt>
      <trkpt lat="48.34647" lon="2.70096">
        <ele>89</ele>
        <time>2021-12-08T13:18:04.275Z</time>
      </trkpt>
      <trkpt lat="48.34653" lon="2.70101">
        <ele>89</ele>
        <time>2021-12-08T13:18:09.282Z</time>
      </trkpt>
      <trkpt lat="48.34658" lon="2.70106">
        <ele>89</ele>
        <time>2021-12-08T13:18:14.271Z</time>
      </trkpt>
      <trkpt lat="48.34663" lon="2.7011">
        <ele>89</ele>
        <time>2021-12-08T13:18:19.271Z</time>
      </trkpt>
      <trkpt lat="48.34669" lon="2.70114">
        <ele>89</ele>
        <time>2021-12-08T13:18:24.264Z</time>
      </trkpt>
      <trkpt lat="48.34673" lon="2.70117">
        <ele>89</ele>
        <time>2021-12-08T13:18:28.265Z</time>
      </trkpt>
      <trkpt lat="48.34679" lon="2.70121">
        <ele>89</ele>
        <time>2021-12-08T13:18:33.287Z</time>
      </trkpt>
      <trkpt lat="48.34683" lon="2.70126">
        <ele>90</ele>
        <time>2021-12-08T13:18:38.274Z</time>
      </trkpt>
      <trkpt lat="48.34688" lon="2.7013">
        <ele>90</ele>
        <time>2021-12-08T13:18:42.274Z</time>
      </trkpt>
      <trkpt lat="48.34693" lon="2.70134">
        <ele>90</ele>
        <time>2021-12-08T13:18:47.277Z</time>
      </trkpt>
      <trkpt lat="48.34699" lon="2.7014">
        <ele>90</ele>
        <time>2021-12-08T13:18:52.280Z</time>
      </trkpt>
      <trkpt lat="48.34704" lon="2.70145">
        <ele>90</ele>
        <time>2021-12-08T13:18:57.264Z</time>
      </trkpt>
      <trkpt lat="48.34708" lon="2.7015">
        <ele>91</ele>
        <time>2021-12-08T13:19:02.256Z</time>
      </trkpt>
      <trkpt lat="48.34713" lon="2.70155">
        <ele>92</ele>
        <time>2021-12-08T13:19:07.275Z</time>
      </trkpt>
      <trkpt lat="48.34718" lon="2.70161">
        <ele>92</ele>
        <time>2021-12-08T13:19:12.274Z</time>
      </trkpt>
      <trkpt lat="48.34722" lon="2.70169">
        <ele>92</ele>
        <time>2021-12-08T13:19:17.265Z</time>
      </trkpt>
      <trkpt lat="48.34725" lon="2.70176">
        <ele>92</ele>
        <time>2021-12-08T13:19:21.272Z</time>
      </trkpt>
      <trkpt lat="48.34728" lon="2.70183">
        <ele>96</ele>
        <time>2021-12-08T13:19:26.268Z</time>
      </trkpt>
      <trkpt lat="48.34732" lon="2.70191">
        <ele>96</ele>
        <time>2021-12-08T13:19:31.269Z</time>
      </trkpt>
      <trkpt lat="48.34734" lon="2.70198">
        <ele>96</ele>
        <time>2021-12-08T13:19:36.265Z</time>
      </trkpt>
      <trkpt lat="48.34735" lon="2.70205">
        <ele>96</ele>
        <time>2021-12-08T13:19:41.273Z</time>
      </trkpt>
      <trkpt lat="48.34736" lon="2.70213">
        <ele>103</ele>
        <time>2021-12-08T13:19:46.273Z</time>
      </trkpt>
      <trkpt lat="48.34742" lon="2.70215">
        <ele>103</ele>
        <time>2021-12-08T13:19:50.270Z</time>
      </trkpt>
      <trkpt lat="48.34746" lon="2.70217">
        <ele>103</ele>
        <time>2021-12-08T13:19:55.264Z</time>
      </trkpt>
      <trkpt lat="48.34748" lon="2.70217">
        <ele>103</ele>
        <time>2021-12-08T13:20:00.274Z</time>
      </trkpt>
      <trkpt lat="48.34751" lon="2.70218">
        <ele>103</ele>
        <time>2021-12-08T13:20:04.274Z</time>
      </trkpt>
      <trkpt lat="48.34756" lon="2.70221">
        <ele>103</ele>
        <time>2021-12-08T13:20:09.272Z</time>
      </trkpt>
      <trkpt lat="48.34761" lon="2.70222">
        <ele>103</ele>
        <time>2021-12-08T13:20:14.274Z</time>
      </trkpt>
      <trkpt lat="48.34766" lon="2.70222">
        <ele>104</ele>
        <time>2021-12-08T13:20:19.264Z</time>
      </trkpt>
      <trkpt lat="48.3477" lon="2.70222">
        <ele>104</ele>
        <time>2021-12-08T13:20:23.270Z</time>
      </trkpt>
      <trkpt lat="48.34775" lon="2.70223">
        <ele>104</ele>
        <time>2021-12-08T13:20:28.268Z</time>
      </trkpt>
      <trkpt lat="48.3478" lon="2.70224">
        <ele>104</ele>
        <time>2021-12-08T13:20:32.270Z</time>
      </trkpt>
      <trkpt lat="48.34785" lon="2.70225">
        <ele>104</ele>
        <time>2021-12-08T13:20:37.272Z</time>
      </trkpt>
      <trkpt lat="48.34789" lon="2.70228">
        <ele>104</ele>
        <time>2021-12-08T13:20:41.272Z</time>
      </trkpt>
      <trkpt lat="48.34794" lon="2.7023">
        <ele>108</ele>
        <time>2021-12-08T13:20:46.265Z</time>
      </trkpt>
      <trkpt lat="48.34798" lon="2.70233">
        <ele>108</ele>
        <time>2021-12-08T13:20:50.281Z</time>
      </trkpt>
      <trkpt lat="48.34802" lon="2.70239">
        <ele>109</ele>
        <time>2021-12-08T13:20:55.277Z</time>
      </trkpt>
      <trkpt lat="48.34806" lon="2.70245">
        <ele>109</ele>
        <time>2021-12-08T13:21:00.267Z</time>
      </trkpt>
      <trkpt lat="48.34809" lon="2.7025">
        <ele>109</ele>
        <time>2021-12-08T13:21:04.274Z</time>
      </trkpt>
      <trkpt lat="48.34813" lon="2.70256">
        <ele>109</ele>
        <time>2021-12-08T13:21:09.270Z</time>
      </trkpt>
      <trkpt lat="48.34816" lon="2.70261">
        <ele>109</ele>
        <time>2021-12-08T13:21:13.284Z</time>
      </trkpt>
      <trkpt lat="48.34821" lon="2.70266">
        <ele>113</ele>
        <time>2021-12-08T13:21:18.269Z</time>
      </trkpt>
      <trkpt lat="48.34824" lon="2.70271">
        <ele>113</ele>
        <time>2021-12-08T13:21:22.266Z</time>
      </trkpt>
      <trkpt lat="48.34828" lon="2.70275">
        <ele>113</ele>
        <time>2021-12-08T13:21:26.268Z</time>
      </trkpt>
      <trkpt lat="48.34832" lon="2.7028">
        <ele>113</ele>
        <time>2021-12-08T13:21:31.268Z</time>
      </trkpt>
      <trkpt lat="48.34837" lon="2.70285">
        <ele>113</ele>
        <time>2021-12-08T13:21:36.269Z</time>
      </trkpt>
      <trkpt lat="48.34842" lon="2.70289">
        <ele>113</ele>
        <time>2021-12-08T13:21:40.278Z</time>
      </trkpt>
      <trkpt lat="48.34848" lon="2.70293">
        <ele>116</ele>
        <time>2021-12-08T13:21:45.259Z</time>
      </trkpt>
      <trkpt lat="48.34853" lon="2.70297">
        <ele>116</ele>
        <time>2021-12-08T13:21:49.272Z</time>
      </trkpt>
      <trkpt lat="48.34859" lon="2.703">
        <ele>116</ele>
        <time>2021-12-08T13:21:54.266Z</time>
      </trkpt>
      <trkpt lat="48.34863" lon="2.70303">
        <ele>116</ele>
        <time>2021-12-08T13:21:58.276Z</time>
      </trkpt>
      <trkpt lat="48.34869" lon="2.70305">
        <ele>116</ele>
        <time>2021-12-08T13:22:03.273Z</time>
      </trkpt>
      <trkpt lat="48.34876" lon="2.70307">
        <ele>116</ele>
        <time>2021-12-08T13:22:08.273Z</time>
      </trkpt>
      <trkpt lat="48.34882" lon="2.70306">
        <ele>116</ele>
        <time>2021-12-08T13:22:13.265Z</time>
      </trkpt>
      <trkpt lat="48.34886" lon="2.70304">
        <ele>116</ele>
        <time>2021-12-08T13:22:17.269Z</time>
      </trkpt>
      <trkpt lat="48.34891" lon="2.70303">
        <ele>116</ele>
        <time>2021-12-08T13:22:21.276Z</time>
      </trkpt>
      <trkpt lat="48.34897" lon="2.70298">
        <ele>116</ele>
        <time>2021-12-08T13:22:26.284Z</time>
      </trkpt>
      <trkpt lat="48.34904" lon="2.70298">
        <ele>118</ele>
        <time>2021-12-08T13:22:31.270Z</time>
      </trkpt>
      <trkpt lat="48.3491" lon="2.70299">
        <ele>118</ele>
        <time>2021-12-08T13:22:36.269Z</time>
      </trkpt>
      <trkpt lat="48.34916" lon="2.70298">
        <ele>118</ele>
        <time>2021-12-08T13:22:41.275Z</time>
      </trkpt>
      <trkpt lat="48.34922" lon="2.70296">
        <ele>118</ele>
        <time>2021-12-08T13:22:46.264Z</time>
      </trkpt>
      <trkpt lat="48.34928" lon="2.70295">
        <ele>118</ele>
        <time>2021-12-08T13:22:51.264Z</time>
      </trkpt>
      <trkpt lat="48.34935" lon="2.70293">
        <ele>119</ele>
        <time>2021-12-08T13:22:56.271Z</time>
      </trkpt>
      <trkpt lat="48.34942" lon="2.70294">
        <ele>119</ele>
        <time>2021-12-08T13:23:01.266Z</time>
      </trkpt>
      <trkpt lat="48.34948" lon="2.70294">
        <ele>119</ele>
        <time>2021-12-08T13:23:06.266Z</time>
      </trkpt>
      <trkpt lat="48.34954" lon="2.70294">
        <ele>119</ele>
        <time>2021-12-08T13:23:10.261Z</time>
      </trkpt>
      <trkpt lat="48.34961" lon="2.70297">
        <ele>118</ele>
        <time>2021-12-08T13:23:15.268Z</time>
      </trkpt>
      <trkpt lat="48.34966" lon="2.70296">
        <ele>118</ele>
        <time>2021-12-08T13:23:19.266Z</time>
      </trkpt>
      <trkpt lat="48.34973" lon="2.70294">
        <ele>118</ele>
        <time>2021-12-08T13:23:24.266Z</time>
      </trkpt>
      <trkpt lat="48.34979" lon="2.70293">
        <ele>118</ele>
        <time>2021-12-08T13:23:28.270Z</time>
      </trkpt>
      <trkpt lat="48.34985" lon="2.70292">
        <ele>118</ele>
        <time>2021-12-08T13:23:33.265Z</time>
      </trkpt>
      <trkpt lat="48.34992" lon="2.70294">
        <ele>119</ele>
        <time>2021-12-08T13:23:38.268Z</time>
      </trkpt>
      <trkpt lat="48.34998" lon="2.70292">
        <ele>119</ele>
        <time>2021-12-08T13:23:43.271Z</time>
      </trkpt>
      <trkpt lat="48.35005" lon="2.70289">
        <ele>118</ele>
        <time>2021-12-08T13:23:48.277Z</time>
      </trkpt>
      <trkpt lat="48.3501" lon="2.70287">
        <ele>118</ele>
        <time>2021-12-08T13:23:52.282Z</time>
      </trkpt>
      <trkpt lat="48.35016" lon="2.70286">
        <ele>120</ele>
        <time>2021-12-08T13:23:57.277Z</time>
      </trkpt>
      <trkpt lat="48.3502" lon="2.70292">
        <ele>121</ele>
        <time>2021-12-08T13:24:02.265Z</time>
      </trkpt>
      <trkpt lat="48.35018" lon="2.70299">
        <ele>121</ele>
        <time>2021-12-08T13:24:06.273Z</time>
      </trkpt>
      <trkpt lat="48.35013" lon="2.70306">
        <ele>119</ele>
        <time>2021-12-08T13:24:11.278Z</time>
      </trkpt>
      <trkpt lat="48.35009" lon="2.70312">
        <ele>119</ele>
        <time>2021-12-08T13:24:16.272Z</time>
      </trkpt>
      <trkpt lat="48.35006" lon="2.70319">
        <ele>119</ele>
        <time>2021-12-08T13:24:21.280Z</time>
      </trkpt>
      <trkpt lat="48.35003" lon="2.70327">
        <ele>121</ele>
        <time>2021-12-08T13:24:26.266Z</time>
      </trkpt>
      <trkpt lat="48.35002" lon="2.70332">
        <ele>121</ele>
        <time>2021-12-08T13:24:30.270Z</time>
      </trkpt>
      <trkpt lat="48.35" lon="2.7034">
        <ele>121</ele>
        <time>2021-12-08T13:24:35.274Z</time>
      </trkpt>
      <trkpt lat="48.34997" lon="2.70345">
        <ele>121</ele>
        <time>2021-12-08T13:24:39.276Z</time>
      </trkpt>
      <trkpt lat="48.34995" lon="2.70352">
        <ele>123</ele>
        <time>2021-12-08T13:24:44.267Z</time>
      </trkpt>
      <trkpt lat="48.34995" lon="2.7036">
        <ele>123</ele>
        <time>2021-12-08T13:24:49.283Z</time>
      </trkpt>
      <trkpt lat="48.34999" lon="2.70369">
        <ele>123</ele>
        <time>2021-12-08T13:24:54.268Z</time>
      </trkpt>
      <trkpt lat="48.35004" lon="2.70371">
        <ele>123</ele>
        <time>2021-12-08T13:24:59.270Z</time>
      </trkpt>
      <trkpt lat="48.35007" lon="2.70373">
        <ele>123</ele>
        <time>2021-12-08T13:25:04.266Z</time>
      </trkpt>
      <trkpt lat="48.35012" lon="2.70375">
        <ele>126</ele>
        <time>2021-12-08T13:25:09.266Z</time>
      </trkpt>
      <trkpt lat="48.35015" lon="2.70378">
        <ele>125</ele>
        <time>2021-12-08T13:25:13.266Z</time>
      </trkpt>
      <trkpt lat="48.35019" lon="2.70381">
        <ele>125</ele>
        <time>2021-12-08T13:25:18.266Z</time>
      </trkpt>
      <trkpt lat="48.35023" lon="2.70385">
        <ele>125</ele>
        <time>2021-12-08T13:25:23.266Z</time>
      </trkpt>
      <trkpt lat="48.35027" lon="2.70389">
        <ele>125</ele>
        <time>2021-12-08T13:25:27.275Z</time>
      </trkpt>
      <trkpt lat="48.35031" lon="2.70394">
        <ele>125</ele>
        <time>2021-12-08T13:25:32.262Z</time>
      </trkpt>
      <trkpt lat="48.35032" lon="2.70403">
        <ele>126</ele>
        <time>2021-12-08T13:25:37.270Z</time>
      </trkpt>
      <trkpt lat="48.35033" lon="2.70409">
        <ele>126</ele>
        <time>2021-12-08T13:25:41.280Z</time>
      </trkpt>
      <trkpt lat="48.35033" lon="2.70411">
        <ele>126</ele>
        <time>2021-12-08T13:25:46.271Z</time>
      </trkpt>
      <trkpt lat="48.35035" lon="2.7042">
        <ele>126</ele>
        <time>2021-12-08T13:25:51.269Z</time>
      </trkpt>
      <trkpt lat="48.35038" lon="2.70428">
        <ele>126</ele>
        <time>2021-12-08T13:25:56.266Z</time>
      </trkpt>
      <trkpt lat="48.3504" lon="2.70436">
        <ele>127</ele>
        <time>2021-12-08T13:26:01.280Z</time>
      </trkpt>
      <trkpt lat="48.35042" lon="2.70445">
        <ele>126</ele>
        <time>2021-12-08T13:26:06.259Z</time>
      </trkpt>
      <trkpt lat="48.35043" lon="2.70453">
        <ele>126</ele>
        <time>2021-12-08T13:26:11.265Z</time>
      </trkpt>
      <trkpt lat="48.35044" lon="2.7046">
        <ele>127</ele>
        <time>2021-12-08T13:26:15.264Z</time>
      </trkpt>
      <trkpt lat="48.35044" lon="2.70465">
        <ele>127</ele>
        <time>2021-12-08T13:26:20.257Z</time>
      </trkpt>
      <trkpt lat="48.35044" lon="2.70471">
        <ele>127</ele>
        <time>2021-12-08T13:26:25.263Z</time>
      </trkpt>
      <trkpt lat="48.35045" lon="2.70479">
        <ele>127</ele>
        <time>2021-12-08T13:26:30.273Z</time>
      </trkpt>
      <trkpt lat="48.35048" lon="2.70486">
        <ele>127</ele>
        <time>2021-12-08T13:26:35.265Z</time>
      </trkpt>
      <trkpt lat="48.3505" lon="2.70494">
        <ele>128</ele>
        <time>2021-12-08T13:26:40.271Z</time>
      </trkpt>
      <trkpt lat="48.35052" lon="2.705">
        <ele>128</ele>
        <time>2021-12-08T13:26:44.274Z</time>
      </trkpt>
      <trkpt lat="48.35055" lon="2.7051">
        <ele>128</ele>
        <time>2021-12-08T13:26:49.266Z</time>
      </trkpt>
      <trkpt lat="48.35057" lon="2.70518">
        <ele>128</ele>
        <time>2021-12-08T13:26:53.270Z</time>
      </trkpt>
      <trkpt lat="48.35059" lon="2.70526">
        <ele>128</ele>
        <time>2021-12-08T13:26:58.266Z</time>
      </trkpt>
      <trkpt lat="48.35061" lon="2.70536">
        <ele>128</ele>
        <time>2021-12-08T13:27:03.269Z</time>
      </trkpt>
      <trkpt lat="48.35063" lon="2.70544">
        <ele>128</ele>
        <time>2021-12-08T13:27:08.264Z</time>
      </trkpt>
      <trkpt lat="48.35064" lon="2.70551">
        <ele>128</ele>
        <time>2021-12-08T13:27:13.266Z</time>
      </trkpt>
      <trkpt lat="48.35065" lon="2.70561">
        <ele>128</ele>
        <time>2021-12-08T13:27:18.267Z</time>
      </trkpt>
      <trkpt lat="48.35067" lon="2.70571">
        <ele>128</ele>
        <time>2021-12-08T13:27:23.272Z</time>
      </trkpt>
      <trkpt lat="48.35069" lon="2.70581">
        <ele>128</ele>
        <time>2021-12-08T13:27:28.265Z</time>
      </trkpt>
      <trkpt lat="48.3507" lon="2.7059">
        <ele>129</ele>
        <time>2021-12-08T13:27:33.268Z</time>
      </trkpt>
      <trkpt lat="48.35073" lon="2.70599">
        <ele>127</ele>
        <time>2021-12-08T13:27:38.262Z</time>
      </trkpt>
      <trkpt lat="48.35075" lon="2.70605">
        <ele>127</ele>
        <time>2021-12-08T13:27:42.282Z</time>
      </trkpt>
      <trkpt lat="48.35077" lon="2.70613">
        <ele>127</ele>
        <time>2021-12-08T13:27:47.409Z</time>
      </trkpt>
      <trkpt lat="48.35079" lon="2.70622">
        <ele>127</ele>
        <time>2021-12-08T13:27:52.267Z</time>
      </trkpt>
      <trkpt lat="48.3508" lon="2.7063">
        <ele>126</ele>
        <time>2021-12-08T13:27:57.269Z</time>
      </trkpt>
      <trkpt lat="48.35081" lon="2.70639">
        <ele>126</ele>
        <time>2021-12-08T13:28:02.268Z</time>
      </trkpt>
      <trkpt lat="48.35084" lon="2.70647">
        <ele>126</ele>
        <time>2021-12-08T13:28:07.267Z</time>
      </trkpt>
      <trkpt lat="48.35086" lon="2.70653">
        <ele>126</ele>
        <time>2021-12-08T13:28:11.275Z</time>
      </trkpt>
      <trkpt lat="48.35088" lon="2.70661">
        <ele>126</ele>
        <time>2021-12-08T13:28:16.268Z</time>
      </trkpt>
      <trkpt lat="48.3509" lon="2.70668">
        <ele>126</ele>
        <time>2021-12-08T13:28:20.279Z</time>
      </trkpt>
      <trkpt lat="48.35091" lon="2.70677">
        <ele>126</ele>
        <time>2021-12-08T13:28:25.268Z</time>
      </trkpt>
      <trkpt lat="48.35093" lon="2.70687">
        <ele>126</ele>
        <time>2021-12-08T13:28:30.266Z</time>
      </trkpt>
      <trkpt lat="48.35095" lon="2.70694">
        <ele>126</ele>
        <time>2021-12-08T13:28:34.275Z</time>
      </trkpt>
      <trkpt lat="48.35096" lon="2.70703">
        <ele>126</ele>
        <time>2021-12-08T13:28:39.271Z</time>
      </trkpt>
      <trkpt lat="48.35096" lon="2.70715">
        <ele>127</ele>
        <time>2021-12-08T13:28:44.283Z</time>
      </trkpt>
      <trkpt lat="48.35093" lon="2.70714">
        <ele>127</ele>
        <time>2021-12-08T13:28:49.257Z</time>
      </trkpt>
      <trkpt lat="48.35095" lon="2.70723">
        <ele>127</ele>
        <time>2021-12-08T13:28:53.269Z</time>
      </trkpt>
      <trkpt lat="48.35098" lon="2.70733">
        <ele>127</ele>
        <time>2021-12-08T13:28:58.263Z</time>
      </trkpt>
      <trkpt lat="48.35101" lon="2.70743">
        <ele>128</ele>
        <time>2021-12-08T13:29:03.265Z</time>
      </trkpt>
      <trkpt lat="48.35105" lon="2.70751">
        <ele>128</ele>
        <time>2021-12-08T13:29:08.267Z</time>
      </trkpt>
      <trkpt lat="48.35106" lon="2.70761">
        <ele>128</ele>
        <time>2021-12-08T13:29:13.267Z</time>
      </trkpt>
      <trkpt lat="48.35108" lon="2.70769">
        <ele>128</ele>
        <time>2021-12-08T13:29:17.272Z</time>
      </trkpt>
      <trkpt lat="48.3511" lon="2.70778">
        <ele>128</ele>
        <time>2021-12-08T13:29:22.282Z</time>
      </trkpt>
      <trkpt lat="48.35112" lon="2.70786">
        <ele>128</ele>
        <time>2021-12-08T13:29:27.258Z</time>
      </trkpt>
      <trkpt lat="48.35115" lon="2.70795">
        <ele>128</ele>
        <time>2021-12-08T13:29:32.260Z</time>
      </trkpt>
      <trkpt lat="48.35117" lon="2.70802">
        <ele>128</ele>
        <time>2021-12-08T13:29:36.263Z</time>
      </trkpt>
      <trkpt lat="48.35119" lon="2.70808">
        <ele>128</ele>
        <time>2021-12-08T13:29:40.267Z</time>
      </trkpt>
      <trkpt lat="48.35122" lon="2.70817">
        <ele>128</ele>
        <time>2021-12-08T13:29:45.275Z</time>
      </trkpt>
      <trkpt lat="48.35123" lon="2.70827">
        <ele>128</ele>
        <time>2021-12-08T13:29:50.272Z</time>
      </trkpt>
      <trkpt lat="48.35125" lon="2.70836">
        <ele>128</ele>
        <time>2021-12-08T13:29:55.267Z</time>
      </trkpt>
      <trkpt lat="48.35127" lon="2.70842">
        <ele>128</ele>
        <time>2021-12-08T13:29:59.276Z</time>
      </trkpt>
      <trkpt lat="48.35129" lon="2.70851">
        <ele>127</ele>
        <time>2021-12-08T13:30:04.270Z</time>
      </trkpt>
      <trkpt lat="48.35132" lon="2.70861">
        <ele>127</ele>
        <time>2021-12-08T13:30:09.272Z</time>
      </trkpt>
      <trkpt lat="48.35134" lon="2.70866">
        <ele>127</ele>
        <time>2021-12-08T13:30:13.266Z</time>
      </trkpt>
      <trkpt lat="48.35136" lon="2.70874">
        <ele>127</ele>
        <time>2021-12-08T13:30:18.272Z</time>
      </trkpt>
      <trkpt lat="48.35138" lon="2.70882">
        <ele>125</ele>
        <time>2021-12-08T13:30:22.274Z</time>
      </trkpt>
      <trkpt lat="48.3514" lon="2.7089">
        <ele>125</ele>
        <time>2021-12-08T13:30:27.272Z</time>
      </trkpt>
      <trkpt lat="48.35143" lon="2.70899">
        <ele>125</ele>
        <time>2021-12-08T13:30:32.271Z</time>
      </trkpt>
      <trkpt lat="48.35143" lon="2.70909">
        <ele>124</ele>
        <time>2021-12-08T13:30:36.264Z</time>
      </trkpt>
      <trkpt lat="48.35144" lon="2.70921">
        <ele>124</ele>
        <time>2021-12-08T13:30:41.264Z</time>
      </trkpt>
      <trkpt lat="48.35145" lon="2.70929">
        <ele>124</ele>
        <time>2021-12-08T13:30:46.262Z</time>
      </trkpt>
      <trkpt lat="48.35152" lon="2.70929">
        <ele>124</ele>
        <time>2021-12-08T13:30:51.268Z</time>
      </trkpt>
      <trkpt lat="48.35154" lon="2.70929">
        <ele>125</ele>
        <time>2021-12-08T13:30:55.263Z</time>
      </trkpt>
      <trkpt lat="48.35154" lon="2.70928">
        <ele>125</ele>
        <time>2021-12-08T13:32:14.267Z</time>
      </trkpt>
      <trkpt lat="48.3516" lon="2.70931">
        <ele>125</ele>
        <time>2021-12-08T13:32:19.272Z</time>
      </trkpt>
      <trkpt lat="48.35165" lon="2.70934">
        <ele>125</ele>
        <time>2021-12-08T13:32:24.275Z</time>
      </trkpt>
      <trkpt lat="48.35168" lon="2.70937">
        <ele>125</ele>
        <time>2021-12-08T13:32:29.260Z</time>
      </trkpt>
      <trkpt lat="48.35173" lon="2.70937">
        <ele>125</ele>
        <time>2021-12-08T13:32:34.261Z</time>
      </trkpt>
      <trkpt lat="48.35179" lon="2.70938">
        <ele>125</ele>
        <time>2021-12-08T13:32:39.272Z</time>
      </trkpt>
      <trkpt lat="48.35184" lon="2.70938">
        <ele>126</ele>
        <time>2021-12-08T13:32:44.274Z</time>
      </trkpt>
      <trkpt lat="48.3519" lon="2.70938">
        <ele>126</ele>
        <time>2021-12-08T13:32:49.272Z</time>
      </trkpt>
      <trkpt lat="48.35196" lon="2.70939">
        <ele>126</ele>
        <time>2021-12-08T13:32:54.266Z</time>
      </trkpt>
      <trkpt lat="48.35202" lon="2.7094">
        <ele>126</ele>
        <time>2021-12-08T13:32:59.271Z</time>
      </trkpt>
      <trkpt lat="48.35208" lon="2.70941">
        <ele>126</ele>
        <time>2021-12-08T13:33:04.273Z</time>
      </trkpt>
      <trkpt lat="48.35213" lon="2.7094">
        <ele>129</ele>
        <time>2021-12-08T13:33:09.266Z</time>
      </trkpt>
      <trkpt lat="48.35219" lon="2.70941">
        <ele>129</ele>
        <time>2021-12-08T13:33:14.267Z</time>
      </trkpt>
      <trkpt lat="48.35225" lon="2.70942">
        <ele>129</ele>
        <time>2021-12-08T13:33:19.266Z</time>
      </trkpt>
      <trkpt lat="48.35231" lon="2.70944">
        <ele>129</ele>
        <time>2021-12-08T13:33:24.279Z</time>
      </trkpt>
      <trkpt lat="48.35236" lon="2.70942">
        <ele>129</ele>
        <time>2021-12-08T13:33:29.265Z</time>
      </trkpt>
      <trkpt lat="48.35242" lon="2.70941">
        <ele>131</ele>
        <time>2021-12-08T13:33:34.265Z</time>
      </trkpt>
      <trkpt lat="48.35247" lon="2.70941">
        <ele>131</ele>
        <time>2021-12-08T13:33:38.268Z</time>
      </trkpt>
      <trkpt lat="48.35252" lon="2.70942">
        <ele>131</ele>
        <time>2021-12-08T13:33:43.267Z</time>
      </trkpt>
      <trkpt lat="48.35258" lon="2.70942">
        <ele>131</ele>
        <time>2021-12-08T13:33:48.269Z</time>
      </trkpt>
      <trkpt lat="48.35263" lon="2.70943">
        <ele>131</ele>
        <time>2021-12-08T13:33:53.266Z</time>
      </trkpt>
      <trkpt lat="48.35268" lon="2.70943">
        <ele>130</ele>
        <time>2021-12-08T13:33:57.273Z</time>
      </trkpt>
      <trkpt lat="48.35275" lon="2.70941">
        <ele>130</ele>
        <time>2021-12-08T13:34:02.266Z</time>
      </trkpt>
      <trkpt lat="48.3528" lon="2.70939">
        <ele>130</ele>
        <time>2021-12-08T13:34:07.275Z</time>
      </trkpt>
      <trkpt lat="48.35282" lon="2.70938">
        <ele>130</ele>
        <time>2021-12-08T13:34:11.272Z</time>
      </trkpt>
      <trkpt lat="48.35287" lon="2.70936">
        <ele>130</ele>
        <time>2021-12-08T13:34:15.288Z</time>
      </trkpt>
      <trkpt lat="48.35293" lon="2.70936">
        <ele>128</ele>
        <time>2021-12-08T13:34:20.275Z</time>
      </trkpt>
      <trkpt lat="48.35298" lon="2.70935">
        <ele>128</ele>
        <time>2021-12-08T13:34:25.268Z</time>
      </trkpt>
      <trkpt lat="48.353" lon="2.70938">
        <ele>128</ele>
        <time>2021-12-08T13:34:30.260Z</time>
      </trkpt>
      <trkpt lat="48.35301" lon="2.70939">
        <ele>128</ele>
        <time>2021-12-08T13:34:34.269Z</time>
      </trkpt>
      <trkpt lat="48.35304" lon="2.70936">
        <ele>128</ele>
        <time>2021-12-08T13:34:38.272Z</time>
      </trkpt>
      <trkpt lat="48.35307" lon="2.70936">
        <ele>128</ele>
        <time>2021-12-08T13:34:43.274Z</time>
      </trkpt>
      <trkpt lat="48.35311" lon="2.70934">
        <ele>128</ele>
        <time>2021-12-08T13:34:48.270Z</time>
      </trkpt>
      <trkpt lat="48.35314" lon="2.70937">
        <ele>128</ele>
        <time>2021-12-08T13:35:35.265Z</time>
      </trkpt>
      <trkpt lat="48.35316" lon="2.70934">
        <ele>128</ele>
        <time>2021-12-08T13:35:40.260Z</time>
      </trkpt>
      <trkpt lat="48.35321" lon="2.70933">
        <ele>125</ele>
        <time>2021-12-08T13:35:44.273Z</time>
      </trkpt>
      <trkpt lat="48.35326" lon="2.70935">
        <ele>125</ele>
        <time>2021-12-08T13:35:48.267Z</time>
      </trkpt>
      <trkpt lat="48.35328" lon="2.70936">
        <ele>125</ele>
        <time>2021-12-08T13:35:53.266Z</time>
      </trkpt>
      <trkpt lat="48.35332" lon="2.70938">
        <ele>125</ele>
        <time>2021-12-08T13:35:57.279Z</time>
      </trkpt>
      <trkpt lat="48.35337" lon="2.70939">
        <ele>125</ele>
        <time>2021-12-08T13:36:02.272Z</time>
      </trkpt>
      <trkpt lat="48.35341" lon="2.70939">
        <ele>125</ele>
        <time>2021-12-08T13:36:07.268Z</time>
      </trkpt>
      <trkpt lat="48.35344" lon="2.7094">
        <ele>125</ele>
        <time>2021-12-08T13:36:11.274Z</time>
      </trkpt>
      <trkpt lat="48.35347" lon="2.70939">
        <ele>125</ele>
        <time>2021-12-08T13:36:16.267Z</time>
      </trkpt>
      <trkpt lat="48.35351" lon="2.70939">
        <ele>122</ele>
        <time>2021-12-08T13:36:21.278Z</time>
      </trkpt>
      <trkpt lat="48.35356" lon="2.70941">
        <ele>122</ele>
        <time>2021-12-08T13:36:26.260Z</time>
      </trkpt>
      <trkpt lat="48.35358" lon="2.70942">
        <ele>122</ele>
        <time>2021-12-08T13:36:30.277Z</time>
      </trkpt>
      <trkpt lat="48.3536" lon="2.70946">
        <ele>122</ele>
        <time>2021-12-08T13:36:35.259Z</time>
      </trkpt>
      <trkpt lat="48.35359" lon="2.70951">
        <ele>122</ele>
        <time>2021-12-08T13:36:40.270Z</time>
      </trkpt>
      <trkpt lat="48.35358" lon="2.70956">
        <ele>122</ele>
        <time>2021-12-08T13:36:45.271Z</time>
      </trkpt>
      <trkpt lat="48.35358" lon="2.70957">
        <ele>122</ele>
        <time>2021-12-08T13:36:50.276Z</time>
      </trkpt>
      <trkpt lat="48.35355" lon="2.70962">
        <ele>119</ele>
        <time>2021-12-08T13:36:55.258Z</time>
      </trkpt>
      <trkpt lat="48.35355" lon="2.70966">
        <ele>119</ele>
        <time>2021-12-08T13:36:59.261Z</time>
      </trkpt>
      <trkpt lat="48.35356" lon="2.7097">
        <ele>119</ele>
        <time>2021-12-08T13:37:04.265Z</time>
      </trkpt>
      <trkpt lat="48.35356" lon="2.70974">
        <ele>119</ele>
        <time>2021-12-08T13:37:09.266Z</time>
      </trkpt>
      <trkpt lat="48.35356" lon="2.70981">
        <ele>119</ele>
        <time>2021-12-08T13:37:14.279Z</time>
      </trkpt>
      <trkpt lat="48.35354" lon="2.70986">
        <ele>119</ele>
        <time>2021-12-08T13:37:19.265Z</time>
      </trkpt>
      <trkpt lat="48.35352" lon="2.70991">
        <ele>119</ele>
        <time>2021-12-08T13:37:23.277Z</time>
      </trkpt>
      <trkpt lat="48.35351" lon="2.70995">
        <ele>119</ele>
        <time>2021-12-08T13:37:28.275Z</time>
      </trkpt>
      <trkpt lat="48.35351" lon="2.71">
        <ele>119</ele>
        <time>2021-12-08T13:37:33.272Z</time>
      </trkpt>
      <trkpt lat="48.35349" lon="2.71006">
        <ele>119</ele>
        <time>2021-12-08T13:37:38.267Z</time>
      </trkpt>
      <trkpt lat="48.35349" lon="2.71012">
        <ele>119</ele>
        <time>2021-12-08T13:37:43.268Z</time>
      </trkpt>
      <trkpt lat="48.35349" lon="2.71019">
        <ele>118</ele>
        <time>2021-12-08T13:37:48.269Z</time>
      </trkpt>
      <trkpt lat="48.35348" lon="2.71025">
        <ele>118</ele>
        <time>2021-12-08T13:37:53.266Z</time>
      </trkpt>
      <trkpt lat="48.35348" lon="2.71033">
        <ele>118</ele>
        <time>2021-12-08T13:37:57.276Z</time>
      </trkpt>
      <trkpt lat="48.35348" lon="2.71041">
        <ele>118</ele>
        <time>2021-12-08T13:38:02.268Z</time>
      </trkpt>
      <trkpt lat="48.35347" lon="2.71046">
        <ele>118</ele>
        <time>2021-12-08T13:38:06.272Z</time>
      </trkpt>
      <trkpt lat="48.35349" lon="2.71054">
        <ele>118</ele>
        <time>2021-12-08T13:38:11.263Z</time>
      </trkpt>
      <trkpt lat="48.35348" lon="2.7106">
        <ele>118</ele>
        <time>2021-12-08T13:38:15.275Z</time>
      </trkpt>
      <trkpt lat="48.35348" lon="2.71067">
        <ele>118</ele>
        <time>2021-12-08T13:38:20.285Z</time>
      </trkpt>
      <trkpt lat="48.35347" lon="2.71075">
        <ele>119</ele>
        <time>2021-12-08T13:38:24.285Z</time>
      </trkpt>
      <trkpt lat="48.35347" lon="2.71083">
        <ele>119</ele>
        <time>2021-12-08T13:38:29.269Z</time>
      </trkpt>
      <trkpt lat="48.35347" lon="2.71089">
        <ele>119</ele>
        <time>2021-12-08T13:38:33.283Z</time>
      </trkpt>
      <trkpt lat="48.35347" lon="2.71097">
        <ele>119</ele>
        <time>2021-12-08T13:38:38.273Z</time>
      </trkpt>
      <trkpt lat="48.35346" lon="2.71104">
        <ele>119</ele>
        <time>2021-12-08T13:38:42.275Z</time>
      </trkpt>
      <trkpt lat="48.35347" lon="2.71114">
        <ele>119</ele>
        <time>2021-12-08T13:38:47.269Z</time>
      </trkpt>
      <trkpt lat="48.35347" lon="2.71123">
        <ele>119</ele>
        <time>2021-12-08T13:38:52.270Z</time>
      </trkpt>
      <trkpt lat="48.35348" lon="2.71133">
        <ele>118</ele>
        <time>2021-12-08T13:38:57.268Z</time>
      </trkpt>
      <trkpt lat="48.35348" lon="2.71141">
        <ele>118</ele>
        <time>2021-12-08T13:39:02.271Z</time>
      </trkpt>
      <trkpt lat="48.35349" lon="2.71153">
        <ele>118</ele>
        <time>2021-12-08T13:39:07.267Z</time>
      </trkpt>
      <trkpt lat="48.35352" lon="2.71161">
        <ele>116</ele>
        <time>2021-12-08T13:39:12.261Z</time>
      </trkpt>
      <trkpt lat="48.35352" lon="2.71169">
        <ele>116</ele>
        <time>2021-12-08T13:39:16.274Z</time>
      </trkpt>
      <trkpt lat="48.35353" lon="2.71178">
        <ele>116</ele>
        <time>2021-12-08T13:39:21.266Z</time>
      </trkpt>
      <trkpt lat="48.35354" lon="2.71186">
        <ele>115</ele>
        <time>2021-12-08T13:39:26.264Z</time>
      </trkpt>
      <trkpt lat="48.35355" lon="2.71196">
        <ele>115</ele>
        <time>2021-12-08T13:39:31.266Z</time>
      </trkpt>
      <trkpt lat="48.35356" lon="2.71206">
        <ele>115</ele>
        <time>2021-12-08T13:39:36.260Z</time>
      </trkpt>
      <trkpt lat="48.35356" lon="2.71216">
        <ele>113</ele>
        <time>2021-12-08T13:39:41.265Z</time>
      </trkpt>
      <trkpt lat="48.35357" lon="2.71226">
        <ele>113</ele>
        <time>2021-12-08T13:39:46.261Z</time>
      </trkpt>
      <trkpt lat="48.35357" lon="2.71234">
        <ele>113</ele>
        <time>2021-12-08T13:39:50.271Z</time>
      </trkpt>
      <trkpt lat="48.35358" lon="2.71243">
        <ele>111</ele>
        <time>2021-12-08T13:39:55.266Z</time>
      </trkpt>
      <trkpt lat="48.35358" lon="2.71252">
        <ele>111</ele>
        <time>2021-12-08T13:40:00.263Z</time>
      </trkpt>
      <trkpt lat="48.35358" lon="2.71261">
        <ele>111</ele>
        <time>2021-12-08T13:40:05.257Z</time>
      </trkpt>
      <trkpt lat="48.35358" lon="2.71268">
        <ele>110</ele>
        <time>2021-12-08T13:40:09.276Z</time>
      </trkpt>
      <trkpt lat="48.35359" lon="2.71276">
        <ele>110</ele>
        <time>2021-12-08T13:40:13.274Z</time>
      </trkpt>
      <trkpt lat="48.35359" lon="2.71286">
        <ele>110</ele>
        <time>2021-12-08T13:40:18.270Z</time>
      </trkpt>
      <trkpt lat="48.3536" lon="2.71295">
        <ele>110</ele>
        <time>2021-12-08T13:40:23.276Z</time>
      </trkpt>
      <trkpt lat="48.35361" lon="2.71303">
        <ele>110</ele>
        <time>2021-12-08T13:40:27.266Z</time>
      </trkpt>
      <trkpt lat="48.35361" lon="2.71313">
        <ele>110</ele>
        <time>2021-12-08T13:40:32.259Z</time>
      </trkpt>
      <trkpt lat="48.35361" lon="2.71321">
        <ele>110</ele>
        <time>2021-12-08T13:40:36.268Z</time>
      </trkpt>
      <trkpt lat="48.35361" lon="2.71331">
        <ele>110</ele>
        <time>2021-12-08T13:40:41.267Z</time>
      </trkpt>
      <trkpt lat="48.35361" lon="2.71341">
        <ele>110</ele>
        <time>2021-12-08T13:40:46.259Z</time>
      </trkpt>
      <trkpt lat="48.35361" lon="2.71349">
        <ele>109</ele>
        <time>2021-12-08T13:40:50.267Z</time>
      </trkpt>
      <trkpt lat="48.35361" lon="2.71359">
        <ele>109</ele>
        <time>2021-12-08T13:40:55.264Z</time>
      </trkpt>
      <trkpt lat="48.35361" lon="2.71367">
        <ele>109</ele>
        <time>2021-12-08T13:40:59.266Z</time>
      </trkpt>
      <trkpt lat="48.35361" lon="2.71377">
        <ele>109</ele>
        <time>2021-12-08T13:41:04.270Z</time>
      </trkpt>
      <trkpt lat="48.35361" lon="2.71384">
        <ele>109</ele>
        <time>2021-12-08T13:41:08.265Z</time>
      </trkpt>
      <trkpt lat="48.35361" lon="2.71394">
        <ele>109</ele>
        <time>2021-12-08T13:41:13.265Z</time>
      </trkpt>
      <trkpt lat="48.35361" lon="2.71404">
        <ele>109</ele>
        <time>2021-12-08T13:41:18.273Z</time>
      </trkpt>
      <trkpt lat="48.35362" lon="2.7141">
        <ele>109</ele>
        <time>2021-12-08T13:41:22.277Z</time>
      </trkpt>
      <trkpt lat="48.35362" lon="2.7142">
        <ele>109</ele>
        <time>2021-12-08T13:41:27.266Z</time>
      </trkpt>
      <trkpt lat="48.35362" lon="2.7143">
        <ele>109</ele>
        <time>2021-12-08T13:41:32.269Z</time>
      </trkpt>
      <trkpt lat="48.35364" lon="2.71438">
        <ele>108</ele>
        <time>2021-12-08T13:41:37.260Z</time>
      </trkpt>
      <trkpt lat="48.35365" lon="2.71446">
        <ele>108</ele>
        <time>2021-12-08T13:41:41.260Z</time>
      </trkpt>
      <trkpt lat="48.35366" lon="2.71454">
        <ele>108</ele>
        <time>2021-12-08T13:41:46.262Z</time>
      </trkpt>
      <trkpt lat="48.35367" lon="2.71463">
        <ele>107</ele>
        <time>2021-12-08T13:41:51.266Z</time>
      </trkpt>
      <trkpt lat="48.35367" lon="2.71472">
        <ele>107</ele>
        <time>2021-12-08T13:41:56.265Z</time>
      </trkpt>
      <trkpt lat="48.35367" lon="2.71476">
        <ele>107</ele>
        <time>2021-12-08T13:42:04.274Z</time>
      </trkpt>
      <trkpt lat="48.35368" lon="2.71476">
        <ele>107</ele>
        <time>2021-12-08T13:42:09.272Z</time>
      </trkpt>
      <trkpt lat="48.35368" lon="2.71479">
        <ele>107</ele>
        <time>2021-12-08T13:42:14.271Z</time>
      </trkpt>
      <trkpt lat="48.35367" lon="2.71488">
        <ele>107</ele>
        <time>2021-12-08T13:42:19.274Z</time>
      </trkpt>
      <trkpt lat="48.35367" lon="2.71495">
        <ele>107</ele>
        <time>2021-12-08T13:42:24.272Z</time>
      </trkpt>
      <trkpt lat="48.35367" lon="2.71504">
        <ele>107</ele>
        <time>2021-12-08T13:42:29.260Z</time>
      </trkpt>
      <trkpt lat="48.35367" lon="2.71513">
        <ele>107</ele>
        <time>2021-12-08T13:42:34.260Z</time>
      </trkpt>
      <trkpt lat="48.35367" lon="2.71519">
        <ele>106</ele>
        <time>2021-12-08T13:42:38.261Z</time>
      </trkpt>
      <trkpt lat="48.35368" lon="2.71528">
        <ele>106</ele>
        <time>2021-12-08T13:42:43.263Z</time>
      </trkpt>
      <trkpt lat="48.35369" lon="2.71537">
        <ele>106</ele>
        <time>2021-12-08T13:42:48.258Z</time>
      </trkpt>
      <trkpt lat="48.35369" lon="2.71546">
        <ele>104</ele>
        <time>2021-12-08T13:42:53.274Z</time>
      </trkpt>
      <trkpt lat="48.3537" lon="2.71553">
        <ele>104</ele>
        <time>2021-12-08T13:42:57.271Z</time>
      </trkpt>
      <trkpt lat="48.35371" lon="2.71561">
        <ele>104</ele>
        <time>2021-12-08T13:43:02.259Z</time>
      </trkpt>
      <trkpt lat="48.35372" lon="2.71568">
        <ele>104</ele>
        <time>2021-12-08T13:43:06.272Z</time>
      </trkpt>
      <trkpt lat="48.35371" lon="2.71578">
        <ele>104</ele>
        <time>2021-12-08T13:43:11.272Z</time>
      </trkpt>
      <trkpt lat="48.3537" lon="2.71585">
        <ele>104</ele>
        <time>2021-12-08T13:43:15.267Z</time>
      </trkpt>
      <trkpt lat="48.35368" lon="2.71594">
        <ele>104</ele>
        <time>2021-12-08T13:43:20.265Z</time>
      </trkpt>
      <trkpt lat="48.35364" lon="2.716">
        <ele>103</ele>
        <time>2021-12-08T13:43:25.256Z</time>
      </trkpt>
      <trkpt lat="48.35361" lon="2.71606">
        <ele>103</ele>
        <time>2021-12-08T13:43:30.264Z</time>
      </trkpt>
      <trkpt lat="48.35359" lon="2.71615">
        <ele>103</ele>
        <time>2021-12-08T13:43:35.262Z</time>
      </trkpt>
      <trkpt lat="48.35359" lon="2.71624">
        <ele>103</ele>
        <time>2021-12-08T13:43:40.270Z</time>
      </trkpt>
      <trkpt lat="48.35359" lon="2.71631">
        <ele>101</ele>
        <time>2021-12-08T13:43:44.269Z</time>
      </trkpt>
      <trkpt lat="48.35358" lon="2.71637">
        <ele>101</ele>
        <time>2021-12-08T13:43:48.276Z</time>
      </trkpt>
      <trkpt lat="48.35357" lon="2.71646">
        <ele>101</ele>
        <time>2021-12-08T13:43:53.273Z</time>
      </trkpt>
      <trkpt lat="48.35356" lon="2.71654">
        <ele>97</ele>
        <time>2021-12-08T13:43:58.267Z</time>
      </trkpt>
      <trkpt lat="48.35355" lon="2.71661">
        <ele>97</ele>
        <time>2021-12-08T13:44:02.270Z</time>
      </trkpt>
      <trkpt lat="48.35353" lon="2.71669">
        <ele>97</ele>
        <time>2021-12-08T13:44:07.266Z</time>
      </trkpt>
      <trkpt lat="48.35352" lon="2.71676">
        <ele>97</ele>
        <time>2021-12-08T13:44:12.262Z</time>
      </trkpt>
      <trkpt lat="48.35351" lon="2.71685">
        <ele>93</ele>
        <time>2021-12-08T13:44:17.264Z</time>
      </trkpt>
      <trkpt lat="48.3535" lon="2.71691">
        <ele>93</ele>
        <time>2021-12-08T13:44:21.255Z</time>
      </trkpt>
      <trkpt lat="48.35349" lon="2.71702">
        <ele>93</ele>
        <time>2021-12-08T13:44:26.256Z</time>
      </trkpt>
      <trkpt lat="48.35348" lon="2.7171">
        <ele>91</ele>
        <time>2021-12-08T13:44:30.258Z</time>
      </trkpt>
      <trkpt lat="48.35348" lon="2.71716">
        <ele>91</ele>
        <time>2021-12-08T13:44:34.263Z</time>
      </trkpt>
      <trkpt lat="48.35347" lon="2.71723">
        <ele>91</ele>
        <time>2021-12-08T13:44:39.257Z</time>
      </trkpt>
      <trkpt lat="48.35345" lon="2.71731">
        <ele>91</ele>
        <time>2021-12-08T13:44:44.266Z</time>
      </trkpt>
      <trkpt lat="48.35343" lon="2.71741">
        <ele>89</ele>
        <time>2021-12-08T13:44:49.269Z</time>
      </trkpt>
      <trkpt lat="48.35341" lon="2.71749">
        <ele>89</ele>
        <time>2021-12-08T13:44:54.266Z</time>
      </trkpt>
      <trkpt lat="48.35339" lon="2.71758">
        <ele>89</ele>
        <time>2021-12-08T13:44:59.262Z</time>
      </trkpt>
      <trkpt lat="48.35337" lon="2.71767">
        <ele>88</ele>
        <time>2021-12-08T13:45:04.267Z</time>
      </trkpt>
      <trkpt lat="48.35335" lon="2.71776">
        <ele>88</ele>
        <time>2021-12-08T13:45:09.258Z</time>
      </trkpt>
      <trkpt lat="48.35334" lon="2.71786">
        <ele>88</ele>
        <time>2021-12-08T13:45:14.259Z</time>
      </trkpt>
      <trkpt lat="48.35332" lon="2.71793">
        <ele>88</ele>
        <time>2021-12-08T13:45:19.257Z</time>
      </trkpt>
      <trkpt lat="48.35331" lon="2.718">
        <ele>88</ele>
        <time>2021-12-08T13:45:23.270Z</time>
      </trkpt>
      <trkpt lat="48.35329" lon="2.71809">
        <ele>88</ele>
        <time>2021-12-08T13:45:28.262Z</time>
      </trkpt>
      <trkpt lat="48.35327" lon="2.71817">
        <ele>88</ele>
        <time>2021-12-08T13:45:33.251Z</time>
      </trkpt>
      <trkpt lat="48.3533" lon="2.71828">
        <ele>89</ele>
        <time>2021-12-08T13:46:11.260Z</time>
      </trkpt>
      <trkpt lat="48.3533" lon="2.71828">
        <ele>89</ele>
        <time>2021-12-08T13:46:15.262Z</time>
      </trkpt>
      <trkpt lat="48.35331" lon="2.71832">
        <ele>89</ele>
        <time>2021-12-08T13:46:19.270Z</time>
      </trkpt>
      <trkpt lat="48.35329" lon="2.71834">
        <ele>89</ele>
        <time>2021-12-08T13:46:24.269Z</time>
      </trkpt>
      <trkpt lat="48.35325" lon="2.71839">
        <ele>89</ele>
        <time>2021-12-08T13:46:29.259Z</time>
      </trkpt>
      <trkpt lat="48.35321" lon="2.71842">
        <ele>89</ele>
        <time>2021-12-08T13:46:33.253Z</time>
      </trkpt>
      <trkpt lat="48.3532" lon="2.71849">
        <ele>91</ele>
        <time>2021-12-08T13:46:38.259Z</time>
      </trkpt>
      <trkpt lat="48.3532" lon="2.71853">
        <ele>91</ele>
        <time>2021-12-08T13:46:42.278Z</time>
      </trkpt>
      <trkpt lat="48.35318" lon="2.71859">
        <ele>91</ele>
        <time>2021-12-08T13:46:47.269Z</time>
      </trkpt>
      <trkpt lat="48.35316" lon="2.71866">
        <ele>91</ele>
        <time>2021-12-08T13:46:52.260Z</time>
      </trkpt>
      <trkpt lat="48.35314" lon="2.71873">
        <ele>91</ele>
        <time>2021-12-08T13:46:57.258Z</time>
      </trkpt>
      <trkpt lat="48.35313" lon="2.7188">
        <ele>93</ele>
        <time>2021-12-08T13:47:02.257Z</time>
      </trkpt>
      <trkpt lat="48.35311" lon="2.71886">
        <ele>93</ele>
        <time>2021-12-08T13:47:06.267Z</time>
      </trkpt>
      <trkpt lat="48.35308" lon="2.71894">
        <ele>93</ele>
        <time>2021-12-08T13:47:11.260Z</time>
      </trkpt>
      <trkpt lat="48.35308" lon="2.71899">
        <ele>93</ele>
        <time>2021-12-08T13:47:15.258Z</time>
      </trkpt>
      <trkpt lat="48.35307" lon="2.71908">
        <ele>95</ele>
        <time>2021-12-08T13:47:20.267Z</time>
      </trkpt>
      <trkpt lat="48.35305" lon="2.71914">
        <ele>95</ele>
        <time>2021-12-08T13:47:24.268Z</time>
      </trkpt>
      <trkpt lat="48.35304" lon="2.71922">
        <ele>95</ele>
        <time>2021-12-08T13:47:29.267Z</time>
      </trkpt>
      <trkpt lat="48.35303" lon="2.71927">
        <ele>95</ele>
        <time>2021-12-08T13:47:34.274Z</time>
      </trkpt>
      <trkpt lat="48.35301" lon="2.71936">
        <ele>96</ele>
        <time>2021-12-08T13:47:39.284Z</time>
      </trkpt>
      <trkpt lat="48.35301" lon="2.71945">
        <ele>96</ele>
        <time>2021-12-08T13:47:44.267Z</time>
      </trkpt>
      <trkpt lat="48.35304" lon="2.71949">
        <ele>96</ele>
        <time>2021-12-08T13:47:49.266Z</time>
      </trkpt>
      <trkpt lat="48.35303" lon="2.71958">
        <ele>97</ele>
        <time>2021-12-08T13:47:54.268Z</time>
      </trkpt>
      <trkpt lat="48.35301" lon="2.71968">
        <ele>97</ele>
        <time>2021-12-08T13:47:59.266Z</time>
      </trkpt>
      <trkpt lat="48.353" lon="2.71975">
        <ele>97</ele>
        <time>2021-12-08T13:48:04.268Z</time>
      </trkpt>
      <trkpt lat="48.35299" lon="2.71979">
        <ele>97</ele>
        <time>2021-12-08T13:48:08.269Z</time>
      </trkpt>
      <trkpt lat="48.35297" lon="2.71986">
        <ele>97</ele>
        <time>2021-12-08T13:48:12.277Z</time>
      </trkpt>
      <trkpt lat="48.35295" lon="2.71995">
        <ele>97</ele>
        <time>2021-12-08T13:48:17.268Z</time>
      </trkpt>
      <trkpt lat="48.35293" lon="2.72003">
        <ele>97</ele>
        <time>2021-12-08T13:48:22.268Z</time>
      </trkpt>
      <trkpt lat="48.3529" lon="2.7201">
        <ele>95</ele>
        <time>2021-12-08T13:48:27.270Z</time>
      </trkpt>
      <trkpt lat="48.35287" lon="2.72017">
        <ele>96</ele>
        <time>2021-12-08T13:48:31.268Z</time>
      </trkpt>
      <trkpt lat="48.35285" lon="2.72025">
        <ele>96</ele>
        <time>2021-12-08T13:48:36.264Z</time>
      </trkpt>
      <trkpt lat="48.35284" lon="2.72035">
        <ele>96</ele>
        <time>2021-12-08T13:48:41.270Z</time>
      </trkpt>
      <trkpt lat="48.35282" lon="2.72042">
        <ele>96</ele>
        <time>2021-12-08T13:48:45.268Z</time>
      </trkpt>
      <trkpt lat="48.3528" lon="2.7205">
        <ele>96</ele>
        <time>2021-12-08T13:48:50.267Z</time>
      </trkpt>
      <trkpt lat="48.35277" lon="2.72059">
        <ele>96</ele>
        <time>2021-12-08T13:48:55.265Z</time>
      </trkpt>
      <trkpt lat="48.35274" lon="2.72065">
        <ele>96</ele>
        <time>2021-12-08T13:49:00.271Z</time>
      </trkpt>
      <trkpt lat="48.35272" lon="2.72074">
        <ele>96</ele>
        <time>2021-12-08T13:49:05.259Z</time>
      </trkpt>
      <trkpt lat="48.35269" lon="2.72081">
        <ele>96</ele>
        <time>2021-12-08T13:49:09.259Z</time>
      </trkpt>
      <trkpt lat="48.35266" lon="2.72091">
        <ele>96</ele>
        <time>2021-12-08T13:49:14.270Z</time>
      </trkpt>
      <trkpt lat="48.35262" lon="2.72099">
        <ele>96</ele>
        <time>2021-12-08T13:49:19.271Z</time>
      </trkpt>
      <trkpt lat="48.3526" lon="2.72107">
        <ele>96</ele>
        <time>2021-12-08T13:49:24.273Z</time>
      </trkpt>
      <trkpt lat="48.35258" lon="2.72115">
        <ele>96</ele>
        <time>2021-12-08T13:49:29.262Z</time>
      </trkpt>
      <trkpt lat="48.35254" lon="2.72125">
        <ele>96</ele>
        <time>2021-12-08T13:49:34.265Z</time>
      </trkpt>
      <trkpt lat="48.35252" lon="2.72131">
        <ele>96</ele>
        <time>2021-12-08T13:49:38.275Z</time>
      </trkpt>
      <trkpt lat="48.35249" lon="2.7214">
        <ele>96</ele>
        <time>2021-12-08T13:49:43.273Z</time>
      </trkpt>
      <trkpt lat="48.35247" lon="2.72148">
        <ele>96</ele>
        <time>2021-12-08T13:49:48.269Z</time>
      </trkpt>
      <trkpt lat="48.35244" lon="2.72157">
        <ele>97</ele>
        <time>2021-12-08T13:49:53.267Z</time>
      </trkpt>
      <trkpt lat="48.35242" lon="2.72166">
        <ele>97</ele>
        <time>2021-12-08T13:49:58.269Z</time>
      </trkpt>
      <trkpt lat="48.35239" lon="2.72175">
        <ele>97</ele>
        <time>2021-12-08T13:50:03.265Z</time>
      </trkpt>
      <trkpt lat="48.35235" lon="2.72183">
        <ele>99</ele>
        <time>2021-12-08T13:50:07.258Z</time>
      </trkpt>
      <trkpt lat="48.35233" lon="2.72192">
        <ele>99</ele>
        <time>2021-12-08T13:50:12.260Z</time>
      </trkpt>
      <trkpt lat="48.35231" lon="2.72198">
        <ele>99</ele>
        <time>2021-12-08T13:50:16.265Z</time>
      </trkpt>
      <trkpt lat="48.35229" lon="2.72207">
        <ele>99</ele>
        <time>2021-12-08T13:50:21.257Z</time>
      </trkpt>
      <trkpt lat="48.35226" lon="2.72215">
        <ele>98</ele>
        <time>2021-12-08T13:50:26.265Z</time>
      </trkpt>
      <trkpt lat="48.35223" lon="2.72223">
        <ele>98</ele>
        <time>2021-12-08T13:50:31.269Z</time>
      </trkpt>
      <trkpt lat="48.35221" lon="2.72229">
        <ele>98</ele>
        <time>2021-12-08T13:50:35.265Z</time>
      </trkpt>
      <trkpt lat="48.35219" lon="2.72237">
        <ele>98</ele>
        <time>2021-12-08T13:50:40.260Z</time>
      </trkpt>
      <trkpt lat="48.35217" lon="2.72245">
        <ele>98</ele>
        <time>2021-12-08T13:50:44.275Z</time>
      </trkpt>
      <trkpt lat="48.35215" lon="2.72253">
        <ele>98</ele>
        <time>2021-12-08T13:50:49.260Z</time>
      </trkpt>
      <trkpt lat="48.35212" lon="2.72258">
        <ele>98</ele>
        <time>2021-12-08T13:50:53.276Z</time>
      </trkpt>
      <trkpt lat="48.3521" lon="2.72265">
        <ele>98</ele>
        <time>2021-12-08T13:50:58.268Z</time>
      </trkpt>
      <trkpt lat="48.35209" lon="2.72274">
        <ele>98</ele>
        <time>2021-12-08T13:51:03.260Z</time>
      </trkpt>
      <trkpt lat="48.35206" lon="2.72282">
        <ele>99</ele>
        <time>2021-12-08T13:51:08.266Z</time>
      </trkpt>
      <trkpt lat="48.35205" lon="2.72288">
        <ele>99</ele>
        <time>2021-12-08T13:51:12.271Z</time>
      </trkpt>
      <trkpt lat="48.35202" lon="2.72298">
        <ele>100</ele>
        <time>2021-12-08T13:51:17.273Z</time>
      </trkpt>
      <trkpt lat="48.35199" lon="2.72305">
        <ele>100</ele>
        <time>2021-12-08T13:51:22.268Z</time>
      </trkpt>
      <trkpt lat="48.35198" lon="2.72311">
        <ele>100</ele>
        <time>2021-12-08T13:51:26.275Z</time>
      </trkpt>
      <trkpt lat="48.35196" lon="2.72318">
        <ele>100</ele>
        <time>2021-12-08T13:51:31.272Z</time>
      </trkpt>
      <trkpt lat="48.35193" lon="2.72327">
        <ele>100</ele>
        <time>2021-12-08T13:51:36.265Z</time>
      </trkpt>
      <trkpt lat="48.3519" lon="2.72335">
        <ele>100</ele>
        <time>2021-12-08T13:51:41.272Z</time>
      </trkpt>
      <trkpt lat="48.35188" lon="2.72343">
        <ele>100</ele>
        <time>2021-12-08T13:51:46.272Z</time>
      </trkpt>
      <trkpt lat="48.35186" lon="2.72353">
        <ele>99</ele>
        <time>2021-12-08T13:51:51.271Z</time>
      </trkpt>
      <trkpt lat="48.35183" lon="2.72361">
        <ele>99</ele>
        <time>2021-12-08T13:51:56.268Z</time>
      </trkpt>
      <trkpt lat="48.35181" lon="2.72369">
        <ele>99</ele>
        <time>2021-12-08T13:52:01.268Z</time>
      </trkpt>
      <trkpt lat="48.35179" lon="2.72375">
        <ele>99</ele>
        <time>2021-12-08T13:52:05.272Z</time>
      </trkpt>
      <trkpt lat="48.35176" lon="2.72384">
        <ele>99</ele>
        <time>2021-12-08T13:52:10.278Z</time>
      </trkpt>
      <trkpt lat="48.35173" lon="2.72393">
        <ele>99</ele>
        <time>2021-12-08T13:52:15.273Z</time>
      </trkpt>
      <trkpt lat="48.35171" lon="2.72403">
        <ele>99</ele>
        <time>2021-12-08T13:52:20.277Z</time>
      </trkpt>
      <trkpt lat="48.35171" lon="2.72411">
        <ele>99</ele>
        <time>2021-12-08T13:52:25.273Z</time>
      </trkpt>
      <trkpt lat="48.35171" lon="2.72421">
        <ele>99</ele>
        <time>2021-12-08T13:52:30.270Z</time>
      </trkpt>
      <trkpt lat="48.35171" lon="2.72428">
        <ele>99</ele>
        <time>2021-12-08T13:52:34.271Z</time>
      </trkpt>
      <trkpt lat="48.35171" lon="2.72435">
        <ele>100</ele>
        <time>2021-12-08T13:52:38.270Z</time>
      </trkpt>
      <trkpt lat="48.35172" lon="2.72444">
        <ele>100</ele>
        <time>2021-12-08T13:52:43.272Z</time>
      </trkpt>
      <trkpt lat="48.35171" lon="2.72453">
        <ele>100</ele>
        <time>2021-12-08T13:52:48.275Z</time>
      </trkpt>
      <trkpt lat="48.3517" lon="2.72463">
        <ele>100</ele>
        <time>2021-12-08T13:52:53.260Z</time>
      </trkpt>
      <trkpt lat="48.35169" lon="2.72471">
        <ele>100</ele>
        <time>2021-12-08T13:52:58.260Z</time>
      </trkpt>
      <trkpt lat="48.35169" lon="2.7248">
        <ele>100</ele>
        <time>2021-12-08T13:53:03.269Z</time>
      </trkpt>
      <trkpt lat="48.35169" lon="2.7249">
        <ele>100</ele>
        <time>2021-12-08T13:53:08.267Z</time>
      </trkpt>
      <trkpt lat="48.35168" lon="2.72499">
        <ele>100</ele>
        <time>2021-12-08T13:53:13.269Z</time>
      </trkpt>
      <trkpt lat="48.35168" lon="2.72508">
        <ele>100</ele>
        <time>2021-12-08T13:53:18.260Z</time>
      </trkpt>
      <trkpt lat="48.35168" lon="2.72516">
        <ele>100</ele>
        <time>2021-12-08T13:53:22.277Z</time>
      </trkpt>
      <trkpt lat="48.35167" lon="2.72525">
        <ele>100</ele>
        <time>2021-12-08T13:53:27.275Z</time>
      </trkpt>
      <trkpt lat="48.35167" lon="2.72535">
        <ele>100</ele>
        <time>2021-12-08T13:53:32.278Z</time>
      </trkpt>
      <trkpt lat="48.35167" lon="2.72544">
        <ele>100</ele>
        <time>2021-12-08T13:53:37.272Z</time>
      </trkpt>
      <trkpt lat="48.35166" lon="2.72555">
        <ele>100</ele>
        <time>2021-12-08T13:53:42.269Z</time>
      </trkpt>
      <trkpt lat="48.35166" lon="2.72562">
        <ele>100</ele>
        <time>2021-12-08T13:53:46.272Z</time>
      </trkpt>
      <trkpt lat="48.35165" lon="2.72569">
        <ele>100</ele>
        <time>2021-12-08T13:53:50.271Z</time>
      </trkpt>
      <trkpt lat="48.35164" lon="2.72579">
        <ele>100</ele>
        <time>2021-12-08T13:53:55.259Z</time>
      </trkpt>
      <trkpt lat="48.35164" lon="2.72587">
        <ele>100</ele>
        <time>2021-12-08T13:53:59.273Z</time>
      </trkpt>
      <trkpt lat="48.35163" lon="2.72596">
        <ele>100</ele>
        <time>2021-12-08T13:54:04.272Z</time>
      </trkpt>
      <trkpt lat="48.35163" lon="2.72604">
        <ele>101</ele>
        <time>2021-12-08T13:54:09.271Z</time>
      </trkpt>
      <trkpt lat="48.35163" lon="2.72612">
        <ele>101</ele>
        <time>2021-12-08T13:54:13.273Z</time>
      </trkpt>
      <trkpt lat="48.35162" lon="2.72621">
        <ele>101</ele>
        <time>2021-12-08T13:54:18.268Z</time>
      </trkpt>
      <trkpt lat="48.35163" lon="2.7263">
        <ele>102</ele>
        <time>2021-12-08T13:54:23.268Z</time>
      </trkpt>
      <trkpt lat="48.35162" lon="2.72639">
        <ele>102</ele>
        <time>2021-12-08T13:54:27.256Z</time>
      </trkpt>
      <trkpt lat="48.35162" lon="2.72648">
        <ele>102</ele>
        <time>2021-12-08T13:54:32.258Z</time>
      </trkpt>
      <trkpt lat="48.35161" lon="2.72658">
        <ele>103</ele>
        <time>2021-12-08T13:54:37.268Z</time>
      </trkpt>
      <trkpt lat="48.3516" lon="2.72668">
        <ele>103</ele>
        <time>2021-12-08T13:54:42.259Z</time>
      </trkpt>
      <trkpt lat="48.3516" lon="2.72677">
        <ele>103</ele>
        <time>2021-12-08T13:54:47.264Z</time>
      </trkpt>
      <trkpt lat="48.35159" lon="2.72685">
        <ele>105</ele>
        <time>2021-12-08T13:54:52.265Z</time>
      </trkpt>
      <trkpt lat="48.35159" lon="2.72694">
        <ele>105</ele>
        <time>2021-12-08T13:54:57.263Z</time>
      </trkpt>
      <trkpt lat="48.35159" lon="2.72704">
        <ele>105</ele>
        <time>2021-12-08T13:55:02.263Z</time>
      </trkpt>
      <trkpt lat="48.35159" lon="2.72713">
        <ele>106</ele>
        <time>2021-12-08T13:55:07.259Z</time>
      </trkpt>
      <trkpt lat="48.35158" lon="2.72721">
        <ele>106</ele>
        <time>2021-12-08T13:55:11.261Z</time>
      </trkpt>
      <trkpt lat="48.35158" lon="2.72731">
        <ele>106</ele>
        <time>2021-12-08T13:55:16.258Z</time>
      </trkpt>
      <trkpt lat="48.35158" lon="2.72738">
        <ele>106</ele>
        <time>2021-12-08T13:55:20.262Z</time>
      </trkpt>
      <trkpt lat="48.35157" lon="2.72746">
        <ele>106</ele>
        <time>2021-12-08T13:55:24.267Z</time>
      </trkpt>
      <trkpt lat="48.35157" lon="2.72753">
        <ele>106</ele>
        <time>2021-12-08T13:55:28.269Z</time>
      </trkpt>
      <trkpt lat="48.35157" lon="2.72763">
        <ele>106</ele>
        <time>2021-12-08T13:55:33.261Z</time>
      </trkpt>
      <trkpt lat="48.35157" lon="2.7277">
        <ele>106</ele>
        <time>2021-12-08T13:55:37.261Z</time>
      </trkpt>
      <trkpt lat="48.35156" lon="2.72779">
        <ele>106</ele>
        <time>2021-12-08T13:55:42.263Z</time>
      </trkpt>
      <trkpt lat="48.35156" lon="2.72786">
        <ele>106</ele>
        <time>2021-12-08T13:55:46.268Z</time>
      </trkpt>
      <trkpt lat="48.35155" lon="2.72793">
        <ele>105</ele>
        <time>2021-12-08T13:55:50.267Z</time>
      </trkpt>
      <trkpt lat="48.35154" lon="2.72803">
        <ele>105</ele>
        <time>2021-12-08T13:55:55.273Z</time>
      </trkpt>
      <trkpt lat="48.35154" lon="2.72813">
        <ele>105</ele>
        <time>2021-12-08T13:56:00.267Z</time>
      </trkpt>
      <trkpt lat="48.35154" lon="2.72822">
        <ele>105</ele>
        <time>2021-12-08T13:56:05.266Z</time>
      </trkpt>
      <trkpt lat="48.35153" lon="2.72829">
        <ele>105</ele>
        <time>2021-12-08T13:56:09.264Z</time>
      </trkpt>
      <trkpt lat="48.35153" lon="2.72839">
        <ele>105</ele>
        <time>2021-12-08T13:56:14.268Z</time>
      </trkpt>
      <trkpt lat="48.35153" lon="2.72849">
        <ele>105</ele>
        <time>2021-12-08T13:56:19.259Z</time>
      </trkpt>
      <trkpt lat="48.35152" lon="2.7286">
        <ele>106</ele>
        <time>2021-12-08T13:56:24.257Z</time>
      </trkpt>
      <trkpt lat="48.35151" lon="2.72871">
        <ele>106</ele>
        <time>2021-12-08T13:56:29.264Z</time>
      </trkpt>
      <trkpt lat="48.3515" lon="2.7288">
        <ele>108</ele>
        <time>2021-12-08T13:56:34.259Z</time>
      </trkpt>
      <trkpt lat="48.35149" lon="2.72889">
        <ele>108</ele>
        <time>2021-12-08T13:56:38.263Z</time>
      </trkpt>
      <trkpt lat="48.35148" lon="2.72898">
        <ele>108</ele>
        <time>2021-12-08T13:56:43.265Z</time>
      </trkpt>
      <trkpt lat="48.35148" lon="2.72908">
        <ele>108</ele>
        <time>2021-12-08T13:56:48.261Z</time>
      </trkpt>
      <trkpt lat="48.35148" lon="2.72917">
        <ele>108</ele>
        <time>2021-12-08T13:56:53.260Z</time>
      </trkpt>
      <trkpt lat="48.35147" lon="2.72926">
        <ele>108</ele>
        <time>2021-12-08T13:56:58.266Z</time>
      </trkpt>
      <trkpt lat="48.35147" lon="2.72936">
        <ele>108</ele>
        <time>2021-12-08T13:57:03.268Z</time>
      </trkpt>
      <trkpt lat="48.35147" lon="2.72943">
        <ele>108</ele>
        <time>2021-12-08T13:57:07.267Z</time>
      </trkpt>
      <trkpt lat="48.35146" lon="2.72953">
        <ele>108</ele>
        <time>2021-12-08T13:57:12.267Z</time>
      </trkpt>
      <trkpt lat="48.35146" lon="2.72963">
        <ele>108</ele>
        <time>2021-12-08T13:57:17.271Z</time>
      </trkpt>
      <trkpt lat="48.35146" lon="2.72971">
        <ele>108</ele>
        <time>2021-12-08T13:57:22.268Z</time>
      </trkpt>
      <trkpt lat="48.35145" lon="2.72979">
        <ele>108</ele>
        <time>2021-12-08T13:57:26.270Z</time>
      </trkpt>
      <trkpt lat="48.35144" lon="2.72988">
        <ele>108</ele>
        <time>2021-12-08T13:57:31.270Z</time>
      </trkpt>
      <trkpt lat="48.35144" lon="2.72997">
        <ele>108</ele>
        <time>2021-12-08T13:57:36.270Z</time>
      </trkpt>
      <trkpt lat="48.35143" lon="2.73007">
        <ele>108</ele>
        <time>2021-12-08T13:57:41.261Z</time>
      </trkpt>
      <trkpt lat="48.35143" lon="2.73016">
        <ele>109</ele>
        <time>2021-12-08T13:57:46.264Z</time>
      </trkpt>
      <trkpt lat="48.35141" lon="2.73026">
        <ele>109</ele>
        <time>2021-12-08T13:57:51.269Z</time>
      </trkpt>
      <trkpt lat="48.35141" lon="2.73037">
        <ele>109</ele>
        <time>2021-12-08T13:57:56.268Z</time>
      </trkpt>
      <trkpt lat="48.3514" lon="2.73046">
        <ele>110</ele>
        <time>2021-12-08T13:58:01.262Z</time>
      </trkpt>
      <trkpt lat="48.3514" lon="2.73053">
        <ele>110</ele>
        <time>2021-12-08T13:58:05.268Z</time>
      </trkpt>
      <trkpt lat="48.3514" lon="2.73063">
        <ele>110</ele>
        <time>2021-12-08T13:58:10.276Z</time>
      </trkpt>
      <trkpt lat="48.3514" lon="2.73073">
        <ele>110</ele>
        <time>2021-12-08T13:58:15.269Z</time>
      </trkpt>
      <trkpt lat="48.35142" lon="2.7308">
        <ele>110</ele>
        <time>2021-12-08T13:58:19.274Z</time>
      </trkpt>
      <trkpt lat="48.35143" lon="2.73089">
        <ele>110</ele>
        <time>2021-12-08T13:58:24.266Z</time>
      </trkpt>
      <trkpt lat="48.3514" lon="2.73096">
        <ele>110</ele>
        <time>2021-12-08T13:58:29.276Z</time>
      </trkpt>
      <trkpt lat="48.35138" lon="2.73105">
        <ele>109</ele>
        <time>2021-12-08T13:58:34.271Z</time>
      </trkpt>
      <trkpt lat="48.35137" lon="2.73114">
        <ele>109</ele>
        <time>2021-12-08T13:58:39.269Z</time>
      </trkpt>
      <trkpt lat="48.35137" lon="2.73121">
        <ele>109</ele>
        <time>2021-12-08T13:58:43.274Z</time>
      </trkpt>
      <trkpt lat="48.35137" lon="2.73131">
        <ele>109</ele>
        <time>2021-12-08T13:58:48.275Z</time>
      </trkpt>
      <trkpt lat="48.35136" lon="2.7314">
        <ele>109</ele>
        <time>2021-12-08T13:58:53.269Z</time>
      </trkpt>
      <trkpt lat="48.35136" lon="2.7315">
        <ele>109</ele>
        <time>2021-12-08T13:58:58.271Z</time>
      </trkpt>
      <trkpt lat="48.35135" lon="2.73158">
        <ele>109</ele>
        <time>2021-12-08T13:59:02.268Z</time>
      </trkpt>
      <trkpt lat="48.35134" lon="2.73168">
        <ele>109</ele>
        <time>2021-12-08T13:59:07.270Z</time>
      </trkpt>
      <trkpt lat="48.35133" lon="2.73178">
        <ele>109</ele>
        <time>2021-12-08T13:59:12.268Z</time>
      </trkpt>
      <trkpt lat="48.35133" lon="2.73185">
        <ele>109</ele>
        <time>2021-12-08T13:59:16.270Z</time>
      </trkpt>
      <trkpt lat="48.35132" lon="2.73193">
        <ele>109</ele>
        <time>2021-12-08T13:59:20.264Z</time>
      </trkpt>
      <trkpt lat="48.35131" lon="2.73202">
        <ele>109</ele>
        <time>2021-12-08T13:59:25.270Z</time>
      </trkpt>
      <trkpt lat="48.35131" lon="2.73212">
        <ele>109</ele>
        <time>2021-12-08T13:59:30.263Z</time>
      </trkpt>
      <trkpt lat="48.35131" lon="2.7322">
        <ele>109</ele>
        <time>2021-12-08T13:59:34.267Z</time>
      </trkpt>
      <trkpt lat="48.35132" lon="2.73229">
        <ele>109</ele>
        <time>2021-12-08T13:59:39.270Z</time>
      </trkpt>
      <trkpt lat="48.35131" lon="2.73238">
        <ele>111</ele>
        <time>2021-12-08T13:59:44.268Z</time>
      </trkpt>
      <trkpt lat="48.3513" lon="2.73249">
        <ele>111</ele>
        <time>2021-12-08T13:59:49.267Z</time>
      </trkpt>
      <trkpt lat="48.3513" lon="2.73258">
        <ele>111</ele>
        <time>2021-12-08T13:59:54.266Z</time>
      </trkpt>
      <trkpt lat="48.35129" lon="2.73268">
        <ele>113</ele>
        <time>2021-12-08T13:59:59.267Z</time>
      </trkpt>
      <trkpt lat="48.35129" lon="2.73278">
        <ele>113</ele>
        <time>2021-12-08T14:00:04.274Z</time>
      </trkpt>
      <trkpt lat="48.35128" lon="2.73286">
        <ele>113</ele>
        <time>2021-12-08T14:00:08.271Z</time>
      </trkpt>
      <trkpt lat="48.35128" lon="2.73296">
        <ele>114</ele>
        <time>2021-12-08T14:00:13.266Z</time>
      </trkpt>
      <trkpt lat="48.35127" lon="2.73304">
        <ele>114</ele>
        <time>2021-12-08T14:00:18.267Z</time>
      </trkpt>
      <trkpt lat="48.35127" lon="2.73313">
        <ele>114</ele>
        <time>2021-12-08T14:00:23.267Z</time>
      </trkpt>
      <trkpt lat="48.35127" lon="2.73322">
        <ele>114</ele>
        <time>2021-12-08T14:00:28.261Z</time>
      </trkpt>
      <trkpt lat="48.35127" lon="2.73331">
        <ele>114</ele>
        <time>2021-12-08T14:00:33.266Z</time>
      </trkpt>
      <trkpt lat="48.35126" lon="2.73339">
        <ele>114</ele>
        <time>2021-12-08T14:00:37.262Z</time>
      </trkpt>
      <trkpt lat="48.35124" lon="2.73348">
        <ele>120</ele>
        <time>2021-12-08T14:00:41.268Z</time>
      </trkpt>
      <trkpt lat="48.35123" lon="2.73355">
        <ele>120</ele>
        <time>2021-12-08T14:00:45.267Z</time>
      </trkpt>
      <trkpt lat="48.35122" lon="2.73364">
        <ele>120</ele>
        <time>2021-12-08T14:00:50.262Z</time>
      </trkpt>
      <trkpt lat="48.35122" lon="2.73372">
        <ele>120</ele>
        <time>2021-12-08T14:00:54.268Z</time>
      </trkpt>
      <trkpt lat="48.35121" lon="2.73381">
        <ele>123</ele>
        <time>2021-12-08T14:00:59.273Z</time>
      </trkpt>
      <trkpt lat="48.35128" lon="2.734">
        <ele>117</ele>
        <time>2021-12-08T14:01:38.267Z</time>
      </trkpt>
      <trkpt lat="48.35132" lon="2.73402">
        <ele>117</ele>
        <time>2021-12-08T14:01:42.270Z</time>
      </trkpt>
      <trkpt lat="48.35136" lon="2.73407">
        <ele>118</ele>
        <time>2021-12-08T14:01:47.278Z</time>
      </trkpt>
      <trkpt lat="48.35139" lon="2.73413">
        <ele>118</ele>
        <time>2021-12-08T14:01:52.273Z</time>
      </trkpt>
      <trkpt lat="48.35144" lon="2.73417">
        <ele>118</ele>
        <time>2021-12-08T14:01:57.272Z</time>
      </trkpt>
      <trkpt lat="48.35147" lon="2.73419">
        <ele>118</ele>
        <time>2021-12-08T14:02:01.273Z</time>
      </trkpt>
      <trkpt lat="48.35151" lon="2.73423">
        <ele>118</ele>
        <time>2021-12-08T14:02:05.272Z</time>
      </trkpt>
      <trkpt lat="48.35156" lon="2.73428">
        <ele>115</ele>
        <time>2021-12-08T14:02:10.277Z</time>
      </trkpt>
      <trkpt lat="48.3516" lon="2.73432">
        <ele>116</ele>
        <time>2021-12-08T14:02:15.280Z</time>
      </trkpt>
      <trkpt lat="48.35164" lon="2.73439">
        <ele>116</ele>
        <time>2021-12-08T14:02:20.276Z</time>
      </trkpt>
      <trkpt lat="48.35167" lon="2.73444">
        <ele>116</ele>
        <time>2021-12-08T14:02:25.266Z</time>
      </trkpt>
      <trkpt lat="48.35171" lon="2.73448">
        <ele>116</ele>
        <time>2021-12-08T14:02:30.275Z</time>
      </trkpt>
      <trkpt lat="48.35175" lon="2.7345">
        <ele>116</ele>
        <time>2021-12-08T14:02:35.269Z</time>
      </trkpt>
      <trkpt lat="48.3518" lon="2.73455">
        <ele>116</ele>
        <time>2021-12-08T14:02:39.264Z</time>
      </trkpt>
      <trkpt lat="48.35183" lon="2.73458">
        <ele>118</ele>
        <time>2021-12-08T14:02:44.270Z</time>
      </trkpt>
      <trkpt lat="48.35188" lon="2.73462">
        <ele>118</ele>
        <time>2021-12-08T14:02:49.269Z</time>
      </trkpt>
      <trkpt lat="48.35191" lon="2.7346">
        <ele>118</ele>
        <time>2021-12-08T14:02:53.272Z</time>
      </trkpt>
      <trkpt lat="48.35193" lon="2.7346">
        <ele>118</ele>
        <time>2021-12-08T14:02:57.272Z</time>
      </trkpt>
      <trkpt lat="48.35197" lon="2.73461">
        <ele>118</ele>
        <time>2021-12-08T14:03:02.280Z</time>
      </trkpt>
      <trkpt lat="48.35199" lon="2.7346">
        <ele>118</ele>
        <time>2021-12-08T14:03:07.269Z</time>
      </trkpt>
      <trkpt lat="48.35202" lon="2.7346">
        <ele>118</ele>
        <time>2021-12-08T14:03:12.258Z</time>
      </trkpt>
      <trkpt lat="48.35206" lon="2.73459">
        <ele>118</ele>
        <time>2021-12-08T14:03:17.269Z</time>
      </trkpt>
      <trkpt lat="48.35206" lon="2.7346">
        <ele>118</ele>
        <time>2021-12-08T14:03:22.264Z</time>
      </trkpt>
      <trkpt lat="48.35206" lon="2.73457">
        <ele>117</ele>
        <time>2021-12-08T14:03:27.268Z</time>
      </trkpt>
      <trkpt lat="48.35207" lon="2.73454">
        <ele>117</ele>
        <time>2021-12-08T14:03:31.271Z</time>
      </trkpt>
      <trkpt lat="48.35207" lon="2.73452">
        <ele>117</ele>
        <time>2021-12-08T14:03:36.264Z</time>
      </trkpt>
      <trkpt lat="48.35209" lon="2.73446">
        <ele>122</ele>
        <time>2021-12-08T14:03:41.261Z</time>
      </trkpt>
      <trkpt lat="48.35211" lon="2.7344">
        <ele>122</ele>
        <time>2021-12-08T14:03:45.281Z</time>
      </trkpt>
      <trkpt lat="48.35214" lon="2.7344">
        <ele>122</ele>
        <time>2021-12-08T14:03:50.267Z</time>
      </trkpt>
      <trkpt lat="48.35219" lon="2.73441">
        <ele>122</ele>
        <time>2021-12-08T14:03:55.264Z</time>
      </trkpt>
      <trkpt lat="48.35225" lon="2.73439">
        <ele>122</ele>
        <time>2021-12-08T14:04:00.270Z</time>
      </trkpt>
      <trkpt lat="48.35229" lon="2.73438">
        <ele>122</ele>
        <time>2021-12-08T14:04:05.255Z</time>
      </trkpt>
      <trkpt lat="48.35232" lon="2.73437">
        <ele>122</ele>
        <time>2021-12-08T14:04:09.271Z</time>
      </trkpt>
      <trkpt lat="48.35236" lon="2.73436">
        <ele>122</ele>
        <time>2021-12-08T14:04:13.278Z</time>
      </trkpt>
      <trkpt lat="48.35239" lon="2.73437">
        <ele>127</ele>
        <time>2021-12-08T14:04:18.269Z</time>
      </trkpt>
      <trkpt lat="48.35242" lon="2.73431">
        <ele>127</ele>
        <time>2021-12-08T14:04:23.262Z</time>
      </trkpt>
      <trkpt lat="48.35246" lon="2.73426">
        <ele>125</ele>
        <time>2021-12-08T14:04:28.263Z</time>
      </trkpt>
      <trkpt lat="48.3525" lon="2.73422">
        <ele>125</ele>
        <time>2021-12-08T14:04:33.262Z</time>
      </trkpt>
      <trkpt lat="48.35254" lon="2.73416">
        <ele>125</ele>
        <time>2021-12-08T14:04:38.269Z</time>
      </trkpt>
      <trkpt lat="48.3526" lon="2.73413">
        <ele>125</ele>
        <time>2021-12-08T14:04:46.270Z</time>
      </trkpt>
      <trkpt lat="48.35263" lon="2.73415">
        <ele>125</ele>
        <time>2021-12-08T14:04:51.267Z</time>
      </trkpt>
      <trkpt lat="48.35265" lon="2.73415">
        <ele>127</ele>
        <time>2021-12-08T14:04:56.259Z</time>
      </trkpt>
      <trkpt lat="48.35265" lon="2.73416">
        <ele>127</ele>
        <time>2021-12-08T14:05:01.261Z</time>
      </trkpt>
      <trkpt lat="48.35268" lon="2.73419">
        <ele>127</ele>
        <time>2021-12-08T14:05:05.274Z</time>
      </trkpt>
      <trkpt lat="48.35268" lon="2.73422">
        <ele>127</ele>
        <time>2021-12-08T14:05:10.274Z</time>
      </trkpt>
      <trkpt lat="48.35271" lon="2.73421">
        <ele>127</ele>
        <time>2021-12-08T14:05:15.266Z</time>
      </trkpt>
      <trkpt lat="48.35272" lon="2.73419">
        <ele>127</ele>
        <time>2021-12-08T14:05:19.277Z</time>
      </trkpt>
      <trkpt lat="48.35276" lon="2.73416">
        <ele>127</ele>
        <time>2021-12-08T14:05:24.267Z</time>
      </trkpt>
      <trkpt lat="48.35283" lon="2.73416">
        <ele>127</ele>
        <time>2021-12-08T14:05:53.265Z</time>
      </trkpt>
      <trkpt lat="48.35284" lon="2.73415">
        <ele>127</ele>
        <time>2021-12-08T14:05:57.271Z</time>
      </trkpt>
      <trkpt lat="48.35284" lon="2.73408">
        <ele>127</ele>
        <time>2021-12-08T14:06:02.265Z</time>
      </trkpt>
      <trkpt lat="48.35287" lon="2.73406">
        <ele>127</ele>
        <time>2021-12-08T14:06:07.269Z</time>
      </trkpt>
      <trkpt lat="48.35289" lon="2.73403">
        <ele>125</ele>
        <time>2021-12-08T14:06:12.267Z</time>
      </trkpt>
      <trkpt lat="48.3528" lon="2.73398">
        <ele>125</ele>
        <time>2021-12-08T14:06:32.272Z</time>
      </trkpt>
      <trkpt lat="48.35279" lon="2.73397">
        <ele>125</ele>
        <time>2021-12-08T14:06:36.277Z</time>
      </trkpt>
      <trkpt lat="48.35278" lon="2.73396">
        <ele>125</ele>
        <time>2021-12-08T14:06:41.276Z</time>
      </trkpt>
      <trkpt lat="48.35278" lon="2.73396">
        <ele>125</ele>
        <time>2021-12-08T14:06:46.269Z</time>
      </trkpt>
      <trkpt lat="48.35278" lon="2.73396">
        <ele>125</ele>
        <time>2021-12-08T14:06:51.264Z</time>
      </trkpt>
      <trkpt lat="48.35283" lon="2.73398">
        <ele>125</ele>
        <time>2021-12-08T14:10:27.271Z</time>
      </trkpt>
      <trkpt lat="48.35283" lon="2.73395">
        <ele>125</ele>
        <time>2021-12-08T14:10:31.268Z</time>
      </trkpt>
      <trkpt lat="48.35285" lon="2.73392">
        <ele>125</ele>
        <time>2021-12-08T14:10:36.270Z</time>
      </trkpt>
      <trkpt lat="48.35289" lon="2.73389">
        <ele>125</ele>
        <time>2021-12-08T14:10:41.273Z</time>
      </trkpt>
      <trkpt lat="48.3529" lon="2.73384">
        <ele>125</ele>
        <time>2021-12-08T14:10:45.264Z</time>
      </trkpt>
      <trkpt lat="48.35292" lon="2.73379">
        <ele>125</ele>
        <time>2021-12-08T14:10:50.279Z</time>
      </trkpt>
      <trkpt lat="48.35292" lon="2.73375">
        <ele>126</ele>
        <time>2021-12-08T14:10:55.265Z</time>
      </trkpt>
      <trkpt lat="48.35294" lon="2.73368">
        <ele>124</ele>
        <time>2021-12-08T14:11:00.266Z</time>
      </trkpt>
      <trkpt lat="48.35293" lon="2.73361">
        <ele>124</ele>
        <time>2021-12-08T14:11:04.268Z</time>
      </trkpt>
      <trkpt lat="48.35292" lon="2.73353">
        <ele>124</ele>
        <time>2021-12-08T14:11:08.273Z</time>
      </trkpt>
      <trkpt lat="48.3529" lon="2.73346">
        <ele>123</ele>
        <time>2021-12-08T14:11:13.271Z</time>
      </trkpt>
      <trkpt lat="48.35287" lon="2.73338">
        <ele>123</ele>
        <time>2021-12-08T14:11:18.272Z</time>
      </trkpt>
      <trkpt lat="48.35285" lon="2.73331">
        <ele>123</ele>
        <time>2021-12-08T14:11:22.280Z</time>
      </trkpt>
      <trkpt lat="48.35284" lon="2.73323">
        <ele>123</ele>
        <time>2021-12-08T14:11:27.269Z</time>
      </trkpt>
      <trkpt lat="48.35282" lon="2.73317">
        <ele>123</ele>
        <time>2021-12-08T14:11:31.271Z</time>
      </trkpt>
      <trkpt lat="48.35282" lon="2.73309">
        <ele>123</ele>
        <time>2021-12-08T14:11:36.264Z</time>
      </trkpt>
      <trkpt lat="48.35283" lon="2.733">
        <ele>123</ele>
        <time>2021-12-08T14:11:41.276Z</time>
      </trkpt>
      <trkpt lat="48.35285" lon="2.73291">
        <ele>119</ele>
        <time>2021-12-08T14:11:46.266Z</time>
      </trkpt>
      <trkpt lat="48.35286" lon="2.73287">
        <ele>119</ele>
        <time>2021-12-08T14:11:50.272Z</time>
      </trkpt>
      <trkpt lat="48.35291" lon="2.73285">
        <ele>119</ele>
        <time>2021-12-08T14:11:55.332Z</time>
      </trkpt>
      <trkpt lat="48.35296" lon="2.73281">
        <ele>122</ele>
        <time>2021-12-08T14:12:00.263Z</time>
      </trkpt>
      <trkpt lat="48.35299" lon="2.73278">
        <ele>122</ele>
        <time>2021-12-08T14:12:04.273Z</time>
      </trkpt>
      <trkpt lat="48.35305" lon="2.73275">
        <ele>122</ele>
        <time>2021-12-08T14:12:09.273Z</time>
      </trkpt>
      <trkpt lat="48.35309" lon="2.73272">
        <ele>122</ele>
        <time>2021-12-08T14:12:13.272Z</time>
      </trkpt>
      <trkpt lat="48.35313" lon="2.73267">
        <ele>122</ele>
        <time>2021-12-08T14:12:18.280Z</time>
      </trkpt>
      <trkpt lat="48.35316" lon="2.73264">
        <ele>119</ele>
        <time>2021-12-08T14:12:23.277Z</time>
      </trkpt>
      <trkpt lat="48.3532" lon="2.73261">
        <ele>117</ele>
        <time>2021-12-08T14:12:28.276Z</time>
      </trkpt>
      <trkpt lat="48.35318" lon="2.73257">
        <ele>119</ele>
        <time>2021-12-08T14:12:32.281Z</time>
      </trkpt>
      <trkpt lat="48.35318" lon="2.7325">
        <ele>119</ele>
        <time>2021-12-08T14:12:37.273Z</time>
      </trkpt>
      <trkpt lat="48.35321" lon="2.7325">
        <ele>117</ele>
        <time>2021-12-08T14:12:42.269Z</time>
      </trkpt>
      <trkpt lat="48.35325" lon="2.73247">
        <ele>117</ele>
        <time>2021-12-08T14:12:46.269Z</time>
      </trkpt>
      <trkpt lat="48.35329" lon="2.7324">
        <ele>117</ele>
        <time>2021-12-08T14:12:51.266Z</time>
      </trkpt>
      <trkpt lat="48.35332" lon="2.73235">
        <ele>116</ele>
        <time>2021-12-08T14:12:56.272Z</time>
      </trkpt>
      <trkpt lat="48.35334" lon="2.73229">
        <ele>116</ele>
        <time>2021-12-08T14:13:00.269Z</time>
      </trkpt>
      <trkpt lat="48.35339" lon="2.73228">
        <ele>116</ele>
        <time>2021-12-08T14:13:05.267Z</time>
      </trkpt>
      <trkpt lat="48.35341" lon="2.73223">
        <ele>116</ele>
        <time>2021-12-08T14:13:09.269Z</time>
      </trkpt>
      <trkpt lat="48.35341" lon="2.73217">
        <ele>116</ele>
        <time>2021-12-08T14:13:14.268Z</time>
      </trkpt>
      <trkpt lat="48.35339" lon="2.73212">
        <ele>116</ele>
        <time>2021-12-08T14:13:19.263Z</time>
      </trkpt>
      <trkpt lat="48.35337" lon="2.73205">
        <ele>115</ele>
        <time>2021-12-08T14:13:24.269Z</time>
      </trkpt>
      <trkpt lat="48.35336" lon="2.73199">
        <ele>115</ele>
        <time>2021-12-08T14:13:28.271Z</time>
      </trkpt>
      <trkpt lat="48.35337" lon="2.73193">
        <ele>115</ele>
        <time>2021-12-08T14:13:33.272Z</time>
      </trkpt>
      <trkpt lat="48.35338" lon="2.73185">
        <ele>115</ele>
        <time>2021-12-08T14:13:38.272Z</time>
      </trkpt>
      <trkpt lat="48.35341" lon="2.73181">
        <ele>115</ele>
        <time>2021-12-08T14:13:42.280Z</time>
      </trkpt>
      <trkpt lat="48.35344" lon="2.73174">
        <ele>113</ele>
        <time>2021-12-08T14:13:47.278Z</time>
      </trkpt>
      <trkpt lat="48.35347" lon="2.73167">
        <ele>113</ele>
        <time>2021-12-08T14:13:52.272Z</time>
      </trkpt>
      <trkpt lat="48.35347" lon="2.7316">
        <ele>113</ele>
        <time>2021-12-08T14:13:57.268Z</time>
      </trkpt>
      <trkpt lat="48.35346" lon="2.73155">
        <ele>113</ele>
        <time>2021-12-08T14:14:02.264Z</time>
      </trkpt>
      <trkpt lat="48.35348" lon="2.73149">
        <ele>111</ele>
        <time>2021-12-08T14:14:07.268Z</time>
      </trkpt>
      <trkpt lat="48.35349" lon="2.73144">
        <ele>111</ele>
        <time>2021-12-08T14:14:11.271Z</time>
      </trkpt>
      <trkpt lat="48.35349" lon="2.73131">
        <ele>111</ele>
        <time>2021-12-08T14:14:29.287Z</time>
      </trkpt>
      <trkpt lat="48.35349" lon="2.73131">
        <ele>111</ele>
        <time>2021-12-08T14:14:34.267Z</time>
      </trkpt>
      <trkpt lat="48.35349" lon="2.7313">
        <ele>111</ele>
        <time>2021-12-08T14:14:39.263Z</time>
      </trkpt>
      <trkpt lat="48.35348" lon="2.73129">
        <ele>111</ele>
        <time>2021-12-08T14:14:44.267Z</time>
      </trkpt>
      <trkpt lat="48.35347" lon="2.73122">
        <ele>110</ele>
        <time>2021-12-08T14:14:49.261Z</time>
      </trkpt>
      <trkpt lat="48.35346" lon="2.73118">
        <ele>110</ele>
        <time>2021-12-08T14:14:53.271Z</time>
      </trkpt>
      <trkpt lat="48.35345" lon="2.73111">
        <ele>110</ele>
        <time>2021-12-08T14:14:57.277Z</time>
      </trkpt>
      <trkpt lat="48.35347" lon="2.73105">
        <ele>108</ele>
        <time>2021-12-08T14:15:02.276Z</time>
      </trkpt>
      <trkpt lat="48.35349" lon="2.73098">
        <ele>108</ele>
        <time>2021-12-08T14:15:07.274Z</time>
      </trkpt>
      <trkpt lat="48.35346" lon="2.73094">
        <ele>107</ele>
        <time>2021-12-08T14:15:12.266Z</time>
      </trkpt>
      <trkpt lat="48.35344" lon="2.73091">
        <ele>107</ele>
        <time>2021-12-08T14:15:17.263Z</time>
      </trkpt>
      <trkpt lat="48.35342" lon="2.73087">
        <ele>107</ele>
        <time>2021-12-08T14:15:21.263Z</time>
      </trkpt>
      <trkpt lat="48.35343" lon="2.73081">
        <ele>107</ele>
        <time>2021-12-08T14:15:26.270Z</time>
      </trkpt>
      <trkpt lat="48.35344" lon="2.73078">
        <ele>107</ele>
        <time>2021-12-08T14:15:35.279Z</time>
      </trkpt>
      <trkpt lat="48.35342" lon="2.73075">
        <ele>107</ele>
        <time>2021-12-08T14:15:40.258Z</time>
      </trkpt>
      <trkpt lat="48.3534" lon="2.73071">
        <ele>107</ele>
        <time>2021-12-08T14:15:44.266Z</time>
      </trkpt>
      <trkpt lat="48.35343" lon="2.73066">
        <ele>105</ele>
        <time>2021-12-08T14:15:49.268Z</time>
      </trkpt>
      <trkpt lat="48.35342" lon="2.7306">
        <ele>105</ele>
        <time>2021-12-08T14:15:53.270Z</time>
      </trkpt>
      <trkpt lat="48.35343" lon="2.73053">
        <ele>105</ele>
        <time>2021-12-08T14:15:57.368Z</time>
      </trkpt>
      <trkpt lat="48.35341" lon="2.73046">
        <ele>105</ele>
        <time>2021-12-08T14:16:02.274Z</time>
      </trkpt>
      <trkpt lat="48.35343" lon="2.73041">
        <ele>104</ele>
        <time>2021-12-08T14:16:07.273Z</time>
      </trkpt>
      <trkpt lat="48.35343" lon="2.73034">
        <ele>104</ele>
        <time>2021-12-08T14:16:12.278Z</time>
      </trkpt>
      <trkpt lat="48.35346" lon="2.7303">
        <ele>104</ele>
        <time>2021-12-08T14:16:32.284Z</time>
      </trkpt>
      <trkpt lat="48.35349" lon="2.73033">
        <ele>104</ele>
        <time>2021-12-08T14:16:37.281Z</time>
      </trkpt>
      <trkpt lat="48.35353" lon="2.73033">
        <ele>104</ele>
        <time>2021-12-08T14:16:42.263Z</time>
      </trkpt>
      <trkpt lat="48.35354" lon="2.7303">
        <ele>104</ele>
        <time>2021-12-08T14:16:47.266Z</time>
      </trkpt>
      <trkpt lat="48.35356" lon="2.73029">
        <ele>104</ele>
        <time>2021-12-08T14:16:51.285Z</time>
      </trkpt>
      <trkpt lat="48.35355" lon="2.73031">
        <ele>104</ele>
        <time>2021-12-08T14:16:56.288Z</time>
      </trkpt>
      <trkpt lat="48.35359" lon="2.73031">
        <ele>104</ele>
        <time>2021-12-08T14:17:01.271Z</time>
      </trkpt>
      <trkpt lat="48.35362" lon="2.7303">
        <ele>104</ele>
        <time>2021-12-08T14:17:05.281Z</time>
      </trkpt>
      <trkpt lat="48.35365" lon="2.73035">
        <ele>104</ele>
        <time>2021-12-08T14:17:10.276Z</time>
      </trkpt>
      <trkpt lat="48.35368" lon="2.73038">
        <ele>104</ele>
        <time>2021-12-08T14:17:14.278Z</time>
      </trkpt>
      <trkpt lat="48.35371" lon="2.73044">
        <ele>104</ele>
        <time>2021-12-08T14:17:19.274Z</time>
      </trkpt>
      <trkpt lat="48.35369" lon="2.73047">
        <ele>104</ele>
        <time>2021-12-08T14:17:23.273Z</time>
      </trkpt>
      <trkpt lat="48.35374" lon="2.73045">
        <ele>104</ele>
        <time>2021-12-08T14:17:27.276Z</time>
      </trkpt>
      <trkpt lat="48.3538" lon="2.73042">
        <ele>101</ele>
        <time>2021-12-08T14:17:32.281Z</time>
      </trkpt>
      <trkpt lat="48.35387" lon="2.73037">
        <ele>101</ele>
        <time>2021-12-08T14:17:37.267Z</time>
      </trkpt>
      <trkpt lat="48.35392" lon="2.73033">
        <ele>101</ele>
        <time>2021-12-08T14:17:41.266Z</time>
      </trkpt>
      <trkpt lat="48.35397" lon="2.73029">
        <ele>101</ele>
        <time>2021-12-08T14:17:46.279Z</time>
      </trkpt>
      <trkpt lat="48.35403" lon="2.73026">
        <ele>98</ele>
        <time>2021-12-08T14:17:51.272Z</time>
      </trkpt>
      <trkpt lat="48.35407" lon="2.73019">
        <ele>98</ele>
        <time>2021-12-08T14:17:56.270Z</time>
      </trkpt>
      <trkpt lat="48.35413" lon="2.73011">
        <ele>97</ele>
        <time>2021-12-08T14:18:01.288Z</time>
      </trkpt>
      <trkpt lat="48.35419" lon="2.73003">
        <ele>97</ele>
        <time>2021-12-08T14:18:06.273Z</time>
      </trkpt>
      <trkpt lat="48.35423" lon="2.72999">
        <ele>97</ele>
        <time>2021-12-08T14:18:10.278Z</time>
      </trkpt>
      <trkpt lat="48.35429" lon="2.72994">
        <ele>97</ele>
        <time>2021-12-08T14:18:15.285Z</time>
      </trkpt>
      <trkpt lat="48.35433" lon="2.72987">
        <ele>97</ele>
        <time>2021-12-08T14:18:20.276Z</time>
      </trkpt>
      <trkpt lat="48.35439" lon="2.72982">
        <ele>97</ele>
        <time>2021-12-08T14:18:25.273Z</time>
      </trkpt>
      <trkpt lat="48.35443" lon="2.72975">
        <ele>97</ele>
        <time>2021-12-08T14:18:29.272Z</time>
      </trkpt>
      <trkpt lat="48.35447" lon="2.72969">
        <ele>97</ele>
        <time>2021-12-08T14:18:34.266Z</time>
      </trkpt>
      <trkpt lat="48.3545" lon="2.72963">
        <ele>97</ele>
        <time>2021-12-08T14:18:38.264Z</time>
      </trkpt>
      <trkpt lat="48.35455" lon="2.72959">
        <ele>97</ele>
        <time>2021-12-08T14:18:43.275Z</time>
      </trkpt>
      <trkpt lat="48.3546" lon="2.72953">
        <ele>99</ele>
        <time>2021-12-08T14:18:48.272Z</time>
      </trkpt>
      <trkpt lat="48.35465" lon="2.72949">
        <ele>99</ele>
        <time>2021-12-08T14:18:53.269Z</time>
      </trkpt>
      <trkpt lat="48.3547" lon="2.72944">
        <ele>99</ele>
        <time>2021-12-08T14:18:58.269Z</time>
      </trkpt>
      <trkpt lat="48.35474" lon="2.72938">
        <ele>99</ele>
        <time>2021-12-08T14:19:02.266Z</time>
      </trkpt>
      <trkpt lat="48.35478" lon="2.72932">
        <ele>99</ele>
        <time>2021-12-08T14:19:07.267Z</time>
      </trkpt>
      <trkpt lat="48.35482" lon="2.72929">
        <ele>100</ele>
        <time>2021-12-08T14:19:11.272Z</time>
      </trkpt>
      <trkpt lat="48.35487" lon="2.72923">
        <ele>100</ele>
        <time>2021-12-08T14:19:16.294Z</time>
      </trkpt>
      <trkpt lat="48.35492" lon="2.7292">
        <ele>100</ele>
        <time>2021-12-08T14:19:21.274Z</time>
      </trkpt>
      <trkpt lat="48.35495" lon="2.72915">
        <ele>100</ele>
        <time>2021-12-08T14:19:25.273Z</time>
      </trkpt>
      <trkpt lat="48.35499" lon="2.7291">
        <ele>100</ele>
        <time>2021-12-08T14:19:29.286Z</time>
      </trkpt>
      <trkpt lat="48.35503" lon="2.729">
        <ele>102</ele>
        <time>2021-12-08T14:19:34.317Z</time>
      </trkpt>
      <trkpt lat="48.35507" lon="2.72892">
        <ele>102</ele>
        <time>2021-12-08T14:19:39.268Z</time>
      </trkpt>
      <trkpt lat="48.35508" lon="2.72883">
        <ele>102</ele>
        <time>2021-12-08T14:19:44.263Z</time>
      </trkpt>
      <trkpt lat="48.35506" lon="2.72876">
        <ele>102</ele>
        <time>2021-12-08T14:19:48.270Z</time>
      </trkpt>
      <trkpt lat="48.35505" lon="2.72868">
        <ele>102</ele>
        <time>2021-12-08T14:19:53.274Z</time>
      </trkpt>
      <trkpt lat="48.35506" lon="2.72861">
        <ele>102</ele>
        <time>2021-12-08T14:19:57.274Z</time>
      </trkpt>
      <trkpt lat="48.35508" lon="2.72855">
        <ele>102</ele>
        <time>2021-12-08T14:20:01.269Z</time>
      </trkpt>
      <trkpt lat="48.35509" lon="2.72848">
        <ele>102</ele>
        <time>2021-12-08T14:20:06.274Z</time>
      </trkpt>
      <trkpt lat="48.35511" lon="2.7284">
        <ele>101</ele>
        <time>2021-12-08T14:20:11.266Z</time>
      </trkpt>
      <trkpt lat="48.35513" lon="2.72831">
        <ele>101</ele>
        <time>2021-12-08T14:20:16.262Z</time>
      </trkpt>
      <trkpt lat="48.35514" lon="2.72826">
        <ele>106</ele>
        <time>2021-12-08T14:20:20.332Z</time>
      </trkpt>
      <trkpt lat="48.35515" lon="2.72817">
        <ele>105</ele>
        <time>2021-12-08T14:20:25.268Z</time>
      </trkpt>
      <trkpt lat="48.35515" lon="2.72811">
        <ele>105</ele>
        <time>2021-12-08T14:20:29.304Z</time>
      </trkpt>
      <trkpt lat="48.35516" lon="2.72801">
        <ele>105</ele>
        <time>2021-12-08T14:20:34.266Z</time>
      </trkpt>
      <trkpt lat="48.35515" lon="2.72791">
        <ele>105</ele>
        <time>2021-12-08T14:20:39.269Z</time>
      </trkpt>
      <trkpt lat="48.35514" lon="2.7278">
        <ele>105</ele>
        <time>2021-12-08T14:20:44.268Z</time>
      </trkpt>
      <trkpt lat="48.35514" lon="2.72774">
        <ele>105</ele>
        <time>2021-12-08T14:20:48.277Z</time>
      </trkpt>
      <trkpt lat="48.35514" lon="2.72764">
        <ele>105</ele>
        <time>2021-12-08T14:20:53.276Z</time>
      </trkpt>
      <trkpt lat="48.35517" lon="2.72755">
        <ele>104</ele>
        <time>2021-12-08T14:20:58.272Z</time>
      </trkpt>
      <trkpt lat="48.35517" lon="2.72748">
        <ele>104</ele>
        <time>2021-12-08T14:21:02.278Z</time>
      </trkpt>
      <trkpt lat="48.35519" lon="2.72739">
        <ele>104</ele>
        <time>2021-12-08T14:21:07.272Z</time>
      </trkpt>
      <trkpt lat="48.35519" lon="2.72732">
        <ele>103</ele>
        <time>2021-12-08T14:21:11.279Z</time>
      </trkpt>
      <trkpt lat="48.35519" lon="2.72724">
        <ele>103</ele>
        <time>2021-12-08T14:21:15.286Z</time>
      </trkpt>
      <trkpt lat="48.35519" lon="2.72715">
        <ele>103</ele>
        <time>2021-12-08T14:21:20.273Z</time>
      </trkpt>
      <trkpt lat="48.35523" lon="2.72709">
        <ele>103</ele>
        <time>2021-12-08T14:21:25.272Z</time>
      </trkpt>
      <trkpt lat="48.35528" lon="2.72708">
        <ele>103</ele>
        <time>2021-12-08T14:21:29.277Z</time>
      </trkpt>
      <trkpt lat="48.35531" lon="2.72704">
        <ele>103</ele>
        <time>2021-12-08T14:21:34.271Z</time>
      </trkpt>
      <trkpt lat="48.35534" lon="2.72699">
        <ele>103</ele>
        <time>2021-12-08T14:21:39.265Z</time>
      </trkpt>
      <trkpt lat="48.35538" lon="2.72694">
        <ele>103</ele>
        <time>2021-12-08T14:21:44.269Z</time>
      </trkpt>
      <trkpt lat="48.35541" lon="2.72689">
        <ele>103</ele>
        <time>2021-12-08T14:21:49.272Z</time>
      </trkpt>
      <trkpt lat="48.35544" lon="2.72685">
        <ele>108</ele>
        <time>2021-12-08T14:21:54.269Z</time>
      </trkpt>
      <trkpt lat="48.35547" lon="2.72682">
        <ele>108</ele>
        <time>2021-12-08T14:21:58.274Z</time>
      </trkpt>
      <trkpt lat="48.3555" lon="2.7268">
        <ele>107</ele>
        <time>2021-12-08T14:22:03.280Z</time>
      </trkpt>
      <trkpt lat="48.35553" lon="2.72678">
        <ele>107</ele>
        <time>2021-12-08T14:22:08.274Z</time>
      </trkpt>
      <trkpt lat="48.35554" lon="2.72673">
        <ele>107</ele>
        <time>2021-12-08T14:22:13.273Z</time>
      </trkpt>
      <trkpt lat="48.35553" lon="2.72669">
        <ele>107</ele>
        <time>2021-12-08T14:22:17.272Z</time>
      </trkpt>
      <trkpt lat="48.35553" lon="2.72662">
        <ele>107</ele>
        <time>2021-12-08T14:22:22.275Z</time>
      </trkpt>
      <trkpt lat="48.35556" lon="2.72658">
        <ele>107</ele>
        <time>2021-12-08T14:22:27.277Z</time>
      </trkpt>
      <trkpt lat="48.35559" lon="2.72656">
        <ele>107</ele>
        <time>2021-12-08T14:22:32.271Z</time>
      </trkpt>
      <trkpt lat="48.35562" lon="2.72655">
        <ele>107</ele>
        <time>2021-12-08T14:22:37.263Z</time>
      </trkpt>
      <trkpt lat="48.35564" lon="2.72653">
        <ele>107</ele>
        <time>2021-12-08T14:22:41.268Z</time>
      </trkpt>
      <trkpt lat="48.35567" lon="2.72652">
        <ele>108</ele>
        <time>2021-12-08T14:22:46.269Z</time>
      </trkpt>
      <trkpt lat="48.3557" lon="2.7265">
        <ele>111</ele>
        <time>2021-12-08T14:22:51.268Z</time>
      </trkpt>
      <trkpt lat="48.35572" lon="2.72648">
        <ele>111</ele>
        <time>2021-12-08T14:22:56.266Z</time>
      </trkpt>
      <trkpt lat="48.35576" lon="2.72647">
        <ele>111</ele>
        <time>2021-12-08T14:23:01.272Z</time>
      </trkpt>
      <trkpt lat="48.35579" lon="2.7264">
        <ele>111</ele>
        <time>2021-12-08T14:23:06.271Z</time>
      </trkpt>
      <trkpt lat="48.35583" lon="2.72636">
        <ele>111</ele>
        <time>2021-12-08T14:23:10.278Z</time>
      </trkpt>
      <trkpt lat="48.35585" lon="2.72629">
        <ele>111</ele>
        <time>2021-12-08T14:23:15.268Z</time>
      </trkpt>
      <trkpt lat="48.35587" lon="2.72621">
        <ele>111</ele>
        <time>2021-12-08T14:23:20.270Z</time>
      </trkpt>
      <trkpt lat="48.35591" lon="2.7262">
        <ele>111</ele>
        <time>2021-12-08T14:23:25.274Z</time>
      </trkpt>
      <trkpt lat="48.35594" lon="2.7262">
        <ele>111</ele>
        <time>2021-12-08T14:23:30.285Z</time>
      </trkpt>
      <trkpt lat="48.35598" lon="2.7262">
        <ele>111</ele>
        <time>2021-12-08T14:23:35.267Z</time>
      </trkpt>
      <trkpt lat="48.35602" lon="2.72623">
        <ele>111</ele>
        <time>2021-12-08T14:23:40.274Z</time>
      </trkpt>
      <trkpt lat="48.35606" lon="2.72622">
        <ele>111</ele>
        <time>2021-12-08T14:23:45.268Z</time>
      </trkpt>
      <trkpt lat="48.35611" lon="2.72619">
        <ele>111</ele>
        <time>2021-12-08T14:23:50.272Z</time>
      </trkpt>
      <trkpt lat="48.35616" lon="2.72618">
        <ele>111</ele>
        <time>2021-12-08T14:23:55.270Z</time>
      </trkpt>
      <trkpt lat="48.35619" lon="2.72616">
        <ele>111</ele>
        <time>2021-12-08T14:23:59.280Z</time>
      </trkpt>
      <trkpt lat="48.35623" lon="2.72614">
        <ele>111</ele>
        <time>2021-12-08T14:24:04.269Z</time>
      </trkpt>
      <trkpt lat="48.35626" lon="2.72611">
        <ele>110</ele>
        <time>2021-12-08T14:24:08.277Z</time>
      </trkpt>
      <trkpt lat="48.3563" lon="2.72612">
        <ele>110</ele>
        <time>2021-12-08T14:24:12.270Z</time>
      </trkpt>
      <trkpt lat="48.35635" lon="2.72611">
        <ele>110</ele>
        <time>2021-12-08T14:24:17.276Z</time>
      </trkpt>
      <trkpt lat="48.3564" lon="2.72609">
        <ele>110</ele>
        <time>2021-12-08T14:24:22.270Z</time>
      </trkpt>
      <trkpt lat="48.35644" lon="2.7261">
        <ele>110</ele>
        <time>2021-12-08T14:24:27.272Z</time>
      </trkpt>
      <trkpt lat="48.35649" lon="2.7261">
        <ele>110</ele>
        <time>2021-12-08T14:24:32.265Z</time>
      </trkpt>
      <trkpt lat="48.35654" lon="2.72608">
        <ele>109</ele>
        <time>2021-12-08T14:24:37.270Z</time>
      </trkpt>
      <trkpt lat="48.35658" lon="2.72607">
        <ele>109</ele>
        <time>2021-12-08T14:24:42.269Z</time>
      </trkpt>
      <trkpt lat="48.35663" lon="2.72603">
        <ele>109</ele>
        <time>2021-12-08T14:24:47.280Z</time>
      </trkpt>
      <trkpt lat="48.35666" lon="2.72599">
        <ele>109</ele>
        <time>2021-12-08T14:24:51.317Z</time>
      </trkpt>
      <trkpt lat="48.35671" lon="2.72595">
        <ele>107</ele>
        <time>2021-12-08T14:24:56.265Z</time>
      </trkpt>
      <trkpt lat="48.35675" lon="2.72593">
        <ele>107</ele>
        <time>2021-12-08T14:25:00.265Z</time>
      </trkpt>
      <trkpt lat="48.35678" lon="2.72591">
        <ele>107</ele>
        <time>2021-12-08T14:25:04.273Z</time>
      </trkpt>
      <trkpt lat="48.35681" lon="2.72587">
        <ele>105</ele>
        <time>2021-12-08T14:25:09.267Z</time>
      </trkpt>
      <trkpt lat="48.35682" lon="2.72585">
        <ele>105</ele>
        <time>2021-12-08T14:25:14.309Z</time>
      </trkpt>
      <trkpt lat="48.35685" lon="2.7258">
        <ele>105</ele>
        <time>2021-12-08T14:25:19.273Z</time>
      </trkpt>
      <trkpt lat="48.35686" lon="2.72577">
        <ele>105</ele>
        <time>2021-12-08T14:25:24.267Z</time>
      </trkpt>
      <trkpt lat="48.35689" lon="2.72574">
        <ele>105</ele>
        <time>2021-12-08T14:25:29.268Z</time>
      </trkpt>
      <trkpt lat="48.35688" lon="2.72573">
        <ele>105</ele>
        <time>2021-12-08T14:25:33.268Z</time>
      </trkpt>
      <trkpt lat="48.35688" lon="2.72572">
        <ele>105</ele>
        <time>2021-12-08T14:25:38.265Z</time>
      </trkpt>
      <trkpt lat="48.35686" lon="2.72566">
        <ele>104</ele>
        <time>2021-12-08T14:25:43.264Z</time>
      </trkpt>
      <trkpt lat="48.35685" lon="2.72561">
        <ele>104</ele>
        <time>2021-12-08T14:25:47.265Z</time>
      </trkpt>
      <trkpt lat="48.35685" lon="2.72558">
        <ele>104</ele>
        <time>2021-12-08T14:25:51.269Z</time>
      </trkpt>
      <trkpt lat="48.35685" lon="2.72555">
        <ele>104</ele>
        <time>2021-12-08T14:25:56.260Z</time>
      </trkpt>
      <trkpt lat="48.35685" lon="2.7255">
        <ele>104</ele>
        <time>2021-12-08T14:26:01.270Z</time>
      </trkpt>
      <trkpt lat="48.35686" lon="2.72548">
        <ele>104</ele>
        <time>2021-12-08T14:26:05.271Z</time>
      </trkpt>
      <trkpt lat="48.35687" lon="2.72541">
        <ele>105</ele>
        <time>2021-12-08T14:26:10.261Z</time>
      </trkpt>
      <trkpt lat="48.35686" lon="2.72537">
        <ele>105</ele>
        <time>2021-12-08T14:26:14.272Z</time>
      </trkpt>
      <trkpt lat="48.35683" lon="2.72533">
        <ele>105</ele>
        <time>2021-12-08T14:26:18.293Z</time>
      </trkpt>
      <trkpt lat="48.35683" lon="2.72524">
        <ele>105</ele>
        <time>2021-12-08T14:26:23.266Z</time>
      </trkpt>
      <trkpt lat="48.35685" lon="2.72519">
        <ele>105</ele>
        <time>2021-12-08T14:26:27.273Z</time>
      </trkpt>
      <trkpt lat="48.35687" lon="2.72516">
        <ele>105</ele>
        <time>2021-12-08T14:26:31.274Z</time>
      </trkpt>
      <trkpt lat="48.35691" lon="2.72511">
        <ele>108</ele>
        <time>2021-12-08T14:26:36.273Z</time>
      </trkpt>
      <trkpt lat="48.35693" lon="2.72506">
        <ele>108</ele>
        <time>2021-12-08T14:26:41.265Z</time>
      </trkpt>
      <trkpt lat="48.35695" lon="2.72502">
        <ele>108</ele>
        <time>2021-12-08T14:26:45.262Z</time>
      </trkpt>
      <trkpt lat="48.35697" lon="2.72495">
        <ele>108</ele>
        <time>2021-12-08T14:26:50.277Z</time>
      </trkpt>
      <trkpt lat="48.35697" lon="2.7249">
        <ele>108</ele>
        <time>2021-12-08T14:26:55.266Z</time>
      </trkpt>
      <trkpt lat="48.35694" lon="2.72486">
        <ele>108</ele>
        <time>2021-12-08T14:26:59.277Z</time>
      </trkpt>
      <trkpt lat="48.35693" lon="2.72482">
        <ele>110</ele>
        <time>2021-12-08T14:27:04.409Z</time>
      </trkpt>
      <trkpt lat="48.35697" lon="2.72478">
        <ele>110</ele>
        <time>2021-12-08T14:27:09.281Z</time>
      </trkpt>
      <trkpt lat="48.35698" lon="2.72473">
        <ele>110</ele>
        <time>2021-12-08T14:27:14.276Z</time>
      </trkpt>
      <trkpt lat="48.35696" lon="2.72467">
        <ele>110</ele>
        <time>2021-12-08T14:27:19.277Z</time>
      </trkpt>
      <trkpt lat="48.35693" lon="2.72463">
        <ele>110</ele>
        <time>2021-12-08T14:27:24.278Z</time>
      </trkpt>
      <trkpt lat="48.35693" lon="2.72455">
        <ele>111</ele>
        <time>2021-12-08T14:27:29.272Z</time>
      </trkpt>
      <trkpt lat="48.35695" lon="2.7245">
        <ele>111</ele>
        <time>2021-12-08T14:27:34.264Z</time>
      </trkpt>
      <trkpt lat="48.35696" lon="2.72445">
        <ele>111</ele>
        <time>2021-12-08T14:27:38.280Z</time>
      </trkpt>
      <trkpt lat="48.35698" lon="2.72439">
        <ele>111</ele>
        <time>2021-12-08T14:27:43.268Z</time>
      </trkpt>
      <trkpt lat="48.357" lon="2.72436">
        <ele>111</ele>
        <time>2021-12-08T14:27:57.279Z</time>
      </trkpt>
      <trkpt lat="48.35701" lon="2.72435">
        <ele>111</ele>
        <time>2021-12-08T14:28:02.278Z</time>
      </trkpt>
      <trkpt lat="48.35704" lon="2.72431">
        <ele>111</ele>
        <time>2021-12-08T14:28:07.281Z</time>
      </trkpt>
      <trkpt lat="48.35708" lon="2.72428">
        <ele>112</ele>
        <time>2021-12-08T14:28:12.274Z</time>
      </trkpt>
      <trkpt lat="48.35709" lon="2.72423">
        <ele>113</ele>
        <time>2021-12-08T14:28:16.288Z</time>
      </trkpt>
      <trkpt lat="48.35711" lon="2.72418">
        <ele>113</ele>
        <time>2021-12-08T14:28:21.281Z</time>
      </trkpt>
      <trkpt lat="48.35713" lon="2.72414">
        <ele>113</ele>
        <time>2021-12-08T14:28:26.277Z</time>
      </trkpt>
      <trkpt lat="48.35717" lon="2.72408">
        <ele>113</ele>
        <time>2021-12-08T14:28:31.270Z</time>
      </trkpt>
      <trkpt lat="48.3572" lon="2.72404">
        <ele>113</ele>
        <time>2021-12-08T14:28:35.279Z</time>
      </trkpt>
      <trkpt lat="48.35721" lon="2.72398">
        <ele>117</ele>
        <time>2021-12-08T14:28:40.277Z</time>
      </trkpt>
      <trkpt lat="48.35725" lon="2.72395">
        <ele>117</ele>
        <time>2021-12-08T14:28:45.272Z</time>
      </trkpt>
      <trkpt lat="48.35729" lon="2.72389">
        <ele>117</ele>
        <time>2021-12-08T14:28:50.276Z</time>
      </trkpt>
      <trkpt lat="48.35732" lon="2.72384">
        <ele>117</ele>
        <time>2021-12-08T14:28:54.279Z</time>
      </trkpt>
      <trkpt lat="48.35735" lon="2.72376">
        <ele>117</ele>
        <time>2021-12-08T14:28:59.276Z</time>
      </trkpt>
      <trkpt lat="48.35737" lon="2.72371">
        <ele>115</ele>
        <time>2021-12-08T14:29:03.276Z</time>
      </trkpt>
      <trkpt lat="48.35734" lon="2.72364">
        <ele>118</ele>
        <time>2021-12-08T14:29:08.276Z</time>
      </trkpt>
      <trkpt lat="48.3573" lon="2.72359">
        <ele>118</ele>
        <time>2021-12-08T14:29:13.282Z</time>
      </trkpt>
      <trkpt lat="48.35727" lon="2.72357">
        <ele>118</ele>
        <time>2021-12-08T14:29:17.295Z</time>
      </trkpt>
      <trkpt lat="48.35723" lon="2.72355">
        <ele>118</ele>
        <time>2021-12-08T14:29:22.276Z</time>
      </trkpt>
      <trkpt lat="48.35719" lon="2.72353">
        <ele>118</ele>
        <time>2021-12-08T14:29:27.274Z</time>
      </trkpt>
      <trkpt lat="48.35714" lon="2.72351">
        <ele>118</ele>
        <time>2021-12-08T14:29:32.281Z</time>
      </trkpt>
      <trkpt lat="48.3571" lon="2.72348">
        <ele>118</ele>
        <time>2021-12-08T14:29:37.297Z</time>
      </trkpt>
      <trkpt lat="48.35705" lon="2.72351">
        <ele>115</ele>
        <time>2021-12-08T14:29:42.267Z</time>
      </trkpt>
      <trkpt lat="48.35699" lon="2.72353">
        <ele>115</ele>
        <time>2021-12-08T14:29:47.263Z</time>
      </trkpt>
      <trkpt lat="48.35696" lon="2.72349">
        <ele>115</ele>
        <time>2021-12-08T14:29:51.270Z</time>
      </trkpt>
      <trkpt lat="48.35692" lon="2.72346">
        <ele>116</ele>
        <time>2021-12-08T14:29:55.270Z</time>
      </trkpt>
      <trkpt lat="48.35688" lon="2.72342">
        <ele>116</ele>
        <time>2021-12-08T14:30:00.275Z</time>
      </trkpt>
      <trkpt lat="48.35688" lon="2.72337">
        <ele>116</ele>
        <time>2021-12-08T14:30:04.270Z</time>
      </trkpt>
      <trkpt lat="48.35685" lon="2.72332">
        <ele>116</ele>
        <time>2021-12-08T14:30:09.265Z</time>
      </trkpt>
      <trkpt lat="48.35686" lon="2.72326">
        <ele>116</ele>
        <time>2021-12-08T14:30:14.269Z</time>
      </trkpt>
      <trkpt lat="48.35689" lon="2.72324">
        <ele>116</ele>
        <time>2021-12-08T14:30:19.271Z</time>
      </trkpt>
      <trkpt lat="48.35693" lon="2.72321">
        <ele>116</ele>
        <time>2021-12-08T14:30:24.272Z</time>
      </trkpt>
      <trkpt lat="48.35695" lon="2.72319">
        <ele>119</ele>
        <time>2021-12-08T14:30:28.281Z</time>
      </trkpt>
      <trkpt lat="48.35698" lon="2.72314">
        <ele>119</ele>
        <time>2021-12-08T14:30:38.264Z</time>
      </trkpt>
      <trkpt lat="48.35699" lon="2.72311">
        <ele>119</ele>
        <time>2021-12-08T14:30:42.276Z</time>
      </trkpt>
      <trkpt lat="48.35701" lon="2.72309">
        <ele>119</ele>
        <time>2021-12-08T14:30:47.266Z</time>
      </trkpt>
      <trkpt lat="48.35702" lon="2.72306">
        <ele>119</ele>
        <time>2021-12-08T14:30:52.268Z</time>
      </trkpt>
      <trkpt lat="48.35703" lon="2.72301">
        <ele>119</ele>
        <time>2021-12-08T14:30:57.282Z</time>
      </trkpt>
      <trkpt lat="48.35713" lon="2.72301">
        <ele>122</ele>
        <time>2021-12-08T14:31:51.270Z</time>
      </trkpt>
      <trkpt lat="48.35713" lon="2.72301">
        <ele>122</ele>
        <time>2021-12-08T14:31:55.271Z</time>
      </trkpt>
      <trkpt lat="48.35713" lon="2.72301">
        <ele>122</ele>
        <time>2021-12-08T14:32:00.274Z</time>
      </trkpt>
      <trkpt lat="48.35714" lon="2.72301">
        <ele>122</ele>
        <time>2021-12-08T14:32:04.277Z</time>
      </trkpt>
      <trkpt lat="48.35717" lon="2.72299">
        <ele>122</ele>
        <time>2021-12-08T14:32:09.263Z</time>
      </trkpt>
      <trkpt lat="48.35721" lon="2.72297">
        <ele>122</ele>
        <time>2021-12-08T14:32:14.275Z</time>
      </trkpt>
      <trkpt lat="48.35724" lon="2.72294">
        <ele>122</ele>
        <time>2021-12-08T14:32:19.278Z</time>
      </trkpt>
      <trkpt lat="48.35726" lon="2.72291">
        <ele>126</ele>
        <time>2021-12-08T14:32:24.269Z</time>
      </trkpt>
      <trkpt lat="48.35729" lon="2.72286">
        <ele>126</ele>
        <time>2021-12-08T14:32:29.272Z</time>
      </trkpt>
      <trkpt lat="48.35731" lon="2.7228">
        <ele>126</ele>
        <time>2021-12-08T14:32:34.274Z</time>
      </trkpt>
      <trkpt lat="48.35733" lon="2.72277">
        <ele>126</ele>
        <time>2021-12-08T14:32:38.326Z</time>
      </trkpt>
      <trkpt lat="48.35734" lon="2.72271">
        <ele>126</ele>
        <time>2021-12-08T14:32:43.270Z</time>
      </trkpt>
      <trkpt lat="48.35736" lon="2.72266">
        <ele>126</ele>
        <time>2021-12-08T14:32:47.270Z</time>
      </trkpt>
      <trkpt lat="48.35738" lon="2.72257">
        <ele>126</ele>
        <time>2021-12-08T14:33:02.288Z</time>
      </trkpt>
      <trkpt lat="48.35738" lon="2.72256">
        <ele>126</ele>
        <time>2021-12-08T14:33:07.284Z</time>
      </trkpt>
      <trkpt lat="48.35738" lon="2.72254">
        <ele>126</ele>
        <time>2021-12-08T14:33:12.286Z</time>
      </trkpt>
      <trkpt lat="48.35741" lon="2.72248">
        <ele>126</ele>
        <time>2021-12-08T14:33:17.277Z</time>
      </trkpt>
      <trkpt lat="48.35741" lon="2.72241">
        <ele>126</ele>
        <time>2021-12-08T14:33:21.372Z</time>
      </trkpt>
      <trkpt lat="48.35741" lon="2.72234">
        <ele>130</ele>
        <time>2021-12-08T14:33:26.265Z</time>
      </trkpt>
      <trkpt lat="48.3574" lon="2.72227">
        <ele>130</ele>
        <time>2021-12-08T14:33:31.275Z</time>
      </trkpt>
      <trkpt lat="48.35744" lon="2.72219">
        <ele>130</ele>
        <time>2021-12-08T14:33:36.274Z</time>
      </trkpt>
      <trkpt lat="48.35744" lon="2.72209">
        <ele>130</ele>
        <time>2021-12-08T14:33:41.277Z</time>
      </trkpt>
      <trkpt lat="48.35745" lon="2.72203">
        <ele>131</ele>
        <time>2021-12-08T14:33:45.277Z</time>
      </trkpt>
      <trkpt lat="48.35748" lon="2.72197">
        <ele>131</ele>
        <time>2021-12-08T14:33:50.275Z</time>
      </trkpt>
      <trkpt lat="48.35747" lon="2.7219">
        <ele>131</ele>
        <time>2021-12-08T14:33:55.271Z</time>
      </trkpt>
      <trkpt lat="48.35747" lon="2.72186">
        <ele>131</ele>
        <time>2021-12-08T14:33:59.275Z</time>
      </trkpt>
      <trkpt lat="48.35753" lon="2.72181">
        <ele>131</ele>
        <time>2021-12-08T14:34:22.273Z</time>
      </trkpt>
      <trkpt lat="48.35754" lon="2.72178">
        <ele>130</ele>
        <time>2021-12-08T14:34:27.279Z</time>
      </trkpt>
      <trkpt lat="48.35754" lon="2.72176">
        <ele>130</ele>
        <time>2021-12-08T14:34:31.286Z</time>
      </trkpt>
      <trkpt lat="48.35757" lon="2.72169">
        <ele>130</ele>
        <time>2021-12-08T14:34:36.263Z</time>
      </trkpt>
      <trkpt lat="48.35752" lon="2.72165">
        <ele>130</ele>
        <time>2021-12-08T14:34:40.278Z</time>
      </trkpt>
      <trkpt lat="48.3575" lon="2.72161">
        <ele>130</ele>
        <time>2021-12-08T14:34:45.265Z</time>
      </trkpt>
      <trkpt lat="48.35746" lon="2.72157">
        <ele>130</ele>
        <time>2021-12-08T14:34:50.286Z</time>
      </trkpt>
      <trkpt lat="48.35741" lon="2.72157">
        <ele>130</ele>
        <time>2021-12-08T14:34:55.307Z</time>
      </trkpt>
      <trkpt lat="48.35738" lon="2.72158">
        <ele>130</ele>
        <time>2021-12-08T14:35:00.277Z</time>
      </trkpt>
      <trkpt lat="48.35733" lon="2.72157">
        <ele>132</ele>
        <time>2021-12-08T14:35:04.277Z</time>
      </trkpt>
      <trkpt lat="48.35728" lon="2.72153">
        <ele>132</ele>
        <time>2021-12-08T14:35:09.268Z</time>
      </trkpt>
      <trkpt lat="48.35726" lon="2.72148">
        <ele>131</ele>
        <time>2021-12-08T14:35:13.273Z</time>
      </trkpt>
      <trkpt lat="48.35723" lon="2.72141">
        <ele>131</ele>
        <time>2021-12-08T14:35:18.277Z</time>
      </trkpt>
      <trkpt lat="48.35722" lon="2.72136">
        <ele>131</ele>
        <time>2021-12-08T14:35:23.264Z</time>
      </trkpt>
      <trkpt lat="48.35722" lon="2.72134">
        <ele>131</ele>
        <time>2021-12-08T14:35:28.278Z</time>
      </trkpt>
      <trkpt lat="48.35721" lon="2.7213">
        <ele>131</ele>
        <time>2021-12-08T14:35:32.281Z</time>
      </trkpt>
      <trkpt lat="48.35718" lon="2.72124">
        <ele>130</ele>
        <time>2021-12-08T14:35:37.275Z</time>
      </trkpt>
      <trkpt lat="48.35718" lon="2.72118">
        <ele>130</ele>
        <time>2021-12-08T14:35:41.274Z</time>
      </trkpt>
      <trkpt lat="48.35718" lon="2.72112">
        <ele>130</ele>
        <time>2021-12-08T14:35:46.276Z</time>
      </trkpt>
      <trkpt lat="48.35717" lon="2.72105">
        <ele>130</ele>
        <time>2021-12-08T14:35:50.318Z</time>
      </trkpt>
      <trkpt lat="48.35713" lon="2.72098">
        <ele>130</ele>
        <time>2021-12-08T14:35:55.270Z</time>
      </trkpt>
      <trkpt lat="48.3571" lon="2.7209">
        <ele>126</ele>
        <time>2021-12-08T14:36:00.276Z</time>
      </trkpt>
      <trkpt lat="48.35706" lon="2.72084">
        <ele>127</ele>
        <time>2021-12-08T14:36:05.277Z</time>
      </trkpt>
      <trkpt lat="48.35705" lon="2.72077">
        <ele>127</ele>
        <time>2021-12-08T14:36:10.279Z</time>
      </trkpt>
      <trkpt lat="48.35707" lon="2.72073">
        <ele>127</ele>
        <time>2021-12-08T14:36:14.284Z</time>
      </trkpt>
      <trkpt lat="48.35704" lon="2.72069">
        <ele>126</ele>
        <time>2021-12-08T14:36:19.280Z</time>
      </trkpt>
      <trkpt lat="48.35701" lon="2.72064">
        <ele>126</ele>
        <time>2021-12-08T14:36:24.274Z</time>
      </trkpt>
      <trkpt lat="48.35698" lon="2.72064">
        <ele>126</ele>
        <time>2021-12-08T14:36:28.270Z</time>
      </trkpt>
      <trkpt lat="48.35695" lon="2.72063">
        <ele>126</ele>
        <time>2021-12-08T14:36:33.262Z</time>
      </trkpt>
      <trkpt lat="48.35695" lon="2.72063">
        <ele>126</ele>
        <time>2021-12-08T14:36:38.299Z</time>
      </trkpt>
      <trkpt lat="48.35696" lon="2.72063">
        <ele>126</ele>
        <time>2021-12-08T14:36:43.273Z</time>
      </trkpt>
      <trkpt lat="48.35698" lon="2.72065">
        <ele>126</ele>
        <time>2021-12-08T14:36:48.278Z</time>
      </trkpt>
      <trkpt lat="48.35703" lon="2.72068">
        <ele>126</ele>
        <time>2021-12-08T14:36:52.282Z</time>
      </trkpt>
      <trkpt lat="48.35704" lon="2.7207">
        <ele>127</ele>
        <time>2021-12-08T14:36:57.272Z</time>
      </trkpt>
      <trkpt lat="48.35706" lon="2.72066">
        <ele>126</ele>
        <time>2021-12-08T14:37:02.272Z</time>
      </trkpt>
      <trkpt lat="48.35703" lon="2.72062">
        <ele>126</ele>
        <time>2021-12-08T14:37:07.278Z</time>
      </trkpt>
      <trkpt lat="48.35702" lon="2.72058">
        <ele>126</ele>
        <time>2021-12-08T14:37:12.268Z</time>
      </trkpt>
      <trkpt lat="48.35699" lon="2.72054">
        <ele>126</ele>
        <time>2021-12-08T14:37:17.273Z</time>
      </trkpt>
      <trkpt lat="48.35698" lon="2.72052">
        <ele>126</ele>
        <time>2021-12-08T14:37:21.263Z</time>
      </trkpt>
      <trkpt lat="48.35694" lon="2.72047">
        <ele>126</ele>
        <time>2021-12-08T14:37:26.273Z</time>
      </trkpt>
      <trkpt lat="48.35689" lon="2.72045">
        <ele>126</ele>
        <time>2021-12-08T14:37:31.275Z</time>
      </trkpt>
      <trkpt lat="48.35687" lon="2.72043">
        <ele>126</ele>
        <time>2021-12-08T14:37:35.275Z</time>
      </trkpt>
      <trkpt lat="48.35684" lon="2.72039">
        <ele>124</ele>
        <time>2021-12-08T14:37:40.283Z</time>
      </trkpt>
      <trkpt lat="48.35681" lon="2.72041">
        <ele>124</ele>
        <time>2021-12-08T14:37:45.272Z</time>
      </trkpt>
      <trkpt lat="48.35678" lon="2.7204">
        <ele>120</ele>
        <time>2021-12-08T14:37:50.276Z</time>
      </trkpt>
      <trkpt lat="48.35677" lon="2.72042">
        <ele>123</ele>
        <time>2021-12-08T14:37:55.265Z</time>
      </trkpt>
      <trkpt lat="48.35674" lon="2.72041">
        <ele>120</ele>
        <time>2021-12-08T14:37:59.277Z</time>
      </trkpt>
      <trkpt lat="48.35673" lon="2.72044">
        <ele>123</ele>
        <time>2021-12-08T14:38:03.278Z</time>
      </trkpt>
      <trkpt lat="48.3567" lon="2.72048">
        <ele>123</ele>
        <time>2021-12-08T14:38:08.275Z</time>
      </trkpt>
      <trkpt lat="48.35669" lon="2.72054">
        <ele>123</ele>
        <time>2021-12-08T14:38:12.279Z</time>
      </trkpt>
      <trkpt lat="48.35669" lon="2.72058">
        <ele>123</ele>
        <time>2021-12-08T14:38:16.307Z</time>
      </trkpt>
      <trkpt lat="48.35665" lon="2.72061">
        <ele>123</ele>
        <time>2021-12-08T14:38:21.284Z</time>
      </trkpt>
      <trkpt lat="48.35664" lon="2.72068">
        <ele>123</ele>
        <time>2021-12-08T14:38:26.272Z</time>
      </trkpt>
      <trkpt lat="48.35664" lon="2.72076">
        <ele>124</ele>
        <time>2021-12-08T14:38:31.276Z</time>
      </trkpt>
      <trkpt lat="48.35664" lon="2.72077">
        <ele>124</ele>
        <time>2021-12-08T14:38:36.282Z</time>
      </trkpt>
      <trkpt lat="48.35665" lon="2.72083">
        <ele>124</ele>
        <time>2021-12-08T14:38:41.280Z</time>
      </trkpt>
      <trkpt lat="48.35664" lon="2.72088">
        <ele>124</ele>
        <time>2021-12-08T14:38:46.275Z</time>
      </trkpt>
      <trkpt lat="48.35661" lon="2.72087">
        <ele>124</ele>
        <time>2021-12-08T14:38:51.276Z</time>
      </trkpt>
      <trkpt lat="48.35658" lon="2.72087">
        <ele>124</ele>
        <time>2021-12-08T14:38:56.290Z</time>
      </trkpt>
      <trkpt lat="48.35654" lon="2.72088">
        <ele>124</ele>
        <time>2021-12-08T14:39:01.275Z</time>
      </trkpt>
      <trkpt lat="48.35651" lon="2.72084">
        <ele>119</ele>
        <time>2021-12-08T14:39:06.276Z</time>
      </trkpt>
      <trkpt lat="48.3565" lon="2.7208">
        <ele>119</ele>
        <time>2021-12-08T14:39:10.274Z</time>
      </trkpt>
      <trkpt lat="48.35646" lon="2.72077">
        <ele>119</ele>
        <time>2021-12-08T14:39:15.276Z</time>
      </trkpt>
      <trkpt lat="48.35642" lon="2.72076">
        <ele>119</ele>
        <time>2021-12-08T14:39:20.278Z</time>
      </trkpt>
      <trkpt lat="48.35639" lon="2.72079">
        <ele>119</ele>
        <time>2021-12-08T14:39:24.281Z</time>
      </trkpt>
      <trkpt lat="48.35636" lon="2.72073">
        <ele>119</ele>
        <time>2021-12-08T14:39:29.279Z</time>
      </trkpt>
      <trkpt lat="48.35634" lon="2.72068">
        <ele>117</ele>
        <time>2021-12-08T14:39:34.274Z</time>
      </trkpt>
      <trkpt lat="48.35634" lon="2.72063">
        <ele>117</ele>
        <time>2021-12-08T14:39:38.276Z</time>
      </trkpt>
      <trkpt lat="48.35628" lon="2.72067">
        <ele>117</ele>
        <time>2021-12-08T14:39:43.271Z</time>
      </trkpt>
      <trkpt lat="48.35629" lon="2.72061">
        <ele>117</ele>
        <time>2021-12-08T14:39:47.281Z</time>
      </trkpt>
      <trkpt lat="48.35627" lon="2.72051">
        <ele>117</ele>
        <time>2021-12-08T14:39:52.269Z</time>
      </trkpt>
      <trkpt lat="48.35625" lon="2.72043">
        <ele>117</ele>
        <time>2021-12-08T14:39:56.289Z</time>
      </trkpt>
      <trkpt lat="48.35624" lon="2.72036">
        <ele>111</ele>
        <time>2021-12-08T14:40:01.275Z</time>
      </trkpt>
      <trkpt lat="48.35624" lon="2.7203">
        <ele>111</ele>
        <time>2021-12-08T14:40:05.277Z</time>
      </trkpt>
      <trkpt lat="48.35626" lon="2.72022">
        <ele>114</ele>
        <time>2021-12-08T14:40:10.267Z</time>
      </trkpt>
      <trkpt lat="48.35628" lon="2.72017">
        <ele>114</ele>
        <time>2021-12-08T14:40:14.265Z</time>
      </trkpt>
      <trkpt lat="48.35628" lon="2.72009">
        <ele>110</ele>
        <time>2021-12-08T14:40:19.270Z</time>
      </trkpt>
      <trkpt lat="48.3563" lon="2.72001">
        <ele>110</ele>
        <time>2021-12-08T14:40:24.259Z</time>
      </trkpt>
      <trkpt lat="48.35631" lon="2.71994">
        <ele>110</ele>
        <time>2021-12-08T14:40:28.268Z</time>
      </trkpt>
      <trkpt lat="48.35633" lon="2.71987">
        <ele>110</ele>
        <time>2021-12-08T14:40:32.269Z</time>
      </trkpt>
      <trkpt lat="48.35635" lon="2.71981">
        <ele>107</ele>
        <time>2021-12-08T14:40:37.265Z</time>
      </trkpt>
      <trkpt lat="48.35634" lon="2.71974">
        <ele>107</ele>
        <time>2021-12-08T14:40:42.270Z</time>
      </trkpt>
      <trkpt lat="48.35634" lon="2.71968">
        <ele>107</ele>
        <time>2021-12-08T14:40:46.265Z</time>
      </trkpt>
      <trkpt lat="48.35637" lon="2.7196">
        <ele>107</ele>
        <time>2021-12-08T14:40:51.268Z</time>
      </trkpt>
      <trkpt lat="48.3564" lon="2.71953">
        <ele>103</ele>
        <time>2021-12-08T14:40:55.266Z</time>
      </trkpt>
      <trkpt lat="48.35644" lon="2.71946">
        <ele>103</ele>
        <time>2021-12-08T14:41:00.266Z</time>
      </trkpt>
      <trkpt lat="48.35647" lon="2.71941">
        <ele>103</ele>
        <time>2021-12-08T14:41:04.272Z</time>
      </trkpt>
      <trkpt lat="48.35652" lon="2.71934">
        <ele>103</ele>
        <time>2021-12-08T14:41:09.275Z</time>
      </trkpt>
      <trkpt lat="48.35657" lon="2.71929">
        <ele>102</ele>
        <time>2021-12-08T14:41:14.272Z</time>
      </trkpt>
      <trkpt lat="48.3566" lon="2.71925">
        <ele>102</ele>
        <time>2021-12-08T14:41:18.276Z</time>
      </trkpt>
      <trkpt lat="48.35666" lon="2.71919">
        <ele>102</ele>
        <time>2021-12-08T14:41:23.266Z</time>
      </trkpt>
      <trkpt lat="48.3567" lon="2.71913">
        <ele>102</ele>
        <time>2021-12-08T14:41:28.270Z</time>
      </trkpt>
      <trkpt lat="48.35676" lon="2.71909">
        <ele>102</ele>
        <time>2021-12-08T14:41:33.277Z</time>
      </trkpt>
      <trkpt lat="48.35679" lon="2.71904">
        <ele>102</ele>
        <time>2021-12-08T14:41:37.294Z</time>
      </trkpt>
      <trkpt lat="48.35682" lon="2.71897">
        <ele>103</ele>
        <time>2021-12-08T14:41:42.280Z</time>
      </trkpt>
      <trkpt lat="48.35683" lon="2.7189">
        <ele>103</ele>
        <time>2021-12-08T14:41:46.281Z</time>
      </trkpt>
      <trkpt lat="48.35683" lon="2.71882">
        <ele>103</ele>
        <time>2021-12-08T14:41:56.283Z</time>
      </trkpt>
      <trkpt lat="48.35682" lon="2.7188">
        <ele>103</ele>
        <time>2021-12-08T14:42:01.268Z</time>
      </trkpt>
      <trkpt lat="48.35682" lon="2.7188">
        <ele>103</ele>
        <time>2021-12-08T14:42:06.262Z</time>
      </trkpt>
      <trkpt lat="48.35683" lon="2.71877">
        <ele>103</ele>
        <time>2021-12-08T14:42:10.269Z</time>
      </trkpt>
      <trkpt lat="48.35687" lon="2.71867">
        <ele>103</ele>
        <time>2021-12-08T14:42:15.270Z</time>
      </trkpt>
      <trkpt lat="48.3569" lon="2.7186">
        <ele>103</ele>
        <time>2021-12-08T14:42:20.263Z</time>
      </trkpt>
      <trkpt lat="48.35692" lon="2.71852">
        <ele>103</ele>
        <time>2021-12-08T14:42:25.274Z</time>
      </trkpt>
      <trkpt lat="48.35695" lon="2.71845">
        <ele>104</ele>
        <time>2021-12-08T14:42:30.266Z</time>
      </trkpt>
      <trkpt lat="48.35698" lon="2.71842">
        <ele>104</ele>
        <time>2021-12-08T14:42:35.265Z</time>
      </trkpt>
      <trkpt lat="48.35699" lon="2.71838">
        <ele>104</ele>
        <time>2021-12-08T14:42:39.268Z</time>
      </trkpt>
      <trkpt lat="48.35703" lon="2.71836">
        <ele>104</ele>
        <time>2021-12-08T14:42:44.271Z</time>
      </trkpt>
      <trkpt lat="48.35707" lon="2.71834">
        <ele>104</ele>
        <time>2021-12-08T14:42:49.281Z</time>
      </trkpt>
      <trkpt lat="48.35712" lon="2.71833">
        <ele>107</ele>
        <time>2021-12-08T14:42:54.287Z</time>
      </trkpt>
      <trkpt lat="48.35717" lon="2.71834">
        <ele>107</ele>
        <time>2021-12-08T14:42:59.276Z</time>
      </trkpt>
      <trkpt lat="48.3572" lon="2.7183">
        <ele>107</ele>
        <time>2021-12-08T14:43:03.276Z</time>
      </trkpt>
      <trkpt lat="48.35725" lon="2.7183">
        <ele>107</ele>
        <time>2021-12-08T14:43:08.275Z</time>
      </trkpt>
      <trkpt lat="48.3573" lon="2.71829">
        <ele>107</ele>
        <time>2021-12-08T14:43:13.276Z</time>
      </trkpt>
      <trkpt lat="48.35732" lon="2.71827">
        <ele>107</ele>
        <time>2021-12-08T14:43:18.281Z</time>
      </trkpt>
      <trkpt lat="48.35733" lon="2.7183">
        <ele>107</ele>
        <time>2021-12-08T14:43:22.280Z</time>
      </trkpt>
      <trkpt lat="48.35735" lon="2.71835">
        <ele>107</ele>
        <time>2021-12-08T14:43:27.279Z</time>
      </trkpt>
      <trkpt lat="48.35737" lon="2.71842">
        <ele>111</ele>
        <time>2021-12-08T14:43:32.282Z</time>
      </trkpt>
      <trkpt lat="48.35741" lon="2.71849">
        <ele>110</ele>
        <time>2021-12-08T14:43:37.276Z</time>
      </trkpt>
      <trkpt lat="48.35744" lon="2.71851">
        <ele>110</ele>
        <time>2021-12-08T14:43:42.277Z</time>
      </trkpt>
      <trkpt lat="48.35748" lon="2.71849">
        <ele>110</ele>
        <time>2021-12-08T14:43:46.278Z</time>
      </trkpt>
      <trkpt lat="48.35753" lon="2.71848">
        <ele>110</ele>
        <time>2021-12-08T14:43:51.279Z</time>
      </trkpt>
      <trkpt lat="48.35755" lon="2.71842">
        <ele>111</ele>
        <time>2021-12-08T14:43:55.429Z</time>
      </trkpt>
      <trkpt lat="48.35756" lon="2.71833">
        <ele>111</ele>
        <time>2021-12-08T14:44:00.283Z</time>
      </trkpt>
      <trkpt lat="48.35757" lon="2.71824">
        <ele>111</ele>
        <time>2021-12-08T14:44:05.279Z</time>
      </trkpt>
      <trkpt lat="48.35758" lon="2.71815">
        <ele>111</ele>
        <time>2021-12-08T14:44:10.271Z</time>
      </trkpt>
      <trkpt lat="48.35758" lon="2.71807">
        <ele>111</ele>
        <time>2021-12-08T14:44:14.280Z</time>
      </trkpt>
      <trkpt lat="48.3576" lon="2.71799">
        <ele>111</ele>
        <time>2021-12-08T14:44:18.275Z</time>
      </trkpt>
      <trkpt lat="48.35762" lon="2.7179">
        <ele>110</ele>
        <time>2021-12-08T14:44:23.265Z</time>
      </trkpt>
      <trkpt lat="48.35764" lon="2.71784">
        <ele>113</ele>
        <time>2021-12-08T14:44:27.271Z</time>
      </trkpt>
      <trkpt lat="48.35769" lon="2.71775">
        <ele>113</ele>
        <time>2021-12-08T14:44:32.276Z</time>
      </trkpt>
      <trkpt lat="48.35771" lon="2.71769">
        <ele>113</ele>
        <time>2021-12-08T14:44:36.277Z</time>
      </trkpt>
      <trkpt lat="48.35776" lon="2.71766">
        <ele>113</ele>
        <time>2021-12-08T14:44:40.280Z</time>
      </trkpt>
      <trkpt lat="48.35781" lon="2.71762">
        <ele>113</ele>
        <time>2021-12-08T14:44:45.271Z</time>
      </trkpt>
      <trkpt lat="48.35786" lon="2.7176">
        <ele>113</ele>
        <time>2021-12-08T14:44:50.280Z</time>
      </trkpt>
      <trkpt lat="48.3579" lon="2.71753">
        <ele>113</ele>
        <time>2021-12-08T14:44:55.278Z</time>
      </trkpt>
      <trkpt lat="48.35795" lon="2.71748">
        <ele>115</ele>
        <time>2021-12-08T14:45:00.296Z</time>
      </trkpt>
      <trkpt lat="48.35798" lon="2.71743">
        <ele>115</ele>
        <time>2021-12-08T14:45:05.272Z</time>
      </trkpt>
      <trkpt lat="48.35801" lon="2.71736">
        <ele>114</ele>
        <time>2021-12-08T14:45:10.274Z</time>
      </trkpt>
      <trkpt lat="48.35801" lon="2.71729">
        <ele>114</ele>
        <time>2021-12-08T14:45:14.278Z</time>
      </trkpt>
      <trkpt lat="48.35803" lon="2.7172">
        <ele>114</ele>
        <time>2021-12-08T14:45:19.271Z</time>
      </trkpt>
      <trkpt lat="48.35807" lon="2.71713">
        <ele>114</ele>
        <time>2021-12-08T14:45:24.270Z</time>
      </trkpt>
      <trkpt lat="48.35812" lon="2.71713">
        <ele>114</ele>
        <time>2021-12-08T14:45:28.280Z</time>
      </trkpt>
      <trkpt lat="48.35816" lon="2.71714">
        <ele>114</ele>
        <time>2021-12-08T14:45:33.279Z</time>
      </trkpt>
      <trkpt lat="48.3582" lon="2.71712">
        <ele>112</ele>
        <time>2021-12-08T14:45:38.274Z</time>
      </trkpt>
      <trkpt lat="48.35824" lon="2.71709">
        <ele>112</ele>
        <time>2021-12-08T14:45:43.276Z</time>
      </trkpt>
      <trkpt lat="48.35828" lon="2.71707">
        <ele>112</ele>
        <time>2021-12-08T14:45:47.277Z</time>
      </trkpt>
      <trkpt lat="48.3583" lon="2.71701">
        <ele>112</ele>
        <time>2021-12-08T14:45:52.273Z</time>
      </trkpt>
      <trkpt lat="48.35827" lon="2.71696">
        <ele>112</ele>
        <time>2021-12-08T14:45:56.275Z</time>
      </trkpt>
      <trkpt lat="48.35824" lon="2.7169">
        <ele>112</ele>
        <time>2021-12-08T14:46:01.274Z</time>
      </trkpt>
      <trkpt lat="48.35822" lon="2.71685">
        <ele>112</ele>
        <time>2021-12-08T14:46:05.278Z</time>
      </trkpt>
      <trkpt lat="48.35824" lon="2.71678">
        <ele>113</ele>
        <time>2021-12-08T14:46:10.268Z</time>
      </trkpt>
      <trkpt lat="48.35825" lon="2.7167">
        <ele>113</ele>
        <time>2021-12-08T14:46:15.268Z</time>
      </trkpt>
      <trkpt lat="48.35821" lon="2.71664">
        <ele>113</ele>
        <time>2021-12-08T14:46:20.277Z</time>
      </trkpt>
      <trkpt lat="48.35817" lon="2.71659">
        <ele>113</ele>
        <time>2021-12-08T14:46:25.274Z</time>
      </trkpt>
      <trkpt lat="48.35814" lon="2.71654">
        <ele>113</ele>
        <time>2021-12-08T14:46:30.266Z</time>
      </trkpt>
      <trkpt lat="48.3581" lon="2.71652">
        <ele>116</ele>
        <time>2021-12-08T14:46:34.268Z</time>
      </trkpt>
      <trkpt lat="48.35806" lon="2.71649">
        <ele>116</ele>
        <time>2021-12-08T14:46:38.270Z</time>
      </trkpt>
      <trkpt lat="48.35802" lon="2.71646">
        <ele>116</ele>
        <time>2021-12-08T14:46:42.276Z</time>
      </trkpt>
      <trkpt lat="48.35798" lon="2.71643">
        <ele>116</ele>
        <time>2021-12-08T14:46:47.264Z</time>
      </trkpt>
      <trkpt lat="48.35794" lon="2.71639">
        <ele>116</ele>
        <time>2021-12-08T14:46:51.279Z</time>
      </trkpt>
      <trkpt lat="48.3579" lon="2.71636">
        <ele>113</ele>
        <time>2021-12-08T14:46:56.269Z</time>
      </trkpt>
      <trkpt lat="48.35789" lon="2.71631">
        <ele>113</ele>
        <time>2021-12-08T14:47:01.275Z</time>
      </trkpt>
      <trkpt lat="48.35788" lon="2.71625">
        <ele>114</ele>
        <time>2021-12-08T14:47:06.270Z</time>
      </trkpt>
      <trkpt lat="48.35793" lon="2.71622">
        <ele>118</ele>
        <time>2021-12-08T14:47:11.268Z</time>
      </trkpt>
      <trkpt lat="48.35796" lon="2.71617">
        <ele>118</ele>
        <time>2021-12-08T14:47:15.271Z</time>
      </trkpt>
      <trkpt lat="48.358" lon="2.71614">
        <ele>118</ele>
        <time>2021-12-08T14:47:20.275Z</time>
      </trkpt>
      <trkpt lat="48.35804" lon="2.71615">
        <ele>118</ele>
        <time>2021-12-08T14:47:25.273Z</time>
      </trkpt>
      <trkpt lat="48.35808" lon="2.71615">
        <ele>118</ele>
        <time>2021-12-08T14:47:30.276Z</time>
      </trkpt>
      <trkpt lat="48.35811" lon="2.71612">
        <ele>118</ele>
        <time>2021-12-08T14:47:35.272Z</time>
      </trkpt>
      <trkpt lat="48.35814" lon="2.71609">
        <ele>118</ele>
        <time>2021-12-08T14:47:39.271Z</time>
      </trkpt>
      <trkpt lat="48.35818" lon="2.71608">
        <ele>118</ele>
        <time>2021-12-08T14:47:44.266Z</time>
      </trkpt>
      <trkpt lat="48.35822" lon="2.71611">
        <ele>121</ele>
        <time>2021-12-08T14:47:49.273Z</time>
      </trkpt>
      <trkpt lat="48.35825" lon="2.71611">
        <ele>121</ele>
        <time>2021-12-08T14:47:54.273Z</time>
      </trkpt>
      <trkpt lat="48.35826" lon="2.71606">
        <ele>121</ele>
        <time>2021-12-08T14:47:59.277Z</time>
      </trkpt>
      <trkpt lat="48.35828" lon="2.716">
        <ele>121</ele>
        <time>2021-12-08T14:48:04.278Z</time>
      </trkpt>
      <trkpt lat="48.35829" lon="2.71596">
        <ele>122</ele>
        <time>2021-12-08T14:48:08.313Z</time>
      </trkpt>
      <trkpt lat="48.35833" lon="2.71593">
        <ele>122</ele>
        <time>2021-12-08T14:48:13.280Z</time>
      </trkpt>
      <trkpt lat="48.35841" lon="2.71596">
        <ele>122</ele>
        <time>2021-12-08T14:49:27.270Z</time>
      </trkpt>
      <trkpt lat="48.35842" lon="2.71594">
        <ele>122</ele>
        <time>2021-12-08T14:49:31.266Z</time>
      </trkpt>
      <trkpt lat="48.35844" lon="2.71594">
        <ele>122</ele>
        <time>2021-12-08T14:49:36.265Z</time>
      </trkpt>
      <trkpt lat="48.35846" lon="2.71592">
        <ele>122</ele>
        <time>2021-12-08T14:49:41.264Z</time>
      </trkpt>
      <trkpt lat="48.35848" lon="2.71592">
        <ele>125</ele>
        <time>2021-12-08T14:49:45.272Z</time>
      </trkpt>
      <trkpt lat="48.3585" lon="2.71592">
        <ele>125</ele>
        <time>2021-12-08T14:52:06.284Z</time>
      </trkpt>
      <trkpt lat="48.35851" lon="2.71591">
        <ele>125</ele>
        <time>2021-12-08T14:52:11.283Z</time>
      </trkpt>
      <trkpt lat="48.35851" lon="2.71587">
        <ele>125</ele>
        <time>2021-12-08T14:52:16.271Z</time>
      </trkpt>
      <trkpt lat="48.35854" lon="2.71583">
        <ele>125</ele>
        <time>2021-12-08T14:52:21.269Z</time>
      </trkpt>
      <trkpt lat="48.35858" lon="2.71581">
        <ele>125</ele>
        <time>2021-12-08T14:52:26.270Z</time>
      </trkpt>
      <trkpt lat="48.35861" lon="2.71579">
        <ele>125</ele>
        <time>2021-12-08T14:52:30.276Z</time>
      </trkpt>
      <trkpt lat="48.35864" lon="2.71572">
        <ele>125</ele>
        <time>2021-12-08T14:52:35.270Z</time>
      </trkpt>
      <trkpt lat="48.35865" lon="2.71569">
        <ele>124</ele>
        <time>2021-12-08T14:52:39.274Z</time>
      </trkpt>
      <trkpt lat="48.35868" lon="2.71563">
        <ele>124</ele>
        <time>2021-12-08T14:52:44.261Z</time>
      </trkpt>
      <trkpt lat="48.35871" lon="2.7156">
        <ele>124</ele>
        <time>2021-12-08T14:52:48.277Z</time>
      </trkpt>
      <trkpt lat="48.35872" lon="2.71556">
        <ele>124</ele>
        <time>2021-12-08T14:52:53.271Z</time>
      </trkpt>
      <trkpt lat="48.35874" lon="2.71553">
        <ele>124</ele>
        <time>2021-12-08T14:52:57.283Z</time>
      </trkpt>
      <trkpt lat="48.35878" lon="2.7155">
        <ele>123</ele>
        <time>2021-12-08T14:53:02.273Z</time>
      </trkpt>
      <trkpt lat="48.3588" lon="2.71545">
        <ele>123</ele>
        <time>2021-12-08T14:53:07.267Z</time>
      </trkpt>
      <trkpt lat="48.35882" lon="2.71543">
        <ele>123</ele>
        <time>2021-12-08T14:53:11.275Z</time>
      </trkpt>
      <trkpt lat="48.35887" lon="2.71544">
        <ele>123</ele>
        <time>2021-12-08T14:53:16.278Z</time>
      </trkpt>
      <trkpt lat="48.35892" lon="2.71547">
        <ele>123</ele>
        <time>2021-12-08T14:53:21.277Z</time>
      </trkpt>
      <trkpt lat="48.35903" lon="2.71546">
        <ele>123</ele>
        <time>2021-12-08T14:53:55.271Z</time>
      </trkpt>
      <trkpt lat="48.35904" lon="2.71542">
        <ele>115</ele>
        <time>2021-12-08T14:53:59.300Z</time>
      </trkpt>
      <trkpt lat="48.35907" lon="2.7154">
        <ele>116</ele>
        <time>2021-12-08T14:54:04.268Z</time>
      </trkpt>
      <trkpt lat="48.35906" lon="2.71538">
        <ele>116</ele>
        <time>2021-12-08T14:54:08.262Z</time>
      </trkpt>
      <trkpt lat="48.35907" lon="2.71538">
        <ele>116</ele>
        <time>2021-12-08T14:54:12.272Z</time>
      </trkpt>
      <trkpt lat="48.35907" lon="2.71533">
        <ele>116</ele>
        <time>2021-12-08T14:54:26.270Z</time>
      </trkpt>
      <trkpt lat="48.35907" lon="2.71531">
        <ele>116</ele>
        <time>2021-12-08T14:54:30.286Z</time>
      </trkpt>
      <trkpt lat="48.35905" lon="2.71529">
        <ele>116</ele>
        <time>2021-12-08T14:54:35.289Z</time>
      </trkpt>
      <trkpt lat="48.35905" lon="2.71525">
        <ele>116</ele>
        <time>2021-12-08T14:54:40.280Z</time>
      </trkpt>
      <trkpt lat="48.35905" lon="2.7152">
        <ele>116</ele>
        <time>2021-12-08T14:54:45.266Z</time>
      </trkpt>
      <trkpt lat="48.35901" lon="2.71519">
        <ele>122</ele>
        <time>2021-12-08T14:54:50.274Z</time>
      </trkpt>
      <trkpt lat="48.35902" lon="2.71514">
        <ele>122</ele>
        <time>2021-12-08T14:54:55.268Z</time>
      </trkpt>
      <trkpt lat="48.35903" lon="2.71509">
        <ele>117</ele>
        <time>2021-12-08T14:55:00.276Z</time>
      </trkpt>
      <trkpt lat="48.35901" lon="2.71504">
        <ele>122</ele>
        <time>2021-12-08T14:55:05.266Z</time>
      </trkpt>
      <trkpt lat="48.35902" lon="2.71499">
        <ele>122</ele>
        <time>2021-12-08T14:55:09.269Z</time>
      </trkpt>
      <trkpt lat="48.35903" lon="2.71497">
        <ele>117</ele>
        <time>2021-12-08T14:55:14.274Z</time>
      </trkpt>
      <trkpt lat="48.35905" lon="2.71493">
        <ele>117</ele>
        <time>2021-12-08T14:55:19.271Z</time>
      </trkpt>
      <trkpt lat="48.35908" lon="2.71492">
        <ele>117</ele>
        <time>2021-12-08T14:55:24.274Z</time>
      </trkpt>
      <trkpt lat="48.3591" lon="2.71489">
        <ele>117</ele>
        <time>2021-12-08T14:55:28.277Z</time>
      </trkpt>
      <trkpt lat="48.35913" lon="2.71486">
        <ele>117</ele>
        <time>2021-12-08T14:55:32.292Z</time>
      </trkpt>
      <trkpt lat="48.3591" lon="2.7148">
        <ele>117</ele>
        <time>2021-12-08T14:55:37.278Z</time>
      </trkpt>
      <trkpt lat="48.35908" lon="2.71478">
        <ele>117</ele>
        <time>2021-12-08T14:55:41.285Z</time>
      </trkpt>
      <trkpt lat="48.35907" lon="2.71474">
        <ele>117</ele>
        <time>2021-12-08T14:55:46.278Z</time>
      </trkpt>
      <trkpt lat="48.3591" lon="2.71469">
        <ele>117</ele>
        <time>2021-12-08T14:55:50.288Z</time>
      </trkpt>
      <trkpt lat="48.35912" lon="2.71463">
        <ele>117</ele>
        <time>2021-12-08T14:55:55.278Z</time>
      </trkpt>
      <trkpt lat="48.35913" lon="2.71458">
        <ele>116</ele>
        <time>2021-12-08T14:55:59.279Z</time>
      </trkpt>
      <trkpt lat="48.35912" lon="2.71453">
        <ele>116</ele>
        <time>2021-12-08T14:56:04.279Z</time>
      </trkpt>
      <trkpt lat="48.35911" lon="2.71447">
        <ele>116</ele>
        <time>2021-12-08T14:56:09.279Z</time>
      </trkpt>
      <trkpt lat="48.3591" lon="2.71443">
        <ele>116</ele>
        <time>2021-12-08T14:56:14.280Z</time>
      </trkpt>
      <trkpt lat="48.35909" lon="2.71438">
        <ele>116</ele>
        <time>2021-12-08T14:56:19.306Z</time>
      </trkpt>
      <trkpt lat="48.35908" lon="2.71432">
        <ele>116</ele>
        <time>2021-12-08T14:56:24.277Z</time>
      </trkpt>
      <trkpt lat="48.35908" lon="2.71426">
        <ele>115</ele>
        <time>2021-12-08T14:56:29.276Z</time>
      </trkpt>
      <trkpt lat="48.35909" lon="2.7142">
        <ele>115</ele>
        <time>2021-12-08T14:56:33.269Z</time>
      </trkpt>
      <trkpt lat="48.35909" lon="2.71413">
        <ele>115</ele>
        <time>2021-12-08T14:56:38.270Z</time>
      </trkpt>
      <trkpt lat="48.3591" lon="2.71404">
        <ele>115</ele>
        <time>2021-12-08T14:56:43.277Z</time>
      </trkpt>
      <trkpt lat="48.35903" lon="2.71396">
        <ele>114</ele>
        <time>2021-12-08T14:56:48.279Z</time>
      </trkpt>
      <trkpt lat="48.35903" lon="2.71381">
        <ele>118</ele>
        <time>2021-12-08T14:56:53.293Z</time>
      </trkpt>
      <trkpt lat="48.35903" lon="2.71373">
        <ele>115</ele>
        <time>2021-12-08T14:56:58.264Z</time>
      </trkpt>
      <trkpt lat="48.35905" lon="2.71366">
        <ele>115</ele>
        <time>2021-12-08T14:57:02.284Z</time>
      </trkpt>
      <trkpt lat="48.35902" lon="2.71363">
        <ele>119</ele>
        <time>2021-12-08T14:57:06.280Z</time>
      </trkpt>
      <trkpt lat="48.359" lon="2.71358">
        <ele>119</ele>
        <time>2021-12-08T14:57:11.278Z</time>
      </trkpt>
      <trkpt lat="48.35902" lon="2.71354">
        <ele>119</ele>
        <time>2021-12-08T14:57:15.284Z</time>
      </trkpt>
      <trkpt lat="48.35905" lon="2.71347">
        <ele>118</ele>
        <time>2021-12-08T14:57:20.274Z</time>
      </trkpt>
      <trkpt lat="48.35903" lon="2.71342">
        <ele>118</ele>
        <time>2021-12-08T14:57:24.279Z</time>
      </trkpt>
      <trkpt lat="48.359" lon="2.71337">
        <ele>121</ele>
        <time>2021-12-08T14:57:29.281Z</time>
      </trkpt>
      <trkpt lat="48.35898" lon="2.71333">
        <ele>121</ele>
        <time>2021-12-08T14:57:33.284Z</time>
      </trkpt>
      <trkpt lat="48.359" lon="2.71328">
        <ele>121</ele>
        <time>2021-12-08T14:57:38.281Z</time>
      </trkpt>
      <trkpt lat="48.359" lon="2.71321">
        <ele>121</ele>
        <time>2021-12-08T14:57:43.279Z</time>
      </trkpt>
      <trkpt lat="48.35903" lon="2.71318">
        <ele>121</ele>
        <time>2021-12-08T14:57:48.269Z</time>
      </trkpt>
      <trkpt lat="48.35906" lon="2.71316">
        <ele>121</ele>
        <time>2021-12-08T14:57:52.271Z</time>
      </trkpt>
      <trkpt lat="48.35909" lon="2.71313">
        <ele>121</ele>
        <time>2021-12-08T14:57:57.277Z</time>
      </trkpt>
      <trkpt lat="48.35912" lon="2.7131">
        <ele>121</ele>
        <time>2021-12-08T14:58:02.266Z</time>
      </trkpt>
      <trkpt lat="48.35914" lon="2.71306">
        <ele>121</ele>
        <time>2021-12-08T14:58:06.272Z</time>
      </trkpt>
      <trkpt lat="48.35915" lon="2.71304">
        <ele>121</ele>
        <time>2021-12-08T14:58:10.272Z</time>
      </trkpt>
      <trkpt lat="48.35919" lon="2.71301">
        <ele>121</ele>
        <time>2021-12-08T14:58:15.276Z</time>
      </trkpt>
      <trkpt lat="48.35923" lon="2.71295">
        <ele>121</ele>
        <time>2021-12-08T14:58:20.276Z</time>
      </trkpt>
      <trkpt lat="48.35927" lon="2.71289">
        <ele>124</ele>
        <time>2021-12-08T14:58:25.283Z</time>
      </trkpt>
      <trkpt lat="48.3593" lon="2.71283">
        <ele>124</ele>
        <time>2021-12-08T14:58:30.278Z</time>
      </trkpt>
      <trkpt lat="48.35931" lon="2.71276">
        <ele>119</ele>
        <time>2021-12-08T14:58:35.283Z</time>
      </trkpt>
      <trkpt lat="48.35934" lon="2.71274">
        <ele>119</ele>
        <time>2021-12-08T14:58:40.282Z</time>
      </trkpt>
      <trkpt lat="48.35937" lon="2.71272">
        <ele>119</ele>
        <time>2021-12-08T14:58:45.279Z</time>
      </trkpt>
      <trkpt lat="48.3594" lon="2.71272">
        <ele>119</ele>
        <time>2021-12-08T14:58:50.288Z</time>
      </trkpt>
      <trkpt lat="48.35944" lon="2.71271">
        <ele>119</ele>
        <time>2021-12-08T14:58:55.269Z</time>
      </trkpt>
      <trkpt lat="48.35947" lon="2.7127">
        <ele>119</ele>
        <time>2021-12-08T14:58:59.309Z</time>
      </trkpt>
      <trkpt lat="48.35951" lon="2.71269">
        <ele>119</ele>
        <time>2021-12-08T14:59:04.291Z</time>
      </trkpt>
      <trkpt lat="48.35954" lon="2.71269">
        <ele>119</ele>
        <time>2021-12-08T14:59:09.269Z</time>
      </trkpt>
      <trkpt lat="48.35957" lon="2.71268">
        <ele>119</ele>
        <time>2021-12-08T14:59:13.276Z</time>
      </trkpt>
      <trkpt lat="48.35959" lon="2.71268">
        <ele>115</ele>
        <time>2021-12-08T14:59:17.289Z</time>
      </trkpt>
      <trkpt lat="48.35961" lon="2.71269">
        <ele>115</ele>
        <time>2021-12-08T14:59:22.272Z</time>
      </trkpt>
      <trkpt lat="48.35962" lon="2.7126">
        <ele>118</ele>
        <time>2021-12-08T14:59:27.294Z</time>
      </trkpt>
      <trkpt lat="48.35964" lon="2.71257">
        <ele>118</ele>
        <time>2021-12-08T14:59:32.271Z</time>
      </trkpt>
      <trkpt lat="48.35964" lon="2.71253">
        <ele>118</ele>
        <time>2021-12-08T14:59:36.283Z</time>
      </trkpt>
      <trkpt lat="48.35962" lon="2.71243">
        <ele>118</ele>
        <time>2021-12-08T14:59:41.281Z</time>
      </trkpt>
      <trkpt lat="48.35967" lon="2.71241">
        <ele>118</ele>
        <time>2021-12-08T14:59:46.277Z</time>
      </trkpt>
      <trkpt lat="48.35969" lon="2.71236">
        <ele>118</ele>
        <time>2021-12-08T14:59:50.276Z</time>
      </trkpt>
      <trkpt lat="48.35973" lon="2.71236">
        <ele>120</ele>
        <time>2021-12-08T14:59:55.269Z</time>
      </trkpt>
      <trkpt lat="48.35973" lon="2.71229">
        <ele>120</ele>
        <time>2021-12-08T14:59:59.272Z</time>
      </trkpt>
      <trkpt lat="48.35975" lon="2.71224">
        <ele>120</ele>
        <time>2021-12-08T15:00:03.275Z</time>
      </trkpt>
      <trkpt lat="48.35974" lon="2.71218">
        <ele>120</ele>
        <time>2021-12-08T15:00:08.276Z</time>
      </trkpt>
      <trkpt lat="48.3597" lon="2.71215">
        <ele>120</ele>
        <time>2021-12-08T15:00:13.282Z</time>
      </trkpt>
      <trkpt lat="48.35965" lon="2.71212">
        <ele>120</ele>
        <time>2021-12-08T15:00:18.275Z</time>
      </trkpt>
      <trkpt lat="48.35961" lon="2.71211">
        <ele>120</ele>
        <time>2021-12-08T15:00:22.277Z</time>
      </trkpt>
      <trkpt lat="48.35957" lon="2.71212">
        <ele>125</ele>
        <time>2021-12-08T15:00:26.271Z</time>
      </trkpt>
      <trkpt lat="48.35953" lon="2.71215">
        <ele>125</ele>
        <time>2021-12-08T15:00:31.273Z</time>
      </trkpt>
      <trkpt lat="48.3595" lon="2.71215">
        <ele>125</ele>
        <time>2021-12-08T15:00:35.274Z</time>
      </trkpt>
      <trkpt lat="48.35947" lon="2.71211">
        <ele>125</ele>
        <time>2021-12-08T15:00:40.310Z</time>
      </trkpt>
      <trkpt lat="48.3595" lon="2.71206">
        <ele>127</ele>
        <time>2021-12-08T15:00:45.280Z</time>
      </trkpt>
      <trkpt lat="48.35949" lon="2.71198">
        <ele>127</ele>
        <time>2021-12-08T15:00:50.267Z</time>
      </trkpt>
      <trkpt lat="48.35947" lon="2.71194">
        <ele>127</ele>
        <time>2021-12-08T15:01:14.266Z</time>
      </trkpt>
      <trkpt lat="48.35946" lon="2.71194">
        <ele>127</ele>
        <time>2021-12-08T15:01:18.280Z</time>
      </trkpt>
      <trkpt lat="48.35948" lon="2.71189">
        <ele>127</ele>
        <time>2021-12-08T15:01:23.283Z</time>
      </trkpt>
      <trkpt lat="48.35946" lon="2.71182">
        <ele>127</ele>
        <time>2021-12-08T15:01:27.278Z</time>
      </trkpt>
      <trkpt lat="48.35942" lon="2.71178">
        <ele>128</ele>
        <time>2021-12-08T15:01:32.277Z</time>
      </trkpt>
      <trkpt lat="48.35938" lon="2.71178">
        <ele>128</ele>
        <time>2021-12-08T15:01:36.276Z</time>
      </trkpt>
      <trkpt lat="48.35934" lon="2.7118">
        <ele>128</ele>
        <time>2021-12-08T15:01:41.279Z</time>
      </trkpt>
      <trkpt lat="48.35934" lon="2.71174">
        <ele>128</ele>
        <time>2021-12-08T15:01:46.268Z</time>
      </trkpt>
      <trkpt lat="48.35937" lon="2.71168">
        <ele>128</ele>
        <time>2021-12-08T15:01:51.277Z</time>
      </trkpt>
      <trkpt lat="48.3594" lon="2.71164">
        <ele>128</ele>
        <time>2021-12-08T15:01:55.280Z</time>
      </trkpt>
      <trkpt lat="48.35943" lon="2.7116">
        <ele>128</ele>
        <time>2021-12-08T15:02:00.274Z</time>
      </trkpt>
      <trkpt lat="48.35947" lon="2.71158">
        <ele>128</ele>
        <time>2021-12-08T15:02:05.265Z</time>
      </trkpt>
      <trkpt lat="48.35952" lon="2.71157">
        <ele>128</ele>
        <time>2021-12-08T15:02:10.275Z</time>
      </trkpt>
      <trkpt lat="48.35956" lon="2.71154">
        <ele>128</ele>
        <time>2021-12-08T15:02:15.271Z</time>
      </trkpt>
      <trkpt lat="48.35954" lon="2.7115">
        <ele>129</ele>
        <time>2021-12-08T15:02:19.281Z</time>
      </trkpt>
      <trkpt lat="48.35951" lon="2.71145">
        <ele>129</ele>
        <time>2021-12-08T15:02:24.276Z</time>
      </trkpt>
      <trkpt lat="48.35949" lon="2.71139">
        <ele>129</ele>
        <time>2021-12-08T15:02:29.302Z</time>
      </trkpt>
      <trkpt lat="48.35945" lon="2.71138">
        <ele>129</ele>
        <time>2021-12-08T15:02:34.275Z</time>
      </trkpt>
      <trkpt lat="48.35941" lon="2.71137">
        <ele>129</ele>
        <time>2021-12-08T15:02:38.274Z</time>
      </trkpt>
      <trkpt lat="48.35935" lon="2.71138">
        <ele>129</ele>
        <time>2021-12-08T15:02:43.282Z</time>
      </trkpt>
      <trkpt lat="48.3593" lon="2.71137">
        <ele>129</ele>
        <time>2021-12-08T15:02:48.284Z</time>
      </trkpt>
      <trkpt lat="48.35924" lon="2.71134">
        <ele>129</ele>
        <time>2021-12-08T15:02:53.281Z</time>
      </trkpt>
      <trkpt lat="48.35918" lon="2.7113">
        <ele>129</ele>
        <time>2021-12-08T15:02:58.283Z</time>
      </trkpt>
      <trkpt lat="48.35913" lon="2.71128">
        <ele>129</ele>
        <time>2021-12-08T15:03:02.322Z</time>
      </trkpt>
      <trkpt lat="48.35907" lon="2.71128">
        <ele>129</ele>
        <time>2021-12-08T15:03:07.282Z</time>
      </trkpt>
      <trkpt lat="48.35902" lon="2.71126">
        <ele>128</ele>
        <time>2021-12-08T15:03:12.279Z</time>
      </trkpt>
      <trkpt lat="48.35897" lon="2.71121">
        <ele>129</ele>
        <time>2021-12-08T15:03:17.281Z</time>
      </trkpt>
      <trkpt lat="48.35892" lon="2.71118">
        <ele>129</ele>
        <time>2021-12-08T15:03:22.291Z</time>
      </trkpt>
      <trkpt lat="48.3589" lon="2.71115">
        <ele>129</ele>
        <time>2021-12-08T15:03:27.271Z</time>
      </trkpt>
      <trkpt lat="48.35888" lon="2.71113">
        <ele>129</ele>
        <time>2021-12-08T15:03:31.275Z</time>
      </trkpt>
      <trkpt lat="48.35885" lon="2.71108">
        <ele>129</ele>
        <time>2021-12-08T15:03:36.274Z</time>
      </trkpt>
      <trkpt lat="48.35882" lon="2.71108">
        <ele>129</ele>
        <time>2021-12-08T15:03:40.294Z</time>
      </trkpt>
      <trkpt lat="48.35879" lon="2.71106">
        <ele>129</ele>
        <time>2021-12-08T15:03:45.278Z</time>
      </trkpt>
      <trkpt lat="48.35872" lon="2.71103">
        <ele>130</ele>
        <time>2021-12-08T15:03:50.274Z</time>
      </trkpt>
      <trkpt lat="48.35866" lon="2.711">
        <ele>130</ele>
        <time>2021-12-08T15:03:55.276Z</time>
      </trkpt>
      <trkpt lat="48.35861" lon="2.71098">
        <ele>130</ele>
        <time>2021-12-08T15:04:00.269Z</time>
      </trkpt>
      <trkpt lat="48.35857" lon="2.71091">
        <ele>129</ele>
        <time>2021-12-08T15:04:05.273Z</time>
      </trkpt>
      <trkpt lat="48.35853" lon="2.71084">
        <ele>129</ele>
        <time>2021-12-08T15:04:10.277Z</time>
      </trkpt>
      <trkpt lat="48.35854" lon="2.71086">
        <ele>129</ele>
        <time>2021-12-08T15:04:15.276Z</time>
      </trkpt>
      <trkpt lat="48.35855" lon="2.71081">
        <ele>129</ele>
        <time>2021-12-08T15:04:20.269Z</time>
      </trkpt>
      <trkpt lat="48.35859" lon="2.71075">
        <ele>129</ele>
        <time>2021-12-08T15:04:25.281Z</time>
      </trkpt>
      <trkpt lat="48.35862" lon="2.7107">
        <ele>129</ele>
        <time>2021-12-08T15:04:30.285Z</time>
      </trkpt>
      <trkpt lat="48.35863" lon="2.71062">
        <ele>129</ele>
        <time>2021-12-08T15:04:34.292Z</time>
      </trkpt>
      <trkpt lat="48.35861" lon="2.71057">
        <ele>129</ele>
        <time>2021-12-08T15:04:38.279Z</time>
      </trkpt>
      <trkpt lat="48.35861" lon="2.71046">
        <ele>129</ele>
        <time>2021-12-08T15:04:43.269Z</time>
      </trkpt>
      <trkpt lat="48.35858" lon="2.71036">
        <ele>129</ele>
        <time>2021-12-08T15:04:48.271Z</time>
      </trkpt>
      <trkpt lat="48.35858" lon="2.71029">
        <ele>129</ele>
        <time>2021-12-08T15:04:52.283Z</time>
      </trkpt>
      <trkpt lat="48.35857" lon="2.71022">
        <ele>129</ele>
        <time>2021-12-08T15:04:57.272Z</time>
      </trkpt>
      <trkpt lat="48.35856" lon="2.71016">
        <ele>129</ele>
        <time>2021-12-08T15:05:01.278Z</time>
      </trkpt>
      <trkpt lat="48.35856" lon="2.71008">
        <ele>130</ele>
        <time>2021-12-08T15:05:06.277Z</time>
      </trkpt>
      <trkpt lat="48.35855" lon="2.70999">
        <ele>130</ele>
        <time>2021-12-08T15:05:11.280Z</time>
      </trkpt>
      <trkpt lat="48.35855" lon="2.70993">
        <ele>130</ele>
        <time>2021-12-08T15:05:15.296Z</time>
      </trkpt>
      <trkpt lat="48.35857" lon="2.70985">
        <ele>131</ele>
        <time>2021-12-08T15:05:20.266Z</time>
      </trkpt>
      <trkpt lat="48.35859" lon="2.70978">
        <ele>131</ele>
        <time>2021-12-08T15:05:24.273Z</time>
      </trkpt>
      <trkpt lat="48.35862" lon="2.70971">
        <ele>131</ele>
        <time>2021-12-08T15:05:29.273Z</time>
      </trkpt>
      <trkpt lat="48.35865" lon="2.70965">
        <ele>131</ele>
        <time>2021-12-08T15:05:34.271Z</time>
      </trkpt>
      <trkpt lat="48.35869" lon="2.7096">
        <ele>131</ele>
        <time>2021-12-08T15:05:38.279Z</time>
      </trkpt>
      <trkpt lat="48.3587" lon="2.70954">
        <ele>131</ele>
        <time>2021-12-08T15:05:42.278Z</time>
      </trkpt>
      <trkpt lat="48.35871" lon="2.70947">
        <ele>131</ele>
        <time>2021-12-08T15:05:47.284Z</time>
      </trkpt>
      <trkpt lat="48.3587" lon="2.70941">
        <ele>131</ele>
        <time>2021-12-08T15:05:52.278Z</time>
      </trkpt>
      <trkpt lat="48.35871" lon="2.70934">
        <ele>131</ele>
        <time>2021-12-08T15:05:57.279Z</time>
      </trkpt>
      <trkpt lat="48.35875" lon="2.70928">
        <ele>131</ele>
        <time>2021-12-08T15:06:02.271Z</time>
      </trkpt>
      <trkpt lat="48.35877" lon="2.70923">
        <ele>130</ele>
        <time>2021-12-08T15:06:06.279Z</time>
      </trkpt>
      <trkpt lat="48.35879" lon="2.70915">
        <ele>130</ele>
        <time>2021-12-08T15:06:11.276Z</time>
      </trkpt>
      <trkpt lat="48.35882" lon="2.7091">
        <ele>130</ele>
        <time>2021-12-08T15:06:16.277Z</time>
      </trkpt>
      <trkpt lat="48.35885" lon="2.70905">
        <ele>130</ele>
        <time>2021-12-08T15:06:21.274Z</time>
      </trkpt>
      <trkpt lat="48.35887" lon="2.70896">
        <ele>130</ele>
        <time>2021-12-08T15:06:26.293Z</time>
      </trkpt>
      <trkpt lat="48.3589" lon="2.70887">
        <ele>130</ele>
        <time>2021-12-08T15:06:31.279Z</time>
      </trkpt>
      <trkpt lat="48.35891" lon="2.70879">
        <ele>130</ele>
        <time>2021-12-08T15:06:35.283Z</time>
      </trkpt>
      <trkpt lat="48.35893" lon="2.70869">
        <ele>131</ele>
        <time>2021-12-08T15:06:40.281Z</time>
      </trkpt>
      <trkpt lat="48.35896" lon="2.7086">
        <ele>131</ele>
        <time>2021-12-08T15:06:45.283Z</time>
      </trkpt>
      <trkpt lat="48.35899" lon="2.70854">
        <ele>131</ele>
        <time>2021-12-08T15:06:49.295Z</time>
      </trkpt>
      <trkpt lat="48.35901" lon="2.70845">
        <ele>131</ele>
        <time>2021-12-08T15:06:54.279Z</time>
      </trkpt>
      <trkpt lat="48.35903" lon="2.70838">
        <ele>131</ele>
        <time>2021-12-08T15:06:58.301Z</time>
      </trkpt>
      <trkpt lat="48.35906" lon="2.70829">
        <ele>131</ele>
        <time>2021-12-08T15:07:03.281Z</time>
      </trkpt>
      <trkpt lat="48.35909" lon="2.70821">
        <ele>131</ele>
        <time>2021-12-08T15:07:08.282Z</time>
      </trkpt>
      <trkpt lat="48.35914" lon="2.70814">
        <ele>131</ele>
        <time>2021-12-08T15:07:13.269Z</time>
      </trkpt>
      <trkpt lat="48.35917" lon="2.70809">
        <ele>131</ele>
        <time>2021-12-08T15:07:17.278Z</time>
      </trkpt>
      <trkpt lat="48.35921" lon="2.70804">
        <ele>131</ele>
        <time>2021-12-08T15:07:21.269Z</time>
      </trkpt>
      <trkpt lat="48.35925" lon="2.70798">
        <ele>131</ele>
        <time>2021-12-08T15:07:26.276Z</time>
      </trkpt>
      <trkpt lat="48.3593" lon="2.70793">
        <ele>131</ele>
        <time>2021-12-08T15:07:31.271Z</time>
      </trkpt>
      <trkpt lat="48.35934" lon="2.70788">
        <ele>130</ele>
        <time>2021-12-08T15:07:35.275Z</time>
      </trkpt>
      <trkpt lat="48.35938" lon="2.70783">
        <ele>130</ele>
        <time>2021-12-08T15:07:40.278Z</time>
      </trkpt>
      <trkpt lat="48.35943" lon="2.70778">
        <ele>130</ele>
        <time>2021-12-08T15:07:44.280Z</time>
      </trkpt>
      <trkpt lat="48.35948" lon="2.70773">
        <ele>130</ele>
        <time>2021-12-08T15:07:49.280Z</time>
      </trkpt>
      <trkpt lat="48.35952" lon="2.70768">
        <ele>130</ele>
        <time>2021-12-08T15:07:53.286Z</time>
      </trkpt>
      <trkpt lat="48.35957" lon="2.70763">
        <ele>130</ele>
        <time>2021-12-08T15:07:58.282Z</time>
      </trkpt>
      <trkpt lat="48.35961" lon="2.70759">
        <ele>130</ele>
        <time>2021-12-08T15:08:02.292Z</time>
      </trkpt>
      <trkpt lat="48.35967" lon="2.70755">
        <ele>130</ele>
        <time>2021-12-08T15:08:07.269Z</time>
      </trkpt>
      <trkpt lat="48.35971" lon="2.70753">
        <ele>130</ele>
        <time>2021-12-08T15:08:11.292Z</time>
      </trkpt>
      <trkpt lat="48.35977" lon="2.70749">
        <ele>130</ele>
        <time>2021-12-08T15:08:16.284Z</time>
      </trkpt>
      <trkpt lat="48.35983" lon="2.70744">
        <ele>130</ele>
        <time>2021-12-08T15:08:21.288Z</time>
      </trkpt>
      <trkpt lat="48.35988" lon="2.70738">
        <ele>129</ele>
        <time>2021-12-08T15:08:26.277Z</time>
      </trkpt>
      <trkpt lat="48.35992" lon="2.70733">
        <ele>130</ele>
        <time>2021-12-08T15:08:30.271Z</time>
      </trkpt>
      <trkpt lat="48.35995" lon="2.70725">
        <ele>130</ele>
        <time>2021-12-08T15:08:35.282Z</time>
      </trkpt>
      <trkpt lat="48.35999" lon="2.70716">
        <ele>130</ele>
        <time>2021-12-08T15:08:40.274Z</time>
      </trkpt>
      <trkpt lat="48.36" lon="2.70708">
        <ele>131</ele>
        <time>2021-12-08T15:08:44.277Z</time>
      </trkpt>
      <trkpt lat="48.36004" lon="2.70696">
        <ele>131</ele>
        <time>2021-12-08T15:08:49.269Z</time>
      </trkpt>
      <trkpt lat="48.36004" lon="2.70688">
        <ele>131</ele>
        <time>2021-12-08T15:08:54.273Z</time>
      </trkpt>
      <trkpt lat="48.36003" lon="2.70678">
        <ele>132</ele>
        <time>2021-12-08T15:08:59.278Z</time>
      </trkpt>
      <trkpt lat="48.36001" lon="2.7067">
        <ele>132</ele>
        <time>2021-12-08T15:09:04.278Z</time>
      </trkpt>
      <trkpt lat="48.35999" lon="2.70663">
        <ele>132</ele>
        <time>2021-12-08T15:09:08.290Z</time>
      </trkpt>
      <trkpt lat="48.35996" lon="2.70655">
        <ele>132</ele>
        <time>2021-12-08T15:09:13.281Z</time>
      </trkpt>
      <trkpt lat="48.35992" lon="2.70646">
        <ele>132</ele>
        <time>2021-12-08T15:09:18.275Z</time>
      </trkpt>
      <trkpt lat="48.35989" lon="2.70639">
        <ele>132</ele>
        <time>2021-12-08T15:09:23.275Z</time>
      </trkpt>
      <trkpt lat="48.35986" lon="2.70633">
        <ele>132</ele>
        <time>2021-12-08T15:09:27.311Z</time>
      </trkpt>
      <trkpt lat="48.35983" lon="2.70626">
        <ele>130</ele>
        <time>2021-12-08T15:09:32.277Z</time>
      </trkpt>
      <trkpt lat="48.35981" lon="2.70617">
        <ele>131</ele>
        <time>2021-12-08T15:09:37.269Z</time>
      </trkpt>
      <trkpt lat="48.3598" lon="2.7061">
        <ele>131</ele>
        <time>2021-12-08T15:09:41.274Z</time>
      </trkpt>
      <trkpt lat="48.35978" lon="2.70601">
        <ele>131</ele>
        <time>2021-12-08T15:09:46.274Z</time>
      </trkpt>
      <trkpt lat="48.35976" lon="2.70591">
        <ele>132</ele>
        <time>2021-12-08T15:09:51.277Z</time>
      </trkpt>
      <trkpt lat="48.35974" lon="2.70582">
        <ele>132</ele>
        <time>2021-12-08T15:09:56.275Z</time>
      </trkpt>
      <trkpt lat="48.35974" lon="2.70574">
        <ele>132</ele>
        <time>2021-12-08T15:10:00.321Z</time>
      </trkpt>
      <trkpt lat="48.35974" lon="2.70566">
        <ele>133</ele>
        <time>2021-12-08T15:10:05.281Z</time>
      </trkpt>
      <trkpt lat="48.35974" lon="2.70555">
        <ele>133</ele>
        <time>2021-12-08T15:10:10.279Z</time>
      </trkpt>
      <trkpt lat="48.35976" lon="2.70548">
        <ele>133</ele>
        <time>2021-12-08T15:10:14.286Z</time>
      </trkpt>
      <trkpt lat="48.35976" lon="2.70538">
        <ele>133</ele>
        <time>2021-12-08T15:10:19.281Z</time>
      </trkpt>
      <trkpt lat="48.35976" lon="2.70528">
        <ele>133</ele>
        <time>2021-12-08T15:10:24.273Z</time>
      </trkpt>
      <trkpt lat="48.35978" lon="2.70521">
        <ele>133</ele>
        <time>2021-12-08T15:10:28.283Z</time>
      </trkpt>
      <trkpt lat="48.35978" lon="2.70511">
        <ele>133</ele>
        <time>2021-12-08T15:10:33.279Z</time>
      </trkpt>
      <trkpt lat="48.35981" lon="2.70502">
        <ele>133</ele>
        <time>2021-12-08T15:10:38.300Z</time>
      </trkpt>
      <trkpt lat="48.35982" lon="2.70492">
        <ele>133</ele>
        <time>2021-12-08T15:10:43.273Z</time>
      </trkpt>
      <trkpt lat="48.35983" lon="2.70484">
        <ele>132</ele>
        <time>2021-12-08T15:10:47.280Z</time>
      </trkpt>
      <trkpt lat="48.35985" lon="2.70475">
        <ele>132</ele>
        <time>2021-12-08T15:10:52.280Z</time>
      </trkpt>
      <trkpt lat="48.35988" lon="2.70468">
        <ele>133</ele>
        <time>2021-12-08T15:10:57.278Z</time>
      </trkpt>
      <trkpt lat="48.3599" lon="2.70459">
        <ele>133</ele>
        <time>2021-12-08T15:11:02.274Z</time>
      </trkpt>
      <trkpt lat="48.35993" lon="2.70451">
        <ele>132</ele>
        <time>2021-12-08T15:11:07.279Z</time>
      </trkpt>
      <trkpt lat="48.35997" lon="2.70445">
        <ele>132</ele>
        <time>2021-12-08T15:11:12.282Z</time>
      </trkpt>
      <trkpt lat="48.36001" lon="2.70439">
        <ele>132</ele>
        <time>2021-12-08T15:11:17.285Z</time>
      </trkpt>
      <trkpt lat="48.36004" lon="2.70434">
        <ele>132</ele>
        <time>2021-12-08T15:11:21.285Z</time>
      </trkpt>
      <trkpt lat="48.36009" lon="2.70427">
        <ele>131</ele>
        <time>2021-12-08T15:11:26.282Z</time>
      </trkpt>
      <trkpt lat="48.36012" lon="2.70421">
        <ele>131</ele>
        <time>2021-12-08T15:11:30.287Z</time>
      </trkpt>
      <trkpt lat="48.36017" lon="2.70416">
        <ele>134</ele>
        <time>2021-12-08T15:11:35.284Z</time>
      </trkpt>
      <trkpt lat="48.36021" lon="2.70409">
        <ele>134</ele>
        <time>2021-12-08T15:11:40.287Z</time>
      </trkpt>
      <trkpt lat="48.36023" lon="2.70402">
        <ele>135</ele>
        <time>2021-12-08T15:11:44.289Z</time>
      </trkpt>
      <trkpt lat="48.36025" lon="2.70389">
        <ele>135</ele>
        <time>2021-12-08T15:11:49.275Z</time>
      </trkpt>
      <trkpt lat="48.36028" lon="2.70377">
        <ele>135</ele>
        <time>2021-12-08T15:11:54.277Z</time>
      </trkpt>
      <trkpt lat="48.36029" lon="2.70367">
        <ele>134</ele>
        <time>2021-12-08T15:11:59.284Z</time>
      </trkpt>
      <trkpt lat="48.36031" lon="2.70357">
        <ele>134</ele>
        <time>2021-12-08T15:12:04.281Z</time>
      </trkpt>
      <trkpt lat="48.36034" lon="2.7035">
        <ele>134</ele>
        <time>2021-12-08T15:12:08.292Z</time>
      </trkpt>
      <trkpt lat="48.36037" lon="2.7034">
        <ele>134</ele>
        <time>2021-12-08T15:12:13.290Z</time>
      </trkpt>
      <trkpt lat="48.3604" lon="2.70331">
        <ele>134</ele>
        <time>2021-12-08T15:12:18.275Z</time>
      </trkpt>
      <trkpt lat="48.36042" lon="2.70321">
        <ele>135</ele>
        <time>2021-12-08T15:12:23.274Z</time>
      </trkpt>
      <trkpt lat="48.36044" lon="2.70314">
        <ele>134</ele>
        <time>2021-12-08T15:12:27.279Z</time>
      </trkpt>
      <trkpt lat="48.36048" lon="2.70307">
        <ele>134</ele>
        <time>2021-12-08T15:12:32.280Z</time>
      </trkpt>
      <trkpt lat="48.3605" lon="2.70306">
        <ele>134</ele>
        <time>2021-12-08T15:12:36.282Z</time>
      </trkpt>
      <trkpt lat="48.3605" lon="2.70304">
        <ele>134</ele>
        <time>2021-12-08T15:13:06.283Z</time>
      </trkpt>
      <trkpt lat="48.3605" lon="2.70303">
        <ele>134</ele>
        <time>2021-12-08T15:13:11.271Z</time>
      </trkpt>
      <trkpt lat="48.36049" lon="2.70301">
        <ele>134</ele>
        <time>2021-12-08T15:13:16.270Z</time>
      </trkpt>
      <trkpt lat="48.36049" lon="2.70296">
        <ele>134</ele>
        <time>2021-12-08T15:13:20.277Z</time>
      </trkpt>
      <trkpt lat="48.36053" lon="2.70288">
        <ele>136</ele>
        <time>2021-12-08T15:13:25.270Z</time>
      </trkpt>
      <trkpt lat="48.36056" lon="2.70282">
        <ele>136</ele>
        <time>2021-12-08T15:13:29.272Z</time>
      </trkpt>
      <trkpt lat="48.36061" lon="2.70273">
        <ele>136</ele>
        <time>2021-12-08T15:13:34.270Z</time>
      </trkpt>
      <trkpt lat="48.36066" lon="2.70265">
        <ele>136</ele>
        <time>2021-12-08T15:13:39.275Z</time>
      </trkpt>
      <trkpt lat="48.3607" lon="2.70258">
        <ele>138</ele>
        <time>2021-12-08T15:13:43.275Z</time>
      </trkpt>
      <trkpt lat="48.36074" lon="2.70251">
        <ele>138</ele>
        <time>2021-12-08T15:13:48.282Z</time>
      </trkpt>
      <trkpt lat="48.36078" lon="2.70244">
        <ele>138</ele>
        <time>2021-12-08T15:13:53.269Z</time>
      </trkpt>
      <trkpt lat="48.36082" lon="2.70237">
        <ele>138</ele>
        <time>2021-12-08T15:13:58.268Z</time>
      </trkpt>
      <trkpt lat="48.36085" lon="2.70231">
        <ele>138</ele>
        <time>2021-12-08T15:14:03.279Z</time>
      </trkpt>
      <trkpt lat="48.36089" lon="2.70223">
        <ele>138</ele>
        <time>2021-12-08T15:14:08.270Z</time>
      </trkpt>
      <trkpt lat="48.36092" lon="2.70218">
        <ele>138</ele>
        <time>2021-12-08T15:14:12.273Z</time>
      </trkpt>
      <trkpt lat="48.36097" lon="2.70212">
        <ele>138</ele>
        <time>2021-12-08T15:14:17.273Z</time>
      </trkpt>
      <trkpt lat="48.36102" lon="2.70207">
        <ele>137</ele>
        <time>2021-12-08T15:14:22.268Z</time>
      </trkpt>
      <trkpt lat="48.36107" lon="2.70202">
        <ele>137</ele>
        <time>2021-12-08T15:14:26.285Z</time>
      </trkpt>
      <trkpt lat="48.36111" lon="2.70199">
        <ele>137</ele>
        <time>2021-12-08T15:14:31.276Z</time>
      </trkpt>
      <trkpt lat="48.36115" lon="2.70198">
        <ele>137</ele>
        <time>2021-12-08T15:14:35.271Z</time>
      </trkpt>
      <trkpt lat="48.36119" lon="2.70194">
        <ele>137</ele>
        <time>2021-12-08T15:14:39.305Z</time>
      </trkpt>
      <trkpt lat="48.36123" lon="2.70192">
        <ele>137</ele>
        <time>2021-12-08T15:14:44.273Z</time>
      </trkpt>
      <trkpt lat="48.36129" lon="2.70188">
        <ele>136</ele>
        <time>2021-12-08T15:14:49.271Z</time>
      </trkpt>
      <trkpt lat="48.36132" lon="2.70183">
        <ele>136</ele>
        <time>2021-12-08T15:14:54.277Z</time>
      </trkpt>
      <trkpt lat="48.36132" lon="2.70175">
        <ele>136</ele>
        <time>2021-12-08T15:14:59.272Z</time>
      </trkpt>
      <trkpt lat="48.36132" lon="2.7017">
        <ele>136</ele>
        <time>2021-12-08T15:15:03.279Z</time>
      </trkpt>
      <trkpt lat="48.36131" lon="2.70163">
        <ele>136</ele>
        <time>2021-12-08T15:15:08.277Z</time>
      </trkpt>
      <trkpt lat="48.36131" lon="2.70155">
        <ele>136</ele>
        <time>2021-12-08T15:15:13.273Z</time>
      </trkpt>
      <trkpt lat="48.36131" lon="2.70147">
        <ele>135</ele>
        <time>2021-12-08T15:15:18.270Z</time>
      </trkpt>
      <trkpt lat="48.36131" lon="2.70141">
        <ele>135</ele>
        <time>2021-12-08T15:15:22.275Z</time>
      </trkpt>
      <trkpt lat="48.36132" lon="2.70135">
        <ele>135</ele>
        <time>2021-12-08T15:15:26.284Z</time>
      </trkpt>
      <trkpt lat="48.36132" lon="2.70128">
        <ele>135</ele>
        <time>2021-12-08T15:15:31.281Z</time>
      </trkpt>
      <trkpt lat="48.36132" lon="2.7012">
        <ele>135</ele>
        <time>2021-12-08T15:15:36.274Z</time>
      </trkpt>
      <trkpt lat="48.36133" lon="2.70114">
        <ele>135</ele>
        <time>2021-12-08T15:15:40.277Z</time>
      </trkpt>
      <trkpt lat="48.36132" lon="2.70108">
        <ele>135</ele>
        <time>2021-12-08T15:15:44.290Z</time>
      </trkpt>
      <trkpt lat="48.36131" lon="2.701">
        <ele>135</ele>
        <time>2021-12-08T15:15:49.272Z</time>
      </trkpt>
      <trkpt lat="48.36131" lon="2.70093">
        <ele>136</ele>
        <time>2021-12-08T15:15:54.274Z</time>
      </trkpt>
      <trkpt lat="48.36131" lon="2.70085">
        <ele>136</ele>
        <time>2021-12-08T15:15:59.272Z</time>
      </trkpt>
      <trkpt lat="48.3613" lon="2.70077">
        <ele>136</ele>
        <time>2021-12-08T15:16:04.273Z</time>
      </trkpt>
      <trkpt lat="48.36129" lon="2.7007">
        <ele>136</ele>
        <time>2021-12-08T15:16:08.272Z</time>
      </trkpt>
      <trkpt lat="48.36128" lon="2.70061">
        <ele>136</ele>
        <time>2021-12-08T15:16:13.269Z</time>
      </trkpt>
      <trkpt lat="48.36126" lon="2.70054">
        <ele>136</ele>
        <time>2021-12-08T15:16:17.270Z</time>
      </trkpt>
      <trkpt lat="48.36125" lon="2.70044">
        <ele>137</ele>
        <time>2021-12-08T15:16:22.270Z</time>
      </trkpt>
      <trkpt lat="48.36124" lon="2.70037">
        <ele>137</ele>
        <time>2021-12-08T15:16:26.273Z</time>
      </trkpt>
      <trkpt lat="48.36124" lon="2.70029">
        <ele>137</ele>
        <time>2021-12-08T15:16:31.274Z</time>
      </trkpt>
      <trkpt lat="48.36124" lon="2.7002">
        <ele>137</ele>
        <time>2021-12-08T15:16:36.275Z</time>
      </trkpt>
      <trkpt lat="48.36123" lon="2.70011">
        <ele>138</ele>
        <time>2021-12-08T15:16:41.273Z</time>
      </trkpt>
      <trkpt lat="48.36123" lon="2.70002">
        <ele>138</ele>
        <time>2021-12-08T15:16:46.273Z</time>
      </trkpt>
      <trkpt lat="48.36123" lon="2.69994">
        <ele>138</ele>
        <time>2021-12-08T15:16:50.277Z</time>
      </trkpt>
      <trkpt lat="48.36122" lon="2.69985">
        <ele>138</ele>
        <time>2021-12-08T15:16:55.272Z</time>
      </trkpt>
      <trkpt lat="48.36122" lon="2.69976">
        <ele>138</ele>
        <time>2021-12-08T15:17:00.282Z</time>
      </trkpt>
      <trkpt lat="48.36121" lon="2.69966">
        <ele>138</ele>
        <time>2021-12-08T15:17:05.272Z</time>
      </trkpt>
      <trkpt lat="48.36122" lon="2.69958">
        <ele>138</ele>
        <time>2021-12-08T15:17:09.272Z</time>
      </trkpt>
      <trkpt lat="48.36122" lon="2.69948">
        <ele>138</ele>
        <time>2021-12-08T15:17:14.275Z</time>
      </trkpt>
      <trkpt lat="48.36122" lon="2.69938">
        <ele>138</ele>
        <time>2021-12-08T15:17:19.270Z</time>
      </trkpt>
      <trkpt lat="48.36121" lon="2.69927">
        <ele>138</ele>
        <time>2021-12-08T15:17:24.271Z</time>
      </trkpt>
      <trkpt lat="48.36121" lon="2.69916">
        <ele>138</ele>
        <time>2021-12-08T15:17:29.273Z</time>
      </trkpt>
      <trkpt lat="48.3612" lon="2.69907">
        <ele>138</ele>
        <time>2021-12-08T15:17:33.273Z</time>
      </trkpt>
      <trkpt lat="48.3612" lon="2.69897">
        <ele>137</ele>
        <time>2021-12-08T15:17:38.272Z</time>
      </trkpt>
      <trkpt lat="48.36119" lon="2.6989">
        <ele>137</ele>
        <time>2021-12-08T15:17:42.298Z</time>
      </trkpt>
      <trkpt lat="48.36118" lon="2.69879">
        <ele>137</ele>
        <time>2021-12-08T15:17:47.271Z</time>
      </trkpt>
      <trkpt lat="48.36117" lon="2.69872">
        <ele>136</ele>
        <time>2021-12-08T15:17:51.274Z</time>
      </trkpt>
      <trkpt lat="48.36116" lon="2.69863">
        <ele>136</ele>
        <time>2021-12-08T15:17:55.268Z</time>
      </trkpt>
      <trkpt lat="48.36115" lon="2.69853">
        <ele>136</ele>
        <time>2021-12-08T15:18:00.269Z</time>
      </trkpt>
      <trkpt lat="48.36115" lon="2.69844">
        <ele>134</ele>
        <time>2021-12-08T15:18:05.277Z</time>
      </trkpt>
      <trkpt lat="48.36114" lon="2.69833">
        <ele>134</ele>
        <time>2021-12-08T15:18:10.282Z</time>
      </trkpt>
      <trkpt lat="48.36113" lon="2.69823">
        <ele>134</ele>
        <time>2021-12-08T15:18:15.270Z</time>
      </trkpt>
      <trkpt lat="48.36112" lon="2.69813">
        <ele>133</ele>
        <time>2021-12-08T15:18:20.279Z</time>
      </trkpt>
      <trkpt lat="48.36112" lon="2.69804">
        <ele>133</ele>
        <time>2021-12-08T15:18:25.279Z</time>
      </trkpt>
      <trkpt lat="48.36113" lon="2.69795">
        <ele>133</ele>
        <time>2021-12-08T15:18:30.280Z</time>
      </trkpt>
      <trkpt lat="48.36111" lon="2.69785">
        <ele>133</ele>
        <time>2021-12-08T15:18:35.276Z</time>
      </trkpt>
      <trkpt lat="48.36112" lon="2.69776">
        <ele>133</ele>
        <time>2021-12-08T15:18:39.277Z</time>
      </trkpt>
      <trkpt lat="48.36111" lon="2.69766">
        <ele>133</ele>
        <time>2021-12-08T15:18:44.287Z</time>
      </trkpt>
      <trkpt lat="48.3611" lon="2.69756">
        <ele>134</ele>
        <time>2021-12-08T15:18:49.277Z</time>
      </trkpt>
      <trkpt lat="48.36108" lon="2.69746">
        <ele>134</ele>
        <time>2021-12-08T15:18:54.271Z</time>
      </trkpt>
      <trkpt lat="48.36108" lon="2.69738">
        <ele>134</ele>
        <time>2021-12-08T15:18:58.279Z</time>
      </trkpt>
      <trkpt lat="48.36107" lon="2.69728">
        <ele>134</ele>
        <time>2021-12-08T15:19:03.305Z</time>
      </trkpt>
      <trkpt lat="48.36107" lon="2.69718">
        <ele>134</ele>
        <time>2021-12-08T15:19:08.274Z</time>
      </trkpt>
      <trkpt lat="48.36106" lon="2.69708">
        <ele>134</ele>
        <time>2021-12-08T15:19:13.285Z</time>
      </trkpt>
      <trkpt lat="48.36104" lon="2.69702">
        <ele>134</ele>
        <time>2021-12-08T15:19:17.279Z</time>
      </trkpt>
      <trkpt lat="48.36102" lon="2.69691">
        <ele>134</ele>
        <time>2021-12-08T15:19:22.277Z</time>
      </trkpt>
      <trkpt lat="48.36101" lon="2.69681">
        <ele>134</ele>
        <time>2021-12-08T15:19:27.277Z</time>
      </trkpt>
      <trkpt lat="48.361" lon="2.69671">
        <ele>133</ele>
        <time>2021-12-08T15:19:32.273Z</time>
      </trkpt>
      <trkpt lat="48.36099" lon="2.69661">
        <ele>133</ele>
        <time>2021-12-08T15:19:37.282Z</time>
      </trkpt>
      <trkpt lat="48.36098" lon="2.69651">
        <ele>134</ele>
        <time>2021-12-08T15:19:42.277Z</time>
      </trkpt>
      <trkpt lat="48.36098" lon="2.69642">
        <ele>134</ele>
        <time>2021-12-08T15:19:47.275Z</time>
      </trkpt>
      <trkpt lat="48.36098" lon="2.69634">
        <ele>134</ele>
        <time>2021-12-08T15:19:51.278Z</time>
      </trkpt>
      <trkpt lat="48.36098" lon="2.69624">
        <ele>134</ele>
        <time>2021-12-08T15:19:56.276Z</time>
      </trkpt>
      <trkpt lat="48.36097" lon="2.69614">
        <ele>134</ele>
        <time>2021-12-08T15:20:01.274Z</time>
      </trkpt>
      <trkpt lat="48.36097" lon="2.69604">
        <ele>134</ele>
        <time>2021-12-08T15:20:06.272Z</time>
      </trkpt>
      <trkpt lat="48.36097" lon="2.69597">
        <ele>133</ele>
        <time>2021-12-08T15:20:10.273Z</time>
      </trkpt>
      <trkpt lat="48.36096" lon="2.69587">
        <ele>133</ele>
        <time>2021-12-08T15:20:15.275Z</time>
      </trkpt>
      <trkpt lat="48.36095" lon="2.69579">
        <ele>133</ele>
        <time>2021-12-08T15:20:19.276Z</time>
      </trkpt>
      <trkpt lat="48.36093" lon="2.69569">
        <ele>133</ele>
        <time>2021-12-08T15:20:24.279Z</time>
      </trkpt>
      <trkpt lat="48.36091" lon="2.69559">
        <ele>133</ele>
        <time>2021-12-08T15:20:29.281Z</time>
      </trkpt>
      <trkpt lat="48.36091" lon="2.69549">
        <ele>133</ele>
        <time>2021-12-08T15:20:34.275Z</time>
      </trkpt>
      <trkpt lat="48.36095" lon="2.69542">
        <ele>133</ele>
        <time>2021-12-08T15:20:39.287Z</time>
      </trkpt>
      <trkpt lat="48.36099" lon="2.69533">
        <ele>132</ele>
        <time>2021-12-08T15:20:44.283Z</time>
      </trkpt>
      <trkpt lat="48.36103" lon="2.69525">
        <ele>132</ele>
        <time>2021-12-08T15:20:49.280Z</time>
      </trkpt>
      <trkpt lat="48.36107" lon="2.69517">
        <ele>132</ele>
        <time>2021-12-08T15:20:54.278Z</time>
      </trkpt>
      <trkpt lat="48.36112" lon="2.69508">
        <ele>133</ele>
        <time>2021-12-08T15:20:59.274Z</time>
      </trkpt>
      <trkpt lat="48.36117" lon="2.69499">
        <ele>133</ele>
        <time>2021-12-08T15:21:04.269Z</time>
      </trkpt>
      <trkpt lat="48.36121" lon="2.69493">
        <ele>133</ele>
        <time>2021-12-08T15:21:08.276Z</time>
      </trkpt>
      <trkpt lat="48.36124" lon="2.69485">
        <ele>135</ele>
        <time>2021-12-08T15:21:12.321Z</time>
      </trkpt>
      <trkpt lat="48.36129" lon="2.6948">
        <ele>135</ele>
        <time>2021-12-08T15:21:17.278Z</time>
      </trkpt>
      <trkpt lat="48.36134" lon="2.69473">
        <ele>135</ele>
        <time>2021-12-08T15:21:22.276Z</time>
      </trkpt>
      <trkpt lat="48.36141" lon="2.69465">
        <ele>135</ele>
        <time>2021-12-08T15:21:27.282Z</time>
      </trkpt>
      <trkpt lat="48.36145" lon="2.69459">
        <ele>135</ele>
        <time>2021-12-08T15:21:31.280Z</time>
      </trkpt>
      <trkpt lat="48.36149" lon="2.69449">
        <ele>136</ele>
        <time>2021-12-08T15:21:36.279Z</time>
      </trkpt>
      <trkpt lat="48.36153" lon="2.69442">
        <ele>137</ele>
        <time>2021-12-08T15:21:40.284Z</time>
      </trkpt>
      <trkpt lat="48.36159" lon="2.69435">
        <ele>137</ele>
        <time>2021-12-08T15:21:45.293Z</time>
      </trkpt>
      <trkpt lat="48.36163" lon="2.69427">
        <ele>137</ele>
        <time>2021-12-08T15:21:50.272Z</time>
      </trkpt>
      <trkpt lat="48.36167" lon="2.6942">
        <ele>137</ele>
        <time>2021-12-08T15:21:54.271Z</time>
      </trkpt>
      <trkpt lat="48.36172" lon="2.69412">
        <ele>137</ele>
        <time>2021-12-08T15:21:59.282Z</time>
      </trkpt>
      <trkpt lat="48.36177" lon="2.69404">
        <ele>137</ele>
        <time>2021-12-08T15:22:04.285Z</time>
      </trkpt>
      <trkpt lat="48.36182" lon="2.69397">
        <ele>136</ele>
        <time>2021-12-08T15:22:09.281Z</time>
      </trkpt>
      <trkpt lat="48.36187" lon="2.69389">
        <ele>136</ele>
        <time>2021-12-08T15:22:14.283Z</time>
      </trkpt>
      <trkpt lat="48.36192" lon="2.69383">
        <ele>136</ele>
        <time>2021-12-08T15:22:19.274Z</time>
      </trkpt>
      <trkpt lat="48.36196" lon="2.69377">
        <ele>136</ele>
        <time>2021-12-08T15:22:23.276Z</time>
      </trkpt>
      <trkpt lat="48.362" lon="2.69368">
        <ele>136</ele>
        <time>2021-12-08T15:22:28.281Z</time>
      </trkpt>
      <trkpt lat="48.36205" lon="2.6936">
        <ele>136</ele>
        <time>2021-12-08T15:22:33.293Z</time>
      </trkpt>
      <trkpt lat="48.3621" lon="2.69352">
        <ele>134</ele>
        <time>2021-12-08T15:22:38.279Z</time>
      </trkpt>
      <trkpt lat="48.36215" lon="2.69344">
        <ele>135</ele>
        <time>2021-12-08T15:22:43.273Z</time>
      </trkpt>
      <trkpt lat="48.3622" lon="2.69336">
        <ele>135</ele>
        <time>2021-12-08T15:22:48.285Z</time>
      </trkpt>
      <trkpt lat="48.36225" lon="2.69327">
        <ele>135</ele>
        <time>2021-12-08T15:22:53.280Z</time>
      </trkpt>
      <trkpt lat="48.36229" lon="2.6932">
        <ele>135</ele>
        <time>2021-12-08T15:22:58.287Z</time>
      </trkpt>
      <trkpt lat="48.36234" lon="2.69312">
        <ele>136</ele>
        <time>2021-12-08T15:23:03.272Z</time>
      </trkpt>
      <trkpt lat="48.36238" lon="2.69306">
        <ele>134</ele>
        <time>2021-12-08T15:23:07.274Z</time>
      </trkpt>
      <trkpt lat="48.36244" lon="2.69298">
        <ele>134</ele>
        <time>2021-12-08T15:23:12.286Z</time>
      </trkpt>
      <trkpt lat="48.36248" lon="2.6929">
        <ele>135</ele>
        <time>2021-12-08T15:23:17.278Z</time>
      </trkpt>
      <trkpt lat="48.36253" lon="2.69282">
        <ele>135</ele>
        <time>2021-12-08T15:23:22.271Z</time>
      </trkpt>
      <trkpt lat="48.36258" lon="2.69275">
        <ele>135</ele>
        <time>2021-12-08T15:23:27.276Z</time>
      </trkpt>
      <trkpt lat="48.36263" lon="2.69268">
        <ele>135</ele>
        <time>2021-12-08T15:23:32.279Z</time>
      </trkpt>
      <trkpt lat="48.36267" lon="2.69261">
        <ele>133</ele>
        <time>2021-12-08T15:23:37.281Z</time>
      </trkpt>
      <trkpt lat="48.36272" lon="2.69253">
        <ele>133</ele>
        <time>2021-12-08T15:23:42.268Z</time>
      </trkpt>
      <trkpt lat="48.36276" lon="2.69245">
        <ele>133</ele>
        <time>2021-12-08T15:23:47.285Z</time>
      </trkpt>
      <trkpt lat="48.36279" lon="2.69239">
        <ele>133</ele>
        <time>2021-12-08T15:23:51.365Z</time>
      </trkpt>
      <trkpt lat="48.36284" lon="2.69232">
        <ele>134</ele>
        <time>2021-12-08T15:23:56.269Z</time>
      </trkpt>
      <trkpt lat="48.36289" lon="2.69225">
        <ele>134</ele>
        <time>2021-12-08T15:24:01.276Z</time>
      </trkpt>
      <trkpt lat="48.36292" lon="2.69221">
        <ele>133</ele>
        <time>2021-12-08T15:24:05.284Z</time>
      </trkpt>
      <trkpt lat="48.36297" lon="2.69215">
        <ele>133</ele>
        <time>2021-12-08T15:24:10.275Z</time>
      </trkpt>
      <trkpt lat="48.36301" lon="2.69208">
        <ele>134</ele>
        <time>2021-12-08T15:24:15.277Z</time>
      </trkpt>
      <trkpt lat="48.36306" lon="2.69203">
        <ele>134</ele>
        <time>2021-12-08T15:24:20.286Z</time>
      </trkpt>
      <trkpt lat="48.3631" lon="2.69203">
        <ele>134</ele>
        <time>2021-12-08T15:24:25.272Z</time>
      </trkpt>
      <trkpt lat="48.36314" lon="2.69205">
        <ele>134</ele>
        <time>2021-12-08T15:24:29.281Z</time>
      </trkpt>
      <trkpt lat="48.36317" lon="2.69207">
        <ele>134</ele>
        <time>2021-12-08T15:24:34.283Z</time>
      </trkpt>
      <trkpt lat="48.36322" lon="2.69211">
        <ele>136</ele>
        <time>2021-12-08T15:24:39.281Z</time>
      </trkpt>
      <trkpt lat="48.36325" lon="2.69213">
        <ele>136</ele>
        <time>2021-12-08T15:24:44.272Z</time>
      </trkpt>
      <trkpt lat="48.36326" lon="2.69212">
        <ele>136</ele>
        <time>2021-12-08T15:24:49.283Z</time>
      </trkpt>
      <trkpt lat="48.36326" lon="2.69211">
        <ele>136</ele>
        <time>2021-12-08T15:25:58.275Z</time>
      </trkpt>
      <trkpt lat="48.36326" lon="2.69211">
        <ele>136</ele>
        <time>2021-12-08T15:26:02.274Z</time>
      </trkpt>
      <trkpt lat="48.36326" lon="2.69211">
        <ele>136</ele>
        <time>2021-12-08T15:26:07.275Z</time>
      </trkpt>
      <trkpt lat="48.36328" lon="2.6921">
        <ele>136</ele>
        <time>2021-12-08T15:26:12.275Z</time>
      </trkpt>
      <trkpt lat="48.36335" lon="2.69208">
        <ele>136</ele>
        <time>2021-12-08T15:26:16.275Z</time>
      </trkpt>
      <trkpt lat="48.3634" lon="2.69206">
        <ele>136</ele>
        <time>2021-12-08T15:26:20.285Z</time>
      </trkpt>
      <trkpt lat="48.36344" lon="2.69203">
        <ele>136</ele>
        <time>2021-12-08T15:26:25.283Z</time>
      </trkpt>
      <trkpt lat="48.36347" lon="2.69197">
        <ele>136</ele>
        <time>2021-12-08T15:26:30.281Z</time>
      </trkpt>
      <trkpt lat="48.36349" lon="2.69192">
        <ele>137</ele>
        <time>2021-12-08T15:26:34.288Z</time>
      </trkpt>
      <trkpt lat="48.36354" lon="2.69186">
        <ele>137</ele>
        <time>2021-12-08T15:26:39.277Z</time>
      </trkpt>
      <trkpt lat="48.36354" lon="2.69183">
        <ele>137</ele>
        <time>2021-12-08T15:26:43.289Z</time>
      </trkpt>
      <trkpt lat="48.36353" lon="2.69175">
        <ele>138</ele>
        <time>2021-12-08T15:26:48.285Z</time>
      </trkpt>
      <trkpt lat="48.36351" lon="2.69168">
        <ele>138</ele>
        <time>2021-12-08T15:26:52.284Z</time>
      </trkpt>
      <trkpt lat="48.36349" lon="2.69158">
        <ele>138</ele>
        <time>2021-12-08T15:26:57.405Z</time>
      </trkpt>
      <trkpt lat="48.36347" lon="2.69148">
        <ele>137</ele>
        <time>2021-12-08T15:27:02.274Z</time>
      </trkpt>
      <trkpt lat="48.36343" lon="2.69141">
        <ele>137</ele>
        <time>2021-12-08T15:27:07.280Z</time>
      </trkpt>
      <trkpt lat="48.36342" lon="2.69132">
        <ele>137</ele>
        <time>2021-12-08T15:27:12.269Z</time>
      </trkpt>
      <trkpt lat="48.36345" lon="2.69123">
        <ele>137</ele>
        <time>2021-12-08T15:27:17.272Z</time>
      </trkpt>
      <trkpt lat="48.36348" lon="2.69115">
        <ele>136</ele>
        <time>2021-12-08T15:27:22.299Z</time>
      </trkpt>
      <trkpt lat="48.36352" lon="2.69106">
        <ele>136</ele>
        <time>2021-12-08T15:27:27.280Z</time>
      </trkpt>
      <trkpt lat="48.36356" lon="2.69097">
        <ele>135</ele>
        <time>2021-12-08T15:27:32.299Z</time>
      </trkpt>
      <trkpt lat="48.36359" lon="2.69089">
        <ele>135</ele>
        <time>2021-12-08T15:27:37.281Z</time>
      </trkpt>
      <trkpt lat="48.36362" lon="2.69082">
        <ele>135</ele>
        <time>2021-12-08T15:27:42.286Z</time>
      </trkpt>
      <trkpt lat="48.36366" lon="2.69073">
        <ele>135</ele>
        <time>2021-12-08T15:27:47.287Z</time>
      </trkpt>
      <trkpt lat="48.36369" lon="2.69065">
        <ele>135</ele>
        <time>2021-12-08T15:27:52.285Z</time>
      </trkpt>
      <trkpt lat="48.36373" lon="2.69057">
        <ele>135</ele>
        <time>2021-12-08T15:27:57.285Z</time>
      </trkpt>
      <trkpt lat="48.36376" lon="2.69049">
        <ele>134</ele>
        <time>2021-12-08T15:28:02.288Z</time>
      </trkpt>
      <trkpt lat="48.36379" lon="2.69041">
        <ele>134</ele>
        <time>2021-12-08T15:28:07.282Z</time>
      </trkpt>
      <trkpt lat="48.36382" lon="2.69035">
        <ele>134</ele>
        <time>2021-12-08T15:28:11.282Z</time>
      </trkpt>
      <trkpt lat="48.36385" lon="2.69027">
        <ele>134</ele>
        <time>2021-12-08T15:28:16.277Z</time>
      </trkpt>
      <trkpt lat="48.36387" lon="2.6902">
        <ele>134</ele>
        <time>2021-12-08T15:28:20.290Z</time>
      </trkpt>
      <trkpt lat="48.36389" lon="2.69011">
        <ele>134</ele>
        <time>2021-12-08T15:28:25.282Z</time>
      </trkpt>
      <trkpt lat="48.36393" lon="2.69002">
        <ele>134</ele>
        <time>2021-12-08T15:28:30.286Z</time>
      </trkpt>
      <trkpt lat="48.36398" lon="2.68994">
        <ele>134</ele>
        <time>2021-12-08T15:28:35.284Z</time>
      </trkpt>
      <trkpt lat="48.36401" lon="2.68985">
        <ele>134</ele>
        <time>2021-12-08T15:28:40.281Z</time>
      </trkpt>
      <trkpt lat="48.36405" lon="2.68976">
        <ele>135</ele>
        <time>2021-12-08T15:28:45.272Z</time>
      </trkpt>
      <trkpt lat="48.36408" lon="2.6897">
        <ele>135</ele>
        <time>2021-12-08T15:28:49.277Z</time>
      </trkpt>
      <trkpt lat="48.3641" lon="2.68963">
        <ele>135</ele>
        <time>2021-12-08T15:28:53.284Z</time>
      </trkpt>
      <trkpt lat="48.36414" lon="2.68955">
        <ele>136</ele>
        <time>2021-12-08T15:28:58.273Z</time>
      </trkpt>
      <trkpt lat="48.36417" lon="2.68949">
        <ele>136</ele>
        <time>2021-12-08T15:29:02.283Z</time>
      </trkpt>
      <trkpt lat="48.36421" lon="2.68941">
        <ele>136</ele>
        <time>2021-12-08T15:29:07.287Z</time>
      </trkpt>
      <trkpt lat="48.36424" lon="2.68935">
        <ele>136</ele>
        <time>2021-12-08T15:29:11.286Z</time>
      </trkpt>
      <trkpt lat="48.36427" lon="2.68928">
        <ele>136</ele>
        <time>2021-12-08T15:29:16.274Z</time>
      </trkpt>
      <trkpt lat="48.36431" lon="2.6892">
        <ele>138</ele>
        <time>2021-12-08T15:29:21.270Z</time>
      </trkpt>
      <trkpt lat="48.36434" lon="2.68915">
        <ele>138</ele>
        <time>2021-12-08T15:29:25.279Z</time>
      </trkpt>
      <trkpt lat="48.36436" lon="2.68905">
        <ele>138</ele>
        <time>2021-12-08T15:29:29.281Z</time>
      </trkpt>
      <trkpt lat="48.36439" lon="2.68895">
        <ele>138</ele>
        <time>2021-12-08T15:29:34.271Z</time>
      </trkpt>
      <trkpt lat="48.36441" lon="2.68887">
        <ele>138</ele>
        <time>2021-12-08T15:29:38.281Z</time>
      </trkpt>
      <trkpt lat="48.36446" lon="2.6888">
        <ele>138</ele>
        <time>2021-12-08T15:29:43.284Z</time>
      </trkpt>
      <trkpt lat="48.3645" lon="2.68872">
        <ele>137</ele>
        <time>2021-12-08T15:29:48.283Z</time>
      </trkpt>
      <trkpt lat="48.36453" lon="2.68863">
        <ele>137</ele>
        <time>2021-12-08T15:29:53.283Z</time>
      </trkpt>
      <trkpt lat="48.36456" lon="2.68856">
        <ele>137</ele>
        <time>2021-12-08T15:29:57.278Z</time>
      </trkpt>
      <trkpt lat="48.36459" lon="2.68848">
        <ele>138</ele>
        <time>2021-12-08T15:30:02.289Z</time>
      </trkpt>
      <trkpt lat="48.36463" lon="2.68839">
        <ele>137</ele>
        <time>2021-12-08T15:30:07.283Z</time>
      </trkpt>
      <trkpt lat="48.36466" lon="2.68833">
        <ele>137</ele>
        <time>2021-12-08T15:30:12.280Z</time>
      </trkpt>
      <trkpt lat="48.3647" lon="2.68831">
        <ele>137</ele>
        <time>2021-12-08T15:30:16.299Z</time>
      </trkpt>
      <trkpt lat="48.36473" lon="2.68827">
        <ele>137</ele>
        <time>2021-12-08T15:30:21.381Z</time>
      </trkpt>
      <trkpt lat="48.36478" lon="2.68823">
        <ele>137</ele>
        <time>2021-12-08T15:30:26.283Z</time>
      </trkpt>
      <trkpt lat="48.36483" lon="2.6882">
        <ele>137</ele>
        <time>2021-12-08T15:30:31.278Z</time>
      </trkpt>
      <trkpt lat="48.36487" lon="2.68816">
        <ele>134</ele>
        <time>2021-12-08T15:30:36.283Z</time>
      </trkpt>
      <trkpt lat="48.36492" lon="2.68809">
        <ele>134</ele>
        <time>2021-12-08T15:30:41.276Z</time>
      </trkpt>
      <trkpt lat="48.36497" lon="2.68806">
        <ele>134</ele>
        <time>2021-12-08T15:30:46.293Z</time>
      </trkpt>
      <trkpt lat="48.365" lon="2.68806">
        <ele>134</ele>
        <time>2021-12-08T15:30:51.280Z</time>
      </trkpt>
      <trkpt lat="48.36505" lon="2.68806">
        <ele>134</ele>
        <time>2021-12-08T15:30:55.293Z</time>
      </trkpt>
      <trkpt lat="48.36511" lon="2.68801">
        <ele>134</ele>
        <time>2021-12-08T15:31:00.291Z</time>
      </trkpt>
      <trkpt lat="48.36516" lon="2.68798">
        <ele>133</ele>
        <time>2021-12-08T15:31:04.286Z</time>
      </trkpt>
      <trkpt lat="48.36523" lon="2.68794">
        <ele>133</ele>
        <time>2021-12-08T15:31:09.278Z</time>
      </trkpt>
      <trkpt lat="48.36529" lon="2.68791">
        <ele>132</ele>
        <time>2021-12-08T15:31:14.284Z</time>
      </trkpt>
      <trkpt lat="48.36535" lon="2.68787">
        <ele>132</ele>
        <time>2021-12-08T15:31:19.278Z</time>
      </trkpt>
      <trkpt lat="48.36541" lon="2.68783">
        <ele>132</ele>
        <time>2021-12-08T15:31:24.280Z</time>
      </trkpt>
      <trkpt lat="48.36546" lon="2.6878">
        <ele>133</ele>
        <time>2021-12-08T15:31:29.272Z</time>
      </trkpt>
      <trkpt lat="48.36552" lon="2.68777">
        <ele>133</ele>
        <time>2021-12-08T15:31:33.276Z</time>
      </trkpt>
      <trkpt lat="48.36559" lon="2.68774">
        <ele>133</ele>
        <time>2021-12-08T15:31:38.286Z</time>
      </trkpt>
      <trkpt lat="48.36564" lon="2.68771">
        <ele>133</ele>
        <time>2021-12-08T15:31:42.283Z</time>
      </trkpt>
      <trkpt lat="48.36571" lon="2.68764">
        <ele>133</ele>
        <time>2021-12-08T15:31:47.274Z</time>
      </trkpt>
      <trkpt lat="48.36578" lon="2.68759">
        <ele>132</ele>
        <time>2021-12-08T15:31:52.280Z</time>
      </trkpt>
      <trkpt lat="48.36584" lon="2.68754">
        <ele>132</ele>
        <time>2021-12-08T15:31:57.269Z</time>
      </trkpt>
      <trkpt lat="48.36589" lon="2.68751">
        <ele>132</ele>
        <time>2021-12-08T15:32:01.274Z</time>
      </trkpt>
      <trkpt lat="48.36596" lon="2.68745">
        <ele>132</ele>
        <time>2021-12-08T15:32:06.283Z</time>
      </trkpt>
      <trkpt lat="48.366" lon="2.6874">
        <ele>132</ele>
        <time>2021-12-08T15:32:10.321Z</time>
      </trkpt>
      <trkpt lat="48.36607" lon="2.68735">
        <ele>132</ele>
        <time>2021-12-08T15:32:15.278Z</time>
      </trkpt>
      <trkpt lat="48.36613" lon="2.68729">
        <ele>132</ele>
        <time>2021-12-08T15:32:20.281Z</time>
      </trkpt>
      <trkpt lat="48.36618" lon="2.68723">
        <ele>132</ele>
        <time>2021-12-08T15:32:25.280Z</time>
      </trkpt>
      <trkpt lat="48.36623" lon="2.68717">
        <ele>132</ele>
        <time>2021-12-08T15:32:29.288Z</time>
      </trkpt>
      <trkpt lat="48.36627" lon="2.68709">
        <ele>134</ele>
        <time>2021-12-08T15:32:34.282Z</time>
      </trkpt>
      <trkpt lat="48.36631" lon="2.68703">
        <ele>135</ele>
        <time>2021-12-08T15:32:38.289Z</time>
      </trkpt>
      <trkpt lat="48.36636" lon="2.68698">
        <ele>135</ele>
        <time>2021-12-08T15:32:43.282Z</time>
      </trkpt>
      <trkpt lat="48.36642" lon="2.68691">
        <ele>135</ele>
        <time>2021-12-08T15:32:48.296Z</time>
      </trkpt>
      <trkpt lat="48.36648" lon="2.68685">
        <ele>135</ele>
        <time>2021-12-08T15:32:53.285Z</time>
      </trkpt>
      <trkpt lat="48.36653" lon="2.68681">
        <ele>136</ele>
        <time>2021-12-08T15:32:57.288Z</time>
      </trkpt>
      <trkpt lat="48.36659" lon="2.68675">
        <ele>135</ele>
        <time>2021-12-08T15:33:02.283Z</time>
      </trkpt>
      <trkpt lat="48.36665" lon="2.68668">
        <ele>135</ele>
        <time>2021-12-08T15:33:07.297Z</time>
      </trkpt>
      <trkpt lat="48.3667" lon="2.68661">
        <ele>135</ele>
        <time>2021-12-08T15:33:12.288Z</time>
      </trkpt>
      <trkpt lat="48.36676" lon="2.68655">
        <ele>135</ele>
        <time>2021-12-08T15:33:17.288Z</time>
      </trkpt>
      <trkpt lat="48.3668" lon="2.68651">
        <ele>135</ele>
        <time>2021-12-08T15:33:21.392Z</time>
      </trkpt>
      <trkpt lat="48.36686" lon="2.68647">
        <ele>133</ele>
        <time>2021-12-08T15:33:26.275Z</time>
      </trkpt>
      <trkpt lat="48.36691" lon="2.68641">
        <ele>133</ele>
        <time>2021-12-08T15:33:31.283Z</time>
      </trkpt>
      <trkpt lat="48.36697" lon="2.68637">
        <ele>133</ele>
        <time>2021-12-08T15:33:36.275Z</time>
      </trkpt>
      <trkpt lat="48.36702" lon="2.6863">
        <ele>133</ele>
        <time>2021-12-08T15:33:41.279Z</time>
      </trkpt>
      <trkpt lat="48.36707" lon="2.68626">
        <ele>133</ele>
        <time>2021-12-08T15:33:45.286Z</time>
      </trkpt>
      <trkpt lat="48.36713" lon="2.6862">
        <ele>131</ele>
        <time>2021-12-08T15:33:50.281Z</time>
      </trkpt>
      <trkpt lat="48.36717" lon="2.68616">
        <ele>131</ele>
        <time>2021-12-08T15:33:54.283Z</time>
      </trkpt>
      <trkpt lat="48.36724" lon="2.68611">
        <ele>131</ele>
        <time>2021-12-08T15:33:59.283Z</time>
      </trkpt>
      <trkpt lat="48.36729" lon="2.68606">
        <ele>131</ele>
        <time>2021-12-08T15:34:04.284Z</time>
      </trkpt>
      <trkpt lat="48.36734" lon="2.68602">
        <ele>131</ele>
        <time>2021-12-08T15:34:08.286Z</time>
      </trkpt>
      <trkpt lat="48.3674" lon="2.68594">
        <ele>132</ele>
        <time>2021-12-08T15:34:13.288Z</time>
      </trkpt>
      <trkpt lat="48.36746" lon="2.6859">
        <ele>132</ele>
        <time>2021-12-08T15:34:18.287Z</time>
      </trkpt>
      <trkpt lat="48.36751" lon="2.68584">
        <ele>132</ele>
        <time>2021-12-08T15:34:23.282Z</time>
      </trkpt>
      <trkpt lat="48.36756" lon="2.68582">
        <ele>132</ele>
        <time>2021-12-08T15:34:27.284Z</time>
      </trkpt>
      <trkpt lat="48.36759" lon="2.68578">
        <ele>132</ele>
        <time>2021-12-08T15:34:31.290Z</time>
      </trkpt>
      <trkpt lat="48.36765" lon="2.68572">
        <ele>131</ele>
        <time>2021-12-08T15:34:36.282Z</time>
      </trkpt>
      <trkpt lat="48.36769" lon="2.68567">
        <ele>130</ele>
        <time>2021-12-08T15:34:40.276Z</time>
      </trkpt>
      <trkpt lat="48.36773" lon="2.68563">
        <ele>130</ele>
        <time>2021-12-08T15:34:44.294Z</time>
      </trkpt>
      <trkpt lat="48.36783" lon="2.68559">
        <ele>130</ele>
        <time>2021-12-08T15:35:21.277Z</time>
      </trkpt>
      <trkpt lat="48.36787" lon="2.68555">
        <ele>130</ele>
        <time>2021-12-08T15:35:25.277Z</time>
      </trkpt>
      <trkpt lat="48.3679" lon="2.6855">
        <ele>130</ele>
        <time>2021-12-08T15:35:29.285Z</time>
      </trkpt>
      <trkpt lat="48.36794" lon="2.68544">
        <ele>129</ele>
        <time>2021-12-08T15:35:33.280Z</time>
      </trkpt>
      <trkpt lat="48.36797" lon="2.68539">
        <ele>126</ele>
        <time>2021-12-08T15:35:37.286Z</time>
      </trkpt>
      <trkpt lat="48.36801" lon="2.68533">
        <ele>126</ele>
        <time>2021-12-08T15:35:42.287Z</time>
      </trkpt>
      <trkpt lat="48.36805" lon="2.68527">
        <ele>126</ele>
        <time>2021-12-08T15:35:46.303Z</time>
      </trkpt>
      <trkpt lat="48.36808" lon="2.68518">
        <ele>126</ele>
        <time>2021-12-08T15:35:51.287Z</time>
      </trkpt>
      <trkpt lat="48.36811" lon="2.68512">
        <ele>123</ele>
        <time>2021-12-08T15:35:55.284Z</time>
      </trkpt>
      <trkpt lat="48.36815" lon="2.68505">
        <ele>123</ele>
        <time>2021-12-08T15:36:00.284Z</time>
      </trkpt>
      <trkpt lat="48.36818" lon="2.68498">
        <ele>123</ele>
        <time>2021-12-08T15:36:05.284Z</time>
      </trkpt>
      <trkpt lat="48.36821" lon="2.68492">
        <ele>125</ele>
        <time>2021-12-08T15:36:09.308Z</time>
      </trkpt>
      <trkpt lat="48.36824" lon="2.68484">
        <ele>121</ele>
        <time>2021-12-08T15:36:14.276Z</time>
      </trkpt>
      <trkpt lat="48.36827" lon="2.68478">
        <ele>121</ele>
        <time>2021-12-08T15:36:19.289Z</time>
      </trkpt>
      <trkpt lat="48.36831" lon="2.68471">
        <ele>121</ele>
        <time>2021-12-08T15:36:24.296Z</time>
      </trkpt>
      <trkpt lat="48.36834" lon="2.6846">
        <ele>121</ele>
        <time>2021-12-08T15:36:29.286Z</time>
      </trkpt>
      <trkpt lat="48.36837" lon="2.68453">
        <ele>119</ele>
        <time>2021-12-08T15:36:34.281Z</time>
      </trkpt>
      <trkpt lat="48.36841" lon="2.68446">
        <ele>119</ele>
        <time>2021-12-08T15:36:38.288Z</time>
      </trkpt>
      <trkpt lat="48.36845" lon="2.68439">
        <ele>119</ele>
        <time>2021-12-08T15:36:43.277Z</time>
      </trkpt>
      <trkpt lat="48.3685" lon="2.68432">
        <ele>121</ele>
        <time>2021-12-08T15:36:48.275Z</time>
      </trkpt>
      <trkpt lat="48.36853" lon="2.68427">
        <ele>118</ele>
        <time>2021-12-08T15:36:52.273Z</time>
      </trkpt>
      <trkpt lat="48.36857" lon="2.68423">
        <ele>118</ele>
        <time>2021-12-08T15:36:56.285Z</time>
      </trkpt>
      <trkpt lat="48.36862" lon="2.68417">
        <ele>118</ele>
        <time>2021-12-08T15:37:01.283Z</time>
      </trkpt>
      <trkpt lat="48.36866" lon="2.68411">
        <ele>118</ele>
        <time>2021-12-08T15:37:06.277Z</time>
      </trkpt>
      <trkpt lat="48.3687" lon="2.68404">
        <ele>118</ele>
        <time>2021-12-08T15:37:10.283Z</time>
      </trkpt>
      <trkpt lat="48.36876" lon="2.68398">
        <ele>119</ele>
        <time>2021-12-08T15:37:15.282Z</time>
      </trkpt>
      <trkpt lat="48.36881" lon="2.68393">
        <ele>119</ele>
        <time>2021-12-08T15:37:20.278Z</time>
      </trkpt>
      <trkpt lat="48.36885" lon="2.68388">
        <ele>119</ele>
        <time>2021-12-08T15:37:24.280Z</time>
      </trkpt>
      <trkpt lat="48.3689" lon="2.68383">
        <ele>119</ele>
        <time>2021-12-08T15:37:29.286Z</time>
      </trkpt>
      <trkpt lat="48.36895" lon="2.68377">
        <ele>119</ele>
        <time>2021-12-08T15:37:34.294Z</time>
      </trkpt>
      <trkpt lat="48.36899" lon="2.68371">
        <ele>117</ele>
        <time>2021-12-08T15:37:38.299Z</time>
      </trkpt>
      <trkpt lat="48.36905" lon="2.68364">
        <ele>120</ele>
        <time>2021-12-08T15:37:43.286Z</time>
      </trkpt>
      <trkpt lat="48.36911" lon="2.68357">
        <ele>120</ele>
        <time>2021-12-08T15:37:48.288Z</time>
      </trkpt>
      <trkpt lat="48.36916" lon="2.6835">
        <ele>120</ele>
        <time>2021-12-08T15:37:53.294Z</time>
      </trkpt>
      <trkpt lat="48.36922" lon="2.68342">
        <ele>118</ele>
        <time>2021-12-08T15:37:58.286Z</time>
      </trkpt>
      <trkpt lat="48.36927" lon="2.68335">
        <ele>118</ele>
        <time>2021-12-08T15:38:03.280Z</time>
      </trkpt>
      <trkpt lat="48.3693" lon="2.68329">
        <ele>118</ele>
        <time>2021-12-08T15:38:07.287Z</time>
      </trkpt>
      <trkpt lat="48.36936" lon="2.68322">
        <ele>120</ele>
        <time>2021-12-08T15:38:12.286Z</time>
      </trkpt>
      <trkpt lat="48.36941" lon="2.68319">
        <ele>119</ele>
        <time>2021-12-08T15:38:16.289Z</time>
      </trkpt>
      <trkpt lat="48.36946" lon="2.68312">
        <ele>119</ele>
        <time>2021-12-08T15:38:21.285Z</time>
      </trkpt>
      <trkpt lat="48.36951" lon="2.68308">
        <ele>119</ele>
        <time>2021-12-08T15:38:26.284Z</time>
      </trkpt>
      <trkpt lat="48.36956" lon="2.68304">
        <ele>119</ele>
        <time>2021-12-08T15:38:30.294Z</time>
      </trkpt>
      <trkpt lat="48.36961" lon="2.68297">
        <ele>118</ele>
        <time>2021-12-08T15:38:35.274Z</time>
      </trkpt>
      <trkpt lat="48.36966" lon="2.68294">
        <ele>118</ele>
        <time>2021-12-08T15:38:39.284Z</time>
      </trkpt>
      <trkpt lat="48.36971" lon="2.68289">
        <ele>116</ele>
        <time>2021-12-08T15:38:44.300Z</time>
      </trkpt>
      <trkpt lat="48.36977" lon="2.68284">
        <ele>116</ele>
        <time>2021-12-08T15:38:49.285Z</time>
      </trkpt>
      <trkpt lat="48.36983" lon="2.68281">
        <ele>116</ele>
        <time>2021-12-08T15:38:54.278Z</time>
      </trkpt>
      <trkpt lat="48.36989" lon="2.68276">
        <ele>115</ele>
        <time>2021-12-08T15:38:59.301Z</time>
      </trkpt>
      <trkpt lat="48.36995" lon="2.68273">
        <ele>115</ele>
        <time>2021-12-08T15:39:04.283Z</time>
      </trkpt>
      <trkpt lat="48.37001" lon="2.68271">
        <ele>115</ele>
        <time>2021-12-08T15:39:08.286Z</time>
      </trkpt>
      <trkpt lat="48.37007" lon="2.68271">
        <ele>115</ele>
        <time>2021-12-08T15:39:13.286Z</time>
      </trkpt>
      <trkpt lat="48.37013" lon="2.68271">
        <ele>115</ele>
        <time>2021-12-08T15:39:18.280Z</time>
      </trkpt>
      <trkpt lat="48.37019" lon="2.68272">
        <ele>115</ele>
        <time>2021-12-08T15:39:23.276Z</time>
      </trkpt>
      <trkpt lat="48.37024" lon="2.68269">
        <ele>115</ele>
        <time>2021-12-08T15:39:27.286Z</time>
      </trkpt>
      <trkpt lat="48.3703" lon="2.68263">
        <ele>114</ele>
        <time>2021-12-08T15:39:32.286Z</time>
      </trkpt>
      <trkpt lat="48.37037" lon="2.68254">
        <ele>114</ele>
        <time>2021-12-08T15:39:37.285Z</time>
      </trkpt>
      <trkpt lat="48.37041" lon="2.68248">
        <ele>114</ele>
        <time>2021-12-08T15:39:41.281Z</time>
      </trkpt>
      <trkpt lat="48.37044" lon="2.68241">
        <ele>114</ele>
        <time>2021-12-08T15:39:45.285Z</time>
      </trkpt>
      <trkpt lat="48.37048" lon="2.68232">
        <ele>113</ele>
        <time>2021-12-08T15:39:50.281Z</time>
      </trkpt>
      <trkpt lat="48.3705" lon="2.68224">
        <ele>113</ele>
        <time>2021-12-08T15:39:55.272Z</time>
      </trkpt>
      <trkpt lat="48.37051" lon="2.68217">
        <ele>113</ele>
        <time>2021-12-08T15:39:59.282Z</time>
      </trkpt>
      <trkpt lat="48.37052" lon="2.6821">
        <ele>113</ele>
        <time>2021-12-08T15:40:03.293Z</time>
      </trkpt>
      <trkpt lat="48.37054" lon="2.68201">
        <ele>112</ele>
        <time>2021-12-08T15:40:08.286Z</time>
      </trkpt>
      <trkpt lat="48.37058" lon="2.68195">
        <ele>112</ele>
        <time>2021-12-08T15:40:13.282Z</time>
      </trkpt>
      <trkpt lat="48.37062" lon="2.68191">
        <ele>112</ele>
        <time>2021-12-08T15:40:17.290Z</time>
      </trkpt>
      <trkpt lat="48.37065" lon="2.68184">
        <ele>112</ele>
        <time>2021-12-08T15:40:22.294Z</time>
      </trkpt>
      <trkpt lat="48.37069" lon="2.68176">
        <ele>110</ele>
        <time>2021-12-08T15:40:27.288Z</time>
      </trkpt>
      <trkpt lat="48.3707" lon="2.68167">
        <ele>110</ele>
        <time>2021-12-08T15:40:31.285Z</time>
      </trkpt>
      <trkpt lat="48.37074" lon="2.68159">
        <ele>110</ele>
        <time>2021-12-08T15:40:36.276Z</time>
      </trkpt>
      <trkpt lat="48.37077" lon="2.68153">
        <ele>108</ele>
        <time>2021-12-08T15:40:40.284Z</time>
      </trkpt>
      <trkpt lat="48.37081" lon="2.68147">
        <ele>108</ele>
        <time>2021-12-08T15:40:45.283Z</time>
      </trkpt>
      <trkpt lat="48.37087" lon="2.68142">
        <ele>108</ele>
        <time>2021-12-08T15:40:50.273Z</time>
      </trkpt>
      <trkpt lat="48.37091" lon="2.68137">
        <ele>108</ele>
        <time>2021-12-08T15:40:54.277Z</time>
      </trkpt>
      <trkpt lat="48.37094" lon="2.68132">
        <ele>108</ele>
        <time>2021-12-08T15:40:58.290Z</time>
      </trkpt>
      <trkpt lat="48.37099" lon="2.68123">
        <ele>103</ele>
        <time>2021-12-08T15:41:03.276Z</time>
      </trkpt>
      <trkpt lat="48.37103" lon="2.68115">
        <ele>103</ele>
        <time>2021-12-08T15:41:07.274Z</time>
      </trkpt>
      <trkpt lat="48.37109" lon="2.68105">
        <ele>103</ele>
        <time>2021-12-08T15:41:12.320Z</time>
      </trkpt>
      <trkpt lat="48.37115" lon="2.681">
        <ele>103</ele>
        <time>2021-12-08T15:41:17.283Z</time>
      </trkpt>
      <trkpt lat="48.37122" lon="2.68096">
        <ele>99</ele>
        <time>2021-12-08T15:41:22.286Z</time>
      </trkpt>
      <trkpt lat="48.37124" lon="2.68096">
        <ele>99</ele>
        <time>2021-12-08T15:41:27.285Z</time>
      </trkpt>
      <trkpt lat="48.37127" lon="2.68095">
        <ele>100</ele>
        <time>2021-12-08T15:41:31.298Z</time>
      </trkpt>
      <trkpt lat="48.37133" lon="2.6809">
        <ele>100</ele>
        <time>2021-12-08T15:41:36.289Z</time>
      </trkpt>
      <trkpt lat="48.37139" lon="2.68087">
        <ele>100</ele>
        <time>2021-12-08T15:41:41.288Z</time>
      </trkpt>
      <trkpt lat="48.37144" lon="2.68087">
        <ele>100</ele>
        <time>2021-12-08T15:41:45.321Z</time>
      </trkpt>
      <trkpt lat="48.3715" lon="2.68084">
        <ele>100</ele>
        <time>2021-12-08T15:41:50.292Z</time>
      </trkpt>
      <trkpt lat="48.37155" lon="2.68082">
        <ele>100</ele>
        <time>2021-12-08T15:41:54.290Z</time>
      </trkpt>
      <trkpt lat="48.3716" lon="2.68079">
        <ele>100</ele>
        <time>2021-12-08T15:41:59.289Z</time>
      </trkpt>
      <trkpt lat="48.37166" lon="2.68076">
        <ele>100</ele>
        <time>2021-12-08T15:42:04.290Z</time>
      </trkpt>
      <trkpt lat="48.37171" lon="2.68075">
        <ele>100</ele>
        <time>2021-12-08T15:42:08.289Z</time>
      </trkpt>
      <trkpt lat="48.37177" lon="2.68072">
        <ele>100</ele>
        <time>2021-12-08T15:42:13.289Z</time>
      </trkpt>
      <trkpt lat="48.37184" lon="2.68068">
        <ele>101</ele>
        <time>2021-12-08T15:42:18.277Z</time>
      </trkpt>
      <trkpt lat="48.37191" lon="2.68065">
        <ele>101</ele>
        <time>2021-12-08T15:42:23.278Z</time>
      </trkpt>
      <trkpt lat="48.37198" lon="2.68061">
        <ele>101</ele>
        <time>2021-12-08T15:42:28.275Z</time>
      </trkpt>
      <trkpt lat="48.37204" lon="2.68059">
        <ele>101</ele>
        <time>2021-12-08T15:42:32.286Z</time>
      </trkpt>
      <trkpt lat="48.37211" lon="2.68056">
        <ele>99</ele>
        <time>2021-12-08T15:42:37.284Z</time>
      </trkpt>
      <trkpt lat="48.37218" lon="2.68052">
        <ele>99</ele>
        <time>2021-12-08T15:42:42.284Z</time>
      </trkpt>
      <trkpt lat="48.37224" lon="2.68047">
        <ele>99</ele>
        <time>2021-12-08T15:42:47.285Z</time>
      </trkpt>
      <trkpt lat="48.37231" lon="2.68043">
        <ele>99</ele>
        <time>2021-12-08T15:42:52.284Z</time>
      </trkpt>
      <trkpt lat="48.37236" lon="2.68039">
        <ele>102</ele>
        <time>2021-12-08T15:42:56.288Z</time>
      </trkpt>
      <trkpt lat="48.37242" lon="2.68035">
        <ele>102</ele>
        <time>2021-12-08T15:43:01.289Z</time>
      </trkpt>
      <trkpt lat="48.37249" lon="2.68031">
        <ele>102</ele>
        <time>2021-12-08T15:43:06.288Z</time>
      </trkpt>
      <trkpt lat="48.37255" lon="2.68028">
        <ele>102</ele>
        <time>2021-12-08T15:43:11.289Z</time>
      </trkpt>
      <trkpt lat="48.37261" lon="2.68023">
        <ele>102</ele>
        <time>2021-12-08T15:43:16.288Z</time>
      </trkpt>
      <trkpt lat="48.37267" lon="2.68019">
        <ele>103</ele>
        <time>2021-12-08T15:43:21.286Z</time>
      </trkpt>
      <trkpt lat="48.37273" lon="2.68015">
        <ele>103</ele>
        <time>2021-12-08T15:43:26.289Z</time>
      </trkpt>
      <trkpt lat="48.37279" lon="2.68011">
        <ele>104</ele>
        <time>2021-12-08T15:43:31.282Z</time>
      </trkpt>
      <trkpt lat="48.37285" lon="2.68008">
        <ele>104</ele>
        <time>2021-12-08T15:43:36.288Z</time>
      </trkpt>
      <trkpt lat="48.37291" lon="2.68005">
        <ele>104</ele>
        <time>2021-12-08T15:43:41.282Z</time>
      </trkpt>
      <trkpt lat="48.37296" lon="2.68003">
        <ele>105</ele>
        <time>2021-12-08T15:43:45.285Z</time>
      </trkpt>
      <trkpt lat="48.373" lon="2.68004">
        <ele>105</ele>
        <time>2021-12-08T15:43:49.296Z</time>
      </trkpt>
      <trkpt lat="48.37307" lon="2.68003">
        <ele>105</ele>
        <time>2021-12-08T15:43:54.277Z</time>
      </trkpt>
      <trkpt lat="48.37312" lon="2.68003">
        <ele>105</ele>
        <time>2021-12-08T15:43:58.293Z</time>
      </trkpt>
      <trkpt lat="48.37318" lon="2.68005">
        <ele>105</ele>
        <time>2021-12-08T15:44:03.277Z</time>
      </trkpt>
      <trkpt lat="48.37322" lon="2.68008">
        <ele>106</ele>
        <time>2021-12-08T15:44:07.290Z</time>
      </trkpt>
      <trkpt lat="48.37327" lon="2.6801">
        <ele>106</ele>
        <time>2021-12-08T15:44:12.292Z</time>
      </trkpt>
      <trkpt lat="48.37332" lon="2.68015">
        <ele>107</ele>
        <time>2021-12-08T15:44:17.286Z</time>
      </trkpt>
      <trkpt lat="48.37335" lon="2.68021">
        <ele>107</ele>
        <time>2021-12-08T15:44:22.324Z</time>
      </trkpt>
      <trkpt lat="48.37338" lon="2.68028">
        <ele>107</ele>
        <time>2021-12-08T15:44:27.286Z</time>
      </trkpt>
      <trkpt lat="48.37341" lon="2.68034">
        <ele>107</ele>
        <time>2021-12-08T15:44:31.286Z</time>
      </trkpt>
      <trkpt lat="48.37342" lon="2.68041">
        <ele>107</ele>
        <time>2021-12-08T15:44:35.295Z</time>
      </trkpt>
      <trkpt lat="48.37347" lon="2.68046">
        <ele>109</ele>
        <time>2021-12-08T15:44:40.276Z</time>
      </trkpt>
      <trkpt lat="48.37353" lon="2.68049">
        <ele>109</ele>
        <time>2021-12-08T15:44:45.291Z</time>
      </trkpt>
      <trkpt lat="48.3736" lon="2.6805">
        <ele>109</ele>
        <time>2021-12-08T15:44:50.302Z</time>
      </trkpt>
      <trkpt lat="48.37368" lon="2.68051">
        <ele>109</ele>
        <time>2021-12-08T15:44:55.279Z</time>
      </trkpt>
      <trkpt lat="48.37374" lon="2.68051">
        <ele>109</ele>
        <time>2021-12-08T15:44:59.291Z</time>
      </trkpt>
      <trkpt lat="48.37383" lon="2.6805">
        <ele>106</ele>
        <time>2021-12-08T15:45:04.322Z</time>
      </trkpt>
      <trkpt lat="48.37391" lon="2.6805">
        <ele>106</ele>
        <time>2021-12-08T15:45:09.276Z</time>
      </trkpt>
      <trkpt lat="48.37398" lon="2.68049">
        <ele>106</ele>
        <time>2021-12-08T15:45:14.277Z</time>
      </trkpt>
      <trkpt lat="48.37406" lon="2.68049">
        <ele>102</ele>
        <time>2021-12-08T15:45:19.285Z</time>
      </trkpt>
      <trkpt lat="48.37413" lon="2.68047">
        <ele>102</ele>
        <time>2021-12-08T15:45:24.284Z</time>
      </trkpt>
      <trkpt lat="48.37418" lon="2.68047">
        <ele>102</ele>
        <time>2021-12-08T15:45:28.301Z</time>
      </trkpt>
      <trkpt lat="48.37424" lon="2.68052">
        <ele>102</ele>
        <time>2021-12-08T15:45:33.285Z</time>
      </trkpt>
      <trkpt lat="48.3743" lon="2.6805">
        <ele>102</ele>
        <time>2021-12-08T15:45:38.278Z</time>
      </trkpt>
      <trkpt lat="48.37435" lon="2.68049">
        <ele>100</ele>
        <time>2021-12-08T15:45:42.286Z</time>
      </trkpt>
      <trkpt lat="48.37441" lon="2.68047">
        <ele>100</ele>
        <time>2021-12-08T15:45:47.289Z</time>
      </trkpt>
      <trkpt lat="48.37447" lon="2.68047">
        <ele>100</ele>
        <time>2021-12-08T15:45:52.288Z</time>
      </trkpt>
      <trkpt lat="48.37454" lon="2.68046">
        <ele>100</ele>
        <time>2021-12-08T15:45:57.292Z</time>
      </trkpt>
      <trkpt lat="48.3746" lon="2.68045">
        <ele>100</ele>
        <time>2021-12-08T15:46:02.283Z</time>
      </trkpt>
      <trkpt lat="48.37466" lon="2.68045">
        <ele>100</ele>
        <time>2021-12-08T15:46:07.279Z</time>
      </trkpt>
      <trkpt lat="48.37472" lon="2.68046">
        <ele>100</ele>
        <time>2021-12-08T15:46:12.284Z</time>
      </trkpt>
      <trkpt lat="48.37476" lon="2.68047">
        <ele>100</ele>
        <time>2021-12-08T15:46:17.291Z</time>
      </trkpt>
      <trkpt lat="48.37476" lon="2.68048">
        <ele>100</ele>
        <time>2021-12-08T15:46:55.281Z</time>
      </trkpt>
      <trkpt lat="48.37476" lon="2.68048">
        <ele>100</ele>
        <time>2021-12-08T15:46:59.287Z</time>
      </trkpt>
      <trkpt lat="48.3748" lon="2.68046">
        <ele>100</ele>
        <time>2021-12-08T15:47:04.277Z</time>
      </trkpt>
      <trkpt lat="48.37485" lon="2.68047">
        <ele>100</ele>
        <time>2021-12-08T15:47:08.277Z</time>
      </trkpt>
      <trkpt lat="48.3749" lon="2.68049">
        <ele>99</ele>
        <time>2021-12-08T15:47:12.289Z</time>
      </trkpt>
      <trkpt lat="48.37496" lon="2.68049">
        <ele>99</ele>
        <time>2021-12-08T15:47:17.286Z</time>
      </trkpt>
      <trkpt lat="48.37501" lon="2.68049">
        <ele>99</ele>
        <time>2021-12-08T15:47:22.285Z</time>
      </trkpt>
      <trkpt lat="48.37507" lon="2.68049">
        <ele>99</ele>
        <time>2021-12-08T15:47:27.289Z</time>
      </trkpt>
      <trkpt lat="48.37513" lon="2.68049">
        <ele>99</ele>
        <time>2021-12-08T15:47:32.291Z</time>
      </trkpt>
      <trkpt lat="48.37519" lon="2.68051">
        <ele>97</ele>
        <time>2021-12-08T15:47:37.274Z</time>
      </trkpt>
      <trkpt lat="48.37523" lon="2.6805">
        <ele>97</ele>
        <time>2021-12-08T15:47:41.275Z</time>
      </trkpt>
      <trkpt lat="48.37527" lon="2.6805">
        <ele>97</ele>
        <time>2021-12-08T15:47:45.282Z</time>
      </trkpt>
      <trkpt lat="48.37532" lon="2.6805">
        <ele>97</ele>
        <time>2021-12-08T15:47:49.289Z</time>
      </trkpt>
      <trkpt lat="48.37538" lon="2.68048">
        <ele>97</ele>
        <time>2021-12-08T15:47:54.287Z</time>
      </trkpt>
      <trkpt lat="48.37546" lon="2.68049">
        <ele>96</ele>
        <time>2021-12-08T15:47:59.278Z</time>
      </trkpt>
      <trkpt lat="48.37551" lon="2.68049">
        <ele>96</ele>
        <time>2021-12-08T15:48:04.281Z</time>
      </trkpt>
      <trkpt lat="48.37556" lon="2.68049">
        <ele>96</ele>
        <time>2021-12-08T15:48:08.295Z</time>
      </trkpt>
      <trkpt lat="48.37563" lon="2.68048">
        <ele>96</ele>
        <time>2021-12-08T15:48:13.276Z</time>
      </trkpt>
      <trkpt lat="48.37567" lon="2.68047">
        <ele>96</ele>
        <time>2021-12-08T15:48:17.284Z</time>
      </trkpt>
      <trkpt lat="48.37572" lon="2.68047">
        <ele>97</ele>
        <time>2021-12-08T15:48:21.290Z</time>
      </trkpt>
      <trkpt lat="48.37578" lon="2.68047">
        <ele>97</ele>
        <time>2021-12-08T15:48:25.296Z</time>
      </trkpt>
      <trkpt lat="48.37584" lon="2.68046">
        <ele>97</ele>
        <time>2021-12-08T15:48:30.288Z</time>
      </trkpt>
      <trkpt lat="48.3759" lon="2.68046">
        <ele>97</ele>
        <time>2021-12-08T15:48:35.276Z</time>
      </trkpt>
      <trkpt lat="48.37595" lon="2.68047">
        <ele>97</ele>
        <time>2021-12-08T15:48:39.276Z</time>
      </trkpt>
      <trkpt lat="48.37601" lon="2.68047">
        <ele>98</ele>
        <time>2021-12-08T15:48:44.273Z</time>
      </trkpt>
      <trkpt lat="48.37606" lon="2.68046">
        <ele>98</ele>
        <time>2021-12-08T15:48:48.290Z</time>
      </trkpt>
      <trkpt lat="48.37612" lon="2.68046">
        <ele>98</ele>
        <time>2021-12-08T15:48:53.283Z</time>
      </trkpt>
      <trkpt lat="48.37618" lon="2.68046">
        <ele>98</ele>
        <time>2021-12-08T15:48:57.284Z</time>
      </trkpt>
      <trkpt lat="48.37624" lon="2.68046">
        <ele>98</ele>
        <time>2021-12-08T15:49:01.290Z</time>
      </trkpt>
      <trkpt lat="48.37631" lon="2.68047">
        <ele>98</ele>
        <time>2021-12-08T15:49:06.280Z</time>
      </trkpt>
      <trkpt lat="48.37637" lon="2.68049">
        <ele>98</ele>
        <time>2021-12-08T15:49:11.282Z</time>
      </trkpt>
      <trkpt lat="48.37643" lon="2.6805">
        <ele>98</ele>
        <time>2021-12-08T15:49:15.288Z</time>
      </trkpt>
      <trkpt lat="48.37649" lon="2.6805">
        <ele>98</ele>
        <time>2021-12-08T15:49:20.296Z</time>
      </trkpt>
      <trkpt lat="48.37656" lon="2.6805">
        <ele>97</ele>
        <time>2021-12-08T15:49:25.291Z</time>
      </trkpt>
      <trkpt lat="48.37663" lon="2.68049">
        <ele>97</ele>
        <time>2021-12-08T15:49:30.296Z</time>
      </trkpt>
      <trkpt lat="48.3767" lon="2.68049">
        <ele>97</ele>
        <time>2021-12-08T15:49:35.286Z</time>
      </trkpt>
      <trkpt lat="48.37677" lon="2.68047">
        <ele>97</ele>
        <time>2021-12-08T15:49:40.286Z</time>
      </trkpt>
      <trkpt lat="48.37683" lon="2.68043">
        <ele>96</ele>
        <time>2021-12-08T15:49:45.288Z</time>
      </trkpt>
      <trkpt lat="48.37688" lon="2.6804">
        <ele>98</ele>
        <time>2021-12-08T15:49:49.287Z</time>
      </trkpt>
      <trkpt lat="48.37695" lon="2.68035">
        <ele>98</ele>
        <time>2021-12-08T15:49:54.286Z</time>
      </trkpt>
      <trkpt lat="48.37699" lon="2.68031">
        <ele>98</ele>
        <time>2021-12-08T15:49:58.302Z</time>
      </trkpt>
      <trkpt lat="48.37704" lon="2.68028">
        <ele>98</ele>
        <time>2021-12-08T15:50:03.281Z</time>
      </trkpt>
      <trkpt lat="48.37709" lon="2.68025">
        <ele>99</ele>
        <time>2021-12-08T15:50:08.297Z</time>
      </trkpt>
      <trkpt lat="48.37713" lon="2.68021">
        <ele>99</ele>
        <time>2021-12-08T15:50:13.284Z</time>
      </trkpt>
      <trkpt lat="48.37717" lon="2.68016">
        <ele>99</ele>
        <time>2021-12-08T15:50:18.279Z</time>
      </trkpt>
      <trkpt lat="48.3772" lon="2.68007">
        <ele>99</ele>
        <time>2021-12-08T15:50:27.286Z</time>
      </trkpt>
      <trkpt lat="48.37719" lon="2.68004">
        <ele>99</ele>
        <time>2021-12-08T15:50:31.287Z</time>
      </trkpt>
      <trkpt lat="48.37719" lon="2.68004">
        <ele>99</ele>
        <time>2021-12-08T15:50:36.281Z</time>
      </trkpt>
      <trkpt lat="48.3772" lon="2.68001">
        <ele>99</ele>
        <time>2021-12-08T15:50:40.286Z</time>
      </trkpt>
      <trkpt lat="48.37721" lon="2.67996">
        <ele>99</ele>
        <time>2021-12-08T15:50:45.275Z</time>
      </trkpt>
      <trkpt lat="48.37722" lon="2.67989">
        <ele>99</ele>
        <time>2021-12-08T15:50:50.278Z</time>
      </trkpt>
      <trkpt lat="48.37722" lon="2.67982">
        <ele>99</ele>
        <time>2021-12-08T15:50:55.277Z</time>
      </trkpt>
      <trkpt lat="48.3772" lon="2.67976">
        <ele>99</ele>
        <time>2021-12-08T15:50:59.293Z</time>
      </trkpt>
      <trkpt lat="48.3772" lon="2.67969">
        <ele>99</ele>
        <time>2021-12-08T15:51:04.280Z</time>
      </trkpt>
      <trkpt lat="48.37735" lon="2.67972">
        <ele>99</ele>
        <time>2021-12-08T15:52:00.276Z</time>
      </trkpt>
      <trkpt lat="48.37737" lon="2.67968">
        <ele>101</ele>
        <time>2021-12-08T15:52:05.285Z</time>
      </trkpt>
      <trkpt lat="48.3774" lon="2.67962">
        <ele>101</ele>
        <time>2021-12-08T15:52:09.284Z</time>
      </trkpt>
      <trkpt lat="48.37742" lon="2.67957">
        <ele>102</ele>
        <time>2021-12-08T15:52:13.289Z</time>
      </trkpt>
      <trkpt lat="48.37747" lon="2.67951">
        <ele>102</ele>
        <time>2021-12-08T15:52:18.292Z</time>
      </trkpt>
      <trkpt lat="48.37751" lon="2.67954">
        <ele>102</ele>
        <time>2021-12-08T15:53:09.285Z</time>
      </trkpt>
      <trkpt lat="48.37746" lon="2.67955">
        <ele>102</ele>
        <time>2021-12-08T15:53:13.288Z</time>
      </trkpt>
      <trkpt lat="48.3774" lon="2.67961">
        <ele>101</ele>
        <time>2021-12-08T15:53:18.292Z</time>
      </trkpt>
      <trkpt lat="48.37736" lon="2.67964">
        <ele>101</ele>
        <time>2021-12-08T15:53:23.287Z</time>
      </trkpt>
      <trkpt lat="48.37736" lon="2.67965">
        <ele>101</ele>
        <time>2021-12-08T15:53:28.279Z</time>
      </trkpt>
    </trkseg>
  </trk>
</gpx>